<?xml version='1.0' encoding='UTF-8'?><gpx version="1.1" creator="JPX - https://github.com/jenetics/jpx" xmlns="http://www.topografix.com/GPX/1/1"><trk><trkseg><trkpt lat="45.80458861821889" lon="13.081523037403118"><ele>3.9999999999999996</ele><time>2026-04-04T09:09:51Z</time></trkpt><trkpt lat="45.80452799111139" lon="13.081475307277072"><ele>4.0</ele><time>2026-04-04T09:10:03Z</time></trkpt><trkpt lat="45.8044873673452" lon="13.081377500856306"><ele>4.0</ele><time>2026-04-04T09:10:11Z</time></trkpt><trkpt lat="45.80448261474769" lon="13.081275415050397"><ele>4.0</ele><time>2026-04-04T09:10:13Z</time></trkpt><trkpt lat="45.80444097843627" lon="13.08119225108026"><ele>3.9999999999999996</ele><time>2026-04-04T09:10:15Z</time></trkpt><trkpt lat="45.80437386718421" lon="13.081193665479162"><ele>4.0</ele><time>2026-04-04T09:10:17Z</time></trkpt><trkpt lat="45.80430360656647" lon="13.081281198171995"><ele>3.8000000000000003</ele><time>2026-04-04T09:10:20Z</time></trkpt><trkpt lat="45.80422511811458" lon="13.081320868597958"><ele>3.6000000000000005</ele><time>2026-04-04T09:10:22Z</time></trkpt><trkpt lat="45.80412788681236" lon="13.081356384354564"><ele>3.4</ele><time>2026-04-04T09:10:25Z</time></trkpt><trkpt lat="45.804066042624115" lon="13.081439622393082"><ele>3.2</ele><time>2026-04-04T09:10:28Z</time></trkpt><trkpt lat="45.8040393888981" lon="13.081561786071635"><ele>3.0</ele><time>2026-04-04T09:10:32Z</time></trkpt><trkpt lat="45.80412981053553" lon="13.081742245475338"><ele>2.8333333333333335</ele><time>2026-04-04T09:10:34Z</time></trkpt><trkpt lat="45.804187981127804" lon="13.081837688379608"><ele>2.6666666666666665</ele><time>2026-04-04T09:10:35Z</time></trkpt><trkpt lat="45.804127330616616" lon="13.081713572823192"><ele>2.5</ele><time>2026-04-04T09:10:36Z</time></trkpt><trkpt lat="45.804073177587426" lon="13.08178081012721"><ele>2.333333333333333</ele><time>2026-04-04T09:10:40Z</time></trkpt><trkpt lat="45.80402030547689" lon="13.081861283397162"><ele>2.1666666666666665</ele><time>2026-04-04T09:11:11Z</time></trkpt><trkpt lat="45.803950706217655" lon="13.08190929140201"><ele>2.0</ele><time>2026-04-04T09:11:13Z</time></trkpt><trkpt lat="45.8038565102484" lon="13.081952808913728"><ele>2.0</ele><time>2026-04-04T09:11:16Z</time></trkpt><trkpt lat="45.80376327133964" lon="13.08187595093279"><ele>2.0</ele><time>2026-04-04T09:11:18Z</time></trkpt><trkpt lat="45.80372283578536" lon="13.081763426724951"><ele>2.0</ele><time>2026-04-04T09:11:19Z</time></trkpt><trkpt lat="45.80368817955524" lon="13.081621865630371"><ele>2.0</ele><time>2026-04-04T09:11:20Z</time></trkpt><trkpt lat="45.803656858669825" lon="13.081486608243285"><ele>2.0</ele><time>2026-04-04T09:11:21Z</time></trkpt><trkpt lat="45.80363038480266" lon="13.081371720805798"><ele>1.9999999999999998</ele><time>2026-04-04T09:11:22Z</time></trkpt><trkpt lat="45.803604567658375" lon="13.081264106549595"><ele>2.0</ele><time>2026-04-04T09:11:23Z</time></trkpt><trkpt lat="45.80358437455678" lon="13.081164878744138"><ele>2.0</ele><time>2026-04-04T09:11:24Z</time></trkpt><trkpt lat="45.80356711542399" lon="13.081077321274414"><ele>2.0</ele><time>2026-04-04T09:11:25Z</time></trkpt><trkpt lat="45.80353628349702" lon="13.080926397031822"><ele>1.9999999999999998</ele><time>2026-04-04T09:11:27Z</time></trkpt><trkpt lat="45.803508305002794" lon="13.08079549868303"><ele>2.0</ele><time>2026-04-04T09:11:29Z</time></trkpt><trkpt lat="45.80348568171662" lon="13.080702522779895"><ele>1.9999999999999998</ele><time>2026-04-04T09:11:31Z</time></trkpt><trkpt lat="45.80346720471083" lon="13.080608765140786"><ele>2.0</ele><time>2026-04-04T09:11:34Z</time></trkpt><trkpt lat="45.80344242570232" lon="13.080480508922323"><ele>2.0</ele><time>2026-04-04T09:11:38Z</time></trkpt><trkpt lat="45.80341372891009" lon="13.080360961988099"><ele>2.0</ele><time>2026-04-04T09:11:39Z</time></trkpt><trkpt lat="45.803386959687494" lon="13.080231169564096"><ele>1.9999999999999998</ele><time>2026-04-04T09:11:40Z</time></trkpt><trkpt lat="45.803360209074626" lon="13.080092216386396"><ele>2.0</ele><time>2026-04-04T09:11:41Z</time></trkpt><trkpt lat="45.80332967953742" lon="13.079945873333333"><ele>2.0</ele><time>2026-04-04T09:11:42Z</time></trkpt><trkpt lat="45.80329780452058" lon="13.079793335586473"><ele>2.0</ele><time>2026-04-04T09:11:43Z</time></trkpt><trkpt lat="45.80326882244042" lon="13.07964208230925"><ele>2.0</ele><time>2026-04-04T09:11:44Z</time></trkpt><trkpt lat="45.803242851462805" lon="13.079513746506054"><ele>2.0</ele><time>2026-04-04T09:11:45Z</time></trkpt><trkpt lat="45.80321443824252" lon="13.079381585853172"><ele>2.0</ele><time>2026-04-04T09:11:46Z</time></trkpt><trkpt lat="45.80319325705081" lon="13.079232328983508"><ele>2.25</ele><time>2026-04-04T09:11:47Z</time></trkpt><trkpt lat="45.80318110228259" lon="13.079070196472745"><ele>2.5</ele><time>2026-04-04T09:11:48Z</time></trkpt><trkpt lat="45.803193486782504" lon="13.078897509753087"><ele>2.75</ele><time>2026-04-04T09:11:49Z</time></trkpt><trkpt lat="45.80317962252692" lon="13.07870857381549"><ele>3.0</ele><time>2026-04-04T09:11:50Z</time></trkpt><trkpt lat="45.803191801425484" lon="13.078519961031551"><ele>3.0</ele><time>2026-04-04T09:11:51Z</time></trkpt><trkpt lat="45.80319275395578" lon="13.078329904758823"><ele>3.0</ele><time>2026-04-04T09:11:52Z</time></trkpt><trkpt lat="45.803193820475066" lon="13.078136191262569"><ele>3.0</ele><time>2026-04-04T09:11:53Z</time></trkpt><trkpt lat="45.80319321640721" lon="13.077934971928467"><ele>3.0</ele><time>2026-04-04T09:11:54Z</time></trkpt><trkpt lat="45.80319207826484" lon="13.07772296644902"><ele>2.75</ele><time>2026-04-04T09:11:55Z</time></trkpt><trkpt lat="45.8031965676159" lon="13.07751610536989"><ele>2.5</ele><time>2026-04-04T09:11:56Z</time></trkpt><trkpt lat="45.80319577716587" lon="13.077299737426152"><ele>2.25</ele><time>2026-04-04T09:11:57Z</time></trkpt><trkpt lat="45.80319677686716" lon="13.077082746312906"><ele>2.0</ele><time>2026-04-04T09:11:58Z</time></trkpt><trkpt lat="45.80319592846323" lon="13.076870313461853"><ele>2.0</ele><time>2026-04-04T09:11:59Z</time></trkpt><trkpt lat="45.80320200049291" lon="13.07664969916408"><ele>2.0</ele><time>2026-04-04T09:12:00Z</time></trkpt><trkpt lat="45.80320469917329" lon="13.07643631511586"><ele>2.0</ele><time>2026-04-04T09:12:01Z</time></trkpt><trkpt lat="45.80320914542814" lon="13.076221703762462"><ele>2.0</ele><time>2026-04-04T09:12:02Z</time></trkpt><trkpt lat="45.80321415689164" lon="13.07601441762116"><ele>2.0</ele><time>2026-04-04T09:12:03Z</time></trkpt><trkpt lat="45.80322078935288" lon="13.075798873479412"><ele>2.0</ele><time>2026-04-04T09:12:04Z</time></trkpt><trkpt lat="45.803221282237004" lon="13.075587944631645"><ele>2.0</ele><time>2026-04-04T09:12:05Z</time></trkpt><trkpt lat="45.80322506727277" lon="13.075378086070227"><ele>1.75</ele><time>2026-04-04T09:12:06Z</time></trkpt><trkpt lat="45.80322438958225" lon="13.075169435919753"><ele>1.5</ele><time>2026-04-04T09:12:07Z</time></trkpt><trkpt lat="45.80322752949618" lon="13.074965760686087"><ele>1.25</ele><time>2026-04-04T09:12:08Z</time></trkpt><trkpt lat="45.8032460754228" lon="13.074750488856301"><ele>1.0</ele><time>2026-04-04T09:12:09Z</time></trkpt><trkpt lat="45.80325274996443" lon="13.074556861281483"><ele>1.0</ele><time>2026-04-04T09:12:10Z</time></trkpt><trkpt lat="45.803245630338814" lon="13.074365005653702"><ele>1.0</ele><time>2026-04-04T09:12:11Z</time></trkpt><trkpt lat="45.80324868179518" lon="13.074153567630216"><ele>1.0</ele><time>2026-04-04T09:12:12Z</time></trkpt><trkpt lat="45.8032488807647" lon="13.073947583796523"><ele>1.0</ele><time>2026-04-04T09:12:13Z</time></trkpt><trkpt lat="45.803252327952585" lon="13.073732098163624"><ele>1.0</ele><time>2026-04-04T09:12:14Z</time></trkpt><trkpt lat="45.803253111354145" lon="13.073516933288497"><ele>1.0</ele><time>2026-04-04T09:12:15Z</time></trkpt><trkpt lat="45.803252956881416" lon="13.073294049530688"><ele>1.0</ele><time>2026-04-04T09:12:16Z</time></trkpt><trkpt lat="45.80325527633098" lon="13.073070950410383"><ele>1.5</ele><time>2026-04-04T09:12:17Z</time></trkpt><trkpt lat="45.80322376002028" lon="13.072867599093188"><ele>2.0</ele><time>2026-04-04T09:12:18Z</time></trkpt><trkpt lat="45.80319805404579" lon="13.072652393533806"><ele>2.5</ele><time>2026-04-04T09:12:19Z</time></trkpt><trkpt lat="45.803170137705735" lon="13.072448087597309"><ele>3.0</ele><time>2026-04-04T09:12:20Z</time></trkpt><trkpt lat="45.80313231969619" lon="13.072248802136002"><ele>3.0</ele><time>2026-04-04T09:12:21Z</time></trkpt><trkpt lat="45.80308843057702" lon="13.072062213128842"><ele>3.0</ele><time>2026-04-04T09:12:22Z</time></trkpt><trkpt lat="45.803031893484665" lon="13.07189049503845"><ele>3.0</ele><time>2026-04-04T09:12:23Z</time></trkpt><trkpt lat="45.80297162474778" lon="13.071706372263705"><ele>3.0</ele><time>2026-04-04T09:12:24Z</time></trkpt><trkpt lat="45.80289600626691" lon="13.071528853847221"><ele>2.6666666666666665</ele><time>2026-04-04T09:12:25Z</time></trkpt><trkpt lat="45.802821478282915" lon="13.071341407487447"><ele>2.333333333333333</ele><time>2026-04-04T09:12:26Z</time></trkpt><trkpt lat="45.802748409237964" lon="13.071153840756567"><ele>2.0</ele><time>2026-04-04T09:12:27Z</time></trkpt><trkpt lat="45.80267782488067" lon="13.07096328016312"><ele>1.6666666666666665</ele><time>2026-04-04T09:12:28Z</time></trkpt><trkpt lat="45.80259358454332" lon="13.07075277445921"><ele>1.3333333333333333</ele><time>2026-04-04T09:12:29Z</time></trkpt><trkpt lat="45.80250439838489" lon="13.07051751446107"><ele>1.0</ele><time>2026-04-04T09:12:30Z</time></trkpt><trkpt lat="45.80243258020802" lon="13.070290262450667"><ele>1.0</ele><time>2026-04-04T09:12:31Z</time></trkpt><trkpt lat="45.80235465732488" lon="13.070080830954502"><ele>1.0</ele><time>2026-04-04T09:12:32Z</time></trkpt><trkpt lat="45.80227709994582" lon="13.069874286661577"><ele>1.0</ele><time>2026-04-04T09:12:33Z</time></trkpt><trkpt lat="45.80220013135501" lon="13.069672665075618"><ele>1.0</ele><time>2026-04-04T09:12:34Z</time></trkpt><trkpt lat="45.802120063915716" lon="13.069462925957838"><ele>1.0</ele><time>2026-04-04T09:12:35Z</time></trkpt><trkpt lat="45.802039987215345" lon="13.069253162579814"><ele>1.0</ele><time>2026-04-04T09:12:36Z</time></trkpt><trkpt lat="45.80195937623692" lon="13.069041999645451"><ele>1.3333333333333333</ele><time>2026-04-04T09:12:37Z</time></trkpt><trkpt lat="45.80188038448472" lon="13.068835079327489"><ele>1.6666666666666665</ele><time>2026-04-04T09:12:38Z</time></trkpt><trkpt lat="45.80180028347651" lon="13.068626830179229"><ele>2.0</ele><time>2026-04-04T09:12:39Z</time></trkpt><trkpt lat="45.80171474565029" lon="13.068407033247274"><ele>2.6666666666666665</ele><time>2026-04-04T09:12:40Z</time></trkpt><trkpt lat="45.8016319870272" lon="13.068194377704778"><ele>3.333333333333333</ele><time>2026-04-04T09:12:41Z</time></trkpt><trkpt lat="45.80155030810627" lon="13.067981881395479"><ele>4.0</ele><time>2026-04-04T09:12:42Z</time></trkpt><trkpt lat="45.80143767199457" lon="13.067788536339918"><ele>4.0</ele><time>2026-04-04T09:12:43Z</time></trkpt><trkpt lat="45.80136312585016" lon="13.067571568933513"><ele>4.0</ele><time>2026-04-04T09:12:44Z</time></trkpt><trkpt lat="45.80128023507732" lon="13.067367663717771"><ele>4.0</ele><time>2026-04-04T09:12:45Z</time></trkpt><trkpt lat="45.801200908840784" lon="13.067155874496638"><ele>3.0</ele><time>2026-04-04T09:12:46Z</time></trkpt><trkpt lat="45.801127664832926" lon="13.066937093707589"><ele>2.0</ele><time>2026-04-04T09:12:47Z</time></trkpt><trkpt lat="45.801065293651476" lon="13.066716910239094"><ele>1.0</ele><time>2026-04-04T09:12:48Z</time></trkpt><trkpt lat="45.801006290651515" lon="13.066492921495504"><ele>1.0</ele><time>2026-04-04T09:12:49Z</time></trkpt><trkpt lat="45.80095852273346" lon="13.066260684018205"><ele>1.0</ele><time>2026-04-04T09:12:50Z</time></trkpt><trkpt lat="45.80091309700309" lon="13.06602927516558"><ele>1.0</ele><time>2026-04-04T09:12:51Z</time></trkpt><trkpt lat="45.80086856281501" lon="13.065806378895289"><ele>0.3333333333333333</ele><time>2026-04-04T09:12:52Z</time></trkpt><trkpt lat="45.80082786777079" lon="13.065585176586948"><ele>-0.3333333333333333</ele><time>2026-04-04T09:12:53Z</time></trkpt><trkpt lat="45.80079047895417" lon="13.065370592018324"><ele>-1.0</ele><time>2026-04-04T09:12:54Z</time></trkpt><trkpt lat="45.800766288759824" lon="13.065146580563537"><ele>0.0</ele><time>2026-04-04T09:12:55Z</time></trkpt><trkpt lat="45.800723629944976" lon="13.064924792362897"><ele>1.0</ele><time>2026-04-04T09:12:56Z</time></trkpt><trkpt lat="45.80067906318026" lon="13.06469357468708"><ele>2.0</ele><time>2026-04-04T09:12:57Z</time></trkpt><trkpt lat="45.80063385129691" lon="13.064459010070793"><ele>2.0</ele><time>2026-04-04T09:12:58Z</time></trkpt><trkpt lat="45.800585877934296" lon="13.064216869681863"><ele>2.0</ele><time>2026-04-04T09:12:59Z</time></trkpt><trkpt lat="45.80053703765064" lon="13.063968048672708"><ele>2.0</ele><time>2026-04-04T09:13:00Z</time></trkpt><trkpt lat="45.80048821097406" lon="13.06371432000386"><ele>2.333333333333333</ele><time>2026-04-04T09:13:01Z</time></trkpt><trkpt lat="45.80042292262353" lon="13.063458969451093"><ele>2.6666666666666665</ele><time>2026-04-04T09:13:02Z</time></trkpt><trkpt lat="45.80037393785567" lon="13.06319936349422"><ele>3.0</ele><time>2026-04-04T09:13:03Z</time></trkpt><trkpt lat="45.800325323947355" lon="13.06295400193175"><ele>3.0</ele><time>2026-04-04T09:13:04Z</time></trkpt><trkpt lat="45.80027972643413" lon="13.0627124955895"><ele>3.0</ele><time>2026-04-04T09:13:05Z</time></trkpt><trkpt lat="45.80023231107707" lon="13.062468237576288"><ele>3.0</ele><time>2026-04-04T09:13:06Z</time></trkpt><trkpt lat="45.800182778106844" lon="13.06222565397562"><ele>3.0</ele><time>2026-04-04T09:13:07Z</time></trkpt><trkpt lat="45.80013243044652" lon="13.06197416665951"><ele>3.0</ele><time>2026-04-04T09:13:08Z</time></trkpt><trkpt lat="45.80008609568531" lon="13.061721064196696"><ele>3.0</ele><time>2026-04-04T09:13:09Z</time></trkpt><trkpt lat="45.800032737671955" lon="13.061461397728525"><ele>3.0</ele><time>2026-04-04T09:13:10Z</time></trkpt><trkpt lat="45.79998519200679" lon="13.061203557880159"><ele>3.0</ele><time>2026-04-04T09:13:11Z</time></trkpt><trkpt lat="45.799936200638285" lon="13.060940551795033"><ele>3.0</ele><time>2026-04-04T09:13:12Z</time></trkpt><trkpt lat="45.7998857821216" lon="13.060676054505677"><ele>2.6666666666666665</ele><time>2026-04-04T09:13:13Z</time></trkpt><trkpt lat="45.79983545993977" lon="13.060408025909707"><ele>2.333333333333333</ele><time>2026-04-04T09:13:14Z</time></trkpt><trkpt lat="45.79978178771895" lon="13.060143503218963"><ele>2.0</ele><time>2026-04-04T09:13:15Z</time></trkpt><trkpt lat="45.79973008168538" lon="13.05987512884167"><ele>1.6666666666666665</ele><time>2026-04-04T09:13:16Z</time></trkpt><trkpt lat="45.79967913669601" lon="13.059609084456156"><ele>1.3333333333333333</ele><time>2026-04-04T09:13:17Z</time></trkpt><trkpt lat="45.79962808700328" lon="13.059345384144024"><ele>1.0</ele><time>2026-04-04T09:13:18Z</time></trkpt><trkpt lat="45.79960274131204" lon="13.059071728582353"><ele>1.0</ele><time>2026-04-04T09:13:18.999Z</time></trkpt><trkpt lat="45.79955303876912" lon="13.058812087758"><ele>1.0</ele><time>2026-04-04T09:13:19.999Z</time></trkpt><trkpt lat="45.79950281264116" lon="13.058550870884307"><ele>1.0</ele><time>2026-04-04T09:13:20.999Z</time></trkpt><trkpt lat="45.79945049570863" lon="13.058286659625741"><ele>1.6666666666666665</ele><time>2026-04-04T09:13:21.999Z</time></trkpt><trkpt lat="45.799391673112446" lon="13.058016820230362"><ele>2.3333333333333335</ele><time>2026-04-04T09:13:22.999Z</time></trkpt><trkpt lat="45.79933226936161" lon="13.057740761087285"><ele>3.0</ele><time>2026-04-04T09:13:23.999Z</time></trkpt><trkpt lat="45.79927447922155" lon="13.05746446444638"><ele>4.333333333333334</ele><time>2026-04-04T09:13:24.999Z</time></trkpt><trkpt lat="45.79921660067076" lon="13.057187745084397"><ele>5.666666666666667</ele><time>2026-04-04T09:13:25.999Z</time></trkpt><trkpt lat="45.799159551352425" lon="13.056914990366437"><ele>7.0</ele><time>2026-04-04T09:13:26.999Z</time></trkpt><trkpt lat="45.79910328308187" lon="13.056646506434136"><ele>7.666666666666667</ele><time>2026-04-04T09:13:27.999Z</time></trkpt><trkpt lat="45.79904529820147" lon="13.056370639830286"><ele>8.333333333333334</ele><time>2026-04-04T09:13:28.999Z</time></trkpt><trkpt lat="45.79897615090531" lon="13.056102590633223"><ele>9.0</ele><time>2026-04-04T09:13:29.999Z</time></trkpt><trkpt lat="45.798921543987085" lon="13.05583147436454"><ele>7.666666666666667</ele><time>2026-04-04T09:13:30.999Z</time></trkpt><trkpt lat="45.798867141011534" lon="13.055563930764794"><ele>6.333333333333334</ele><time>2026-04-04T09:13:31.999Z</time></trkpt><trkpt lat="45.7988148505251" lon="13.055301481375224"><ele>5.0</ele><time>2026-04-04T09:13:32.999Z</time></trkpt><trkpt lat="45.7987604889685" lon="13.055041722942017"><ele>4.333333333333334</ele><time>2026-04-04T09:13:33.999Z</time></trkpt><trkpt lat="45.79870332908043" lon="13.054787550733277"><ele>3.666666666666667</ele><time>2026-04-04T09:13:34.999Z</time></trkpt><trkpt lat="45.79864749881945" lon="13.054538779584428"><ele>3.0</ele><time>2026-04-04T09:13:36Z</time></trkpt><trkpt lat="45.79859283282948" lon="13.054285593257083"><ele>2.6666666666666665</ele><time>2026-04-04T09:13:37Z</time></trkpt><trkpt lat="45.798542135908946" lon="13.054036848597887"><ele>2.333333333333333</ele><time>2026-04-04T09:13:38Z</time></trkpt><trkpt lat="45.79849150559503" lon="13.053791272390225"><ele>2.0</ele><time>2026-04-04T09:13:39Z</time></trkpt><trkpt lat="45.798438423718856" lon="13.053542179955569"><ele>1.6666666666666665</ele><time>2026-04-04T09:13:40Z</time></trkpt><trkpt lat="45.7983863524174" lon="13.053288760668192"><ele>1.3333333333333333</ele><time>2026-04-04T09:13:41Z</time></trkpt><trkpt lat="45.798333265244736" lon="13.053031069349808"><ele>1.0</ele><time>2026-04-04T09:13:42Z</time></trkpt><trkpt lat="45.79827912917558" lon="13.052770951013297"><ele>1.0</ele><time>2026-04-04T09:13:43Z</time></trkpt><trkpt lat="45.79822517742098" lon="13.05250745960889"><ele>1.0</ele><time>2026-04-04T09:13:44Z</time></trkpt><trkpt lat="45.79817255286426" lon="13.052244246030954"><ele>1.0</ele><time>2026-04-04T09:13:45Z</time></trkpt><trkpt lat="45.798116508427235" lon="13.051979261180295"><ele>1.0</ele><time>2026-04-04T09:13:46Z</time></trkpt><trkpt lat="45.79805922244677" lon="13.051712978989903"><ele>1.0</ele><time>2026-04-04T09:13:47Z</time></trkpt><trkpt lat="45.798002400802666" lon="13.051446493099869"><ele>1.0</ele><time>2026-04-04T09:13:48Z</time></trkpt><trkpt lat="45.79794674915747" lon="13.051182105791554"><ele>1.0</ele><time>2026-04-04T09:13:49Z</time></trkpt><trkpt lat="45.797889860375705" lon="13.050917130835103"><ele>1.0</ele><time>2026-04-04T09:13:50Z</time></trkpt><trkpt lat="45.797833504282025" lon="13.05065114462536"><ele>1.0</ele><time>2026-04-04T09:13:51Z</time></trkpt><trkpt lat="45.797778992615335" lon="13.05038663070721"><ele>1.0</ele><time>2026-04-04T09:13:52Z</time></trkpt><trkpt lat="45.79772349360897" lon="13.050116502828748"><ele>1.0</ele><time>2026-04-04T09:13:53Z</time></trkpt><trkpt lat="45.797668852866344" lon="13.049845269491744"><ele>1.0</ele><time>2026-04-04T09:13:54Z</time></trkpt><trkpt lat="45.79761436868454" lon="13.049573650079477"><ele>1.3333333333333333</ele><time>2026-04-04T09:13:55Z</time></trkpt><trkpt lat="45.79755761671458" lon="13.049301703221706"><ele>1.6666666666666665</ele><time>2026-04-04T09:13:56Z</time></trkpt><trkpt lat="45.79750090113258" lon="13.049032625095803"><ele>2.0</ele><time>2026-04-04T09:13:57Z</time></trkpt><trkpt lat="45.79744742451715" lon="13.04876075006155"><ele>1.3333333333333333</ele><time>2026-04-04T09:13:58Z</time></trkpt><trkpt lat="45.7973913885155" lon="13.048493515621209"><ele>0.6666666666666666</ele><time>2026-04-04T09:13:59Z</time></trkpt><trkpt lat="45.79733673444086" lon="13.048226600792336"><ele>0.0</ele><time>2026-04-04T09:14:00Z</time></trkpt><trkpt lat="45.79728354899636" lon="13.047963186057448"><ele>0.0</ele><time>2026-04-04T09:14:01Z</time></trkpt><trkpt lat="45.79722908549877" lon="13.047700675888615"><ele>0.0</ele><time>2026-04-04T09:14:02Z</time></trkpt><trkpt lat="45.79717659865176" lon="13.047436076530655"><ele>0.0</ele><time>2026-04-04T09:14:03Z</time></trkpt><trkpt lat="45.79712515901314" lon="13.047171848870324"><ele>0.0</ele><time>2026-04-04T09:14:04Z</time></trkpt><trkpt lat="45.79707538423763" lon="13.046909475802474"><ele>0.0</ele><time>2026-04-04T09:14:05Z</time></trkpt><trkpt lat="45.79702518533311" lon="13.04664817480968"><ele>0.0</ele><time>2026-04-04T09:14:06Z</time></trkpt><trkpt lat="45.79697573358637" lon="13.04638496117844"><ele>0.3333333333333333</ele><time>2026-04-04T09:14:07Z</time></trkpt><trkpt lat="45.79692733009952" lon="13.046125348608305"><ele>0.6666666666666666</ele><time>2026-04-04T09:14:08Z</time></trkpt><trkpt lat="45.796879797408245" lon="13.045862034277818"><ele>1.0</ele><time>2026-04-04T09:14:09Z</time></trkpt><trkpt lat="45.79682918415154" lon="13.04560040654464"><ele>1.6666666666666665</ele><time>2026-04-04T09:14:10Z</time></trkpt><trkpt lat="45.79677853533725" lon="13.045334511033795"><ele>2.3333333333333335</ele><time>2026-04-04T09:14:11Z</time></trkpt><trkpt lat="45.796728029668586" lon="13.045064844500876"><ele>3.0</ele><time>2026-04-04T09:14:12Z</time></trkpt><trkpt lat="45.7966771310808" lon="13.044794203255465"><ele>3.0</ele><time>2026-04-04T09:14:13Z</time></trkpt><trkpt lat="45.79662532706465" lon="13.044524262581485"><ele>3.0</ele><time>2026-04-04T09:14:14Z</time></trkpt><trkpt lat="45.79657566285707" lon="13.044253500086016"><ele>3.0</ele><time>2026-04-04T09:14:15Z</time></trkpt><trkpt lat="45.796524862020036" lon="13.043986232574031"><ele>2.6666666666666665</ele><time>2026-04-04T09:14:16Z</time></trkpt><trkpt lat="45.796472759292904" lon="13.043718409709488"><ele>2.333333333333333</ele><time>2026-04-04T09:14:17Z</time></trkpt><trkpt lat="45.79641883467668" lon="13.043445918965324"><ele>2.0</ele><time>2026-04-04T09:14:18Z</time></trkpt><trkpt lat="45.796363817416605" lon="13.043170043935243"><ele>2.0</ele><time>2026-04-04T09:14:19Z</time></trkpt><trkpt lat="45.796309189430666" lon="13.042890187262728"><ele>2.0</ele><time>2026-04-04T09:14:20Z</time></trkpt><trkpt lat="45.79625774323465" lon="13.042609762883396"><ele>2.0</ele><time>2026-04-04T09:14:21Z</time></trkpt><trkpt lat="45.796205509766644" lon="13.042333146947803"><ele>2.0</ele><time>2026-04-04T09:14:22Z</time></trkpt><trkpt lat="45.79615233045459" lon="13.04205726071948"><ele>2.0</ele><time>2026-04-04T09:14:23Z</time></trkpt><trkpt lat="45.79609908553554" lon="13.041782843951859"><ele>2.0</ele><time>2026-04-04T09:14:24Z</time></trkpt><trkpt lat="45.796043473378134" lon="13.041507550906923"><ele>2.333333333333333</ele><time>2026-04-04T09:14:25Z</time></trkpt><trkpt lat="45.79598705428719" lon="13.041228309385552"><ele>2.6666666666666665</ele><time>2026-04-04T09:14:26Z</time></trkpt><trkpt lat="45.795933333821374" lon="13.040950382904857"><ele>3.0</ele><time>2026-04-04T09:14:27Z</time></trkpt><trkpt lat="45.795878489557744" lon="13.040674422900512"><ele>3.333333333333333</ele><time>2026-04-04T09:14:28Z</time></trkpt><trkpt lat="45.79582371616199" lon="13.040396587336833"><ele>3.6666666666666665</ele><time>2026-04-04T09:14:29Z</time></trkpt><trkpt lat="45.795768581423864" lon="13.040118010733055"><ele>4.0</ele><time>2026-04-04T09:14:30Z</time></trkpt><trkpt lat="45.79571579044793" lon="13.039843918112046"><ele>4.0</ele><time>2026-04-04T09:14:31Z</time></trkpt><trkpt lat="45.7956619053583" lon="13.039572137825823"><ele>4.0</ele><time>2026-04-04T09:14:32Z</time></trkpt><trkpt lat="45.795607043757734" lon="13.039303440679229"><ele>4.0</ele><time>2026-04-04T09:14:33Z</time></trkpt><trkpt lat="45.79555244064843" lon="13.039032746091445"><ele>3.333333333333333</ele><time>2026-04-04T09:14:34Z</time></trkpt><trkpt lat="45.79550151196256" lon="13.038763876363667"><ele>2.6666666666666665</ele><time>2026-04-04T09:14:35Z</time></trkpt><trkpt lat="45.795450692764454" lon="13.03849684987049"><ele>2.0</ele><time>2026-04-04T09:14:36Z</time></trkpt><trkpt lat="45.79540011026981" lon="13.03822947407606"><ele>1.6666666666666665</ele><time>2026-04-04T09:14:37Z</time></trkpt><trkpt lat="45.7953484947616" lon="13.03796449710114"><ele>1.3333333333333333</ele><time>2026-04-04T09:14:38Z</time></trkpt><trkpt lat="45.795297324818335" lon="13.037698225897817"><ele>1.0</ele><time>2026-04-04T09:14:39Z</time></trkpt><trkpt lat="45.79524658694797" lon="13.037432788895599"><ele>1.0</ele><time>2026-04-04T09:14:40Z</time></trkpt><trkpt lat="45.795194542717056" lon="13.03716582106507"><ele>1.0</ele><time>2026-04-04T09:14:41Z</time></trkpt><trkpt lat="45.79514041848567" lon="13.036896541463463"><ele>1.0</ele><time>2026-04-04T09:14:42Z</time></trkpt><trkpt lat="45.795084598338484" lon="13.036623506290885"><ele>1.3333333333333333</ele><time>2026-04-04T09:14:43Z</time></trkpt><trkpt lat="45.79502733189457" lon="13.036339857752541"><ele>1.6666666666666665</ele><time>2026-04-04T09:14:44Z</time></trkpt><trkpt lat="45.79497160969888" lon="13.036044978908615"><ele>2.0</ele><time>2026-04-04T09:14:45Z</time></trkpt><trkpt lat="45.79491836103909" lon="13.03575139079895"><ele>2.333333333333333</ele><time>2026-04-04T09:14:46Z</time></trkpt><trkpt lat="45.79486646495364" lon="13.035459209394704"><ele>2.6666666666666665</ele><time>2026-04-04T09:14:47Z</time></trkpt><trkpt lat="45.79481463354896" lon="13.03517120376493"><ele>3.0</ele><time>2026-04-04T09:14:48Z</time></trkpt><trkpt lat="45.79475974062891" lon="13.034891349674849"><ele>3.333333333333333</ele><time>2026-04-04T09:14:49Z</time></trkpt><trkpt lat="45.79470695628114" lon="13.034609998690346"><ele>3.6666666666666665</ele><time>2026-04-04T09:14:50Z</time></trkpt><trkpt lat="45.79465822402097" lon="13.034326019362654"><ele>4.0</ele><time>2026-04-04T09:14:51Z</time></trkpt><trkpt lat="45.79461105023807" lon="13.034042719458963"><ele>3.333333333333333</ele><time>2026-04-04T09:14:52Z</time></trkpt><trkpt lat="45.79456740019641" lon="13.03376499899948"><ele>2.6666666666666665</ele><time>2026-04-04T09:14:53Z</time></trkpt><trkpt lat="45.794529495443825" lon="13.03349174235852"><ele>2.0</ele><time>2026-04-04T09:14:54Z</time></trkpt><trkpt lat="45.79449402543796" lon="13.033218236058774"><ele>1.6666666666666665</ele><time>2026-04-04T09:14:55Z</time></trkpt><trkpt lat="45.79445984624461" lon="13.03294150255812"><ele>1.3333333333333333</ele><time>2026-04-04T09:14:56Z</time></trkpt><trkpt lat="45.794424013197535" lon="13.032664190179261"><ele>1.0</ele><time>2026-04-04T09:14:57Z</time></trkpt><trkpt lat="45.794386353291465" lon="13.032385734743533"><ele>1.0</ele><time>2026-04-04T09:14:58Z</time></trkpt><trkpt lat="45.79435343736082" lon="13.032104577385976"><ele>1.0</ele><time>2026-04-04T09:14:59Z</time></trkpt><trkpt lat="45.794318452456686" lon="13.031823611314474"><ele>1.0</ele><time>2026-04-04T09:15:00Z</time></trkpt><trkpt lat="45.79428378042385" lon="13.03154468445132"><ele>1.0</ele><time>2026-04-04T09:15:01Z</time></trkpt><trkpt lat="45.79424823428661" lon="13.031270768841315"><ele>1.0</ele><time>2026-04-04T09:15:02Z</time></trkpt><trkpt lat="45.7942140534217" lon="13.030996660643808"><ele>1.0</ele><time>2026-04-04T09:15:03Z</time></trkpt><trkpt lat="45.79418040346279" lon="13.030725245601026"><ele>1.3333333333333333</ele><time>2026-04-04T09:15:04Z</time></trkpt><trkpt lat="45.79414690837382" lon="13.0304603814436"><ele>1.6666666666666665</ele><time>2026-04-04T09:15:05Z</time></trkpt><trkpt lat="45.79411063519461" lon="13.030197411485874"><ele>2.0</ele><time>2026-04-04T09:15:06Z</time></trkpt><trkpt lat="45.7940777774086" lon="13.02993624410525"><ele>2.0</ele><time>2026-04-04T09:15:07Z</time></trkpt><trkpt lat="45.794046301664146" lon="13.029673509803999"><ele>2.0</ele><time>2026-04-04T09:15:08Z</time></trkpt><trkpt lat="45.794015690547724" lon="13.029409847883374"><ele>2.0</ele><time>2026-04-04T09:15:09Z</time></trkpt><trkpt lat="45.79398159740669" lon="13.029142688633149"><ele>2.333333333333333</ele><time>2026-04-04T09:15:10Z</time></trkpt><trkpt lat="45.79394930919733" lon="13.028875569338124"><ele>2.6666666666666665</ele><time>2026-04-04T09:15:11Z</time></trkpt><trkpt lat="45.79392055095254" lon="13.0286040379825"><ele>3.0</ele><time>2026-04-04T09:15:12Z</time></trkpt><trkpt lat="45.79388582563633" lon="13.02833970000624"><ele>2.6666666666666665</ele><time>2026-04-04T09:15:13Z</time></trkpt><trkpt lat="45.79384929984818" lon="13.028073875963543"><ele>2.333333333333333</ele><time>2026-04-04T09:15:14Z</time></trkpt><trkpt lat="45.793813431314135" lon="13.027805245412413"><ele>2.0</ele><time>2026-04-04T09:15:15Z</time></trkpt><trkpt lat="45.79378265989008" lon="13.02753542642852"><ele>2.0</ele><time>2026-04-04T09:15:16Z</time></trkpt><trkpt lat="45.79375164859519" lon="13.027271997680888"><ele>2.0</ele><time>2026-04-04T09:15:17Z</time></trkpt><trkpt lat="45.79371651002115" lon="13.027011415787436"><ele>2.0</ele><time>2026-04-04T09:15:18Z</time></trkpt><trkpt lat="45.79368301156251" lon="13.026746378832033"><ele>2.333333333333333</ele><time>2026-04-04T09:15:19Z</time></trkpt><trkpt lat="45.793649209621606" lon="13.026481276871893"><ele>2.6666666666666665</ele><time>2026-04-04T09:15:20Z</time></trkpt><trkpt lat="45.79361802983469" lon="13.026217527123876"><ele>3.0</ele><time>2026-04-04T09:15:21Z</time></trkpt><trkpt lat="45.79358506764514" lon="13.025950694322969"><ele>3.0</ele><time>2026-04-04T09:15:22Z</time></trkpt><trkpt lat="45.793551947799685" lon="13.025688089424227"><ele>3.0</ele><time>2026-04-04T09:15:23Z</time></trkpt><trkpt lat="45.793523086913176" lon="13.025438668299937"><ele>3.0</ele><time>2026-04-04T09:15:24Z</time></trkpt><trkpt lat="45.793490729850134" lon="13.025194826925107"><ele>3.333333333333333</ele><time>2026-04-04T09:15:24.999Z</time></trkpt><trkpt lat="45.79345771386042" lon="13.024953269067874"><ele>3.6666666666666665</ele><time>2026-04-04T09:15:25.999Z</time></trkpt><trkpt lat="45.793424848118285" lon="13.024707310515657"><ele>4.0</ele><time>2026-04-04T09:15:26.999Z</time></trkpt><trkpt lat="45.79339313213867" lon="13.024461209087693"><ele>4.0</ele><time>2026-04-04T09:15:27.999Z</time></trkpt><trkpt lat="45.79336040953509" lon="13.024224838093145"><ele>4.0</ele><time>2026-04-04T09:15:28.999Z</time></trkpt><trkpt lat="45.79333351393758" lon="13.023986362769856"><ele>4.0</ele><time>2026-04-04T09:15:29.999Z</time></trkpt><trkpt lat="45.79330069775603" lon="13.02372597367415"><ele>3.333333333333333</ele><time>2026-04-04T09:15:30.999Z</time></trkpt><trkpt lat="45.79326216497021" lon="13.02347358277896"><ele>2.6666666666666665</ele><time>2026-04-04T09:15:31.999Z</time></trkpt><trkpt lat="45.79322727034386" lon="13.023226889797785"><ele>2.0</ele><time>2026-04-04T09:15:32.999Z</time></trkpt><trkpt lat="45.793196160909496" lon="13.022976972995624"><ele>2.0</ele><time>2026-04-04T09:15:33.999Z</time></trkpt><trkpt lat="45.79316520677909" lon="13.022728884305007"><ele>2.0</ele><time>2026-04-04T09:15:34.999Z</time></trkpt><trkpt lat="45.793137945699435" lon="13.022481949467489"><ele>2.0</ele><time>2026-04-04T09:15:35.999Z</time></trkpt><trkpt lat="45.793109993990875" lon="13.022240034647403"><ele>2.0</ele><time>2026-04-04T09:15:36.999Z</time></trkpt><trkpt lat="45.79307875165219" lon="13.022004814849305"><ele>2.0</ele><time>2026-04-04T09:15:37.999Z</time></trkpt><trkpt lat="45.79304735941819" lon="13.021773475624078"><ele>2.0</ele><time>2026-04-04T09:15:38.999Z</time></trkpt><trkpt lat="45.7930167326386" lon="13.021553920027698"><ele>2.25</ele><time>2026-04-04T09:15:39.999Z</time></trkpt><trkpt lat="45.7929906897492" lon="13.021348933812366"><ele>2.5</ele><time>2026-04-04T09:15:40.999Z</time></trkpt><trkpt lat="45.792967991315976" lon="13.021157677459025"><ele>2.75</ele><time>2026-04-04T09:15:41.999Z</time></trkpt><trkpt lat="45.79294530434136" lon="13.020989296255493"><ele>3.0</ele><time>2026-04-04T09:15:42.999Z</time></trkpt><trkpt lat="45.79292419053264" lon="13.020845146958273"><ele>3.1666666666666665</ele><time>2026-04-04T09:15:43.999Z</time></trkpt><trkpt lat="45.79290973783872" lon="13.020731055144536"><ele>3.333333333333333</ele><time>2026-04-04T09:15:44.999Z</time></trkpt><trkpt lat="45.79289727889936" lon="13.020618822662572"><ele>3.5</ele><time>2026-04-04T09:15:45.999Z</time></trkpt><trkpt lat="45.79289542900081" lon="13.020511153416745"><ele>3.6666666666666665</ele><time>2026-04-04T09:15:47Z</time></trkpt><trkpt lat="45.79289885515341" lon="13.0204201858866"><ele>3.833333333333333</ele><time>2026-04-04T09:15:48Z</time></trkpt><trkpt lat="45.79291897290508" lon="13.020245488187207"><ele>4.0</ele><time>2026-04-04T09:15:50Z</time></trkpt><trkpt lat="45.79293614776448" lon="13.020148021215272"><ele>3.9999999999999996</ele><time>2026-04-04T09:15:51Z</time></trkpt><trkpt lat="45.792956199782466" lon="13.02005561427672"><ele>4.0</ele><time>2026-04-04T09:15:52Z</time></trkpt><trkpt lat="45.79295789666156" lon="13.019964082395115"><ele>4.0</ele><time>2026-04-04T09:15:53Z</time></trkpt><trkpt lat="45.7929405899418" lon="13.01987486912917"><ele>4.0</ele><time>2026-04-04T09:15:54Z</time></trkpt><trkpt lat="45.79286204587448" lon="13.019756108289387"><ele>3.9999999999999996</ele><time>2026-04-04T09:15:56Z</time></trkpt><trkpt lat="45.79273536096918" lon="13.019746916643966"><ele>4.0</ele><time>2026-04-04T09:15:58Z</time></trkpt><trkpt lat="45.79267953472397" lon="13.019794119223349"><ele>3.9999999999999996</ele><time>2026-04-04T09:15:59Z</time></trkpt><trkpt lat="45.792632160056996" lon="13.019871474298824"><ele>4.0</ele><time>2026-04-04T09:16:00Z</time></trkpt><trkpt lat="45.792595696388005" lon="13.019976582651811"><ele>4.0</ele><time>2026-04-04T09:16:01Z</time></trkpt><trkpt lat="45.79254346871447" lon="13.020088814773608"><ele>4.0</ele><time>2026-04-04T09:16:02Z</time></trkpt><trkpt lat="45.792468236227904" lon="13.020169423671705"><ele>3.9999999999999996</ele><time>2026-04-04T09:16:03Z</time></trkpt><trkpt lat="45.792374913649596" lon="13.020208822171691"><ele>4.0</ele><time>2026-04-04T09:16:04Z</time></trkpt><trkpt lat="45.79226462418841" lon="13.02021287992618"><ele>3.6666666666666665</ele><time>2026-04-04T09:16:05Z</time></trkpt><trkpt lat="45.792131086759284" lon="13.020191930889103"><ele>3.333333333333333</ele><time>2026-04-04T09:16:06Z</time></trkpt><trkpt lat="45.79197980723425" lon="13.020176417470994"><ele>3.0</ele><time>2026-04-04T09:16:07Z</time></trkpt><trkpt lat="45.79181496026826" lon="13.020160748590984"><ele>2.6666666666666665</ele><time>2026-04-04T09:16:08Z</time></trkpt><trkpt lat="45.79165747865027" lon="13.02013928415038"><ele>2.333333333333333</ele><time>2026-04-04T09:16:09Z</time></trkpt><trkpt lat="45.791497991495945" lon="13.020112423500477"><ele>2.0</ele><time>2026-04-04T09:16:10Z</time></trkpt><trkpt lat="45.79134166463059" lon="13.020084760873525"><ele>2.0</ele><time>2026-04-04T09:16:11Z</time></trkpt><trkpt lat="45.79118954252257" lon="13.020060040586905"><ele>2.0</ele><time>2026-04-04T09:16:12Z</time></trkpt><trkpt lat="45.79104869313242" lon="13.020044104337027"><ele>2.0</ele><time>2026-04-04T09:16:13Z</time></trkpt><trkpt lat="45.79090745979499" lon="13.020037678141012"><ele>2.0</ele><time>2026-04-04T09:16:14Z</time></trkpt><trkpt lat="45.79075694874268" lon="13.020040591589723"><ele>1.3333333333333333</ele><time>2026-04-04T09:16:15Z</time></trkpt><trkpt lat="45.79060178646328" lon="13.020024932497048"><ele>0.6666666666666666</ele><time>2026-04-04T09:16:16Z</time></trkpt><trkpt lat="45.79044788105953" lon="13.02004215574369"><ele>0.0</ele><time>2026-04-04T09:16:17Z</time></trkpt><trkpt lat="45.79029267474171" lon="13.020062824230092"><ele>0.6666666666666666</ele><time>2026-04-04T09:16:18Z</time></trkpt><trkpt lat="45.79013715775166" lon="13.020088263226802"><ele>1.3333333333333333</ele><time>2026-04-04T09:16:19Z</time></trkpt><trkpt lat="45.789985600318445" lon="13.02011716275471"><ele>2.0</ele><time>2026-04-04T09:16:20Z</time></trkpt><trkpt lat="45.7898372990539" lon="13.020152197435783"><ele>2.0</ele><time>2026-04-04T09:16:21Z</time></trkpt><trkpt lat="45.78968658805198" lon="13.020190149562293"><ele>2.0</ele><time>2026-04-04T09:16:22Z</time></trkpt><trkpt lat="45.78953087518802" lon="13.02022590711302"><ele>2.0</ele><time>2026-04-04T09:16:23Z</time></trkpt><trkpt lat="45.789366186632975" lon="13.020291436896812"><ele>2.0</ele><time>2026-04-04T09:16:24Z</time></trkpt><trkpt lat="45.78919398378573" lon="13.020323294158809"><ele>2.0</ele><time>2026-04-04T09:16:25Z</time></trkpt><trkpt lat="45.789017338385534" lon="13.020349721877565"><ele>2.0</ele><time>2026-04-04T09:16:26Z</time></trkpt><trkpt lat="45.788821916337085" lon="13.020387365834129"><ele>2.0</ele><time>2026-04-04T09:16:27Z</time></trkpt><trkpt lat="45.78866002061635" lon="13.020403738563934"><ele>2.0</ele><time>2026-04-04T09:16:28Z</time></trkpt><trkpt lat="45.78849807956169" lon="13.02040068158128"><ele>2.0</ele><time>2026-04-04T09:16:29Z</time></trkpt><trkpt lat="45.788352609091554" lon="13.020416419824542"><ele>2.5</ele><time>2026-04-04T09:16:30Z</time></trkpt><trkpt lat="45.788222572448035" lon="13.020431017235465"><ele>3.0</ele><time>2026-04-04T09:16:31Z</time></trkpt><trkpt lat="45.7881030584607" lon="13.020468808557998"><ele>3.5</ele><time>2026-04-04T09:16:32Z</time></trkpt><trkpt lat="45.7879965130056" lon="13.0204752585827"><ele>4.0</ele><time>2026-04-04T09:16:33Z</time></trkpt><trkpt lat="45.78789162129541" lon="13.020459937892849"><ele>4.0</ele><time>2026-04-04T09:16:34Z</time></trkpt><trkpt lat="45.78779851604156" lon="13.020415985235912"><ele>4.0</ele><time>2026-04-04T09:16:35Z</time></trkpt><trkpt lat="45.787712147529405" lon="13.020359524971305"><ele>4.0</ele><time>2026-04-04T09:16:36Z</time></trkpt><trkpt lat="45.78762559444531" lon="13.020273121908378"><ele>4.0</ele><time>2026-04-04T09:16:37Z</time></trkpt><trkpt lat="45.787537935177056" lon="13.020144729088257"><ele>4.0</ele><time>2026-04-04T09:16:38Z</time></trkpt><trkpt lat="45.78744307147239" lon="13.019986863298513"><ele>4.333333333333333</ele><time>2026-04-04T09:16:39Z</time></trkpt><trkpt lat="45.78734094801672" lon="13.019813051182448"><ele>4.666666666666667</ele><time>2026-04-04T09:16:40Z</time></trkpt><trkpt lat="45.7872493165465" lon="13.019617826134224"><ele>5.0</ele><time>2026-04-04T09:16:41Z</time></trkpt><trkpt lat="45.78714368280503" lon="13.01943203101316"><ele>5.0</ele><time>2026-04-04T09:16:42Z</time></trkpt><trkpt lat="45.787044390143116" lon="13.019222192401344"><ele>5.0</ele><time>2026-04-04T09:16:43Z</time></trkpt><trkpt lat="45.78695949957526" lon="13.01897853743012"><ele>5.0</ele><time>2026-04-04T09:16:44Z</time></trkpt><trkpt lat="45.78685761340082" lon="13.01873695144618"><ele>3.666666666666667</ele><time>2026-04-04T09:16:45Z</time></trkpt><trkpt lat="45.78677156834223" lon="13.018486738397593"><ele>2.3333333333333335</ele><time>2026-04-04T09:16:46Z</time></trkpt><trkpt lat="45.78668361685882" lon="13.018238912417612"><ele>1.0</ele><time>2026-04-04T09:16:47Z</time></trkpt><trkpt lat="45.78659908662925" lon="13.018000993097447"><ele>1.0</ele><time>2026-04-04T09:16:48Z</time></trkpt><trkpt lat="45.78651563903095" lon="13.017763445019522"><ele>1.0</ele><time>2026-04-04T09:16:49Z</time></trkpt><trkpt lat="45.78643368865918" lon="13.017529285432849"><ele>1.0</ele><time>2026-04-04T09:16:50Z</time></trkpt><trkpt lat="45.786350787061764" lon="13.017294976003582"><ele>1.0</ele><time>2026-04-04T09:16:51Z</time></trkpt><trkpt lat="45.786283965470794" lon="13.01705121193082"><ele>1.0</ele><time>2026-04-04T09:16:52Z</time></trkpt><trkpt lat="45.78620228586511" lon="13.016816765896612"><ele>1.0</ele><time>2026-04-04T09:16:53Z</time></trkpt><trkpt lat="45.786121655288795" lon="13.016583184826874"><ele>1.0</ele><time>2026-04-04T09:16:54Z</time></trkpt><trkpt lat="45.786041506683965" lon="13.016351030940177"><ele>1.0</ele><time>2026-04-04T09:16:55Z</time></trkpt><trkpt lat="45.78596190422319" lon="13.016120951922696"><ele>1.0</ele><time>2026-04-04T09:16:56Z</time></trkpt><trkpt lat="45.78588226099956" lon="13.015890755096816"><ele>1.3333333333333333</ele><time>2026-04-04T09:16:57Z</time></trkpt><trkpt lat="45.78580205160172" lon="13.015654219634504"><ele>1.6666666666666665</ele><time>2026-04-04T09:16:58Z</time></trkpt><trkpt lat="45.7857215167328" lon="13.015415318307237"><ele>2.0</ele><time>2026-04-04T09:16:59Z</time></trkpt><trkpt lat="45.78564033220621" lon="13.01517448980879"><ele>2.0</ele><time>2026-04-04T09:17:00Z</time></trkpt><trkpt lat="45.7855591104809" lon="13.014933551250602"><ele>2.0</ele><time>2026-04-04T09:17:01Z</time></trkpt><trkpt lat="45.78547750781655" lon="13.014692522861163"><ele>2.0</ele><time>2026-04-04T09:17:02Z</time></trkpt><trkpt lat="45.78539498780707" lon="13.01445279609656"><ele>2.0</ele><time>2026-04-04T09:17:03Z</time></trkpt><trkpt lat="45.78531274703216" lon="13.01421388076713"><ele>2.0</ele><time>2026-04-04T09:17:04Z</time></trkpt><trkpt lat="45.7852333010771" lon="13.013977216042095"><ele>2.0</ele><time>2026-04-04T09:17:05Z</time></trkpt><trkpt lat="45.78515457561878" lon="13.013742579280713"><ele>2.333333333333333</ele><time>2026-04-04T09:17:06Z</time></trkpt><trkpt lat="45.78507523844127" lon="13.013510268924815"><ele>2.6666666666666665</ele><time>2026-04-04T09:17:07Z</time></trkpt><trkpt lat="45.78499914317992" lon="13.01328687142497"><ele>3.0</ele><time>2026-04-04T09:17:08Z</time></trkpt><trkpt lat="45.78491799682721" lon="13.013090912101344"><ele>3.0</ele><time>2026-04-04T09:17:09Z</time></trkpt><trkpt lat="45.78486259627041" lon="13.012888758951648"><ele>3.0</ele><time>2026-04-04T09:17:10Z</time></trkpt><trkpt lat="45.78481853831032" lon="13.012665358677362"><ele>3.0</ele><time>2026-04-04T09:17:11Z</time></trkpt><trkpt lat="45.78478468771568" lon="13.012424960642765"><ele>2.3333333333333335</ele><time>2026-04-04T09:17:12Z</time></trkpt><trkpt lat="45.78475887064756" lon="13.012172642136942"><ele>1.6666666666666665</ele><time>2026-04-04T09:17:13Z</time></trkpt><trkpt lat="45.78472964347492" lon="13.011916044869174"><ele>1.0</ele><time>2026-04-04T09:17:14Z</time></trkpt><trkpt lat="45.784701782647836" lon="13.01165348545391"><ele>1.0</ele><time>2026-04-04T09:17:15Z</time></trkpt><trkpt lat="45.784675392951996" lon="13.011392038029532"><ele>1.0</ele><time>2026-04-04T09:17:16Z</time></trkpt><trkpt lat="45.784649633814524" lon="13.011132569938894"><ele>1.0</ele><time>2026-04-04T09:17:17Z</time></trkpt><trkpt lat="45.78462319138192" lon="13.01087359376854"><ele>1.6666666666666665</ele><time>2026-04-04T09:17:18Z</time></trkpt><trkpt lat="45.78459457972331" lon="13.0106179439232"><ele>2.3333333333333335</ele><time>2026-04-04T09:17:19Z</time></trkpt><trkpt lat="45.78456834388928" lon="13.01036319402478"><ele>3.0</ele><time>2026-04-04T09:17:20Z</time></trkpt><trkpt lat="45.784544333479694" lon="13.010110404841386"><ele>3.0</ele><time>2026-04-04T09:17:21Z</time></trkpt><trkpt lat="45.784517516473215" lon="13.00985808715107"><ele>3.0</ele><time>2026-04-04T09:17:22Z</time></trkpt><trkpt lat="45.784492356139445" lon="13.009606722869279"><ele>3.0</ele><time>2026-04-04T09:17:23Z</time></trkpt><trkpt lat="45.78446911517735" lon="13.009356397514326"><ele>3.0</ele><time>2026-04-04T09:17:24Z</time></trkpt><trkpt lat="45.784445704751526" lon="13.009109212588763"><ele>3.0</ele><time>2026-04-04T09:17:25Z</time></trkpt><trkpt lat="45.78441904730681" lon="13.008864844181225"><ele>3.0</ele><time>2026-04-04T09:17:26Z</time></trkpt><trkpt lat="45.78439051836376" lon="13.00862462837944"><ele>3.0</ele><time>2026-04-04T09:17:27Z</time></trkpt><trkpt lat="45.78436712047009" lon="13.008382852974169"><ele>3.0</ele><time>2026-04-04T09:17:28Z</time></trkpt><trkpt lat="45.784344830795376" lon="13.008142463528225"><ele>3.0</ele><time>2026-04-04T09:17:29Z</time></trkpt><trkpt lat="45.784323456046444" lon="13.007910958972799"><ele>3.333333333333333</ele><time>2026-04-04T09:17:30Z</time></trkpt><trkpt lat="45.784292926434105" lon="13.007680200796221"><ele>3.6666666666666665</ele><time>2026-04-04T09:17:30.999Z</time></trkpt><trkpt lat="45.78424934092503" lon="13.007446878596431"><ele>4.0</ele><time>2026-04-04T09:17:31.999Z</time></trkpt><trkpt lat="45.78419540098754" lon="13.007237244431687"><ele>4.0</ele><time>2026-04-04T09:17:32.999Z</time></trkpt><trkpt lat="45.784125715537485" lon="13.007045851019084"><ele>4.0</ele><time>2026-04-04T09:17:33.999Z</time></trkpt><trkpt lat="45.7840380771919" lon="13.006844475630897"><ele>4.0</ele><time>2026-04-04T09:17:34.999Z</time></trkpt><trkpt lat="45.78393216173129" lon="13.006645891094623"><ele>3.6666666666666665</ele><time>2026-04-04T09:17:35.999Z</time></trkpt><trkpt lat="45.783817432590936" lon="13.006464910862727"><ele>3.333333333333333</ele><time>2026-04-04T09:17:36.999Z</time></trkpt><trkpt lat="45.783687456104765" lon="13.006298980097098"><ele>3.0</ele><time>2026-04-04T09:17:37.999Z</time></trkpt><trkpt lat="45.78355983200981" lon="13.006136228820198"><ele>3.0</ele><time>2026-04-04T09:17:38.999Z</time></trkpt><trkpt lat="45.78346190083442" lon="13.005972200230778"><ele>3.0</ele><time>2026-04-04T09:17:39.999Z</time></trkpt><trkpt lat="45.783377893979235" lon="13.005794456345042"><ele>3.0</ele><time>2026-04-04T09:17:40.999Z</time></trkpt><trkpt lat="45.783310870749226" lon="13.005599140362435"><ele>3.0</ele><time>2026-04-04T09:17:41.999Z</time></trkpt><trkpt lat="45.78326628968628" lon="13.005395391567147"><ele>3.0</ele><time>2026-04-04T09:17:42.999Z</time></trkpt><trkpt lat="45.7832430109676" lon="13.0051711072116"><ele>3.0</ele><time>2026-04-04T09:17:44Z</time></trkpt><trkpt lat="45.78322252955062" lon="13.004967687037658"><ele>3.0</ele><time>2026-04-04T09:17:45Z</time></trkpt><trkpt lat="45.78318504778353" lon="13.004777679315461"><ele>3.0</ele><time>2026-04-04T09:17:46Z</time></trkpt><trkpt lat="45.78312387798012" lon="13.004592618632268"><ele>3.0</ele><time>2026-04-04T09:17:47Z</time></trkpt><trkpt lat="45.7830422421717" lon="13.004401413543734"><ele>3.0</ele><time>2026-04-04T09:17:48Z</time></trkpt><trkpt lat="45.78292783903331" lon="13.004197382205087"><ele>3.0</ele><time>2026-04-04T09:17:49Z</time></trkpt><trkpt lat="45.782800853206695" lon="13.004005212969746"><ele>3.0</ele><time>2026-04-04T09:17:50Z</time></trkpt><trkpt lat="45.78268195123645" lon="13.003828116154507"><ele>3.0</ele><time>2026-04-04T09:17:51Z</time></trkpt><trkpt lat="45.78256458901059" lon="13.003664689249266"><ele>3.666666666666667</ele><time>2026-04-04T09:17:52Z</time></trkpt><trkpt lat="45.78244204362666" lon="13.003507697926393"><ele>4.333333333333334</ele><time>2026-04-04T09:17:53Z</time></trkpt><trkpt lat="45.7823130534423" lon="13.003370688222311"><ele>5.0</ele><time>2026-04-04T09:17:54Z</time></trkpt><trkpt lat="45.78218392981821" lon="13.003262582178417"><ele>5.0</ele><time>2026-04-04T09:17:55Z</time></trkpt><trkpt lat="45.78204622641534" lon="13.003179300665943"><ele>5.0</ele><time>2026-04-04T09:17:56Z</time></trkpt><trkpt lat="45.78189628142768" lon="13.0031156817632"><ele>5.0</ele><time>2026-04-04T09:17:57Z</time></trkpt><trkpt lat="45.781730206460146" lon="13.003080663221391"><ele>4.666666666666667</ele><time>2026-04-04T09:17:58Z</time></trkpt><trkpt lat="45.7815488348896" lon="13.00307041697977"><ele>4.333333333333333</ele><time>2026-04-04T09:17:59Z</time></trkpt><trkpt lat="45.78135059900464" lon="13.00307789455139"><ele>4.0</ele><time>2026-04-04T09:18:00Z</time></trkpt><trkpt lat="45.78115063337948" lon="13.003085523484511"><ele>3.6666666666666665</ele><time>2026-04-04T09:18:01Z</time></trkpt><trkpt lat="45.78094598807113" lon="13.00307483633873"><ele>3.333333333333333</ele><time>2026-04-04T09:18:02Z</time></trkpt><trkpt lat="45.780741391775955" lon="13.003036936313702"><ele>3.0</ele><time>2026-04-04T09:18:03Z</time></trkpt><trkpt lat="45.78053816872194" lon="13.002985470254075"><ele>3.0</ele><time>2026-04-04T09:18:04Z</time></trkpt><trkpt lat="45.78034164677201" lon="13.002898544841736"><ele>3.0</ele><time>2026-04-04T09:18:05Z</time></trkpt><trkpt lat="45.78014696463763" lon="13.002818717151388"><ele>3.0</ele><time>2026-04-04T09:18:06Z</time></trkpt><trkpt lat="45.77996607397392" lon="13.002745060204969"><ele>3.0</ele><time>2026-04-04T09:18:07Z</time></trkpt><trkpt lat="45.779786678959425" lon="13.002696843195261"><ele>3.0</ele><time>2026-04-04T09:18:08Z</time></trkpt><trkpt lat="45.77961097693182" lon="13.00262226121648"><ele>3.0</ele><time>2026-04-04T09:18:09Z</time></trkpt><trkpt lat="45.77942855748609" lon="13.00256954971947"><ele>3.0</ele><time>2026-04-04T09:18:10Z</time></trkpt><trkpt lat="45.779263599513335" lon="13.002532828669338"><ele>3.0</ele><time>2026-04-04T09:18:11Z</time></trkpt><trkpt lat="45.779103899504804" lon="13.002503644383488"><ele>3.0</ele><time>2026-04-04T09:18:12Z</time></trkpt><trkpt lat="45.7789519947042" lon="13.00248438201847"><ele>3.333333333333333</ele><time>2026-04-04T09:18:13Z</time></trkpt><trkpt lat="45.778794797881595" lon="13.002484954503238"><ele>3.6666666666666665</ele><time>2026-04-04T09:18:14Z</time></trkpt><trkpt lat="45.77863087245939" lon="13.002497407461691"><ele>4.0</ele><time>2026-04-04T09:18:15Z</time></trkpt><trkpt lat="45.778465504738854" lon="13.002511870139044"><ele>4.0</ele><time>2026-04-04T09:18:16Z</time></trkpt><trkpt lat="45.778295672931435" lon="13.0025374405482"><ele>4.0</ele><time>2026-04-04T09:18:17Z</time></trkpt><trkpt lat="45.778130949565416" lon="13.002577323533629"><ele>4.0</ele><time>2026-04-04T09:18:18Z</time></trkpt><trkpt lat="45.77796989758972" lon="13.002634147805837"><ele>4.0</ele><time>2026-04-04T09:18:19Z</time></trkpt><trkpt lat="45.777807420926095" lon="13.002680113107104"><ele>4.0</ele><time>2026-04-04T09:18:20Z</time></trkpt><trkpt lat="45.777643903377495" lon="13.002716621559877"><ele>4.0</ele><time>2026-04-04T09:18:21Z</time></trkpt><trkpt lat="45.77748637950383" lon="13.002754502717154"><ele>3.5</ele><time>2026-04-04T09:18:22Z</time></trkpt><trkpt lat="45.777340929293075" lon="13.002785491283307"><ele>3.0</ele><time>2026-04-04T09:18:23Z</time></trkpt><trkpt lat="45.777210302738304" lon="13.00279112457016"><ele>2.5</ele><time>2026-04-04T09:18:24Z</time></trkpt><trkpt lat="45.77707638909166" lon="13.002837395163626"><ele>2.0</ele><time>2026-04-04T09:18:25Z</time></trkpt><trkpt lat="45.77693959349193" lon="13.002859126538045"><ele>2.25</ele><time>2026-04-04T09:18:26Z</time></trkpt><trkpt lat="45.77680213809064" lon="13.00287918862187"><ele>2.5</ele><time>2026-04-04T09:18:27Z</time></trkpt><trkpt lat="45.776663166128216" lon="13.002900884530435"><ele>2.75</ele><time>2026-04-04T09:18:28Z</time></trkpt><trkpt lat="45.77652613847821" lon="13.002920512297804"><ele>3.0</ele><time>2026-04-04T09:18:29Z</time></trkpt><trkpt lat="45.776391407878826" lon="13.002936052745282"><ele>3.0</ele><time>2026-04-04T09:18:30Z</time></trkpt><trkpt lat="45.77628351848774" lon="13.002934475416618"><ele>3.0</ele><time>2026-04-04T09:18:31Z</time></trkpt><trkpt lat="45.77619459095535" lon="13.002945859544386"><ele>3.0</ele><time>2026-04-04T09:18:32Z</time></trkpt><trkpt lat="45.77611482973601" lon="13.002952070957802"><ele>3.0</ele><time>2026-04-04T09:18:33Z</time></trkpt><trkpt lat="45.776049059645835" lon="13.002949738105947"><ele>3.0</ele><time>2026-04-04T09:18:34Z</time></trkpt><trkpt lat="45.775978552426885" lon="13.002925153055033"><ele>3.0</ele><time>2026-04-04T09:18:35Z</time></trkpt><trkpt lat="45.77590898312426" lon="13.002879516290132"><ele>3.0</ele><time>2026-04-04T09:18:36Z</time></trkpt><trkpt lat="45.77583587030604" lon="13.002874670426102"><ele>3.0</ele><time>2026-04-04T09:18:37Z</time></trkpt><trkpt lat="45.775817241658544" lon="13.002552383719973"><ele>3.0</ele><time>2026-04-04T09:18:39Z</time></trkpt><trkpt lat="45.77584602140367" lon="13.002402645054321"><ele>3.0</ele><time>2026-04-04T09:18:40Z</time></trkpt><trkpt lat="45.7758355323699" lon="13.002231140972995"><ele>3.25</ele><time>2026-04-04T09:18:41Z</time></trkpt><trkpt lat="45.77583883030478" lon="13.002054227757295"><ele>3.5</ele><time>2026-04-04T09:18:42Z</time></trkpt><trkpt lat="45.7757963488646" lon="13.0018901098406"><ele>3.75</ele><time>2026-04-04T09:18:43Z</time></trkpt><trkpt lat="45.77574567099389" lon="13.001684492213982"><ele>4.0</ele><time>2026-04-04T09:18:44Z</time></trkpt><trkpt lat="45.77570317811443" lon="13.001472178452623"><ele>4.0</ele><time>2026-04-04T09:18:45Z</time></trkpt><trkpt lat="45.775676115465046" lon="13.00126681985317"><ele>4.0</ele><time>2026-04-04T09:18:46Z</time></trkpt><trkpt lat="45.7756385115707" lon="13.001082954540957"><ele>4.0</ele><time>2026-04-04T09:18:47Z</time></trkpt><trkpt lat="45.77559954063584" lon="13.000890541489875"><ele>4.0</ele><time>2026-04-04T09:18:48Z</time></trkpt><trkpt lat="45.77554271563339" lon="13.000680166931037"><ele>4.5</ele><time>2026-04-04T09:18:49Z</time></trkpt><trkpt lat="45.77551745175829" lon="13.000479253560108"><ele>5.0</ele><time>2026-04-04T09:18:50Z</time></trkpt><trkpt lat="45.77548048000834" lon="13.00029434534799"><ele>5.5</ele><time>2026-04-04T09:18:51Z</time></trkpt><trkpt lat="45.77544974739721" lon="13.00013908571945"><ele>6.0</ele><time>2026-04-04T09:18:52Z</time></trkpt><trkpt lat="45.775417762304734" lon="12.999977498805478"><ele>6.0</ele><time>2026-04-04T09:18:53Z</time></trkpt><trkpt lat="45.77538912154914" lon="12.999832805777817"><ele>6.0</ele><time>2026-04-04T09:18:54Z</time></trkpt><trkpt lat="45.775342684614834" lon="12.999686004580797"><ele>6.0</ele><time>2026-04-04T09:18:55Z</time></trkpt><trkpt lat="45.77532254336294" lon="12.999507937054478"><ele>6.0</ele><time>2026-04-04T09:18:56Z</time></trkpt><trkpt lat="45.775272753641275" lon="12.999319144346241"><ele>6.0</ele><time>2026-04-04T09:18:57Z</time></trkpt><trkpt lat="45.775253651610555" lon="12.999123989717374"><ele>6.0</ele><time>2026-04-04T09:18:58Z</time></trkpt><trkpt lat="45.775224787736356" lon="12.998958313597688"><ele>6.0</ele><time>2026-04-04T09:18:59Z</time></trkpt><trkpt lat="45.77520204772169" lon="12.998808887631055"><ele>6.0</ele><time>2026-04-04T09:19:00Z</time></trkpt><trkpt lat="45.77519445282047" lon="12.998677715270059"><ele>6.0</ele><time>2026-04-04T09:19:01Z</time></trkpt><trkpt lat="45.775193677094876" lon="12.998545050930048"><ele>6.0</ele><time>2026-04-04T09:19:02Z</time></trkpt><trkpt lat="45.77522599932809" lon="12.998415350358869"><ele>6.0</ele><time>2026-04-04T09:19:03Z</time></trkpt><trkpt lat="45.7752523976587" lon="12.998323405859388"><ele>6.0</ele><time>2026-04-04T09:19:04Z</time></trkpt><trkpt lat="45.775274962042204" lon="12.998230124173881"><ele>6.0</ele><time>2026-04-04T09:19:06Z</time></trkpt><trkpt lat="45.77516182484824" lon="12.998147495719222"><ele>6.0</ele><time>2026-04-04T09:19:08Z</time></trkpt><trkpt lat="45.775046760462196" lon="12.99808719413581"><ele>6.0</ele><time>2026-04-04T09:19:10Z</time></trkpt><trkpt lat="45.774952662128534" lon="12.998027868703916"><ele>6.0</ele><time>2026-04-04T09:19:11Z</time></trkpt><trkpt lat="45.774846481275034" lon="12.997969124389146"><ele>6.0</ele><time>2026-04-04T09:19:12Z</time></trkpt><trkpt lat="45.77474269724186" lon="12.99791113897437"><ele>6.0</ele><time>2026-04-04T09:19:13Z</time></trkpt><trkpt lat="45.774659164773816" lon="12.997865049811224"><ele>6.0</ele><time>2026-04-04T09:19:14Z</time></trkpt><trkpt lat="45.77458872590511" lon="12.997822186390804"><ele>6.0</ele><time>2026-04-04T09:19:15Z</time></trkpt><trkpt lat="45.774521755592666" lon="12.997779919045612"><ele>6.0</ele><time>2026-04-04T09:19:16Z</time></trkpt><trkpt lat="45.7744489904602" lon="12.99771995985081"><ele>6.0</ele><time>2026-04-04T09:19:17Z</time></trkpt><trkpt lat="45.774368923153176" lon="12.997636551666332"><ele>6.0</ele><time>2026-04-04T09:19:18Z</time></trkpt><trkpt lat="45.774295843329554" lon="12.997555510222318"><ele>6.166666666666667</ele><time>2026-04-04T09:19:19Z</time></trkpt><trkpt lat="45.774233761305894" lon="12.997474977048716"><ele>6.333333333333334</ele><time>2026-04-04T09:19:20.001Z</time></trkpt><trkpt lat="45.77418132532512" lon="12.997387445293"><ele>6.5</ele><time>2026-04-04T09:19:21.001Z</time></trkpt><trkpt lat="45.77413582753108" lon="12.997293396426734"><ele>6.666666666666667</ele><time>2026-04-04T09:19:22.001Z</time></trkpt><trkpt lat="45.77410230138265" lon="12.997204183984714"><ele>6.833333333333334</ele><time>2026-04-04T09:19:23.001Z</time></trkpt><trkpt lat="45.774063856218454" lon="12.997082333648715"><ele>7.0</ele><time>2026-04-04T09:19:25.001Z</time></trkpt><trkpt lat="45.77405815448879" lon="12.996983746261783"><ele>7.0</ele><time>2026-04-04T09:19:47Z</time></trkpt><trkpt lat="45.7740235198972" lon="12.996906419520858"><ele>6.999999999999999</ele><time>2026-04-04T09:19:51Z</time></trkpt><trkpt lat="45.7739489442087" lon="12.99690056565505"><ele>6.999999999999999</ele><time>2026-04-04T09:20:04Z</time></trkpt><trkpt lat="45.77389598605125" lon="12.996985167628806"><ele>7.0</ele><time>2026-04-04T09:20:05Z</time></trkpt><trkpt lat="45.77380253374196" lon="12.997051621763283"><ele>7.0</ele><time>2026-04-04T09:20:06Z</time></trkpt><trkpt lat="45.7736104154419" lon="12.997073642228957"><ele>7.0</ele><time>2026-04-04T09:20:07Z</time></trkpt><trkpt lat="45.77340646678394" lon="12.997060767364633"><ele>7.0</ele><time>2026-04-04T09:20:08Z</time></trkpt><trkpt lat="45.77322291739101" lon="12.997115890596575"><ele>7.0</ele><time>2026-04-04T09:20:09Z</time></trkpt><trkpt lat="45.77316458404247" lon="12.997218081637843"><ele>7.0</ele><time>2026-04-04T09:20:10Z</time></trkpt><trkpt lat="45.77313618357941" lon="12.997355109572807"><ele>6.999999999999999</ele><time>2026-04-04T09:20:11Z</time></trkpt><trkpt lat="45.773032157511814" lon="12.997307240612072"><ele>6.999999999999999</ele><time>2026-04-04T09:20:12Z</time></trkpt><trkpt lat="45.772995708406484" lon="12.997432309949469"><ele>7.0</ele><time>2026-04-04T09:20:13Z</time></trkpt><trkpt lat="45.77287316853472" lon="12.997494550944522"><ele>7.0</ele><time>2026-04-04T09:20:14Z</time></trkpt><trkpt lat="45.772780100444834" lon="12.997543343765242"><ele>7.0</ele><time>2026-04-04T09:20:15Z</time></trkpt><trkpt lat="45.77269870058714" lon="12.997465771181192"><ele>6.999999999999999</ele><time>2026-04-04T09:20:17Z</time></trkpt><trkpt lat="45.772653448240945" lon="12.997564270176541"><ele>6.999999999999999</ele><time>2026-04-04T09:20:38Z</time></trkpt><trkpt lat="45.77259133378951" lon="12.997587017596965"><ele>7.0</ele><time>2026-04-04T09:20:39Z</time></trkpt><trkpt lat="45.77247929753788" lon="12.997635747149374"><ele>7.0</ele><time>2026-04-04T09:20:41Z</time></trkpt><trkpt lat="45.77235282420303" lon="12.997688621444768"><ele>6.8</ele><time>2026-04-04T09:20:43.001Z</time></trkpt><trkpt lat="45.77226768173118" lon="12.997717483153416"><ele>6.6</ele><time>2026-04-04T09:20:44.001Z</time></trkpt><trkpt lat="45.77215946123175" lon="12.99773820608742"><ele>6.3999999999999995</ele><time>2026-04-04T09:20:45.001Z</time></trkpt><trkpt lat="45.77206100335399" lon="12.99777174442907"><ele>6.199999999999999</ele><time>2026-04-04T09:20:46.001Z</time></trkpt><trkpt lat="45.77195378663043" lon="12.99783176964722"><ele>6.0</ele><time>2026-04-04T09:20:47.001Z</time></trkpt><trkpt lat="45.77185210043668" lon="12.997907916817395"><ele>6.4</ele><time>2026-04-04T09:20:48.001Z</time></trkpt><trkpt lat="45.771746481489224" lon="12.99797067056579"><ele>6.8</ele><time>2026-04-04T09:20:49.001Z</time></trkpt><trkpt lat="45.771648362304184" lon="12.99800914313723"><ele>7.200000000000001</ele><time>2026-04-04T09:20:50.001Z</time></trkpt><trkpt lat="45.771577181574926" lon="12.998057606370212"><ele>7.6000000000000005</ele><time>2026-04-04T09:20:51.001Z</time></trkpt><trkpt lat="45.77150122818586" lon="12.998110368816853"><ele>8.0</ele><time>2026-04-04T09:20:52.001Z</time></trkpt><trkpt lat="45.77141154817907" lon="12.998118450721886"><ele>8.0</ele><time>2026-04-04T09:20:53.001Z</time></trkpt><trkpt lat="45.77133929475583" lon="12.998203026148156"><ele>8.0</ele><time>2026-04-04T09:20:54.001Z</time></trkpt><trkpt lat="45.77125220512605" lon="12.998261299427002"><ele>8.0</ele><time>2026-04-04T09:20:55.001Z</time></trkpt><trkpt lat="45.77116557660814" lon="12.998313282971353"><ele>8.0</ele><time>2026-04-04T09:20:56.001Z</time></trkpt><trkpt lat="45.77106798433985" lon="12.99837785330746"><ele>8.0</ele><time>2026-04-04T09:20:57.001Z</time></trkpt><trkpt lat="45.77095957330719" lon="12.998413790729623"><ele>7.6000000000000005</ele><time>2026-04-04T09:20:58.001Z</time></trkpt><trkpt lat="45.770844351625755" lon="12.998422703946726"><ele>7.200000000000001</ele><time>2026-04-04T09:20:59.001Z</time></trkpt><trkpt lat="45.77076281294928" lon="12.99834531074253"><ele>6.8</ele><time>2026-04-04T09:21:00.001Z</time></trkpt><trkpt lat="45.77068213130048" lon="12.998289264555918"><ele>6.4</ele><time>2026-04-04T09:21:01.001Z</time></trkpt><trkpt lat="45.77060386893283" lon="12.99820938810511"><ele>6.0</ele><time>2026-04-04T09:21:02.001Z</time></trkpt><trkpt lat="45.770552550865176" lon="12.998102787946376"><ele>6.0</ele><time>2026-04-04T09:21:03.001Z</time></trkpt><trkpt lat="45.770513422322516" lon="12.997975885552304"><ele>6.0</ele><time>2026-04-04T09:21:04.001Z</time></trkpt><trkpt lat="45.77047403249385" lon="12.997843800491424"><ele>6.0</ele><time>2026-04-04T09:21:05.001Z</time></trkpt><trkpt lat="45.77043349632501" lon="12.997704997127762"><ele>6.0</ele><time>2026-04-04T09:21:06.001Z</time></trkpt><trkpt lat="45.7703906211494" lon="12.997557900292241"><ele>6.0</ele><time>2026-04-04T09:21:07.001Z</time></trkpt><trkpt lat="45.77034440054766" lon="12.997399758942121"><ele>5.0</ele><time>2026-04-04T09:21:08.001Z</time></trkpt><trkpt lat="45.77029833330689" lon="12.99724212816031"><ele>4.0</ele><time>2026-04-04T09:21:09.001Z</time></trkpt><trkpt lat="45.77025163814742" lon="12.997080095544968"><ele>3.0</ele><time>2026-04-04T09:21:10.001Z</time></trkpt><trkpt lat="45.77020394184637" lon="12.996916677845988"><ele>2.0</ele><time>2026-04-04T09:21:11.001Z</time></trkpt><trkpt lat="45.7701578129" lon="12.99675957469346"><ele>2.5</ele><time>2026-04-04T09:21:12.001Z</time></trkpt><trkpt lat="45.77011645158368" lon="12.996620257856268"><ele>3.0</ele><time>2026-04-04T09:21:13.001Z</time></trkpt><trkpt lat="45.77008068138998" lon="12.996501306885083"><ele>3.5</ele><time>2026-04-04T09:21:14.001Z</time></trkpt><trkpt lat="45.770047705657376" lon="12.996391648497138"><ele>4.0</ele><time>2026-04-04T09:21:15.001Z</time></trkpt><trkpt lat="45.770019855743335" lon="12.996299036163853"><ele>4.5</ele><time>2026-04-04T09:21:16.001Z</time></trkpt><trkpt lat="45.76998489039583" lon="12.99618276189852"><ele>5.0</ele><time>2026-04-04T09:21:18.001Z</time></trkpt><trkpt lat="45.76995467031554" lon="12.996082740662581"><ele>5.0</ele><time>2026-04-04T09:21:20.001Z</time></trkpt><trkpt lat="45.76989504441422" lon="12.995938618239697"><ele>5.0</ele><time>2026-04-04T09:21:22.001Z</time></trkpt><trkpt lat="45.76987275174968" lon="12.995777339452244"><ele>5.0</ele><time>2026-04-04T09:21:24.001Z</time></trkpt><trkpt lat="45.76985826975468" lon="12.995685546971364"><ele>5.0</ele><time>2026-04-04T09:21:25.001Z</time></trkpt><trkpt lat="45.76986595456028" lon="12.995579980506303"><ele>5.0</ele><time>2026-04-04T09:21:26.001Z</time></trkpt><trkpt lat="45.76989375722871" lon="12.99547157765467"><ele>5.4</ele><time>2026-04-04T09:21:27.001Z</time></trkpt><trkpt lat="45.76993927343099" lon="12.995363724467621"><ele>5.8</ele><time>2026-04-04T09:21:28.001Z</time></trkpt><trkpt lat="45.77000431106556" lon="12.995271118909226"><ele>6.199999999999999</ele><time>2026-04-04T09:21:29.001Z</time></trkpt><trkpt lat="45.770057271588065" lon="12.995169003850533"><ele>6.6</ele><time>2026-04-04T09:21:30.001Z</time></trkpt><trkpt lat="45.77010413238241" lon="12.995077552118273"><ele>7.0</ele><time>2026-04-04T09:21:31.001Z</time></trkpt><trkpt lat="45.770233667879374" lon="12.995082710926058"><ele>7.0</ele><time>2026-04-04T09:21:32.001Z</time></trkpt><trkpt lat="45.77035394847232" lon="12.995069570500007"><ele>7.0</ele><time>2026-04-04T09:21:33.001Z</time></trkpt><trkpt lat="45.77049275419199" lon="12.995056955116935"><ele>7.0</ele><time>2026-04-04T09:21:34.001Z</time></trkpt><trkpt lat="45.770651050994594" lon="12.995045816472881"><ele>7.0</ele><time>2026-04-04T09:21:35.001Z</time></trkpt><trkpt lat="45.77081932468964" lon="12.995015361961494"><ele>7.0</ele><time>2026-04-04T09:21:36.001Z</time></trkpt><trkpt lat="45.77097556233673" lon="12.99500471220014"><ele>7.0</ele><time>2026-04-04T09:21:37.001Z</time></trkpt><trkpt lat="45.77113055049954" lon="12.994986775261475"><ele>7.0</ele><time>2026-04-04T09:21:38.001Z</time></trkpt><trkpt lat="45.77126355934262" lon="12.994971292080022"><ele>7.0</ele><time>2026-04-04T09:21:39.001Z</time></trkpt><trkpt lat="45.77139060378625" lon="12.994947060083804"><ele>7.25</ele><time>2026-04-04T09:21:40.001Z</time></trkpt><trkpt lat="45.7715214750284" lon="12.994918150031756"><ele>7.5</ele><time>2026-04-04T09:21:41.001Z</time></trkpt><trkpt lat="45.77166282261816" lon="12.994873011159058"><ele>7.75</ele><time>2026-04-04T09:21:42.001Z</time></trkpt><trkpt lat="45.77182191226952" lon="12.994798078952075"><ele>8.0</ele><time>2026-04-04T09:21:43Z</time></trkpt><trkpt lat="45.77198239758515" lon="12.99470740600295"><ele>6.666666666666666</ele><time>2026-04-04T09:21:44Z</time></trkpt><trkpt lat="45.77214280104915" lon="12.994637224673795"><ele>5.333333333333333</ele><time>2026-04-04T09:21:45Z</time></trkpt><trkpt lat="45.77229690590208" lon="12.994534684271134"><ele>4.0</ele><time>2026-04-04T09:21:46Z</time></trkpt><trkpt lat="45.77244938035233" lon="12.994434953843589"><ele>4.0</ele><time>2026-04-04T09:21:47Z</time></trkpt><trkpt lat="45.772597394277284" lon="12.994326006962462"><ele>4.0</ele><time>2026-04-04T09:21:48Z</time></trkpt><trkpt lat="45.77274244542125" lon="12.994217018762072"><ele>4.0</ele><time>2026-04-04T09:21:49Z</time></trkpt><trkpt lat="45.77288400398492" lon="12.994112824277364"><ele>3.75</ele><time>2026-04-04T09:21:50Z</time></trkpt><trkpt lat="45.773021617899104" lon="12.994015415139962"><ele>3.5</ele><time>2026-04-04T09:21:51Z</time></trkpt><trkpt lat="45.77315254238588" lon="12.993915165746905"><ele>3.25</ele><time>2026-04-04T09:21:52Z</time></trkpt><trkpt lat="45.773282271171276" lon="12.993824329905054"><ele>3.0</ele><time>2026-04-04T09:21:53Z</time></trkpt><trkpt lat="45.77341804449875" lon="12.993734749805027"><ele>3.0</ele><time>2026-04-04T09:21:54Z</time></trkpt><trkpt lat="45.77355313190525" lon="12.993632356067748"><ele>3.0</ele><time>2026-04-04T09:21:55Z</time></trkpt><trkpt lat="45.77370354381313" lon="12.993546080106965"><ele>3.0</ele><time>2026-04-04T09:21:56Z</time></trkpt><trkpt lat="45.773845912455755" lon="12.993448228000663"><ele>4.333333333333334</ele><time>2026-04-04T09:21:57Z</time></trkpt><trkpt lat="45.7739889109159" lon="12.993333502764848"><ele>5.666666666666667</ele><time>2026-04-04T09:21:58Z</time></trkpt><trkpt lat="45.77413616038004" lon="12.993223598106598"><ele>7.0</ele><time>2026-04-04T09:21:59Z</time></trkpt><trkpt lat="45.77428863928696" lon="12.993122184999688"><ele>7.0</ele><time>2026-04-04T09:22:00Z</time></trkpt><trkpt lat="45.77443268930743" lon="12.9930286234901"><ele>7.0</ele><time>2026-04-04T09:22:01Z</time></trkpt><trkpt lat="45.7745806094879" lon="12.992929866979294"><ele>7.0</ele><time>2026-04-04T09:22:02Z</time></trkpt><trkpt lat="45.77472612676545" lon="12.992832961108586"><ele>7.0</ele><time>2026-04-04T09:22:03Z</time></trkpt><trkpt lat="45.77487170115907" lon="12.99275584220835"><ele>7.0</ele><time>2026-04-04T09:22:04Z</time></trkpt><trkpt lat="45.774998488865755" lon="12.99265153984581"><ele>7.0</ele><time>2026-04-04T09:22:05Z</time></trkpt><trkpt lat="45.77512392097874" lon="12.992573009912995"><ele>7.0</ele><time>2026-04-04T09:22:06Z</time></trkpt><trkpt lat="45.775235697438646" lon="12.992492766630074"><ele>7.0</ele><time>2026-04-04T09:22:07Z</time></trkpt><trkpt lat="45.77534577309702" lon="12.99241911033079"><ele>7.0</ele><time>2026-04-04T09:22:08Z</time></trkpt><trkpt lat="45.775433693588404" lon="12.992331713781029"><ele>7.0</ele><time>2026-04-04T09:22:09Z</time></trkpt><trkpt lat="45.775520711266026" lon="12.992214186168148"><ele>7.0</ele><time>2026-04-04T09:22:10Z</time></trkpt><trkpt lat="45.77557756503354" lon="12.992084335375118"><ele>7.0</ele><time>2026-04-04T09:22:11Z</time></trkpt><trkpt lat="45.77561725956958" lon="12.991943438007318"><ele>7.0</ele><time>2026-04-04T09:22:12Z</time></trkpt><trkpt lat="45.77563614202187" lon="12.991766712572248"><ele>7.0</ele><time>2026-04-04T09:22:13Z</time></trkpt><trkpt lat="45.7756552774304" lon="12.991548819637469"><ele>7.0</ele><time>2026-04-04T09:22:14Z</time></trkpt><trkpt lat="45.77566869917525" lon="12.991300745808516"><ele>7.333333333333334</ele><time>2026-04-04T09:22:15Z</time></trkpt><trkpt lat="45.775685814791615" lon="12.991047760363042"><ele>7.666666666666666</ele><time>2026-04-04T09:22:16Z</time></trkpt><trkpt lat="45.77569478671608" lon="12.990807377355633"><ele>8.0</ele><time>2026-04-04T09:22:17Z</time></trkpt><trkpt lat="45.775699544233326" lon="12.990575038370986"><ele>8.0</ele><time>2026-04-04T09:22:18Z</time></trkpt><trkpt lat="45.775700794894064" lon="12.990333970636788"><ele>8.0</ele><time>2026-04-04T09:22:19Z</time></trkpt><trkpt lat="45.775702209448475" lon="12.990081827535134"><ele>8.0</ele><time>2026-04-04T09:22:20Z</time></trkpt><trkpt lat="45.77569581288832" lon="12.989827575741439"><ele>8.0</ele><time>2026-04-04T09:22:21Z</time></trkpt><trkpt lat="45.77568541867816" lon="12.989562103460262"><ele>8.0</ele><time>2026-04-04T09:22:22Z</time></trkpt><trkpt lat="45.775679295631754" lon="12.989289095047116"><ele>8.0</ele><time>2026-04-04T09:22:23Z</time></trkpt><trkpt lat="45.77567771016604" lon="12.989023196825608"><ele>7.666666666666666</ele><time>2026-04-04T09:22:24Z</time></trkpt><trkpt lat="45.775672024398226" lon="12.988778263196783"><ele>7.333333333333334</ele><time>2026-04-04T09:22:25Z</time></trkpt><trkpt lat="45.775668652290726" lon="12.988541750231777"><ele>7.0</ele><time>2026-04-04T09:22:26Z</time></trkpt><trkpt lat="45.77566575018295" lon="12.988302068555004"><ele>6.666666666666667</ele><time>2026-04-04T09:22:27Z</time></trkpt><trkpt lat="45.775659996722396" lon="12.98806276258812"><ele>6.333333333333334</ele><time>2026-04-04T09:22:28Z</time></trkpt><trkpt lat="45.775656488612135" lon="12.987823235776183"><ele>6.0</ele><time>2026-04-04T09:22:29Z</time></trkpt><trkpt lat="45.77565260096399" lon="12.987593274949711"><ele>5.666666666666667</ele><time>2026-04-04T09:22:30Z</time></trkpt><trkpt lat="45.775650314907615" lon="12.987352149046803"><ele>5.333333333333334</ele><time>2026-04-04T09:22:31Z</time></trkpt><trkpt lat="45.77564697639196" lon="12.987115000392276"><ele>5.0</ele><time>2026-04-04T09:22:32Z</time></trkpt><trkpt lat="45.77564559809457" lon="12.986873461634937"><ele>5.333333333333334</ele><time>2026-04-04T09:22:33Z</time></trkpt><trkpt lat="45.77565230160601" lon="12.986615769873051"><ele>5.666666666666667</ele><time>2026-04-04T09:22:34Z</time></trkpt><trkpt lat="45.77566184670011" lon="12.986349152691398"><ele>6.0</ele><time>2026-04-04T09:22:35Z</time></trkpt><trkpt lat="45.77568142664226" lon="12.986080985982289"><ele>6.333333333333334</ele><time>2026-04-04T09:22:36Z</time></trkpt><trkpt lat="45.775709233691245" lon="12.985809582514769"><ele>6.666666666666667</ele><time>2026-04-04T09:22:37Z</time></trkpt><trkpt lat="45.77573795756253" lon="12.985553988296322"><ele>7.0</ele><time>2026-04-04T09:22:38.001Z</time></trkpt><trkpt lat="45.77576876830666" lon="12.98530431116009"><ele>7.0</ele><time>2026-04-04T09:22:39.001Z</time></trkpt><trkpt lat="45.77580251393409" lon="12.985057338701532"><ele>7.0</ele><time>2026-04-04T09:22:40.001Z</time></trkpt><trkpt lat="45.77584530657471" lon="12.984819055731847"><ele>7.0</ele><time>2026-04-04T09:22:41.001Z</time></trkpt><trkpt lat="45.7758944335852" lon="12.9845764869375"><ele>7.0</ele><time>2026-04-04T09:22:42.001Z</time></trkpt><trkpt lat="45.77594912338993" lon="12.98434547503044"><ele>7.0</ele><time>2026-04-04T09:22:43.001Z</time></trkpt><trkpt lat="45.776005124898134" lon="12.984121606788413"><ele>7.0</ele><time>2026-04-04T09:22:44.001Z</time></trkpt><trkpt lat="45.77606139003766" lon="12.983896533889796"><ele>6.666666666666667</ele><time>2026-04-04T09:22:45.001Z</time></trkpt><trkpt lat="45.77612828428369" lon="12.98367567348425"><ele>6.333333333333334</ele><time>2026-04-04T09:22:46.001Z</time></trkpt><trkpt lat="45.77620032882661" lon="12.983454367297947"><ele>6.0</ele><time>2026-04-04T09:22:47.001Z</time></trkpt><trkpt lat="45.77626860807237" lon="12.983225108156052"><ele>6.0</ele><time>2026-04-04T09:22:48.001Z</time></trkpt><trkpt lat="45.77634111943519" lon="12.983004782062954"><ele>6.0</ele><time>2026-04-04T09:22:49.001Z</time></trkpt><trkpt lat="45.77642602927839" lon="12.982784897420592"><ele>6.0</ele><time>2026-04-04T09:22:50.001Z</time></trkpt><trkpt lat="45.776515705287174" lon="12.98257572527054"><ele>6.0</ele><time>2026-04-04T09:22:51.001Z</time></trkpt><trkpt lat="45.77661085868137" lon="12.982360836487434"><ele>6.0</ele><time>2026-04-04T09:22:52.001Z</time></trkpt><trkpt lat="45.77671152629047" lon="12.98214404016293"><ele>6.0</ele><time>2026-04-04T09:22:53.001Z</time></trkpt><trkpt lat="45.776818106841574" lon="12.981932886025676"><ele>5.666666666666667</ele><time>2026-04-04T09:22:54.001Z</time></trkpt><trkpt lat="45.77692939704574" lon="12.981729554080992"><ele>5.333333333333334</ele><time>2026-04-04T09:22:55.001Z</time></trkpt><trkpt lat="45.77704263629088" lon="12.98153695633102"><ele>5.0</ele><time>2026-04-04T09:22:56.001Z</time></trkpt><trkpt lat="45.777157684172195" lon="12.981354028812664"><ele>5.0</ele><time>2026-04-04T09:22:57.001Z</time></trkpt><trkpt lat="45.77727357878909" lon="12.981178909961466"><ele>5.0</ele><time>2026-04-04T09:22:58.001Z</time></trkpt><trkpt lat="45.777390825491935" lon="12.981014356128382"><ele>5.0</ele><time>2026-04-04T09:22:59.001Z</time></trkpt><trkpt lat="45.77750504273888" lon="12.980865290161326"><ele>5.0</ele><time>2026-04-04T09:23:00.001Z</time></trkpt><trkpt lat="45.77761790284586" lon="12.980722844757715"><ele>5.0</ele><time>2026-04-04T09:23:01.001Z</time></trkpt><trkpt lat="45.77773608753503" lon="12.98057647876629"><ele>5.0</ele><time>2026-04-04T09:23:02.001Z</time></trkpt><trkpt lat="45.777856314264746" lon="12.98042838351086"><ele>5.0</ele><time>2026-04-04T09:23:03.001Z</time></trkpt><trkpt lat="45.777975795519275" lon="12.980292971422205"><ele>5.0</ele><time>2026-04-04T09:23:04.001Z</time></trkpt><trkpt lat="45.77808797035636" lon="12.98018164136112"><ele>5.0</ele><time>2026-04-04T09:23:05.001Z</time></trkpt><trkpt lat="45.7782130481925" lon="12.98009599260699"><ele>5.0</ele><time>2026-04-04T09:23:06.001Z</time></trkpt><trkpt lat="45.77834165371931" lon="12.980012057142762"><ele>5.0</ele><time>2026-04-04T09:23:07.001Z</time></trkpt><trkpt lat="45.778405404340155" lon="12.979874063968886"><ele>5.0</ele><time>2026-04-04T09:23:08.001Z</time></trkpt><trkpt lat="45.778505300106104" lon="12.979779889278927"><ele>5.0</ele><time>2026-04-04T09:23:09.001Z</time></trkpt><trkpt lat="45.77862260893158" lon="12.979690241767766"><ele>5.0</ele><time>2026-04-04T09:23:10.001Z</time></trkpt><trkpt lat="45.77873942033192" lon="12.979605573921958"><ele>5.0</ele><time>2026-04-04T09:23:11.001Z</time></trkpt><trkpt lat="45.778852383473364" lon="12.979532976252104"><ele>5.0</ele><time>2026-04-04T09:23:12.001Z</time></trkpt><trkpt lat="45.77896577942692" lon="12.979461898243436"><ele>5.0</ele><time>2026-04-04T09:23:13.001Z</time></trkpt><trkpt lat="45.77908279529922" lon="12.979389679172984"><ele>5.0</ele><time>2026-04-04T09:23:14.001Z</time></trkpt><trkpt lat="45.779199223188" lon="12.979324483307417"><ele>5.0</ele><time>2026-04-04T09:23:15.001Z</time></trkpt><trkpt lat="45.77931226635902" lon="12.97925667269731"><ele>5.0</ele><time>2026-04-04T09:23:16.001Z</time></trkpt><trkpt lat="45.779426806535774" lon="12.97919263041503"><ele>5.0</ele><time>2026-04-04T09:23:17.001Z</time></trkpt><trkpt lat="45.77954300327254" lon="12.979158467652956"><ele>5.0</ele><time>2026-04-04T09:23:18.001Z</time></trkpt><trkpt lat="45.77965456153916" lon="12.97911681456685"><ele>5.4</ele><time>2026-04-04T09:23:19.001Z</time></trkpt><trkpt lat="45.77976685073806" lon="12.979080038986258"><ele>5.8</ele><time>2026-04-04T09:23:20.001Z</time></trkpt><trkpt lat="45.77987596851765" lon="12.979047060886801"><ele>6.199999999999999</ele><time>2026-04-04T09:23:21.001Z</time></trkpt><trkpt lat="45.77997712684732" lon="12.97901648835289"><ele>6.6</ele><time>2026-04-04T09:23:22.001Z</time></trkpt><trkpt lat="45.780085963180625" lon="12.978983727491434"><ele>7.0</ele><time>2026-04-04T09:23:23.001Z</time></trkpt><trkpt lat="45.78018492598039" lon="12.978955182269633"><ele>7.0</ele><time>2026-04-04T09:23:24.001Z</time></trkpt><trkpt lat="45.78028703687754" lon="12.978925728907148"><ele>6.999999999999999</ele><time>2026-04-04T09:23:25.001Z</time></trkpt><trkpt lat="45.780385881694215" lon="12.978897217706441"><ele>6.999999999999999</ele><time>2026-04-04T09:23:26.001Z</time></trkpt><trkpt lat="45.78048605406008" lon="12.978868324881164"><ele>7.0</ele><time>2026-04-04T09:23:27.001Z</time></trkpt><trkpt lat="45.78058151058335" lon="12.978839021643923"><ele>7.0</ele><time>2026-04-04T09:23:28.001Z</time></trkpt><trkpt lat="45.78066406905943" lon="12.978785843731265"><ele>7.000000000000001</ele><time>2026-04-04T09:23:29.001Z</time></trkpt><trkpt lat="45.78075110894951" lon="12.97877760048846"><ele>7.0</ele><time>2026-04-04T09:23:30.001Z</time></trkpt><trkpt lat="45.78082683437782" lon="12.978748716558751"><ele>7.0</ele><time>2026-04-04T09:23:31.001Z</time></trkpt><trkpt lat="45.78090018239816" lon="12.978726502500155"><ele>7.0</ele><time>2026-04-04T09:23:32.001Z</time></trkpt><trkpt lat="45.78097125126042" lon="12.978709322854074"><ele>7.000000000000001</ele><time>2026-04-04T09:23:33.001Z</time></trkpt><trkpt lat="45.78104156058066" lon="12.978688521392348"><ele>7.0</ele><time>2026-04-04T09:23:34.001Z</time></trkpt><trkpt lat="45.78114433905011" lon="12.97861815810161"><ele>6.8</ele><time>2026-04-04T09:23:36.001Z</time></trkpt><trkpt lat="45.7812063012214" lon="12.978519749390344"><ele>6.6</ele><time>2026-04-04T09:23:37.001Z</time></trkpt><trkpt lat="45.7812536905869" lon="12.978395217428455"><ele>6.3999999999999995</ele><time>2026-04-04T09:23:38.001Z</time></trkpt><trkpt lat="45.78128906984827" lon="12.9782591428646"><ele>6.199999999999999</ele><time>2026-04-04T09:23:39.001Z</time></trkpt><trkpt lat="45.78133805529651" lon="12.97813436198949"><ele>6.0</ele><time>2026-04-04T09:23:40.001Z</time></trkpt><trkpt lat="45.78136827832509" lon="12.977967240349935"><ele>6.4</ele><time>2026-04-04T09:23:41.001Z</time></trkpt><trkpt lat="45.781380352900925" lon="12.977836728748086"><ele>6.8</ele><time>2026-04-04T09:23:42.001Z</time></trkpt><trkpt lat="45.78140938326563" lon="12.977720121745483"><ele>7.200000000000001</ele><time>2026-04-04T09:23:43.001Z</time></trkpt><trkpt lat="45.78147950769811" lon="12.977628082084722"><ele>7.6000000000000005</ele><time>2026-04-04T09:23:44.001Z</time></trkpt><trkpt lat="45.78156401511938" lon="12.97753435157573"><ele>8.0</ele><time>2026-04-04T09:23:45.001Z</time></trkpt><trkpt lat="45.78164983108355" lon="12.977445076363312"><ele>8.0</ele><time>2026-04-04T09:23:46.001Z</time></trkpt><trkpt lat="45.78172956522205" lon="12.977342492594131"><ele>8.0</ele><time>2026-04-04T09:23:47.001Z</time></trkpt><trkpt lat="45.78182053812291" lon="12.977259082724043"><ele>8.0</ele><time>2026-04-04T09:23:48.001Z</time></trkpt><trkpt lat="45.781890655672136" lon="12.977174575924941"><ele>8.0</ele><time>2026-04-04T09:23:49Z</time></trkpt><trkpt lat="45.7819447072844" lon="12.977060723624007"><ele>8.0</ele><time>2026-04-04T09:23:50Z</time></trkpt><trkpt lat="45.781980661489904" lon="12.976902653678096"><ele>8.0</ele><time>2026-04-04T09:23:51Z</time></trkpt><trkpt lat="45.781998833503856" lon="12.976726857484962"><ele>8.0</ele><time>2026-04-04T09:23:52Z</time></trkpt><trkpt lat="45.78199915519555" lon="12.976545211180566"><ele>8.0</ele><time>2026-04-04T09:23:53Z</time></trkpt><trkpt lat="45.78197878449475" lon="12.976358419802754"><ele>8.0</ele><time>2026-04-04T09:23:54Z</time></trkpt><trkpt lat="45.78194025269442" lon="12.976165273245568"><ele>8.0</ele><time>2026-04-04T09:23:55Z</time></trkpt><trkpt lat="45.78189555310208" lon="12.975964612327326"><ele>8.0</ele><time>2026-04-04T09:23:56Z</time></trkpt><trkpt lat="45.78185987130727" lon="12.975758213724346"><ele>8.0</ele><time>2026-04-04T09:23:57Z</time></trkpt><trkpt lat="45.78183137549377" lon="12.975551225676785"><ele>8.0</ele><time>2026-04-04T09:23:58Z</time></trkpt><trkpt lat="45.78181821926411" lon="12.975348772797691"><ele>7.25</ele><time>2026-04-04T09:23:59Z</time></trkpt><trkpt lat="45.781809064996374" lon="12.975146974946309"><ele>6.5</ele><time>2026-04-04T09:24:00Z</time></trkpt><trkpt lat="45.781809867488924" lon="12.974943901470509"><ele>5.75</ele><time>2026-04-04T09:24:01Z</time></trkpt><trkpt lat="45.78181401451175" lon="12.974743372610387"><ele>5.0</ele><time>2026-04-04T09:24:02Z</time></trkpt><trkpt lat="45.7818285912844" lon="12.974544839074781"><ele>5.0</ele><time>2026-04-04T09:24:03Z</time></trkpt><trkpt lat="45.78185990012741" lon="12.974361384847853"><ele>5.0</ele><time>2026-04-04T09:24:04Z</time></trkpt><trkpt lat="45.7819022336054" lon="12.974201581235723"><ele>5.0</ele><time>2026-04-04T09:24:05Z</time></trkpt><trkpt lat="45.781980444213374" lon="12.974086721625817"><ele>5.0</ele><time>2026-04-04T09:24:06Z</time></trkpt><trkpt lat="45.78205516931431" lon="12.973957415826623"><ele>5.25</ele><time>2026-04-04T09:24:07Z</time></trkpt><trkpt lat="45.78217859871386" lon="12.97386052890558"><ele>5.5</ele><time>2026-04-04T09:24:08Z</time></trkpt><trkpt lat="45.78230178384332" lon="12.97373296614004"><ele>5.75</ele><time>2026-04-04T09:24:09Z</time></trkpt><trkpt lat="45.78242549597338" lon="12.973640688484295"><ele>6.0</ele><time>2026-04-04T09:24:10Z</time></trkpt><trkpt lat="45.78253780407405" lon="12.973566728382066"><ele>6.0</ele><time>2026-04-04T09:24:11Z</time></trkpt><trkpt lat="45.78265232257002" lon="12.97348937219893"><ele>6.0</ele><time>2026-04-04T09:24:12Z</time></trkpt><trkpt lat="45.78277610075263" lon="12.973407895280348"><ele>6.0</ele><time>2026-04-04T09:24:13Z</time></trkpt><trkpt lat="45.78289853521361" lon="12.973321935968796"><ele>6.0</ele><time>2026-04-04T09:24:14Z</time></trkpt><trkpt lat="45.783018895728254" lon="12.973242426359462"><ele>6.0</ele><time>2026-04-04T09:24:15Z</time></trkpt><trkpt lat="45.783142529267415" lon="12.973158749398744"><ele>6.0</ele><time>2026-04-04T09:24:16Z</time></trkpt><trkpt lat="45.78326748830951" lon="12.973075312519917"><ele>6.0</ele><time>2026-04-04T09:24:17Z</time></trkpt><trkpt lat="45.78339314964166" lon="12.972986302735814"><ele>6.0</ele><time>2026-04-04T09:24:18Z</time></trkpt><trkpt lat="45.783517005094346" lon="12.972900116157328"><ele>6.0</ele><time>2026-04-04T09:24:19Z</time></trkpt><trkpt lat="45.78364205059062" lon="12.972813813563734"><ele>6.0</ele><time>2026-04-04T09:24:20Z</time></trkpt><trkpt lat="45.78376717221597" lon="12.972726898241099"><ele>6.0</ele><time>2026-04-04T09:24:21Z</time></trkpt><trkpt lat="45.78389251266328" lon="12.972642308036441"><ele>6.0</ele><time>2026-04-04T09:24:22Z</time></trkpt><trkpt lat="45.784021412502945" lon="12.97255479269299"><ele>6.0</ele><time>2026-04-04T09:24:23Z</time></trkpt><trkpt lat="45.78414849648964" lon="12.972466512755112"><ele>6.0</ele><time>2026-04-04T09:24:24Z</time></trkpt><trkpt lat="45.78427799135359" lon="12.97238099382022"><ele>6.0</ele><time>2026-04-04T09:24:25Z</time></trkpt><trkpt lat="45.78441013558889" lon="12.972294815108489"><ele>6.0</ele><time>2026-04-04T09:24:26Z</time></trkpt><trkpt lat="45.78455035246703" lon="12.972218233853894"><ele>6.333333333333334</ele><time>2026-04-04T09:24:27Z</time></trkpt><trkpt lat="45.7846809619598" lon="12.972100179976325"><ele>6.666666666666667</ele><time>2026-04-04T09:24:28Z</time></trkpt><trkpt lat="45.784822021611035" lon="12.972007014264578"><ele>7.0</ele><time>2026-04-04T09:24:29Z</time></trkpt><trkpt lat="45.784962576895644" lon="12.971907024987333"><ele>7.0</ele><time>2026-04-04T09:24:30Z</time></trkpt><trkpt lat="45.78510861276832" lon="12.971807856393935"><ele>7.0</ele><time>2026-04-04T09:24:31Z</time></trkpt><trkpt lat="45.78526369321172" lon="12.97173484469246"><ele>7.0</ele><time>2026-04-04T09:24:32Z</time></trkpt><trkpt lat="45.78540074385369" lon="12.971607507377458"><ele>6.666666666666667</ele><time>2026-04-04T09:24:33Z</time></trkpt><trkpt lat="45.78554677918989" lon="12.971504017563792"><ele>6.333333333333334</ele><time>2026-04-04T09:24:34Z</time></trkpt><trkpt lat="45.78568952324042" lon="12.971399183153578"><ele>6.0</ele><time>2026-04-04T09:24:35Z</time></trkpt><trkpt lat="45.78583497550263" lon="12.971301223657816"><ele>6.0</ele><time>2026-04-04T09:24:36Z</time></trkpt><trkpt lat="45.78599197573641" lon="12.971240831247796"><ele>6.0</ele><time>2026-04-04T09:24:37Z</time></trkpt><trkpt lat="45.78613801733295" lon="12.971141685575706"><ele>6.0</ele><time>2026-04-04T09:24:38Z</time></trkpt><trkpt lat="45.78628642420434" lon="12.971040934112228"><ele>6.333333333333334</ele><time>2026-04-04T09:24:39Z</time></trkpt><trkpt lat="45.78643303823636" lon="12.970941399818981"><ele>6.666666666666667</ele><time>2026-04-04T09:24:40Z</time></trkpt><trkpt lat="45.78658137876764" lon="12.970840693410276"><ele>7.0</ele><time>2026-04-04T09:24:41Z</time></trkpt><trkpt lat="45.786726391712264" lon="12.970742246026855"><ele>6.333333333333334</ele><time>2026-04-04T09:24:42Z</time></trkpt><trkpt lat="45.78686726551005" lon="12.970646609603541"><ele>5.666666666666667</ele><time>2026-04-04T09:24:43Z</time></trkpt><trkpt lat="45.78700911651019" lon="12.970550538604847"><ele>5.0</ele><time>2026-04-04T09:24:44Z</time></trkpt><trkpt lat="45.787149328440194" lon="12.97045555014407"><ele>5.0</ele><time>2026-04-04T09:24:45Z</time></trkpt><trkpt lat="45.787290424038794" lon="12.970359962968955"><ele>5.0</ele><time>2026-04-04T09:24:46Z</time></trkpt><trkpt lat="45.787433500597686" lon="12.970263033816028"><ele>5.0</ele><time>2026-04-04T09:24:47Z</time></trkpt><trkpt lat="45.787580172670786" lon="12.97016373490157"><ele>5.333333333333334</ele><time>2026-04-04T09:24:48Z</time></trkpt><trkpt lat="45.78772978929125" lon="12.970063886664962"><ele>5.666666666666667</ele><time>2026-04-04T09:24:49Z</time></trkpt><trkpt lat="45.78787649265131" lon="12.969949493256202"><ele>6.0</ele><time>2026-04-04T09:24:50Z</time></trkpt><trkpt lat="45.788036373065076" lon="12.96985806163338"><ele>6.0</ele><time>2026-04-04T09:24:51Z</time></trkpt><trkpt lat="45.78819342639429" lon="12.969752131260316"><ele>6.0</ele><time>2026-04-04T09:24:52Z</time></trkpt><trkpt lat="45.78834831812128" lon="12.969647487179879"><ele>6.0</ele><time>2026-04-04T09:24:53Z</time></trkpt><trkpt lat="45.78851015737264" lon="12.969538149295257"><ele>6.0</ele><time>2026-04-04T09:24:54Z</time></trkpt><trkpt lat="45.78867758797049" lon="12.969425034021961"><ele>6.0</ele><time>2026-04-04T09:24:55Z</time></trkpt><trkpt lat="45.7888536880158" lon="12.969306061593823"><ele>6.0</ele><time>2026-04-04T09:24:56Z</time></trkpt><trkpt lat="45.78903274634261" lon="12.969185090713713"><ele>6.0</ele><time>2026-04-04T09:24:57Z</time></trkpt><trkpt lat="45.789208906853965" lon="12.969066077516665"><ele>6.0</ele><time>2026-04-04T09:24:58Z</time></trkpt><trkpt lat="45.78938652251969" lon="12.968946081164153"><ele>6.0</ele><time>2026-04-04T09:24:59Z</time></trkpt><trkpt lat="45.78956297729824" lon="12.968826974163223"><ele>6.666666666666666</ele><time>2026-04-04T09:25:00Z</time></trkpt><trkpt lat="45.789739112745686" lon="12.968708108473507"><ele>7.333333333333333</ele><time>2026-04-04T09:25:01Z</time></trkpt><trkpt lat="45.78990287662531" lon="12.968581204233327"><ele>8.0</ele><time>2026-04-04T09:25:02Z</time></trkpt><trkpt lat="45.79007177089653" lon="12.968464635555344"><ele>7.666666666666666</ele><time>2026-04-04T09:25:03Z</time></trkpt><trkpt lat="45.790237028811696" lon="12.968346517180517"><ele>7.333333333333334</ele><time>2026-04-04T09:25:04Z</time></trkpt><trkpt lat="45.790409404069315" lon="12.968255759708011"><ele>7.0</ele><time>2026-04-04T09:25:05.001Z</time></trkpt><trkpt lat="45.79057503547487" lon="12.968143737366072"><ele>7.0</ele><time>2026-04-04T09:25:06.001Z</time></trkpt><trkpt lat="45.79073499168845" lon="12.9680340949796"><ele>7.0</ele><time>2026-04-04T09:25:07.001Z</time></trkpt><trkpt lat="45.79088632935091" lon="12.96790942533852"><ele>7.0</ele><time>2026-04-04T09:25:08.001Z</time></trkpt><trkpt lat="45.791046271813855" lon="12.967821692993706"><ele>6.333333333333334</ele><time>2026-04-04T09:25:09.001Z</time></trkpt><trkpt lat="45.791202871328736" lon="12.967715840979322"><ele>5.666666666666667</ele><time>2026-04-04T09:25:10.001Z</time></trkpt><trkpt lat="45.79136554410727" lon="12.967605449196205"><ele>5.0</ele><time>2026-04-04T09:25:11.001Z</time></trkpt><trkpt lat="45.79152211714408" lon="12.967499284791797"><ele>4.666666666666667</ele><time>2026-04-04T09:25:12.001Z</time></trkpt><trkpt lat="45.79168771800631" lon="12.967386999371731"><ele>4.333333333333333</ele><time>2026-04-04T09:25:13.001Z</time></trkpt><trkpt lat="45.791847006904156" lon="12.967278369023704"><ele>4.0</ele><time>2026-04-04T09:25:14.001Z</time></trkpt><trkpt lat="45.79199710164258" lon="12.96715053713639"><ele>5.0</ele><time>2026-04-04T09:25:15.001Z</time></trkpt><trkpt lat="45.79216717701542" lon="12.967060751551887"><ele>6.0</ele><time>2026-04-04T09:25:16.001Z</time></trkpt><trkpt lat="45.79233095762294" lon="12.966925653988964"><ele>7.0</ele><time>2026-04-04T09:25:17.001Z</time></trkpt><trkpt lat="45.7924989788995" lon="12.966818962607814"><ele>7.0</ele><time>2026-04-04T09:25:18.001Z</time></trkpt><trkpt lat="45.79267179746012" lon="12.966698541150745"><ele>7.0</ele><time>2026-04-04T09:25:19.001Z</time></trkpt><trkpt lat="45.79284706072332" lon="12.966579532136375"><ele>7.0</ele><time>2026-04-04T09:25:20.001Z</time></trkpt><trkpt lat="45.793022718792045" lon="12.966460137578217"><ele>6.666666666666667</ele><time>2026-04-04T09:25:21.001Z</time></trkpt><trkpt lat="45.79318811121755" lon="12.966352518257361"><ele>6.333333333333334</ele><time>2026-04-04T09:25:22.001Z</time></trkpt><trkpt lat="45.793334354117164" lon="12.966253234943474"><ele>6.0</ele><time>2026-04-04T09:25:23.001Z</time></trkpt><trkpt lat="45.793476238457224" lon="12.96615084046293"><ele>6.0</ele><time>2026-04-04T09:25:24.001Z</time></trkpt><trkpt lat="45.79360890715428" lon="12.966063595835069"><ele>6.0</ele><time>2026-04-04T09:25:25.001Z</time></trkpt><trkpt lat="45.79373783612252" lon="12.965969877815517"><ele>6.0</ele><time>2026-04-04T09:25:26.001Z</time></trkpt><trkpt lat="45.79385823857609" lon="12.965913659714504"><ele>6.0</ele><time>2026-04-04T09:25:27.001Z</time></trkpt><trkpt lat="45.793977481054526" lon="12.965832629356807"><ele>6.0</ele><time>2026-04-04T09:25:28.001Z</time></trkpt><trkpt lat="45.794101044107734" lon="12.965748663101982"><ele>6.0</ele><time>2026-04-04T09:25:29.001Z</time></trkpt><trkpt lat="45.794228474148575" lon="12.965662069021015"><ele>6.0</ele><time>2026-04-04T09:25:30.001Z</time></trkpt><trkpt lat="45.794360209038885" lon="12.965572846563383"><ele>6.0</ele><time>2026-04-04T09:25:31.001Z</time></trkpt><trkpt lat="45.794485806312686" lon="12.965487805044345"><ele>6.0</ele><time>2026-04-04T09:25:32.001Z</time></trkpt><trkpt lat="45.794615038785594" lon="12.965400302059027"><ele>6.0</ele><time>2026-04-04T09:25:33.001Z</time></trkpt><trkpt lat="45.79474278707506" lon="12.965313804045696"><ele>6.0</ele><time>2026-04-04T09:25:34.001Z</time></trkpt><trkpt lat="45.79486829705772" lon="12.96522848012663"><ele>6.0</ele><time>2026-04-04T09:25:35.001Z</time></trkpt><trkpt lat="45.79499039843576" lon="12.965145421920363"><ele>6.0</ele><time>2026-04-04T09:25:36.001Z</time></trkpt><trkpt lat="45.795108810079235" lon="12.965064873598084"><ele>6.0</ele><time>2026-04-04T09:25:37.001Z</time></trkpt><trkpt lat="45.795214392307976" lon="12.964992494102907"><ele>6.0</ele><time>2026-04-04T09:25:38.001Z</time></trkpt><trkpt lat="45.79531590380972" lon="12.964922399987275"><ele>6.0</ele><time>2026-04-04T09:25:39.001Z</time></trkpt><trkpt lat="45.795416582127004" lon="12.964854268022162"><ele>6.25</ele><time>2026-04-04T09:25:40.001Z</time></trkpt><trkpt lat="45.79552038614579" lon="12.964784350719913"><ele>6.5</ele><time>2026-04-04T09:25:41.001Z</time></trkpt><trkpt lat="45.795626420190985" lon="12.964712105374284"><ele>6.75</ele><time>2026-04-04T09:25:42.001Z</time></trkpt><trkpt lat="45.795725861966815" lon="12.964640719058941"><ele>7.0</ele><time>2026-04-04T09:25:43.001Z</time></trkpt><trkpt lat="45.79581210119933" lon="12.964543761688194"><ele>7.000000000000001</ele><time>2026-04-04T09:25:44.001Z</time></trkpt><trkpt lat="45.795904053575036" lon="12.964485783813714"><ele>7.0</ele><time>2026-04-04T09:25:45.001Z</time></trkpt><trkpt lat="45.79598228393931" lon="12.96442822539228"><ele>7.0</ele><time>2026-04-04T09:25:46.001Z</time></trkpt><trkpt lat="45.79606128000721" lon="12.964372301288464"><ele>7.0</ele><time>2026-04-04T09:25:47.001Z</time></trkpt><trkpt lat="45.7961398593697" lon="12.964329954854044"><ele>7.000000000000001</ele><time>2026-04-04T09:25:48.001Z</time></trkpt><trkpt lat="45.796213969668294" lon="12.964282043092712"><ele>7.0</ele><time>2026-04-04T09:25:49.001Z</time></trkpt><trkpt lat="45.79629266600114" lon="12.964285871311892"><ele>7.0</ele><time>2026-04-04T09:25:50.001Z</time></trkpt><trkpt lat="45.79637664836281" lon="12.964315966437784"><ele>6.999999999999999</ele><time>2026-04-04T09:25:51.001Z</time></trkpt><trkpt lat="45.796448744374544" lon="12.964403227177325"><ele>6.999999999999999</ele><time>2026-04-04T09:25:52.001Z</time></trkpt><trkpt lat="45.796541380443216" lon="12.964462388518726"><ele>7.0</ele><time>2026-04-04T09:25:53.001Z</time></trkpt><trkpt lat="45.79663172451954" lon="12.964537231417744"><ele>7.0</ele><time>2026-04-04T09:25:54.001Z</time></trkpt><trkpt lat="45.796743322254386" lon="12.964630570646587"><ele>6.75</ele><time>2026-04-04T09:25:55Z</time></trkpt><trkpt lat="45.796852437709035" lon="12.96472111882401"><ele>6.5</ele><time>2026-04-04T09:25:56Z</time></trkpt><trkpt lat="45.79696686277476" lon="12.964826259336505"><ele>6.25</ele><time>2026-04-04T09:25:57Z</time></trkpt><trkpt lat="45.797092791725056" lon="12.964927290141542"><ele>6.0</ele><time>2026-04-04T09:25:58Z</time></trkpt><trkpt lat="45.797220911403684" lon="12.965031307363912"><ele>6.0</ele><time>2026-04-04T09:25:59Z</time></trkpt><trkpt lat="45.79735074368464" lon="12.965140247130545"><ele>6.0</ele><time>2026-04-04T09:26:00Z</time></trkpt><trkpt lat="45.79747953239837" lon="12.965245654249578"><ele>6.0</ele><time>2026-04-04T09:26:01Z</time></trkpt><trkpt lat="45.797612456171734" lon="12.965358221011524"><ele>5.666666666666667</ele><time>2026-04-04T09:26:02Z</time></trkpt><trkpt lat="45.79774980840578" lon="12.965472506478845"><ele>5.333333333333334</ele><time>2026-04-04T09:26:03Z</time></trkpt><trkpt lat="45.797893075578614" lon="12.965586937181923"><ele>5.0</ele><time>2026-04-04T09:26:04Z</time></trkpt><trkpt lat="45.79802733289088" lon="12.965727422072863"><ele>5.0</ele><time>2026-04-04T09:26:05Z</time></trkpt><trkpt lat="45.798184861214466" lon="12.965831840478863"><ele>5.0</ele><time>2026-04-04T09:26:06Z</time></trkpt><trkpt lat="45.79834209902858" lon="12.965961628247667"><ele>5.0</ele><time>2026-04-04T09:26:07Z</time></trkpt><trkpt lat="45.79850756142665" lon="12.966096299330458"><ele>5.333333333333334</ele><time>2026-04-04T09:26:08Z</time></trkpt><trkpt lat="45.798666486871966" lon="12.966230286415149"><ele>5.666666666666667</ele><time>2026-04-04T09:26:09Z</time></trkpt><trkpt lat="45.798825676172214" lon="12.966362248236809"><ele>6.0</ele><time>2026-04-04T09:26:10Z</time></trkpt><trkpt lat="45.79898690584597" lon="12.966498655982598"><ele>6.0</ele><time>2026-04-04T09:26:11Z</time></trkpt><trkpt lat="45.799151065212236" lon="12.966636781019867"><ele>6.0</ele><time>2026-04-04T09:26:12Z</time></trkpt><trkpt lat="45.799316518100454" lon="12.966776291143916"><ele>6.0</ele><time>2026-04-04T09:26:13Z</time></trkpt><trkpt lat="45.79948159926561" lon="12.966915428831948"><ele>6.333333333333334</ele><time>2026-04-04T09:26:14Z</time></trkpt><trkpt lat="45.79964450653672" lon="12.967055332175534"><ele>6.666666666666667</ele><time>2026-04-04T09:26:15Z</time></trkpt><trkpt lat="45.79980791648852" lon="12.96718737138534"><ele>7.0</ele><time>2026-04-04T09:26:16Z</time></trkpt><trkpt lat="45.79996825430752" lon="12.967319152168965"><ele>7.0</ele><time>2026-04-04T09:26:17Z</time></trkpt><trkpt lat="45.80012442842686" lon="12.9674490752056"><ele>7.0</ele><time>2026-04-04T09:26:18Z</time></trkpt><trkpt lat="45.80028134209914" lon="12.967572271291484"><ele>7.0</ele><time>2026-04-04T09:26:19Z</time></trkpt><trkpt lat="45.800430859335755" lon="12.96769903772645"><ele>7.0</ele><time>2026-04-04T09:26:20Z</time></trkpt><trkpt lat="45.800579739675214" lon="12.967819948472277"><ele>7.0</ele><time>2026-04-04T09:26:21Z</time></trkpt><trkpt lat="45.800729068492934" lon="12.967942890325629"><ele>7.0</ele><time>2026-04-04T09:26:22Z</time></trkpt><trkpt lat="45.80087562828476" lon="12.968065545508779"><ele>7.0</ele><time>2026-04-04T09:26:23Z</time></trkpt><trkpt lat="45.80102256176799" lon="12.968188793447132"><ele>7.0</ele><time>2026-04-04T09:26:24Z</time></trkpt><trkpt lat="45.80117314575115" lon="12.968315616251434"><ele>7.0</ele><time>2026-04-04T09:26:25Z</time></trkpt><trkpt lat="45.801327205260506" lon="12.968440549877553"><ele>6.666666666666667</ele><time>2026-04-04T09:26:26Z</time></trkpt><trkpt lat="45.801481489797986" lon="12.968559546358932"><ele>6.333333333333334</ele><time>2026-04-04T09:26:27Z</time></trkpt><trkpt lat="45.80163470177792" lon="12.96868047473326"><ele>6.0</ele><time>2026-04-04T09:26:28Z</time></trkpt><trkpt lat="45.80178318216652" lon="12.968795678282698"><ele>6.666666666666666</ele><time>2026-04-04T09:26:29Z</time></trkpt><trkpt lat="45.80192101556794" lon="12.968904311706199"><ele>7.333333333333333</ele><time>2026-04-04T09:26:30Z</time></trkpt><trkpt lat="45.802056177785644" lon="12.969004066813774"><ele>8.0</ele><time>2026-04-04T09:26:31Z</time></trkpt><trkpt lat="45.80219627029998" lon="12.969102242764102"><ele>8.0</ele><time>2026-04-04T09:26:32Z</time></trkpt><trkpt lat="45.80234435099217" lon="12.969197653962825"><ele>8.0</ele><time>2026-04-04T09:26:33Z</time></trkpt><trkpt lat="45.80249369038038" lon="12.969300328442527"><ele>8.0</ele><time>2026-04-04T09:26:34Z</time></trkpt><trkpt lat="45.80264550909012" lon="12.969402164292978"><ele>8.0</ele><time>2026-04-04T09:26:35Z</time></trkpt><trkpt lat="45.80279891412231" lon="12.969502934133844"><ele>8.0</ele><time>2026-04-04T09:26:36Z</time></trkpt><trkpt lat="45.80295146301565" lon="12.969607272676638"><ele>8.0</ele><time>2026-04-04T09:26:37Z</time></trkpt><trkpt lat="45.80310765387634" lon="12.969711248924144"><ele>8.0</ele><time>2026-04-04T09:26:38Z</time></trkpt><trkpt lat="45.80326412257152" lon="12.969808885697717"><ele>8.0</ele><time>2026-04-04T09:26:39Z</time></trkpt><trkpt lat="45.80341814411542" lon="12.96990168830511"><ele>8.0</ele><time>2026-04-04T09:26:40Z</time></trkpt><trkpt lat="45.80357275503728" lon="12.969999068557962"><ele>7.333333333333333</ele><time>2026-04-04T09:26:41Z</time></trkpt><trkpt lat="45.80372857207488" lon="12.97008522278712"><ele>6.666666666666666</ele><time>2026-04-04T09:26:42Z</time></trkpt><trkpt lat="45.803886487498204" lon="12.970166809771257"><ele>6.0</ele><time>2026-04-04T09:26:43Z</time></trkpt><trkpt lat="45.80404609550825" lon="12.97024079648957"><ele>6.0</ele><time>2026-04-04T09:26:44Z</time></trkpt><trkpt lat="45.80420478816217" lon="12.970311840155592"><ele>6.0</ele><time>2026-04-04T09:26:45Z</time></trkpt><trkpt lat="45.80436412551101" lon="12.97037812171424"><ele>6.0</ele><time>2026-04-04T09:26:46Z</time></trkpt><trkpt lat="45.80452514109525" lon="12.970444844581737"><ele>6.333333333333334</ele><time>2026-04-04T09:26:47Z</time></trkpt><trkpt lat="45.80468663425253" lon="12.970507026822911"><ele>6.666666666666667</ele><time>2026-04-04T09:26:48Z</time></trkpt><trkpt lat="45.80484942416909" lon="12.970569220934848"><ele>7.0</ele><time>2026-04-04T09:26:49Z</time></trkpt><trkpt lat="45.80501210415687" lon="12.970627640995513"><ele>6.666666666666667</ele><time>2026-04-04T09:26:50Z</time></trkpt><trkpt lat="45.80517487445058" lon="12.9706815871844"><ele>6.333333333333334</ele><time>2026-04-04T09:26:51Z</time></trkpt><trkpt lat="45.805340471036416" lon="12.97072658488621"><ele>6.0</ele><time>2026-04-04T09:26:52Z</time></trkpt><trkpt lat="45.80550753193356" lon="12.970766191824781"><ele>6.0</ele><time>2026-04-04T09:26:53.001Z</time></trkpt><trkpt lat="45.80567732797468" lon="12.970802408668826"><ele>6.0</ele><time>2026-04-04T09:26:54.001Z</time></trkpt><trkpt lat="45.80584750909515" lon="12.970833490831149"><ele>6.0</ele><time>2026-04-04T09:26:55.001Z</time></trkpt><trkpt lat="45.80601612713852" lon="12.970869560413835"><ele>6.0</ele><time>2026-04-04T09:26:56.001Z</time></trkpt><trkpt lat="45.80618176123693" lon="12.970898949650874"><ele>6.0</ele><time>2026-04-04T09:26:57.001Z</time></trkpt><trkpt lat="45.80634351878819" lon="12.97092165385319"><ele>6.0</ele><time>2026-04-04T09:26:58.001Z</time></trkpt><trkpt lat="45.80649694902721" lon="12.970937312776666"><ele>6.0</ele><time>2026-04-04T09:26:59.001Z</time></trkpt><trkpt lat="45.80664735552512" lon="12.970947772684372"><ele>6.0</ele><time>2026-04-04T09:27:00.001Z</time></trkpt><trkpt lat="45.806801130414854" lon="12.970944162512916"><ele>6.0</ele><time>2026-04-04T09:27:01.001Z</time></trkpt><trkpt lat="45.80695756051894" lon="12.970965639131807"><ele>5.666666666666667</ele><time>2026-04-04T09:27:02.001Z</time></trkpt><trkpt lat="45.80712317772985" lon="12.970966933061332"><ele>5.333333333333334</ele><time>2026-04-04T09:27:03.001Z</time></trkpt><trkpt lat="45.807294546334305" lon="12.970963852951535"><ele>5.0</ele><time>2026-04-04T09:27:04.001Z</time></trkpt><trkpt lat="45.80744472507782" lon="12.970940798712743"><ele>5.0</ele><time>2026-04-04T09:27:05.001Z</time></trkpt><trkpt lat="45.80759405231833" lon="12.970939044033056"><ele>5.0</ele><time>2026-04-04T09:27:06.001Z</time></trkpt><trkpt lat="45.807740583852144" lon="12.970935697982117"><ele>5.0</ele><time>2026-04-04T09:27:07.001Z</time></trkpt><trkpt lat="45.80789930543639" lon="12.970912303206436"><ele>5.333333333333334</ele><time>2026-04-04T09:27:08.001Z</time></trkpt><trkpt lat="45.808078146557634" lon="12.970907288854077"><ele>5.666666666666667</ele><time>2026-04-04T09:27:09.001Z</time></trkpt><trkpt lat="45.80827582207435" lon="12.97086738377238"><ele>6.0</ele><time>2026-04-04T09:27:10.001Z</time></trkpt><trkpt lat="45.8084796262206" lon="12.970817453208923"><ele>6.0</ele><time>2026-04-04T09:27:11.001Z</time></trkpt><trkpt lat="45.80868381691651" lon="12.970770316542113"><ele>6.0</ele><time>2026-04-04T09:27:12.001Z</time></trkpt><trkpt lat="45.808919733666336" lon="12.970712850207901"><ele>6.0</ele><time>2026-04-04T09:27:14.001Z</time></trkpt><trkpt lat="45.80909551254169" lon="12.97067540049153"><ele>6.0</ele><time>2026-04-04T09:27:15.001Z</time></trkpt><trkpt lat="45.809255351937004" lon="12.970639350791394"><ele>6.0</ele><time>2026-04-04T09:27:16.001Z</time></trkpt><trkpt lat="45.80942024072351" lon="12.970598057254554"><ele>6.0</ele><time>2026-04-04T09:27:17.001Z</time></trkpt><trkpt lat="45.809580867234665" lon="12.970551999670086"><ele>6.0</ele><time>2026-04-04T09:27:18.001Z</time></trkpt><trkpt lat="45.80974081820419" lon="12.970517475322646"><ele>6.0</ele><time>2026-04-04T09:27:19.001Z</time></trkpt><trkpt lat="45.809896490126626" lon="12.97049023440498"><ele>6.0</ele><time>2026-04-04T09:27:20.001Z</time></trkpt><trkpt lat="45.81004193643019" lon="12.970474992098982"><ele>6.0</ele><time>2026-04-04T09:27:21.001Z</time></trkpt><trkpt lat="45.81018622230312" lon="12.9704942129186"><ele>6.0</ele><time>2026-04-04T09:27:22.001Z</time></trkpt><trkpt lat="45.81033622962318" lon="12.970481246894344"><ele>6.0</ele><time>2026-04-04T09:27:23.001Z</time></trkpt><trkpt lat="45.810458314948335" lon="12.970497569891588"><ele>6.0</ele><time>2026-04-04T09:27:24.001Z</time></trkpt><trkpt lat="45.81059127611907" lon="12.970495416584281"><ele>6.0</ele><time>2026-04-04T09:27:25.001Z</time></trkpt><trkpt lat="45.8107324630706" lon="12.970499336112663"><ele>6.0</ele><time>2026-04-04T09:27:26.001Z</time></trkpt><trkpt lat="45.810958888298096" lon="12.970511793658767"><ele>6.0</ele><time>2026-04-04T09:27:27.001Z</time></trkpt><trkpt lat="45.81114247874311" lon="12.970524651431178"><ele>6.0</ele><time>2026-04-04T09:27:28.001Z</time></trkpt><trkpt lat="45.8113207946893" lon="12.97052675369195"><ele>6.0</ele><time>2026-04-04T09:27:29.001Z</time></trkpt><trkpt lat="45.811487334184626" lon="12.970531613168378"><ele>6.0</ele><time>2026-04-04T09:27:30.001Z</time></trkpt><trkpt lat="45.81165802564635" lon="12.970539013625352"><ele>5.666666666666667</ele><time>2026-04-04T09:27:31.001Z</time></trkpt><trkpt lat="45.81183498615244" lon="12.97054982998585"><ele>5.333333333333334</ele><time>2026-04-04T09:27:32.001Z</time></trkpt><trkpt lat="45.812000670923446" lon="12.97055865213077"><ele>5.0</ele><time>2026-04-04T09:27:33.001Z</time></trkpt><trkpt lat="45.81216727973649" lon="12.970564058036073"><ele>5.0</ele><time>2026-04-04T09:27:34.001Z</time></trkpt><trkpt lat="45.812332757239226" lon="12.97057219422865"><ele>5.0</ele><time>2026-04-04T09:27:35.001Z</time></trkpt><trkpt lat="45.81249771074917" lon="12.970593941090263"><ele>5.0</ele><time>2026-04-04T09:27:36.001Z</time></trkpt><trkpt lat="45.812664897769864" lon="12.97059655204613"><ele>5.0</ele><time>2026-04-04T09:27:37.001Z</time></trkpt><trkpt lat="45.81283357133954" lon="12.970601441837761"><ele>5.0</ele><time>2026-04-04T09:27:38.001Z</time></trkpt><trkpt lat="45.812998427190166" lon="12.97061438912774"><ele>5.0</ele><time>2026-04-04T09:27:39.001Z</time></trkpt><trkpt lat="45.8131630152633" lon="12.970619881443351"><ele>5.0</ele><time>2026-04-04T09:27:40.001Z</time></trkpt><trkpt lat="45.81332729004666" lon="12.970623797845406"><ele>5.0</ele><time>2026-04-04T09:27:41.001Z</time></trkpt><trkpt lat="45.81349145684869" lon="12.970629756380436"><ele>5.0</ele><time>2026-04-04T09:27:42.001Z</time></trkpt><trkpt lat="45.81366127211989" lon="12.97063522770877"><ele>5.0</ele><time>2026-04-04T09:27:43.001Z</time></trkpt><trkpt lat="45.813832106201474" lon="12.9706383975092"><ele>5.0</ele><time>2026-04-04T09:27:44.001Z</time></trkpt><trkpt lat="45.8140016072154" lon="12.970658970405413"><ele>5.0</ele><time>2026-04-04T09:27:45.001Z</time></trkpt><trkpt lat="45.81415653574378" lon="12.97066427002057"><ele>5.0</ele><time>2026-04-04T09:27:46.001Z</time></trkpt><trkpt lat="45.81431783865023" lon="12.970667865612148"><ele>5.0</ele><time>2026-04-04T09:27:47.001Z</time></trkpt><trkpt lat="45.81448415090128" lon="12.970672977671542"><ele>5.0</ele><time>2026-04-04T09:27:48.001Z</time></trkpt><trkpt lat="45.81465386221229" lon="12.97068365207726"><ele>5.666666666666667</ele><time>2026-04-04T09:27:49.001Z</time></trkpt><trkpt lat="45.814817646280375" lon="12.970681164340883"><ele>6.333333333333334</ele><time>2026-04-04T09:27:50.001Z</time></trkpt><trkpt lat="45.814978998814425" lon="12.970652363382793"><ele>7.0</ele><time>2026-04-04T09:27:51.001Z</time></trkpt><trkpt lat="45.81514042365947" lon="12.97059839884112"><ele>6.666666666666667</ele><time>2026-04-04T09:27:52.001Z</time></trkpt><trkpt lat="45.81530298759212" lon="12.970532696669249"><ele>6.333333333333334</ele><time>2026-04-04T09:27:53.001Z</time></trkpt><trkpt lat="45.81546696613027" lon="12.970449007337432"><ele>6.0</ele><time>2026-04-04T09:27:54.001Z</time></trkpt><trkpt lat="45.815632715063494" lon="12.970380430760338"><ele>6.0</ele><time>2026-04-04T09:27:55.001Z</time></trkpt><trkpt lat="45.81580207464043" lon="12.970315070195172"><ele>6.0</ele><time>2026-04-04T09:27:56.001Z</time></trkpt><trkpt lat="45.815969773260136" lon="12.970242997189718"><ele>6.0</ele><time>2026-04-04T09:27:57.001Z</time></trkpt><trkpt lat="45.816137110358646" lon="12.970177591275432"><ele>6.0</ele><time>2026-04-04T09:27:58.001Z</time></trkpt><trkpt lat="45.816298981442756" lon="12.970113613481411"><ele>6.0</ele><time>2026-04-04T09:27:59.001Z</time></trkpt><trkpt lat="45.8164503518181" lon="12.970053843140082"><ele>6.0</ele><time>2026-04-04T09:28:00.001Z</time></trkpt><trkpt lat="45.81659033084934" lon="12.969999370747475"><ele>6.0</ele><time>2026-04-04T09:28:01Z</time></trkpt><trkpt lat="45.816731336206146" lon="12.969939417837974"><ele>6.0</ele><time>2026-04-04T09:28:02Z</time></trkpt><trkpt lat="45.81686950104276" lon="12.96987129421749"><ele>6.0</ele><time>2026-04-04T09:28:03Z</time></trkpt><trkpt lat="45.81699883299651" lon="12.969792282977185"><ele>6.0</ele><time>2026-04-04T09:28:04Z</time></trkpt><trkpt lat="45.817121468877595" lon="12.969690165911066"><ele>6.0</ele><time>2026-04-04T09:28:05Z</time></trkpt><trkpt lat="45.817240439824026" lon="12.969565383782097"><ele>6.0</ele><time>2026-04-04T09:28:06Z</time></trkpt><trkpt lat="45.81736130831916" lon="12.969413256074423"><ele>6.0</ele><time>2026-04-04T09:28:07Z</time></trkpt><trkpt lat="45.817484796849755" lon="12.969242155350376"><ele>6.0</ele><time>2026-04-04T09:28:08Z</time></trkpt><trkpt lat="45.81761216416259" lon="12.969065164372388"><ele>6.0</ele><time>2026-04-04T09:28:09Z</time></trkpt><trkpt lat="45.817738482684355" lon="12.96888664035736"><ele>6.0</ele><time>2026-04-04T09:28:10Z</time></trkpt><trkpt lat="45.817864255669065" lon="12.968712983746412"><ele>6.0</ele><time>2026-04-04T09:28:11Z</time></trkpt><trkpt lat="45.81798879349532" lon="12.968549283471228"><ele>6.0</ele><time>2026-04-04T09:28:12Z</time></trkpt><trkpt lat="45.81810629707094" lon="12.96838608007286"><ele>6.0</ele><time>2026-04-04T09:28:13Z</time></trkpt><trkpt lat="45.81822053656991" lon="12.968232981859462"><ele>6.0</ele><time>2026-04-04T09:28:14Z</time></trkpt><trkpt lat="45.81832975670219" lon="12.968083490498321"><ele>6.0</ele><time>2026-04-04T09:28:15Z</time></trkpt><trkpt lat="45.81843358733063" lon="12.967937142779927"><ele>6.0</ele><time>2026-04-04T09:28:16Z</time></trkpt><trkpt lat="45.81853147342487" lon="12.967805027211115"><ele>6.0</ele><time>2026-04-04T09:28:17Z</time></trkpt><trkpt lat="45.81861098163563" lon="12.967704137100274"><ele>6.0</ele><time>2026-04-04T09:28:18Z</time></trkpt><trkpt lat="45.81868414686918" lon="12.967627314535951"><ele>6.0</ele><time>2026-04-04T09:28:19Z</time></trkpt><trkpt lat="45.818763572601654" lon="12.967580310595954"><ele>6.0</ele><time>2026-04-04T09:28:20Z</time></trkpt><trkpt lat="45.81885302439312" lon="12.967562514583376"><ele>6.0</ele><time>2026-04-04T09:28:21Z</time></trkpt><trkpt lat="45.81895425490094" lon="12.96756224488645"><ele>6.0</ele><time>2026-04-04T09:28:22Z</time></trkpt><trkpt lat="45.819056647495366" lon="12.967583804005832"><ele>6.0</ele><time>2026-04-04T09:28:23Z</time></trkpt><trkpt lat="45.81915262518096" lon="12.96761863159533"><ele>6.0</ele><time>2026-04-04T09:28:24Z</time></trkpt><trkpt lat="45.81924157931135" lon="12.967677770422759"><ele>6.0</ele><time>2026-04-04T09:28:25Z</time></trkpt><trkpt lat="45.81933299979292" lon="12.967763579253605"><ele>6.0</ele><time>2026-04-04T09:28:26Z</time></trkpt><trkpt lat="45.819427699306786" lon="12.967887762332131"><ele>6.0</ele><time>2026-04-04T09:28:27Z</time></trkpt><trkpt lat="45.8195335062633" lon="12.968017213295436"><ele>6.0</ele><time>2026-04-04T09:28:28Z</time></trkpt><trkpt lat="45.819646880478594" lon="12.968146119687201"><ele>6.0</ele><time>2026-04-04T09:28:29Z</time></trkpt><trkpt lat="45.81976353151216" lon="12.968281993273575"><ele>6.0</ele><time>2026-04-04T09:28:30Z</time></trkpt><trkpt lat="45.81988054477951" lon="12.96842326232929"><ele>6.0</ele><time>2026-04-04T09:28:31Z</time></trkpt><trkpt lat="45.81999973367749" lon="12.968570253046156"><ele>6.0</ele><time>2026-04-04T09:28:32Z</time></trkpt><trkpt lat="45.82011710971906" lon="12.96871605936625"><ele>6.0</ele><time>2026-04-04T09:28:33Z</time></trkpt><trkpt lat="45.820231081844526" lon="12.968850716201962"><ele>6.0</ele><time>2026-04-04T09:28:34Z</time></trkpt><trkpt lat="45.820341713273194" lon="12.96898237827407"><ele>6.0</ele><time>2026-04-04T09:28:35Z</time></trkpt><trkpt lat="45.820448027803835" lon="12.969110470961331"><ele>6.5</ele><time>2026-04-04T09:28:36Z</time></trkpt><trkpt lat="45.820548392701426" lon="12.969237028004205"><ele>7.0</ele><time>2026-04-04T09:28:37Z</time></trkpt><trkpt lat="45.820651508357464" lon="12.969359563840795"><ele>7.5</ele><time>2026-04-04T09:28:38Z</time></trkpt><trkpt lat="45.820749872392376" lon="12.969477485917329"><ele>8.0</ele><time>2026-04-04T09:28:39Z</time></trkpt><trkpt lat="45.82083998364797" lon="12.96959379533409"><ele>8.0</ele><time>2026-04-04T09:28:40Z</time></trkpt><trkpt lat="45.82092944638184" lon="12.96969861268651"><ele>8.0</ele><time>2026-04-04T09:28:41Z</time></trkpt><trkpt lat="45.82101473283933" lon="12.969796316613555"><ele>8.0</ele><time>2026-04-04T09:28:42Z</time></trkpt><trkpt lat="45.821096361536185" lon="12.96988423762566"><ele>8.0</ele><time>2026-04-04T09:28:43Z</time></trkpt><trkpt lat="45.821186478589446" lon="12.96997202692875"><ele>8.0</ele><time>2026-04-04T09:28:44Z</time></trkpt><trkpt lat="45.82127898065199" lon="12.970051024524922"><ele>8.0</ele><time>2026-04-04T09:28:45Z</time></trkpt><trkpt lat="45.82137566989048" lon="12.97010795618966"><ele>8.0</ele><time>2026-04-04T09:28:46Z</time></trkpt><trkpt lat="45.82147491629604" lon="12.970155405508487"><ele>8.0</ele><time>2026-04-04T09:28:47Z</time></trkpt><trkpt lat="45.8215833805534" lon="12.970161472183568"><ele>8.0</ele><time>2026-04-04T09:28:48Z</time></trkpt><trkpt lat="45.82170235462505" lon="12.970142029277996"><ele>8.0</ele><time>2026-04-04T09:28:49Z</time></trkpt><trkpt lat="45.82182189375234" lon="12.970113307895875"><ele>7.75</ele><time>2026-04-04T09:28:50Z</time></trkpt><trkpt lat="45.821945568839595" lon="12.970079143237385"><ele>7.5</ele><time>2026-04-04T09:28:51Z</time></trkpt><trkpt lat="45.822070668082155" lon="12.970044073307385"><ele>7.25</ele><time>2026-04-04T09:28:52Z</time></trkpt><trkpt lat="45.82219908683687" lon="12.970007804411503"><ele>7.0</ele><time>2026-04-04T09:28:53Z</time></trkpt><trkpt lat="45.8223292103408" lon="12.969969716180943"><ele>7.0</ele><time>2026-04-04T09:28:54Z</time></trkpt><trkpt lat="45.82246124860315" lon="12.969929829626281"><ele>7.0</ele><time>2026-04-04T09:28:55Z</time></trkpt><trkpt lat="45.822595149030604" lon="12.969888043548137"><ele>7.0</ele><time>2026-04-04T09:28:56Z</time></trkpt><trkpt lat="45.822731643098706" lon="12.969848534206879"><ele>7.0</ele><time>2026-04-04T09:28:57Z</time></trkpt><trkpt lat="45.822864762836765" lon="12.969809815827672"><ele>7.5</ele><time>2026-04-04T09:28:58Z</time></trkpt><trkpt lat="45.82299709797991" lon="12.96976397266008"><ele>8.0</ele><time>2026-04-04T09:28:59Z</time></trkpt><trkpt lat="45.82312716332047" lon="12.969711670534052"><ele>8.5</ele><time>2026-04-04T09:29:00Z</time></trkpt><trkpt lat="45.82325470398024" lon="12.96964308467001"><ele>9.0</ele><time>2026-04-04T09:29:01Z</time></trkpt><trkpt lat="45.82337974651827" lon="12.969558629386954"><ele>9.0</ele><time>2026-04-04T09:29:02Z</time></trkpt><trkpt lat="45.82350352017002" lon="12.969459035559241"><ele>9.0</ele><time>2026-04-04T09:29:03Z</time></trkpt><trkpt lat="45.82363083392844" lon="12.969345365612842"><ele>9.0</ele><time>2026-04-04T09:29:04Z</time></trkpt><trkpt lat="45.823762925025484" lon="12.969207102446946"><ele>8.666666666666666</ele><time>2026-04-04T09:29:05Z</time></trkpt><trkpt lat="45.82389853965592" lon="12.969051664259785"><ele>8.333333333333332</ele><time>2026-04-04T09:29:06Z</time></trkpt><trkpt lat="45.824033668986694" lon="12.96886386002151"><ele>8.0</ele><time>2026-04-04T09:29:07Z</time></trkpt><trkpt lat="45.824175898626635" lon="12.968673526491477"><ele>8.333333333333332</ele><time>2026-04-04T09:29:08Z</time></trkpt><trkpt lat="45.82432388840144" lon="12.968485389959943"><ele>8.666666666666666</ele><time>2026-04-04T09:29:09Z</time></trkpt><trkpt lat="45.824475409312484" lon="12.968295166338"><ele>9.0</ele><time>2026-04-04T09:29:10Z</time></trkpt><trkpt lat="45.82462905302605" lon="12.96811925178647"><ele>9.0</ele><time>2026-04-04T09:29:11Z</time></trkpt><trkpt lat="45.82477329162279" lon="12.967937774405495"><ele>9.0</ele><time>2026-04-04T09:29:12Z</time></trkpt><trkpt lat="45.824918985119794" lon="12.96775446333257"><ele>9.0</ele><time>2026-04-04T09:29:13Z</time></trkpt><trkpt lat="45.825059205195146" lon="12.967574864117891"><ele>8.75</ele><time>2026-04-04T09:29:14Z</time></trkpt><trkpt lat="45.82517997729001" lon="12.967419296590895"><ele>8.5</ele><time>2026-04-04T09:29:15Z</time></trkpt><trkpt lat="45.825273982828655" lon="12.967298490889215"><ele>8.25</ele><time>2026-04-04T09:29:16Z</time></trkpt><trkpt lat="45.825362874146386" lon="12.967186365652562"><ele>8.0</ele><time>2026-04-04T09:29:17Z</time></trkpt><trkpt lat="45.825453122378164" lon="12.967066802328741"><ele>8.0</ele><time>2026-04-04T09:29:18Z</time></trkpt><trkpt lat="45.8255614435683" lon="12.966939443491283"><ele>8.0</ele><time>2026-04-04T09:29:19Z</time></trkpt><trkpt lat="45.82566154506451" lon="12.966820699767181"><ele>8.0</ele><time>2026-04-04T09:29:20Z</time></trkpt><trkpt lat="45.82574839493318" lon="12.966708607831563"><ele>8.0</ele><time>2026-04-04T09:29:21.001Z</time></trkpt><trkpt lat="45.825840478090335" lon="12.966596574276402"><ele>8.0</ele><time>2026-04-04T09:29:22.001Z</time></trkpt><trkpt lat="45.82590900637948" lon="12.966503165830003"><ele>8.0</ele><time>2026-04-04T09:29:23.001Z</time></trkpt><trkpt lat="45.82595559864254" lon="12.96642759915229"><ele>8.0</ele><time>2026-04-04T09:29:24.001Z</time></trkpt><trkpt lat="45.82602788229785" lon="12.966350487319378"><ele>8.0</ele><time>2026-04-04T09:29:25.001Z</time></trkpt><trkpt lat="45.826111806918924" lon="12.966251809000894"><ele>8.0</ele><time>2026-04-04T09:29:26.001Z</time></trkpt><trkpt lat="45.82621255736218" lon="12.966127501391487"><ele>8.0</ele><time>2026-04-04T09:29:27.001Z</time></trkpt><trkpt lat="45.826349634498854" lon="12.965966811511551"><ele>8.0</ele><time>2026-04-04T09:29:28.001Z</time></trkpt><trkpt lat="45.82649870229305" lon="12.965795228642552"><ele>8.0</ele><time>2026-04-04T09:29:29.001Z</time></trkpt><trkpt lat="45.826661308065404" lon="12.965619209067622"><ele>8.0</ele><time>2026-04-04T09:29:30.001Z</time></trkpt><trkpt lat="45.82683414780841" lon="12.965424467595096"><ele>8.0</ele><time>2026-04-04T09:29:31.001Z</time></trkpt><trkpt lat="45.82701065625534" lon="12.965226719051405"><ele>8.0</ele><time>2026-04-04T09:29:32.001Z</time></trkpt><trkpt lat="45.82718454640191" lon="12.965030202853429"><ele>8.0</ele><time>2026-04-04T09:29:33.001Z</time></trkpt><trkpt lat="45.82736022828955" lon="12.964833207455722"><ele>8.0</ele><time>2026-04-04T09:29:34.001Z</time></trkpt><trkpt lat="45.82753471682824" lon="12.964636716430231"><ele>8.0</ele><time>2026-04-04T09:29:35.001Z</time></trkpt><trkpt lat="45.82770689722082" lon="12.964432979903963"><ele>7.666666666666666</ele><time>2026-04-04T09:29:36.001Z</time></trkpt><trkpt lat="45.8278741157428" lon="12.964221529759746"><ele>7.333333333333334</ele><time>2026-04-04T09:29:37.001Z</time></trkpt><trkpt lat="45.82804152392891" lon="12.96401006948281"><ele>7.0</ele><time>2026-04-04T09:29:38.001Z</time></trkpt><trkpt lat="45.82820791374475" lon="12.963792712447002"><ele>6.666666666666667</ele><time>2026-04-04T09:29:39.001Z</time></trkpt><trkpt lat="45.82836840808276" lon="12.963587093736942"><ele>6.333333333333334</ele><time>2026-04-04T09:29:40.001Z</time></trkpt><trkpt lat="45.82851247132585" lon="12.963399054566722"><ele>6.0</ele><time>2026-04-04T09:29:41.001Z</time></trkpt><trkpt lat="45.82864896973903" lon="12.963222410179087"><ele>6.666666666666666</ele><time>2026-04-04T09:29:42.001Z</time></trkpt><trkpt lat="45.82878743615533" lon="12.963041303579873"><ele>7.333333333333333</ele><time>2026-04-04T09:29:43.001Z</time></trkpt><trkpt lat="45.828928238359225" lon="12.962858431661148"><ele>8.0</ele><time>2026-04-04T09:29:44.001Z</time></trkpt><trkpt lat="45.82906849171757" lon="12.96267617629233"><ele>8.333333333333332</ele><time>2026-04-04T09:29:45.001Z</time></trkpt><trkpt lat="45.82920217670102" lon="12.962492013514687"><ele>8.666666666666666</ele><time>2026-04-04T09:29:46.001Z</time></trkpt><trkpt lat="45.82934025934499" lon="12.962312898938018"><ele>9.0</ele><time>2026-04-04T09:29:47.001Z</time></trkpt><trkpt lat="45.82948091374562" lon="12.962136450063841"><ele>8.333333333333334</ele><time>2026-04-04T09:29:48.001Z</time></trkpt><trkpt lat="45.8296185554194" lon="12.96195680393111"><ele>7.666666666666667</ele><time>2026-04-04T09:29:49.001Z</time></trkpt><trkpt lat="45.82975587887758" lon="12.961779920639053"><ele>7.0</ele><time>2026-04-04T09:29:50.001Z</time></trkpt><trkpt lat="45.829888870286844" lon="12.961608452106157"><ele>7.0</ele><time>2026-04-04T09:29:51.001Z</time></trkpt><trkpt lat="45.830020484133" lon="12.961440852227929"><ele>7.0</ele><time>2026-04-04T09:29:52.001Z</time></trkpt><trkpt lat="45.83015169763111" lon="12.961273059476978"><ele>7.0</ele><time>2026-04-04T09:29:53.001Z</time></trkpt><trkpt lat="45.83028031038751" lon="12.961106881041358"><ele>7.333333333333334</ele><time>2026-04-04T09:29:54.001Z</time></trkpt><trkpt lat="45.83040355185815" lon="12.960947107150771"><ele>7.666666666666666</ele><time>2026-04-04T09:29:55.001Z</time></trkpt><trkpt lat="45.83052300230355" lon="12.960790297322115"><ele>8.0</ele><time>2026-04-04T09:29:56.001Z</time></trkpt><trkpt lat="45.830635224512996" lon="12.960642146805037"><ele>8.0</ele><time>2026-04-04T09:29:57.001Z</time></trkpt><trkpt lat="45.830743599697676" lon="12.960504889446584"><ele>8.0</ele><time>2026-04-04T09:29:58.001Z</time></trkpt><trkpt lat="45.8308423112077" lon="12.960373751402429"><ele>8.0</ele><time>2026-04-04T09:29:59.001Z</time></trkpt><trkpt lat="45.83094184956315" lon="12.960254865211326"><ele>8.0</ele><time>2026-04-04T09:30:00.001Z</time></trkpt><trkpt lat="45.8310286904291" lon="12.960169569279287"><ele>8.0</ele><time>2026-04-04T09:30:01.001Z</time></trkpt><trkpt lat="45.83109790285558" lon="12.960106892892146"><ele>8.0</ele><time>2026-04-04T09:30:02.001Z</time></trkpt><trkpt lat="45.83116141012787" lon="12.96009540537413"><ele>8.0</ele><time>2026-04-04T09:30:03.001Z</time></trkpt><trkpt lat="45.831315537993966" lon="12.960189611331446"><ele>8.0</ele><time>2026-04-04T09:30:05.001Z</time></trkpt><trkpt lat="45.831413396047914" lon="12.960291533803094"><ele>8.0</ele><time>2026-04-04T09:30:06.001Z</time></trkpt><trkpt lat="45.831531450593445" lon="12.960403566325853"><ele>8.0</ele><time>2026-04-04T09:30:07Z</time></trkpt><trkpt lat="45.83166534094763" lon="12.960528391405646"><ele>8.0</ele><time>2026-04-04T09:30:08Z</time></trkpt><trkpt lat="45.83180217741307" lon="12.960665773454572"><ele>8.0</ele><time>2026-04-04T09:30:09Z</time></trkpt><trkpt lat="45.8319372593266" lon="12.96079662775662"><ele>8.25</ele><time>2026-04-04T09:30:10Z</time></trkpt><trkpt lat="45.832067548087394" lon="12.960923539382378"><ele>8.5</ele><time>2026-04-04T09:30:11Z</time></trkpt><trkpt lat="45.83219070976981" lon="12.961042586933093"><ele>8.75</ele><time>2026-04-04T09:30:12Z</time></trkpt><trkpt lat="45.83229398045567" lon="12.961145860386036"><ele>9.0</ele><time>2026-04-04T09:30:13Z</time></trkpt><trkpt lat="45.83239603527512" lon="12.961241479818547"><ele>9.0</ele><time>2026-04-04T09:30:14Z</time></trkpt><trkpt lat="45.832496624032984" lon="12.96132304142624"><ele>9.0</ele><time>2026-04-04T09:30:15Z</time></trkpt><trkpt lat="45.83260270173304" lon="12.961387397465517"><ele>9.0</ele><time>2026-04-04T09:30:16Z</time></trkpt><trkpt lat="45.832721402438494" lon="12.961438809560411"><ele>9.0</ele><time>2026-04-04T09:30:17Z</time></trkpt><trkpt lat="45.83285928837888" lon="12.961470689824608"><ele>9.333333333333334</ele><time>2026-04-04T09:30:18Z</time></trkpt><trkpt lat="45.83301841706337" lon="12.961493598778356"><ele>9.666666666666668</ele><time>2026-04-04T09:30:19Z</time></trkpt><trkpt lat="45.83319235184356" lon="12.961485434830688"><ele>10.0</ele><time>2026-04-04T09:30:20Z</time></trkpt><trkpt lat="45.83337350964338" lon="12.96146238790226"><ele>9.333333333333334</ele><time>2026-04-04T09:30:21Z</time></trkpt><trkpt lat="45.83357815123983" lon="12.961448751176206"><ele>8.666666666666666</ele><time>2026-04-04T09:30:22Z</time></trkpt><trkpt lat="45.833775672464746" lon="12.961434837518642"><ele>8.0</ele><time>2026-04-04T09:30:23Z</time></trkpt><trkpt lat="45.83395886727678" lon="12.961419230224331"><ele>8.0</ele><time>2026-04-04T09:30:24Z</time></trkpt><trkpt lat="45.83413054697901" lon="12.961404767734757"><ele>8.0</ele><time>2026-04-04T09:30:25Z</time></trkpt><trkpt lat="45.83430277172764" lon="12.961392147659755"><ele>8.0</ele><time>2026-04-04T09:30:26Z</time></trkpt><trkpt lat="45.83447089691797" lon="12.961378500890692"><ele>8.333333333333332</ele><time>2026-04-04T09:30:27Z</time></trkpt><trkpt lat="45.834635551600414" lon="12.961364933697327"><ele>8.666666666666666</ele><time>2026-04-04T09:30:28Z</time></trkpt><trkpt lat="45.834803089869695" lon="12.961349898116431"><ele>9.0</ele><time>2026-04-04T09:30:29Z</time></trkpt><trkpt lat="45.834970629400566" lon="12.961333970071268"><ele>9.0</ele><time>2026-04-04T09:30:30Z</time></trkpt><trkpt lat="45.83513703696125" lon="12.961318532814115"><ele>9.0</ele><time>2026-04-04T09:30:31Z</time></trkpt><trkpt lat="45.83529795152686" lon="12.961299730385207"><ele>9.0</ele><time>2026-04-04T09:30:32Z</time></trkpt><trkpt lat="45.835453097415915" lon="12.961281946081431"><ele>8.5</ele><time>2026-04-04T09:30:33Z</time></trkpt><trkpt lat="45.83559095564112" lon="12.96126799627442"><ele>8.0</ele><time>2026-04-04T09:30:34Z</time></trkpt><trkpt lat="45.83570482014474" lon="12.961246183728372"><ele>7.5</ele><time>2026-04-04T09:30:35Z</time></trkpt><trkpt lat="45.83580580206164" lon="12.961204378845698"><ele>7.0</ele><time>2026-04-04T09:30:36Z</time></trkpt><trkpt lat="45.83589500605605" lon="12.961156423053003"><ele>7.5</ele><time>2026-04-04T09:30:37Z</time></trkpt><trkpt lat="45.83597493359276" lon="12.96109210086675"><ele>8.0</ele><time>2026-04-04T09:30:38Z</time></trkpt><trkpt lat="45.83606096273156" lon="12.961014290752829"><ele>8.5</ele><time>2026-04-04T09:30:39Z</time></trkpt><trkpt lat="45.836135142940165" lon="12.960866498119621"><ele>9.0</ele><time>2026-04-04T09:30:40Z</time></trkpt><trkpt lat="45.836191229169486" lon="12.960661892781511"><ele>9.0</ele><time>2026-04-04T09:30:41Z</time></trkpt><trkpt lat="45.83625684484192" lon="12.960430308206677"><ele>9.0</ele><time>2026-04-04T09:30:42Z</time></trkpt><trkpt lat="45.83631490982766" lon="12.960182277088236"><ele>9.0</ele><time>2026-04-04T09:30:43Z</time></trkpt><trkpt lat="45.83638849506187" lon="12.959943362980056"><ele>9.333333333333334</ele><time>2026-04-04T09:30:44Z</time></trkpt><trkpt lat="45.8364326115288" lon="12.959710007046018"><ele>9.666666666666668</ele><time>2026-04-04T09:30:45Z</time></trkpt><trkpt lat="45.83649152765652" lon="12.959485723030216"><ele>10.0</ele><time>2026-04-04T09:30:46Z</time></trkpt><trkpt lat="45.836551163293876" lon="12.95925232924357"><ele>10.0</ele><time>2026-04-04T09:30:47Z</time></trkpt><trkpt lat="45.83661543612088" lon="12.959016781672503"><ele>10.0</ele><time>2026-04-04T09:30:48Z</time></trkpt><trkpt lat="45.83668202064218" lon="12.958775489017903"><ele>10.0</ele><time>2026-04-04T09:30:49Z</time></trkpt><trkpt lat="45.83674853791864" lon="12.958524667615373"><ele>9.666666666666668</ele><time>2026-04-04T09:30:50Z</time></trkpt><trkpt lat="45.8368124291621" lon="12.958278947896881"><ele>9.333333333333334</ele><time>2026-04-04T09:30:51Z</time></trkpt><trkpt lat="45.83687294476605" lon="12.958059024337016"><ele>9.0</ele><time>2026-04-04T09:30:52Z</time></trkpt><trkpt lat="45.83693724267014" lon="12.957857918460059"><ele>9.0</ele><time>2026-04-04T09:30:53Z</time></trkpt><trkpt lat="45.837002660396585" lon="12.95765714227979"><ele>9.0</ele><time>2026-04-04T09:30:54Z</time></trkpt><trkpt lat="45.837071577282444" lon="12.957453244091516"><ele>9.0</ele><time>2026-04-04T09:30:55Z</time></trkpt><trkpt lat="45.83714709219382" lon="12.957257203665273"><ele>9.333333333333334</ele><time>2026-04-04T09:30:56Z</time></trkpt><trkpt lat="45.83722489374831" lon="12.957062379579984"><ele>9.666666666666668</ele><time>2026-04-04T09:30:57Z</time></trkpt><trkpt lat="45.83730675535783" lon="12.956861765462692"><ele>10.0</ele><time>2026-04-04T09:30:58Z</time></trkpt><trkpt lat="45.837399523661674" lon="12.956655702124634"><ele>10.0</ele><time>2026-04-04T09:30:59Z</time></trkpt><trkpt lat="45.837504543681156" lon="12.956447604538026"><ele>10.0</ele><time>2026-04-04T09:31:00Z</time></trkpt><trkpt lat="45.83762015119369" lon="12.956238145694604"><ele>10.0</ele><time>2026-04-04T09:31:01Z</time></trkpt><trkpt lat="45.83773889009087" lon="12.956025137805852"><ele>9.333333333333334</ele><time>2026-04-04T09:31:02Z</time></trkpt><trkpt lat="45.83785666077891" lon="12.955811696984904"><ele>8.666666666666666</ele><time>2026-04-04T09:31:03Z</time></trkpt><trkpt lat="45.83797023056305" lon="12.955611986568112"><ele>8.0</ele><time>2026-04-04T09:31:04Z</time></trkpt><trkpt lat="45.838080924523595" lon="12.955406027990392"><ele>8.0</ele><time>2026-04-04T09:31:05Z</time></trkpt><trkpt lat="45.83818648368481" lon="12.955201714838823"><ele>8.0</ele><time>2026-04-04T09:31:06Z</time></trkpt><trkpt lat="45.838298927582535" lon="12.954999775647904"><ele>8.0</ele><time>2026-04-04T09:31:07Z</time></trkpt><trkpt lat="45.83840908411979" lon="12.954801066050644"><ele>8.0</ele><time>2026-04-04T09:31:08Z</time></trkpt><trkpt lat="45.83852071317762" lon="12.95459752908762"><ele>8.0</ele><time>2026-04-04T09:31:09Z</time></trkpt><trkpt lat="45.83863058252547" lon="12.954393226011002"><ele>8.0</ele><time>2026-04-04T09:31:10Z</time></trkpt><trkpt lat="45.83873436203365" lon="12.954205477731348"><ele>8.0</ele><time>2026-04-04T09:31:11Z</time></trkpt><trkpt lat="45.838829405332845" lon="12.954029723651818"><ele>8.0</ele><time>2026-04-04T09:31:12Z</time></trkpt><trkpt lat="45.83892859611927" lon="12.953880432309875"><ele>8.0</ele><time>2026-04-04T09:31:13Z</time></trkpt><trkpt lat="45.83902697953764" lon="12.953744027399743"><ele>8.0</ele><time>2026-04-04T09:31:14Z</time></trkpt><trkpt lat="45.83913995130323" lon="12.953655113751621"><ele>8.0</ele><time>2026-04-04T09:31:15Z</time></trkpt><trkpt lat="45.83925640586679" lon="12.953584436754632"><ele>8.0</ele><time>2026-04-04T09:31:16Z</time></trkpt><trkpt lat="45.83938939626718" lon="12.95357236965551"><ele>8.0</ele><time>2026-04-04T09:31:17Z</time></trkpt><trkpt lat="45.839524268185144" lon="12.953566362699679"><ele>8.0</ele><time>2026-04-04T09:31:18Z</time></trkpt><trkpt lat="45.83966933007601" lon="12.953574811131686"><ele>8.333333333333332</ele><time>2026-04-04T09:31:19Z</time></trkpt><trkpt lat="45.839836379430146" lon="12.95356802164873"><ele>8.666666666666666</ele><time>2026-04-04T09:31:20Z</time></trkpt><trkpt lat="45.84001786790856" lon="12.953589004063131"><ele>9.0</ele><time>2026-04-04T09:31:21Z</time></trkpt><trkpt lat="45.840213010823426" lon="12.953605406160786"><ele>9.0</ele><time>2026-04-04T09:31:22Z</time></trkpt><trkpt lat="45.840415391807035" lon="12.953618786912298"><ele>9.0</ele><time>2026-04-04T09:31:23Z</time></trkpt><trkpt lat="45.8406237030041" lon="12.953636788498788"><ele>9.0</ele><time>2026-04-04T09:31:24Z</time></trkpt><trkpt lat="45.84082368241964" lon="12.95364911471202"><ele>9.333333333333334</ele><time>2026-04-04T09:31:25Z</time></trkpt><trkpt lat="45.84102509442777" lon="12.953660801943283"><ele>9.666666666666668</ele><time>2026-04-04T09:31:26Z</time></trkpt><trkpt lat="45.84122628700173" lon="12.953675089590844"><ele>10.0</ele><time>2026-04-04T09:31:27Z</time></trkpt><trkpt lat="45.841424497099126" lon="12.953687150599947"><ele>10.0</ele><time>2026-04-04T09:31:28Z</time></trkpt><trkpt lat="45.841616611960795" lon="12.95370748918572"><ele>10.0</ele><time>2026-04-04T09:31:29.001Z</time></trkpt><trkpt lat="45.841789778795366" lon="12.95371947433307"><ele>10.0</ele><time>2026-04-04T09:31:30.001Z</time></trkpt><trkpt lat="45.84194947269966" lon="12.953737107676927"><ele>10.0</ele><time>2026-04-04T09:31:31.001Z</time></trkpt><trkpt lat="45.84210040304275" lon="12.953744300732545"><ele>10.0</ele><time>2026-04-04T09:31:32.001Z</time></trkpt><trkpt lat="45.84224256726021" lon="12.953739059896016"><ele>10.0</ele><time>2026-04-04T09:31:33.001Z</time></trkpt><trkpt lat="45.842385441469446" lon="12.953709582394776"><ele>10.0</ele><time>2026-04-04T09:31:34.001Z</time></trkpt><trkpt lat="45.84253214429732" lon="12.95364300624274"><ele>9.666666666666668</ele><time>2026-04-04T09:31:35.001Z</time></trkpt><trkpt lat="45.84267924372774" lon="12.95355207788809"><ele>9.333333333333334</ele><time>2026-04-04T09:31:36.001Z</time></trkpt><trkpt lat="45.8428249906459" lon="12.953435017540238"><ele>9.0</ele><time>2026-04-04T09:31:37.001Z</time></trkpt><trkpt lat="45.84296507537055" lon="12.953304201175316"><ele>9.0</ele><time>2026-04-04T09:31:38.001Z</time></trkpt><trkpt lat="45.8430907647355" lon="12.953177265594253"><ele>9.0</ele><time>2026-04-04T09:31:39.001Z</time></trkpt><trkpt lat="45.84320907926836" lon="12.953014688843389"><ele>9.0</ele><time>2026-04-04T09:31:40.001Z</time></trkpt><trkpt lat="45.843305978374744" lon="12.952837357290834"><ele>9.0</ele><time>2026-04-04T09:31:41.001Z</time></trkpt><trkpt lat="45.84338123071783" lon="12.952647525418383"><ele>9.0</ele><time>2026-04-04T09:31:42.001Z</time></trkpt><trkpt lat="45.843451715723354" lon="12.952459451995724"><ele>9.0</ele><time>2026-04-04T09:31:43.001Z</time></trkpt><trkpt lat="45.843518451316186" lon="12.952210993148977"><ele>9.0</ele><time>2026-04-04T09:31:44.001Z</time></trkpt><trkpt lat="45.843586478922674" lon="12.951939685669018"><ele>9.0</ele><time>2026-04-04T09:31:45.001Z</time></trkpt><trkpt lat="45.84366172745818" lon="12.951662179225831"><ele>9.0</ele><time>2026-04-04T09:31:46.001Z</time></trkpt><trkpt lat="45.843740502154745" lon="12.951387445658897"><ele>9.333333333333334</ele><time>2026-04-04T09:31:47.001Z</time></trkpt><trkpt lat="45.843819506431245" lon="12.951113915450437"><ele>9.666666666666668</ele><time>2026-04-04T09:31:48.001Z</time></trkpt><trkpt lat="45.84389698882835" lon="12.950837299428118"><ele>10.0</ele><time>2026-04-04T09:31:49.001Z</time></trkpt><trkpt lat="45.84397430185536" lon="12.95056691729936"><ele>10.0</ele><time>2026-04-04T09:31:50.001Z</time></trkpt><trkpt lat="45.844051560128285" lon="12.950288727682997"><ele>10.0</ele><time>2026-04-04T09:31:51.001Z</time></trkpt><trkpt lat="45.84412446304556" lon="12.950023159180029"><ele>10.0</ele><time>2026-04-04T09:31:52.001Z</time></trkpt><trkpt lat="45.84419416444601" lon="12.949768474886183"><ele>10.0</ele><time>2026-04-04T09:31:53.001Z</time></trkpt><trkpt lat="45.84426190744749" lon="12.94952675213813"><ele>10.0</ele><time>2026-04-04T09:31:54.001Z</time></trkpt><trkpt lat="45.844323715844936" lon="12.94930411358573"><ele>10.0</ele><time>2026-04-04T09:31:55.001Z</time></trkpt><trkpt lat="45.84438482273622" lon="12.949092603044031"><ele>10.0</ele><time>2026-04-04T09:31:56.001Z</time></trkpt><trkpt lat="45.84443983766483" lon="12.948896343426837"><ele>10.0</ele><time>2026-04-04T09:31:57.001Z</time></trkpt><trkpt lat="45.84449403270298" lon="12.948708104049341"><ele>10.0</ele><time>2026-04-04T09:31:58.001Z</time></trkpt><trkpt lat="45.84456270322381" lon="12.94851808492613"><ele>10.0</ele><time>2026-04-04T09:31:59.001Z</time></trkpt><trkpt lat="45.84464382721835" lon="12.948336860721929"><ele>10.0</ele><time>2026-04-04T09:32:00.001Z</time></trkpt><trkpt lat="45.84473933100392" lon="12.948183145759915"><ele>10.0</ele><time>2026-04-04T09:32:01.001Z</time></trkpt><trkpt lat="45.84484408077067" lon="12.948048306438663"><ele>10.0</ele><time>2026-04-04T09:32:02.001Z</time></trkpt><trkpt lat="45.844964167885514" lon="12.947941769684457"><ele>10.0</ele><time>2026-04-04T09:32:03.001Z</time></trkpt><trkpt lat="45.84509952187164" lon="12.947859909567619"><ele>10.0</ele><time>2026-04-04T09:32:04.001Z</time></trkpt><trkpt lat="45.845263667001326" lon="12.947794654001509"><ele>10.0</ele><time>2026-04-04T09:32:05.001Z</time></trkpt><trkpt lat="45.84544785821215" lon="12.947736658759815"><ele>10.0</ele><time>2026-04-04T09:32:06.001Z</time></trkpt><trkpt lat="45.84563502881756" lon="12.947694165240343"><ele>10.0</ele><time>2026-04-04T09:32:07.001Z</time></trkpt><trkpt lat="45.845823760569864" lon="12.947635196007091"><ele>10.0</ele><time>2026-04-04T09:32:08.001Z</time></trkpt><trkpt lat="45.846012769717724" lon="12.94757491921719"><ele>10.0</ele><time>2026-04-04T09:32:09.001Z</time></trkpt><trkpt lat="45.8461999410217" lon="12.947518725613266"><ele>10.666666666666668</ele><time>2026-04-04T09:32:10.001Z</time></trkpt><trkpt lat="45.8463972771309" lon="12.94746001466163"><ele>11.333333333333334</ele><time>2026-04-04T09:32:11.001Z</time></trkpt><trkpt lat="45.846589066528075" lon="12.947401567867487"><ele>12.0</ele><time>2026-04-04T09:32:12.001Z</time></trkpt><trkpt lat="45.846780654334914" lon="12.947345403783151"><ele>12.0</ele><time>2026-04-04T09:32:13Z</time></trkpt><trkpt lat="45.846981474821085" lon="12.94728509115328"><ele>12.0</ele><time>2026-04-04T09:32:14Z</time></trkpt><trkpt lat="45.847178635569676" lon="12.947222384851115"><ele>12.0</ele><time>2026-04-04T09:32:15Z</time></trkpt><trkpt lat="45.847376443159355" lon="12.947163332835366"><ele>12.0</ele><time>2026-04-04T09:32:16Z</time></trkpt><trkpt lat="45.84757222866632" lon="12.947105354187117"><ele>12.0</ele><time>2026-04-04T09:32:17Z</time></trkpt><trkpt lat="45.847767178636204" lon="12.947046049242623"><ele>12.0</ele><time>2026-04-04T09:32:18Z</time></trkpt><trkpt lat="45.84795864796708" lon="12.946985661267087"><ele>11.666666666666666</ele><time>2026-04-04T09:32:19Z</time></trkpt><trkpt lat="45.84814871733891" lon="12.946921698216116"><ele>11.333333333333332</ele><time>2026-04-04T09:32:20Z</time></trkpt><trkpt lat="45.84833575051715" lon="12.946859684435713"><ele>11.0</ele><time>2026-04-04T09:32:21Z</time></trkpt><trkpt lat="45.848521341560094" lon="12.946798502508669"><ele>11.0</ele><time>2026-04-04T09:32:22Z</time></trkpt><trkpt lat="45.84871046634902" lon="12.946737784617596"><ele>11.0</ele><time>2026-04-04T09:32:23Z</time></trkpt><trkpt lat="45.84890264100672" lon="12.946677858815955"><ele>11.0</ele><time>2026-04-04T09:32:24Z</time></trkpt><trkpt lat="45.84909313512385" lon="12.946621262459093"><ele>11.0</ele><time>2026-04-04T09:32:25Z</time></trkpt><trkpt lat="45.84927552496462" lon="12.946562271835559"><ele>11.0</ele><time>2026-04-04T09:32:26Z</time></trkpt><trkpt lat="45.849435298474624" lon="12.94650846676783"><ele>11.0</ele><time>2026-04-04T09:32:27Z</time></trkpt><trkpt lat="45.84959000167836" lon="12.946449332211321"><ele>11.333333333333332</ele><time>2026-04-04T09:32:28Z</time></trkpt><trkpt lat="45.84973996864745" lon="12.946367450858546"><ele>11.666666666666666</ele><time>2026-04-04T09:32:29Z</time></trkpt><trkpt lat="45.8498845427937" lon="12.946260602750689"><ele>12.0</ele><time>2026-04-04T09:32:30Z</time></trkpt><trkpt lat="45.850024591742226" lon="12.946151585159942"><ele>12.25</ele><time>2026-04-04T09:32:31Z</time></trkpt><trkpt lat="45.85016218746164" lon="12.946046818272352"><ele>12.5</ele><time>2026-04-04T09:32:32Z</time></trkpt><trkpt lat="45.85028671477509" lon="12.94595394454669"><ele>12.75</ele><time>2026-04-04T09:32:33Z</time></trkpt><trkpt lat="45.85041410750682" lon="12.945859910614745"><ele>13.0</ele><time>2026-04-04T09:32:34Z</time></trkpt><trkpt lat="45.850546790864065" lon="12.945756886323393"><ele>13.0</ele><time>2026-04-04T09:32:35Z</time></trkpt><trkpt lat="45.850683336037896" lon="12.945639719050138"><ele>13.0</ele><time>2026-04-04T09:32:36Z</time></trkpt><trkpt lat="45.850812603862536" lon="12.945511342153994"><ele>13.0</ele><time>2026-04-04T09:32:37Z</time></trkpt><trkpt lat="45.85094550659136" lon="12.945346360730207"><ele>13.0</ele><time>2026-04-04T09:32:38Z</time></trkpt><trkpt lat="45.8510901736103" lon="12.945138718506671"><ele>13.0</ele><time>2026-04-04T09:32:39Z</time></trkpt><trkpt lat="45.85123416124891" lon="12.94491766175408"><ele>13.0</ele><time>2026-04-04T09:32:40Z</time></trkpt><trkpt lat="45.85137710767233" lon="12.944697362373315"><ele>12.666666666666666</ele><time>2026-04-04T09:32:41Z</time></trkpt><trkpt lat="45.85152144801793" lon="12.94448134559231"><ele>12.333333333333332</ele><time>2026-04-04T09:32:42Z</time></trkpt><trkpt lat="45.85166373671936" lon="12.944270503187914"><ele>12.0</ele><time>2026-04-04T09:32:43Z</time></trkpt><trkpt lat="45.85179536759233" lon="12.94407662309666"><ele>11.666666666666666</ele><time>2026-04-04T09:32:44Z</time></trkpt><trkpt lat="45.8519270536459" lon="12.943886448704772"><ele>11.333333333333332</ele><time>2026-04-04T09:32:45Z</time></trkpt><trkpt lat="45.85206989435399" lon="12.943691655292676"><ele>11.0</ele><time>2026-04-04T09:32:46Z</time></trkpt><trkpt lat="45.852224802504075" lon="12.943504278510218"><ele>11.333333333333332</ele><time>2026-04-04T09:32:47Z</time></trkpt><trkpt lat="45.852386046496804" lon="12.943326993398994"><ele>11.666666666666666</ele><time>2026-04-04T09:32:48Z</time></trkpt><trkpt lat="45.852539201906836" lon="12.943133016411181"><ele>12.0</ele><time>2026-04-04T09:32:49Z</time></trkpt><trkpt lat="45.85269550619698" lon="12.942948873064143"><ele>12.333333333333332</ele><time>2026-04-04T09:32:50Z</time></trkpt><trkpt lat="45.85284031577733" lon="12.942772625430866"><ele>12.666666666666666</ele><time>2026-04-04T09:32:51Z</time></trkpt><trkpt lat="45.85298090803806" lon="12.942608607867486"><ele>13.0</ele><time>2026-04-04T09:32:52Z</time></trkpt><trkpt lat="45.85311970779771" lon="12.94243395967337"><ele>13.0</ele><time>2026-04-04T09:32:53Z</time></trkpt><trkpt lat="45.853262021913736" lon="12.942239923786984"><ele>13.0</ele><time>2026-04-04T09:32:54Z</time></trkpt><trkpt lat="45.853398219320034" lon="12.942019155556252"><ele>13.0</ele><time>2026-04-04T09:32:55Z</time></trkpt><trkpt lat="45.85353853835506" lon="12.941781979262814"><ele>13.0</ele><time>2026-04-04T09:32:56Z</time></trkpt><trkpt lat="45.853680265668515" lon="12.941550436088383"><ele>13.0</ele><time>2026-04-04T09:32:57Z</time></trkpt><trkpt lat="45.85381568789812" lon="12.941333420567007"><ele>13.0</ele><time>2026-04-04T09:32:58Z</time></trkpt><trkpt lat="45.85394119362404" lon="12.941133697016417"><ele>13.0</ele><time>2026-04-04T09:32:59Z</time></trkpt><trkpt lat="45.85405798363268" lon="12.94094230124623"><ele>13.0</ele><time>2026-04-04T09:33:00Z</time></trkpt><trkpt lat="45.85416844409936" lon="12.940752411096136"><ele>13.0</ele><time>2026-04-04T09:33:01Z</time></trkpt><trkpt lat="45.854276687782686" lon="12.94057150163472"><ele>13.333333333333332</ele><time>2026-04-04T09:33:02Z</time></trkpt><trkpt lat="45.854387046296374" lon="12.940387725445257"><ele>13.666666666666668</ele><time>2026-04-04T09:33:03Z</time></trkpt><trkpt lat="45.85449623673496" lon="12.940207183251045"><ele>14.0</ele><time>2026-04-04T09:33:04Z</time></trkpt><trkpt lat="45.854603461719904" lon="12.940029726857382"><ele>13.333333333333334</ele><time>2026-04-04T09:33:05Z</time></trkpt><trkpt lat="45.8547170993486" lon="12.93983900278577"><ele>12.666666666666668</ele><time>2026-04-04T09:33:06Z</time></trkpt><trkpt lat="45.85483646179293" lon="12.939642264186197"><ele>12.0</ele><time>2026-04-04T09:33:07Z</time></trkpt><trkpt lat="45.85495808241739" lon="12.939442492125252"><ele>12.0</ele><time>2026-04-04T09:33:08Z</time></trkpt><trkpt lat="45.85507436745222" lon="12.93924354537584"><ele>12.0</ele><time>2026-04-04T09:33:09Z</time></trkpt><trkpt lat="45.8551921660781" lon="12.939045510148134"><ele>12.0</ele><time>2026-04-04T09:33:10Z</time></trkpt><trkpt lat="45.8552900627923" lon="12.938855047181967"><ele>12.0</ele><time>2026-04-04T09:33:11Z</time></trkpt><trkpt lat="45.85538000132908" lon="12.938663992509769"><ele>12.0</ele><time>2026-04-04T09:33:12Z</time></trkpt><trkpt lat="45.85545837191363" lon="12.938456289346941"><ele>12.0</ele><time>2026-04-04T09:33:13Z</time></trkpt><trkpt lat="45.85551986252207" lon="12.938238189553447"><ele>12.0</ele><time>2026-04-04T09:33:14Z</time></trkpt><trkpt lat="45.855572365420976" lon="12.938016495835438"><ele>12.0</ele><time>2026-04-04T09:33:15Z</time></trkpt><trkpt lat="45.85561948009573" lon="12.937763268531084"><ele>12.0</ele><time>2026-04-04T09:33:16Z</time></trkpt><trkpt lat="45.855661759753595" lon="12.937491962601054"><ele>12.0</ele><time>2026-04-04T09:33:17Z</time></trkpt><trkpt lat="45.85570716484606" lon="12.937195091140092"><ele>12.0</ele><time>2026-04-04T09:33:18Z</time></trkpt><trkpt lat="45.85575154314235" lon="12.936905156385892"><ele>12.0</ele><time>2026-04-04T09:33:19Z</time></trkpt><trkpt lat="45.855793201666614" lon="12.936632072029663"><ele>12.333333333333332</ele><time>2026-04-04T09:33:20Z</time></trkpt><trkpt lat="45.85583308834682" lon="12.936361945873736"><ele>12.666666666666666</ele><time>2026-04-04T09:33:21Z</time></trkpt><trkpt lat="45.85586949161655" lon="12.936085647737297"><ele>13.0</ele><time>2026-04-04T09:33:22Z</time></trkpt><trkpt lat="45.855914352516756" lon="12.935835413693168"><ele>13.666666666666666</ele><time>2026-04-04T09:33:23Z</time></trkpt><trkpt lat="45.855954920154005" lon="12.935581764638176"><ele>14.333333333333332</ele><time>2026-04-04T09:33:24Z</time></trkpt><trkpt lat="45.855992201311345" lon="12.935330420744974"><ele>15.0</ele><time>2026-04-04T09:33:25Z</time></trkpt><trkpt lat="45.85602891426717" lon="12.93508254022698"><ele>15.333333333333332</ele><time>2026-04-04T09:33:26Z</time></trkpt><trkpt lat="45.85606543011968" lon="12.93484897119188"><ele>15.666666666666666</ele><time>2026-04-04T09:33:27Z</time></trkpt><trkpt lat="45.85610160098215" lon="12.934631342099554"><ele>16.0</ele><time>2026-04-04T09:33:28Z</time></trkpt><trkpt lat="45.856133111151614" lon="12.934420530795814"><ele>15.0</ele><time>2026-04-04T09:33:29Z</time></trkpt><trkpt lat="45.85616486850321" lon="12.93420767783798"><ele>14.0</ele><time>2026-04-04T09:33:30Z</time></trkpt><trkpt lat="45.856195092072674" lon="12.933992672791966"><ele>13.0</ele><time>2026-04-04T09:33:31Z</time></trkpt><trkpt lat="45.856228700635725" lon="12.933784075764219"><ele>13.0</ele><time>2026-04-04T09:33:32Z</time></trkpt><trkpt lat="45.856261633265426" lon="12.933569413698498"><ele>13.0</ele><time>2026-04-04T09:33:33Z</time></trkpt><trkpt lat="45.85629506102693" lon="12.933348522564504"><ele>13.0</ele><time>2026-04-04T09:33:34Z</time></trkpt><trkpt lat="45.856325251861655" lon="12.933140894817434"><ele>13.0</ele><time>2026-04-04T09:33:35Z</time></trkpt><trkpt lat="45.856353272464496" lon="12.932950433889355"><ele>13.0</ele><time>2026-04-04T09:33:36Z</time></trkpt><trkpt lat="45.8563784940233" lon="12.93277585189664"><ele>13.0</ele><time>2026-04-04T09:33:37Z</time></trkpt><trkpt lat="45.85640658704153" lon="12.932612659818949"><ele>13.0</ele><time>2026-04-04T09:33:38Z</time></trkpt><trkpt lat="45.85642754542668" lon="12.932465745917703"><ele>13.2</ele><time>2026-04-04T09:33:39Z</time></trkpt><trkpt lat="45.85645150507648" lon="12.932323062179648"><ele>13.4</ele><time>2026-04-04T09:33:40Z</time></trkpt><trkpt lat="45.85646992236958" lon="12.932179092080997"><ele>13.599999999999998</ele><time>2026-04-04T09:33:41Z</time></trkpt><trkpt lat="45.856491700708126" lon="12.93201298947286"><ele>13.799999999999999</ele><time>2026-04-04T09:33:42Z</time></trkpt><trkpt lat="45.85652637538365" lon="12.931854587715717"><ele>14.0</ele><time>2026-04-04T09:33:43Z</time></trkpt><trkpt lat="45.85657436510814" lon="12.931708501511768"><ele>14.0</ele><time>2026-04-04T09:33:44Z</time></trkpt><trkpt lat="45.85663952821298" lon="12.931573826135546"><ele>14.0</ele><time>2026-04-04T09:33:45Z</time></trkpt><trkpt lat="45.85671897635444" lon="12.931455405979005"><ele>14.0</ele><time>2026-04-04T09:33:46Z</time></trkpt><trkpt lat="45.85680837771135" lon="12.931340692414343"><ele>14.0</ele><time>2026-04-04T09:33:47Z</time></trkpt><trkpt lat="45.85690966194269" lon="12.931235229196762"><ele>14.0</ele><time>2026-04-04T09:33:48Z</time></trkpt><trkpt lat="45.85701678817549" lon="12.931136225541769"><ele>14.0</ele><time>2026-04-04T09:33:49Z</time></trkpt><trkpt lat="45.85711686489207" lon="12.931029842551652"><ele>14.0</ele><time>2026-04-04T09:33:50Z</time></trkpt><trkpt lat="45.85722340762267" lon="12.93094196655371"><ele>14.0</ele><time>2026-04-04T09:33:51Z</time></trkpt><trkpt lat="45.857311360514856" lon="12.930823266480193"><ele>14.2</ele><time>2026-04-04T09:33:52Z</time></trkpt><trkpt lat="45.85740198530551" lon="12.93073351767758"><ele>14.399999999999999</ele><time>2026-04-04T09:33:53Z</time></trkpt><trkpt lat="45.85747974426534" lon="12.93064692912217"><ele>14.6</ele><time>2026-04-04T09:33:54Z</time></trkpt><trkpt lat="45.857553060641514" lon="12.93057870590899"><ele>14.8</ele><time>2026-04-04T09:33:55Z</time></trkpt><trkpt lat="45.857630478370886" lon="12.930497533900748"><ele>15.0</ele><time>2026-04-04T09:33:56Z</time></trkpt><trkpt lat="45.857715710901736" lon="12.930415717164196"><ele>15.0</ele><time>2026-04-04T09:33:57Z</time></trkpt><trkpt lat="45.857803561044456" lon="12.93034006486672"><ele>15.0</ele><time>2026-04-04T09:33:58.001Z</time></trkpt><trkpt lat="45.85789311992074" lon="12.930263985147386"><ele>15.0</ele><time>2026-04-04T09:33:59.001Z</time></trkpt><trkpt lat="45.85797527547239" lon="12.9301809345758"><ele>15.0</ele><time>2026-04-04T09:34:00.001Z</time></trkpt><trkpt lat="45.85805766697161" lon="12.930095511593725"><ele>15.0</ele><time>2026-04-04T09:34:01.001Z</time></trkpt><trkpt lat="45.8581368916159" lon="12.929992202977838"><ele>15.2</ele><time>2026-04-04T09:34:02.001Z</time></trkpt><trkpt lat="45.85822167417373" lon="12.929905071837203"><ele>15.4</ele><time>2026-04-04T09:34:03.001Z</time></trkpt><trkpt lat="45.85829807661684" lon="12.929799582986107"><ele>15.600000000000001</ele><time>2026-04-04T09:34:04.001Z</time></trkpt><trkpt lat="45.858370428811035" lon="12.929697311698316"><ele>15.8</ele><time>2026-04-04T09:34:05.001Z</time></trkpt><trkpt lat="45.8584269875009" lon="12.929619868433038"><ele>16.0</ele><time>2026-04-04T09:34:06.001Z</time></trkpt><trkpt lat="45.85848724507904" lon="12.929545397465825"><ele>16.0</ele><time>2026-04-04T09:34:08.001Z</time></trkpt><trkpt lat="45.85856716739315" lon="12.929572936865675"><ele>16.0</ele><time>2026-04-04T09:34:10.001Z</time></trkpt><trkpt lat="45.85861508991568" lon="12.929669130686058"><ele>16.0</ele><time>2026-04-04T09:34:11.001Z</time></trkpt><trkpt lat="45.8586939666474" lon="12.929704899530181"><ele>16.0</ele><time>2026-04-04T09:34:12.001Z</time></trkpt><trkpt lat="45.858759940046" lon="12.9297682642165"><ele>16.0</ele><time>2026-04-04T09:34:13.001Z</time></trkpt><trkpt lat="45.858889828916546" lon="12.929741260238051"><ele>16.0</ele><time>2026-04-04T09:34:15.001Z</time></trkpt><trkpt lat="45.85896153217164" lon="12.929747016668863"><ele>16.0</ele><time>2026-04-04T09:34:16.001Z</time></trkpt><trkpt lat="45.85902276296248" lon="12.92956168540681"><ele>16.0</ele><time>2026-04-04T09:34:17.001Z</time></trkpt><trkpt lat="45.85909025052602" lon="12.929385202762175"><ele>16.0</ele><time>2026-04-04T09:34:18.001Z</time></trkpt><trkpt lat="45.859173374688794" lon="12.929203531743681"><ele>16.0</ele><time>2026-04-04T09:34:19Z</time></trkpt><trkpt lat="45.85924657489906" lon="12.929040361289873"><ele>16.0</ele><time>2026-04-04T09:34:20Z</time></trkpt><trkpt lat="45.859325726854216" lon="12.928875061747169"><ele>16.0</ele><time>2026-04-04T09:34:21Z</time></trkpt><trkpt lat="45.859401083640556" lon="12.928701888483968"><ele>16.0</ele><time>2026-04-04T09:34:22Z</time></trkpt><trkpt lat="45.859465023032136" lon="12.928545396558476"><ele>16.0</ele><time>2026-04-04T09:34:23Z</time></trkpt><trkpt lat="45.859525416077005" lon="12.928400157400441"><ele>16.0</ele><time>2026-04-04T09:34:24Z</time></trkpt><trkpt lat="45.859595571096605" lon="12.928263900640813"><ele>16.0</ele><time>2026-04-04T09:34:25Z</time></trkpt><trkpt lat="45.859662961154314" lon="12.928120518091252"><ele>16.0</ele><time>2026-04-04T09:34:26Z</time></trkpt><trkpt lat="45.8597258374078" lon="12.92797329134111"><ele>16.0</ele><time>2026-04-04T09:34:27Z</time></trkpt><trkpt lat="45.85978623972056" lon="12.927829738413331"><ele>16.0</ele><time>2026-04-04T09:34:28Z</time></trkpt><trkpt lat="45.85984338734062" lon="12.927702453965189"><ele>16.0</ele><time>2026-04-04T09:34:29Z</time></trkpt><trkpt lat="45.85989824034525" lon="12.927580636028"><ele>16.0</ele><time>2026-04-04T09:34:30Z</time></trkpt><trkpt lat="45.85995591325411" lon="12.927459335183741"><ele>16.0</ele><time>2026-04-04T09:34:31Z</time></trkpt><trkpt lat="45.860029465490875" lon="12.927355011953544"><ele>15.8</ele><time>2026-04-04T09:34:32Z</time></trkpt><trkpt lat="45.860075555801096" lon="12.92723051662177"><ele>15.600000000000001</ele><time>2026-04-04T09:34:33Z</time></trkpt><trkpt lat="45.86013697207891" lon="12.9271271990229"><ele>15.4</ele><time>2026-04-04T09:34:34Z</time></trkpt><trkpt lat="45.86020293109246" lon="12.927050424219047"><ele>15.2</ele><time>2026-04-04T09:34:35Z</time></trkpt><trkpt lat="45.860272811328315" lon="12.926972352139032"><ele>15.0</ele><time>2026-04-04T09:34:36Z</time></trkpt><trkpt lat="45.8603481891985" lon="12.926894998841302"><ele>15.0</ele><time>2026-04-04T09:34:37Z</time></trkpt><trkpt lat="45.86043566331615" lon="12.926832740177028"><ele>15.0</ele><time>2026-04-04T09:34:38Z</time></trkpt><trkpt lat="45.86053345091458" lon="12.926789812723309"><ele>15.0</ele><time>2026-04-04T09:34:39Z</time></trkpt><trkpt lat="45.8606401848196" lon="12.926755093010948"><ele>15.0</ele><time>2026-04-04T09:34:40Z</time></trkpt><trkpt lat="45.86075704019997" lon="12.926724610372517"><ele>15.0</ele><time>2026-04-04T09:34:41Z</time></trkpt><trkpt lat="45.860878879448386" lon="12.926685289423743"><ele>14.75</ele><time>2026-04-04T09:34:42Z</time></trkpt><trkpt lat="45.86099574925394" lon="12.92664447825047"><ele>14.5</ele><time>2026-04-04T09:34:43Z</time></trkpt><trkpt lat="45.861114728859896" lon="12.926610740430604"><ele>14.25</ele><time>2026-04-04T09:34:44Z</time></trkpt><trkpt lat="45.861235121751946" lon="12.926578300910792"><ele>14.0</ele><time>2026-04-04T09:34:45Z</time></trkpt><trkpt lat="45.86135450176598" lon="12.926539373571023"><ele>14.0</ele><time>2026-04-04T09:34:46Z</time></trkpt><trkpt lat="45.861479870934886" lon="12.92650782492242"><ele>14.0</ele><time>2026-04-04T09:34:47Z</time></trkpt><trkpt lat="45.86160787528494" lon="12.926462863611658"><ele>14.0</ele><time>2026-04-04T09:34:48Z</time></trkpt><trkpt lat="45.86174103788724" lon="12.926421155931422"><ele>14.0</ele><time>2026-04-04T09:34:49Z</time></trkpt><trkpt lat="45.86187898890258" lon="12.926374187750339"><ele>14.666666666666668</ele><time>2026-04-04T09:34:50Z</time></trkpt><trkpt lat="45.86202048895565" lon="12.92632911577287"><ele>15.333333333333332</ele><time>2026-04-04T09:34:51Z</time></trkpt><trkpt lat="45.862168291942005" lon="12.926279810956816"><ele>16.0</ele><time>2026-04-04T09:34:52Z</time></trkpt><trkpt lat="45.86232194411202" lon="12.926229700215583"><ele>16.0</ele><time>2026-04-04T09:34:53Z</time></trkpt><trkpt lat="45.862482512951296" lon="12.926174766648396"><ele>16.0</ele><time>2026-04-04T09:34:54Z</time></trkpt><trkpt lat="45.86264815482038" lon="12.926128650096087"><ele>16.0</ele><time>2026-04-04T09:34:55Z</time></trkpt><trkpt lat="45.86281410384301" lon="12.926075600736397"><ele>16.0</ele><time>2026-04-04T09:34:56Z</time></trkpt><trkpt lat="45.86297568850298" lon="12.92602582054351"><ele>16.0</ele><time>2026-04-04T09:34:57Z</time></trkpt><trkpt lat="45.8631274994679" lon="12.925976705894481"><ele>16.0</ele><time>2026-04-04T09:34:58Z</time></trkpt><trkpt lat="45.86327694647024" lon="12.925925324265945"><ele>15.75</ele><time>2026-04-04T09:34:59Z</time></trkpt><trkpt lat="45.86341163555867" lon="12.925883737070473"><ele>15.5</ele><time>2026-04-04T09:35:00Z</time></trkpt><trkpt lat="45.86354361126581" lon="12.925849229347708"><ele>15.25</ele><time>2026-04-04T09:35:01Z</time></trkpt><trkpt lat="45.86368348811057" lon="12.925798811091509"><ele>15.0</ele><time>2026-04-04T09:35:02Z</time></trkpt><trkpt lat="45.863828194176186" lon="12.925756475893994"><ele>15.666666666666668</ele><time>2026-04-04T09:35:03Z</time></trkpt><trkpt lat="45.86397788036233" lon="12.925711100320802"><ele>16.333333333333336</ele><time>2026-04-04T09:35:04Z</time></trkpt><trkpt lat="45.864126701368754" lon="12.925663149935234"><ele>17.0</ele><time>2026-04-04T09:35:05Z</time></trkpt><trkpt lat="45.86427210187118" lon="12.925617939914124"><ele>17.333333333333336</ele><time>2026-04-04T09:35:06Z</time></trkpt><trkpt lat="45.86441950465707" lon="12.925571727842796"><ele>17.666666666666668</ele><time>2026-04-04T09:35:07Z</time></trkpt><trkpt lat="45.86456642552487" lon="12.925524688186721"><ele>18.0</ele><time>2026-04-04T09:35:08Z</time></trkpt><trkpt lat="45.86471106848355" lon="12.925474352620801"><ele>18.0</ele><time>2026-04-04T09:35:09Z</time></trkpt><trkpt lat="45.8648616733118" lon="12.925425089925909"><ele>18.0</ele><time>2026-04-04T09:35:10Z</time></trkpt><trkpt lat="45.86501566966864" lon="12.925374303594284"><ele>18.0</ele><time>2026-04-04T09:35:11Z</time></trkpt><trkpt lat="45.8651696231893" lon="12.925330982470282"><ele>17.666666666666668</ele><time>2026-04-04T09:35:12Z</time></trkpt><trkpt lat="45.86532603272044" lon="12.925287549820256"><ele>17.333333333333336</ele><time>2026-04-04T09:35:13Z</time></trkpt><trkpt lat="45.86548553204307" lon="12.925233924404852"><ele>17.0</ele><time>2026-04-04T09:35:14Z</time></trkpt><trkpt lat="45.86564499102127" lon="12.925184950207711"><ele>17.0</ele><time>2026-04-04T09:35:15Z</time></trkpt><trkpt lat="45.865805918776225" lon="12.925136392034393"><ele>17.0</ele><time>2026-04-04T09:35:16Z</time></trkpt><trkpt lat="45.865965229835595" lon="12.925080130090803"><ele>17.0</ele><time>2026-04-04T09:35:17Z</time></trkpt><trkpt lat="45.86612491008169" lon="12.92502953495896"><ele>16.75</ele><time>2026-04-04T09:35:18Z</time></trkpt><trkpt lat="45.866274779662575" lon="12.924983055361158"><ele>16.5</ele><time>2026-04-04T09:35:19Z</time></trkpt><trkpt lat="45.8664168778648" lon="12.924941977585897"><ele>16.25</ele><time>2026-04-04T09:35:20Z</time></trkpt><trkpt lat="45.866553728863245" lon="12.924899552893404"><ele>16.0</ele><time>2026-04-04T09:35:21Z</time></trkpt><trkpt lat="45.86669438073122" lon="12.924856311399152"><ele>16.0</ele><time>2026-04-04T09:35:22Z</time></trkpt><trkpt lat="45.86684303695414" lon="12.924807304184077"><ele>16.0</ele><time>2026-04-04T09:35:23Z</time></trkpt><trkpt lat="45.86699761823964" lon="12.924759612681084"><ele>16.0</ele><time>2026-04-04T09:35:24Z</time></trkpt><trkpt lat="45.86715132678712" lon="12.92471510645602"><ele>16.0</ele><time>2026-04-04T09:35:25Z</time></trkpt><trkpt lat="45.86730460526868" lon="12.924671066903526"><ele>16.0</ele><time>2026-04-04T09:35:26Z</time></trkpt><trkpt lat="45.86745731479303" lon="12.92462399569303"><ele>16.0</ele><time>2026-04-04T09:35:27Z</time></trkpt><trkpt lat="45.86761077785456" lon="12.924577481732182"><ele>16.333333333333332</ele><time>2026-04-04T09:35:28Z</time></trkpt><trkpt lat="45.867760402744935" lon="12.924535148923743"><ele>16.666666666666668</ele><time>2026-04-04T09:35:29Z</time></trkpt><trkpt lat="45.86791264971855" lon="12.924486703877891"><ele>17.0</ele><time>2026-04-04T09:35:30Z</time></trkpt><trkpt lat="45.86805939003794" lon="12.924435580963094"><ele>17.0</ele><time>2026-04-04T09:35:31Z</time></trkpt><trkpt lat="45.868207871956045" lon="12.924383272676517"><ele>17.0</ele><time>2026-04-04T09:35:32Z</time></trkpt><trkpt lat="45.868344120343444" lon="12.924348201460685"><ele>17.0</ele><time>2026-04-04T09:35:33Z</time></trkpt><trkpt lat="45.868487832448906" lon="12.92430448594989"><ele>17.0</ele><time>2026-04-04T09:35:34Z</time></trkpt><trkpt lat="45.86862742230954" lon="12.924260210967532"><ele>17.0</ele><time>2026-04-04T09:35:35Z</time></trkpt><trkpt lat="45.86877177499716" lon="12.924212313333337"><ele>17.0</ele><time>2026-04-04T09:35:36Z</time></trkpt><trkpt lat="45.86891339838262" lon="12.924168475190294"><ele>17.0</ele><time>2026-04-04T09:35:37Z</time></trkpt><trkpt lat="45.86905809734245" lon="12.924120425352632"><ele>17.0</ele><time>2026-04-04T09:35:38Z</time></trkpt><trkpt lat="45.86920303257804" lon="12.9240761287351"><ele>17.5</ele><time>2026-04-04T09:35:39Z</time></trkpt><trkpt lat="45.86935166626815" lon="12.924029896767744"><ele>18.0</ele><time>2026-04-04T09:35:40Z</time></trkpt><trkpt lat="45.86949646084827" lon="12.923983987846876"><ele>18.5</ele><time>2026-04-04T09:35:41Z</time></trkpt><trkpt lat="45.869638584068774" lon="12.923925193539771"><ele>19.0</ele><time>2026-04-04T09:35:42Z</time></trkpt><trkpt lat="45.869771368284404" lon="12.923872466006019"><ele>19.0</ele><time>2026-04-04T09:35:43Z</time></trkpt><trkpt lat="45.869890614677544" lon="12.923806525461753"><ele>19.0</ele><time>2026-04-04T09:35:44Z</time></trkpt><trkpt lat="45.87000604559259" lon="12.923740646508971"><ele>19.0</ele><time>2026-04-04T09:35:45Z</time></trkpt><trkpt lat="45.8701056351052" lon="12.92367022908424"><ele>19.0</ele><time>2026-04-04T09:35:46Z</time></trkpt><trkpt lat="45.87020776862371" lon="12.923582599325487"><ele>19.0</ele><time>2026-04-04T09:35:47Z</time></trkpt><trkpt lat="45.87030272137578" lon="12.923495254035037"><ele>19.0</ele><time>2026-04-04T09:35:48Z</time></trkpt><trkpt lat="45.87039689557215" lon="12.923373901550416"><ele>19.0</ele><time>2026-04-04T09:35:49Z</time></trkpt><trkpt lat="45.8704934458986" lon="12.923271354672888"><ele>19.0</ele><time>2026-04-04T09:35:50Z</time></trkpt><trkpt lat="45.87059149992995" lon="12.923171234703993"><ele>19.0</ele><time>2026-04-04T09:35:51Z</time></trkpt><trkpt lat="45.87068303807337" lon="12.92307785297735"><ele>19.0</ele><time>2026-04-04T09:35:52Z</time></trkpt><trkpt lat="45.8707756882033" lon="12.923012028109028"><ele>19.0</ele><time>2026-04-04T09:35:53Z</time></trkpt><trkpt lat="45.87086447013762" lon="12.922922600410152"><ele>19.0</ele><time>2026-04-04T09:35:54Z</time></trkpt><trkpt lat="45.87095673605258" lon="12.92282970488395"><ele>19.0</ele><time>2026-04-04T09:35:55Z</time></trkpt><trkpt lat="45.871056651251145" lon="12.922734034214084"><ele>19.0</ele><time>2026-04-04T09:35:56Z</time></trkpt><trkpt lat="45.87115556789169" lon="12.922615933382103"><ele>19.0</ele><time>2026-04-04T09:35:57Z</time></trkpt><trkpt lat="45.871279005519774" lon="12.922552199898167"><ele>19.0</ele><time>2026-04-04T09:35:58Z</time></trkpt><trkpt lat="45.871399686432575" lon="12.922474702099368"><ele>19.0</ele><time>2026-04-04T09:35:59Z</time></trkpt><trkpt lat="45.87152396189052" lon="12.922395030430707"><ele>19.0</ele><time>2026-04-04T09:36:00Z</time></trkpt><trkpt lat="45.871652094998446" lon="12.922313476912219"><ele>19.0</ele><time>2026-04-04T09:36:01Z</time></trkpt><trkpt lat="45.87178300526931" lon="12.92223046382376"><ele>19.0</ele><time>2026-04-04T09:36:02Z</time></trkpt><trkpt lat="45.87191510406402" lon="12.922147152637674"><ele>19.0</ele><time>2026-04-04T09:36:03Z</time></trkpt><trkpt lat="45.87204974099889" lon="12.922062957990725"><ele>19.333333333333332</ele><time>2026-04-04T09:36:04Z</time></trkpt><trkpt lat="45.87218548800265" lon="12.9219780690763"><ele>19.666666666666668</ele><time>2026-04-04T09:36:05Z</time></trkpt><trkpt lat="45.87232011422147" lon="12.921877731474181"><ele>20.0</ele><time>2026-04-04T09:36:06Z</time></trkpt><trkpt lat="45.87247267476328" lon="12.921798478113118"><ele>20.0</ele><time>2026-04-04T09:36:07Z</time></trkpt><trkpt lat="45.872622256651404" lon="12.92170493760437"><ele>20.0</ele><time>2026-04-04T09:36:08Z</time></trkpt><trkpt lat="45.87276686266399" lon="12.921588589996796"><ele>20.0</ele><time>2026-04-04T09:36:09Z</time></trkpt><trkpt lat="45.87291852332978" lon="12.921494843287936"><ele>20.0</ele><time>2026-04-04T09:36:10Z</time></trkpt><trkpt lat="45.873075493887214" lon="12.921399692961065"><ele>20.0</ele><time>2026-04-04T09:36:11Z</time></trkpt><trkpt lat="45.87323190600232" lon="12.921300247963634"><ele>20.0</ele><time>2026-04-04T09:36:12Z</time></trkpt><trkpt lat="45.87339743089871" lon="12.921220733182478"><ele>19.333333333333336</ele><time>2026-04-04T09:36:13Z</time></trkpt><trkpt lat="45.87355105960234" lon="12.921103161558824"><ele>18.666666666666668</ele><time>2026-04-04T09:36:14Z</time></trkpt><trkpt lat="45.87371183471039" lon="12.92100067321263"><ele>18.0</ele><time>2026-04-04T09:36:15Z</time></trkpt><trkpt lat="45.873868579049585" lon="12.920927825858266"><ele>18.0</ele><time>2026-04-04T09:36:16Z</time></trkpt><trkpt lat="45.874005652870764" lon="12.920818882694542"><ele>18.0</ele><time>2026-04-04T09:36:17Z</time></trkpt><trkpt lat="45.87414768098336" lon="12.92072665406319"><ele>18.0</ele><time>2026-04-04T09:36:18Z</time></trkpt><trkpt lat="45.874290761769196" lon="12.920640474382877"><ele>18.0</ele><time>2026-04-04T09:36:19Z</time></trkpt><trkpt lat="45.874430929317896" lon="12.920551001000682"><ele>18.0</ele><time>2026-04-04T09:36:20Z</time></trkpt><trkpt lat="45.87457155104013" lon="12.920461501841462"><ele>18.0</ele><time>2026-04-04T09:36:21Z</time></trkpt><trkpt lat="45.87471478342994" lon="12.920396897258547"><ele>18.0</ele><time>2026-04-04T09:36:22Z</time></trkpt><trkpt lat="45.87485191412393" lon="12.920310467864319"><ele>18.0</ele><time>2026-04-04T09:36:23Z</time></trkpt><trkpt lat="45.87498643424687" lon="12.920225477010943"><ele>18.0</ele><time>2026-04-04T09:36:24Z</time></trkpt><trkpt lat="45.875117956977235" lon="12.920117025097074"><ele>18.0</ele><time>2026-04-04T09:36:25Z</time></trkpt><trkpt lat="45.87526321704092" lon="12.920050603562443"><ele>18.333333333333332</ele><time>2026-04-04T09:36:26Z</time></trkpt><trkpt lat="45.87540336325005" lon="12.919962058127476"><ele>18.666666666666664</ele><time>2026-04-04T09:36:27Z</time></trkpt><trkpt lat="45.875537006933875" lon="12.919852545751667"><ele>19.0</ele><time>2026-04-04T09:36:28Z</time></trkpt><trkpt lat="45.87567936880579" lon="12.91976659499282"><ele>19.0</ele><time>2026-04-04T09:36:29Z</time></trkpt><trkpt lat="45.87582021426293" lon="12.919664447264683"><ele>19.0</ele><time>2026-04-04T09:36:30Z</time></trkpt><trkpt lat="45.875962765359645" lon="12.919556811189132"><ele>19.0</ele><time>2026-04-04T09:36:31Z</time></trkpt><trkpt lat="45.87609689134215" lon="12.919433243708394"><ele>19.0</ele><time>2026-04-04T09:36:32Z</time></trkpt><trkpt lat="45.876238753275636" lon="12.919304963527127"><ele>19.0</ele><time>2026-04-04T09:36:33Z</time></trkpt><trkpt lat="45.87637400116098" lon="12.919149803902227"><ele>19.0</ele><time>2026-04-04T09:36:34Z</time></trkpt><trkpt lat="45.876517624714204" lon="12.918965951856922"><ele>19.0</ele><time>2026-04-04T09:36:35Z</time></trkpt><trkpt lat="45.87667117027255" lon="12.918774643176203"><ele>19.0</ele><time>2026-04-04T09:36:36Z</time></trkpt><trkpt lat="45.8768368796074" lon="12.918568921765472"><ele>19.0</ele><time>2026-04-04T09:36:37Z</time></trkpt><trkpt lat="45.876996700512215" lon="12.918369406784633"><ele>19.0</ele><time>2026-04-04T09:36:38Z</time></trkpt><trkpt lat="45.87716002455936" lon="12.918163908023258"><ele>19.0</ele><time>2026-04-04T09:36:39Z</time></trkpt><trkpt lat="45.87732616106026" lon="12.91795487060073"><ele>19.0</ele><time>2026-04-04T09:36:40Z</time></trkpt><trkpt lat="45.87748613876515" lon="12.917753582134413"><ele>19.333333333333332</ele><time>2026-04-04T09:36:41Z</time></trkpt><trkpt lat="45.8776357913941" lon="12.917565285025972"><ele>19.666666666666668</ele><time>2026-04-04T09:36:42Z</time></trkpt><trkpt lat="45.87780026985751" lon="12.91735826206286"><ele>20.0</ele><time>2026-04-04T09:36:43Z</time></trkpt><trkpt lat="45.877986022993824" lon="12.917124427982298"><ele>20.0</ele><time>2026-04-04T09:36:44Z</time></trkpt><trkpt lat="45.8781649840704" lon="12.916899144475734"><ele>20.0</ele><time>2026-04-04T09:36:45Z</time></trkpt><trkpt lat="45.878347316206415" lon="12.91666903647489"><ele>19.5</ele><time>2026-04-04T09:36:46Z</time></trkpt><trkpt lat="45.878532009612584" lon="12.91643585702891"><ele>19.0</ele><time>2026-04-04T09:36:47Z</time></trkpt><trkpt lat="45.87871416290593" lon="12.91619541031496"><ele>19.0</ele><time>2026-04-04T09:36:48Z</time></trkpt><trkpt lat="45.87889657319606" lon="12.915979201330636"><ele>19.0</ele><time>2026-04-04T09:36:49Z</time></trkpt><trkpt lat="45.879066520219126" lon="12.91575751083518"><ele>19.333333333333332</ele><time>2026-04-04T09:36:50Z</time></trkpt><trkpt lat="45.87923434948186" lon="12.91554212512447"><ele>19.666666666666668</ele><time>2026-04-04T09:36:51Z</time></trkpt><trkpt lat="45.879402848782455" lon="12.915332765932245"><ele>20.0</ele><time>2026-04-04T09:36:52Z</time></trkpt><trkpt lat="45.879570619834574" lon="12.915121337456878"><ele>19.666666666666668</ele><time>2026-04-04T09:36:53Z</time></trkpt><trkpt lat="45.879736784042905" lon="12.914915738072128"><ele>19.333333333333332</ele><time>2026-04-04T09:36:54Z</time></trkpt><trkpt lat="45.87990160497037" lon="12.914707138537734"><ele>19.0</ele><time>2026-04-04T09:36:55Z</time></trkpt><trkpt lat="45.88007200749281" lon="12.914494406098656"><ele>18.5</ele><time>2026-04-04T09:36:56Z</time></trkpt><trkpt lat="45.88024192296692" lon="12.914272942063336"><ele>18.0</ele><time>2026-04-04T09:36:57Z</time></trkpt><trkpt lat="45.880418248033415" lon="12.91404008684914"><ele>18.0</ele><time>2026-04-04T09:36:58Z</time></trkpt><trkpt lat="45.880602696062695" lon="12.913797147643002"><ele>18.0</ele><time>2026-04-04T09:36:59Z</time></trkpt><trkpt lat="45.8808066633533" lon="12.913571844194356"><ele>18.0</ele><time>2026-04-04T09:37:00Z</time></trkpt><trkpt lat="45.881004309285544" lon="12.913323065291943"><ele>18.0</ele><time>2026-04-04T09:37:01Z</time></trkpt><trkpt lat="45.8812054028366" lon="12.913069946938146"><ele>18.0</ele><time>2026-04-04T09:37:02Z</time></trkpt><trkpt lat="45.881408448751046" lon="12.912817597709608"><ele>18.0</ele><time>2026-04-04T09:37:03Z</time></trkpt><trkpt lat="45.88160323503248" lon="12.912569759032763"><ele>18.5</ele><time>2026-04-04T09:37:04Z</time></trkpt><trkpt lat="45.88178750509228" lon="12.91233951137016"><ele>19.0</ele><time>2026-04-04T09:37:05Z</time></trkpt><trkpt lat="45.88197442729588" lon="12.91210452009113"><ele>19.0</ele><time>2026-04-04T09:37:06Z</time></trkpt><trkpt lat="45.88215776270031" lon="12.911874037891366"><ele>19.0</ele><time>2026-04-04T09:37:07Z</time></trkpt><trkpt lat="45.882329766255964" lon="12.91165780176901"><ele>19.0</ele><time>2026-04-04T09:37:08Z</time></trkpt><trkpt lat="45.88250320182118" lon="12.911426470161398"><ele>19.0</ele><time>2026-04-04T09:37:09Z</time></trkpt><trkpt lat="45.882678805220486" lon="12.911213519059947"><ele>19.0</ele><time>2026-04-04T09:37:10Z</time></trkpt><trkpt lat="45.88285217384241" lon="12.911000400536773"><ele>19.0</ele><time>2026-04-04T09:37:11Z</time></trkpt><trkpt lat="45.883025128311814" lon="12.910787575632694"><ele>19.0</ele><time>2026-04-04T09:37:12Z</time></trkpt><trkpt lat="45.88318667917307" lon="12.910590690961156"><ele>19.0</ele><time>2026-04-04T09:37:13Z</time></trkpt><trkpt lat="45.883339799427354" lon="12.910395407892079"><ele>19.0</ele><time>2026-04-04T09:37:14Z</time></trkpt><trkpt lat="45.88348247896766" lon="12.91021247423941"><ele>19.0</ele><time>2026-04-04T09:37:15Z</time></trkpt><trkpt lat="45.883617942404776" lon="12.910033278867521"><ele>19.0</ele><time>2026-04-04T09:37:16Z</time></trkpt><trkpt lat="45.88374982257873" lon="12.909844927507567"><ele>19.0</ele><time>2026-04-04T09:37:17Z</time></trkpt><trkpt lat="45.88387846203185" lon="12.90963162270129"><ele>19.0</ele><time>2026-04-04T09:37:18Z</time></trkpt><trkpt lat="45.88400203280378" lon="12.909382037029985"><ele>19.0</ele><time>2026-04-04T09:37:19Z</time></trkpt><trkpt lat="45.88412267507431" lon="12.909108558958112"><ele>19.0</ele><time>2026-04-04T09:37:20Z</time></trkpt><trkpt lat="45.88424813293369" lon="12.90881938091509"><ele>19.5</ele><time>2026-04-04T09:37:21Z</time></trkpt><trkpt lat="45.88437788145814" lon="12.908523530311879"><ele>20.0</ele><time>2026-04-04T09:37:22Z</time></trkpt><trkpt lat="45.88450218673696" lon="12.908228105377342"><ele>20.5</ele><time>2026-04-04T09:37:23Z</time></trkpt><trkpt lat="45.8846217801621" lon="12.907937269320875"><ele>21.0</ele><time>2026-04-04T09:37:24Z</time></trkpt><trkpt lat="45.884742040062086" lon="12.907653207230135"><ele>21.0</ele><time>2026-04-04T09:37:25Z</time></trkpt><trkpt lat="45.88485633233687" lon="12.907373692631438"><ele>21.0</ele><time>2026-04-04T09:37:26Z</time></trkpt><trkpt lat="45.88496454909791" lon="12.90711063100894"><ele>21.0</ele><time>2026-04-04T09:37:27Z</time></trkpt><trkpt lat="45.88507478302447" lon="12.906844858013171"><ele>21.0</ele><time>2026-04-04T09:37:28Z</time></trkpt><trkpt lat="45.88518815024127" lon="12.906570435857299"><ele>21.0</ele><time>2026-04-04T09:37:29Z</time></trkpt><trkpt lat="45.88530478442827" lon="12.906288801710984"><ele>21.0</ele><time>2026-04-04T09:37:30Z</time></trkpt><trkpt lat="45.88542495733292" lon="12.906006265749083"><ele>21.0</ele><time>2026-04-04T09:37:31Z</time></trkpt><trkpt lat="45.885548509040845" lon="12.905717441104116"><ele>21.0</ele><time>2026-04-04T09:37:32Z</time></trkpt><trkpt lat="45.88567096711996" lon="12.905419866708982"><ele>21.0</ele><time>2026-04-04T09:37:33Z</time></trkpt><trkpt lat="45.885797458641164" lon="12.90512110597459"><ele>21.5</ele><time>2026-04-04T09:37:34Z</time></trkpt><trkpt lat="45.88592234717579" lon="12.904823327098377"><ele>22.0</ele><time>2026-04-04T09:37:35Z</time></trkpt><trkpt lat="45.88603996430637" lon="12.904538860386502"><ele>22.0</ele><time>2026-04-04T09:37:36Z</time></trkpt><trkpt lat="45.88615212459859" lon="12.904271308510896"><ele>22.0</ele><time>2026-04-04T09:37:37Z</time></trkpt><trkpt lat="45.88626380704439" lon="12.90400787056944"><ele>22.0</ele><time>2026-04-04T09:37:38Z</time></trkpt><trkpt lat="45.88637256847921" lon="12.90374792237405"><ele>21.666666666666664</ele><time>2026-04-04T09:37:39Z</time></trkpt><trkpt lat="45.886481794413925" lon="12.903489726044933"><ele>21.333333333333332</ele><time>2026-04-04T09:37:40Z</time></trkpt><trkpt lat="45.88659017025166" lon="12.903234657630424"><ele>21.0</ele><time>2026-04-04T09:37:41Z</time></trkpt><trkpt lat="45.88669586011884" lon="12.902982031351854"><ele>21.333333333333332</ele><time>2026-04-04T09:37:42Z</time></trkpt><trkpt lat="45.88680153391054" lon="12.90273312286412"><ele>21.666666666666664</ele><time>2026-04-04T09:37:43Z</time></trkpt><trkpt lat="45.886907951114516" lon="12.90248118360252"><ele>22.0</ele><time>2026-04-04T09:37:44Z</time></trkpt><trkpt lat="45.887009738462126" lon="12.902230055977027"><ele>22.333333333333332</ele><time>2026-04-04T09:37:45Z</time></trkpt><trkpt lat="45.88711277079308" lon="12.901981776665684"><ele>22.666666666666668</ele><time>2026-04-04T09:37:46Z</time></trkpt><trkpt lat="45.887215602993905" lon="12.90173170890084"><ele>23.0</ele><time>2026-04-04T09:37:47Z</time></trkpt><trkpt lat="45.8873189246735" lon="12.901483610278005"><ele>23.0</ele><time>2026-04-04T09:37:48Z</time></trkpt><trkpt lat="45.88742331379505" lon="12.90123855719138"><ele>23.0</ele><time>2026-04-04T09:37:49Z</time></trkpt><trkpt lat="45.88752731773075" lon="12.90099168941841"><ele>23.0</ele><time>2026-04-04T09:37:50Z</time></trkpt><trkpt lat="45.88763049545476" lon="12.90074627906236"><ele>22.666666666666668</ele><time>2026-04-04T09:37:51Z</time></trkpt><trkpt lat="45.88773253133179" lon="12.900506393609135"><ele>22.333333333333332</ele><time>2026-04-04T09:37:52Z</time></trkpt><trkpt lat="45.88783174539474" lon="12.900274426974152"><ele>22.0</ele><time>2026-04-04T09:37:53Z</time></trkpt><trkpt lat="45.88793391937483" lon="12.900054923768302"><ele>21.666666666666664</ele><time>2026-04-04T09:37:54Z</time></trkpt><trkpt lat="45.88804634792338" lon="12.899840730192812"><ele>21.333333333333332</ele><time>2026-04-04T09:37:55Z</time></trkpt><trkpt lat="45.8881715841512" lon="12.899636423150438"><ele>21.0</ele><time>2026-04-04T09:37:56Z</time></trkpt><trkpt lat="45.88832237766493" lon="12.899439090332885"><ele>21.333333333333332</ele><time>2026-04-04T09:37:57Z</time></trkpt><trkpt lat="45.88849120419291" lon="12.899238212698698"><ele>21.666666666666664</ele><time>2026-04-04T09:37:58Z</time></trkpt><trkpt lat="45.88867293035293" lon="12.899038395199435"><ele>22.0</ele><time>2026-04-04T09:37:59Z</time></trkpt><trkpt lat="45.888856472545136" lon="12.898837352780072"><ele>22.0</ele><time>2026-04-04T09:38:00Z</time></trkpt><trkpt lat="45.88904481026498" lon="12.898635932761161"><ele>22.0</ele><time>2026-04-04T09:38:01Z</time></trkpt><trkpt lat="45.889235037937425" lon="12.898424937551315"><ele>22.0</ele><time>2026-04-04T09:38:02Z</time></trkpt><trkpt lat="45.88942683333603" lon="12.898213287153101"><ele>22.0</ele><time>2026-04-04T09:38:03Z</time></trkpt><trkpt lat="45.889617238440884" lon="12.89800124244791"><ele>22.0</ele><time>2026-04-04T09:38:04Z</time></trkpt><trkpt lat="45.88980076562485" lon="12.897798199041775"><ele>22.0</ele><time>2026-04-04T09:38:05Z</time></trkpt><trkpt lat="45.889973678281656" lon="12.897606726853157"><ele>22.666666666666664</ele><time>2026-04-04T09:38:06Z</time></trkpt><trkpt lat="45.890146392215605" lon="12.897414749813864"><ele>23.333333333333332</ele><time>2026-04-04T09:38:07Z</time></trkpt><trkpt lat="45.890319843395304" lon="12.89722580387957"><ele>24.0</ele><time>2026-04-04T09:38:08Z</time></trkpt><trkpt lat="45.89049424716542" lon="12.89703682278393"><ele>24.0</ele><time>2026-04-04T09:38:09Z</time></trkpt><trkpt lat="45.890664928470166" lon="12.89684983360517"><ele>24.0</ele><time>2026-04-04T09:38:10Z</time></trkpt><trkpt lat="45.890834920006846" lon="12.896664601641143"><ele>24.0</ele><time>2026-04-04T09:38:11Z</time></trkpt><trkpt lat="45.891003967228" lon="12.896480473582509"><ele>24.0</ele><time>2026-04-04T09:38:12Z</time></trkpt><trkpt lat="45.89117374250883" lon="12.896295075359525"><ele>24.0</ele><time>2026-04-04T09:38:13Z</time></trkpt><trkpt lat="45.891344136888485" lon="12.896106072726301"><ele>24.0</ele><time>2026-04-04T09:38:14Z</time></trkpt><trkpt lat="45.89151594654612" lon="12.89591687210859"><ele>24.0</ele><time>2026-04-04T09:38:15Z</time></trkpt><trkpt lat="45.89168748070195" lon="12.8957267295963"><ele>24.0</ele><time>2026-04-04T09:38:16Z</time></trkpt><trkpt lat="45.89186092531956" lon="12.895538980716248"><ele>24.0</ele><time>2026-04-04T09:38:17Z</time></trkpt><trkpt lat="45.89202980174076" lon="12.89535686333845"><ele>23.666666666666668</ele><time>2026-04-04T09:38:18Z</time></trkpt><trkpt lat="45.892190510835825" lon="12.895180418559102"><ele>23.333333333333336</ele><time>2026-04-04T09:38:19.001Z</time></trkpt><trkpt lat="45.89234264680978" lon="12.895011827978935"><ele>23.0</ele><time>2026-04-04T09:38:20.001Z</time></trkpt><trkpt lat="45.892478965863276" lon="12.894860474427611"><ele>23.25</ele><time>2026-04-04T09:38:21.001Z</time></trkpt><trkpt lat="45.892605246749746" lon="12.894726524077196"><ele>23.5</ele><time>2026-04-04T09:38:22.001Z</time></trkpt><trkpt lat="45.89272122464101" lon="12.894598408673938"><ele>23.75</ele><time>2026-04-04T09:38:23.001Z</time></trkpt><trkpt lat="45.892827207735934" lon="12.894471079121965"><ele>24.0</ele><time>2026-04-04T09:38:24.001Z</time></trkpt><trkpt lat="45.892918976649334" lon="12.894340833548586"><ele>24.0</ele><time>2026-04-04T09:38:25.001Z</time></trkpt><trkpt lat="45.89300562868964" lon="12.894212558013512"><ele>24.0</ele><time>2026-04-04T09:38:26.001Z</time></trkpt><trkpt lat="45.89307698922409" lon="12.894063893039235"><ele>24.0</ele><time>2026-04-04T09:38:27.001Z</time></trkpt><trkpt lat="45.893129600339456" lon="12.89390242469006"><ele>24.0</ele><time>2026-04-04T09:38:28.001Z</time></trkpt><trkpt lat="45.89316040530634" lon="12.893730158067754"><ele>24.0</ele><time>2026-04-04T09:38:29.001Z</time></trkpt><trkpt lat="45.89316746567601" lon="12.893546501205096"><ele>24.0</ele><time>2026-04-04T09:38:30.001Z</time></trkpt><trkpt lat="45.893174963723276" lon="12.893351170792938"><ele>24.0</ele><time>2026-04-04T09:38:31Z</time></trkpt><trkpt lat="45.89314727382311" lon="12.893139593892984"><ele>24.0</ele><time>2026-04-04T09:38:32Z</time></trkpt><trkpt lat="45.89309472455593" lon="12.89290578875429"><ele>24.0</ele><time>2026-04-04T09:38:33Z</time></trkpt><trkpt lat="45.89302796771539" lon="12.89266243733905"><ele>24.0</ele><time>2026-04-04T09:38:34Z</time></trkpt><trkpt lat="45.892953436678546" lon="12.892401868265715"><ele>24.0</ele><time>2026-04-04T09:38:35Z</time></trkpt><trkpt lat="45.89287638265309" lon="12.892140511449547"><ele>24.0</ele><time>2026-04-04T09:38:36Z</time></trkpt><trkpt lat="45.89279683328942" lon="12.89186485683703"><ele>24.0</ele><time>2026-04-04T09:38:37Z</time></trkpt><trkpt lat="45.892717786306164" lon="12.891583944862772"><ele>24.0</ele><time>2026-04-04T09:38:38Z</time></trkpt><trkpt lat="45.892641550320015" lon="12.891317264312207"><ele>23.0</ele><time>2026-04-04T09:38:39Z</time></trkpt><trkpt lat="45.8925666564152" lon="12.891063336424882"><ele>22.0</ele><time>2026-04-04T09:38:40Z</time></trkpt><trkpt lat="45.89247785847819" lon="12.89081680762788"><ele>21.0</ele><time>2026-04-04T09:38:41Z</time></trkpt><trkpt lat="45.892405806028826" lon="12.890567765899005"><ele>21.0</ele><time>2026-04-04T09:38:42Z</time></trkpt><trkpt lat="45.892335909738286" lon="12.890326159360253"><ele>21.0</ele><time>2026-04-04T09:38:43Z</time></trkpt><trkpt lat="45.89228387370966" lon="12.890081972690277"><ele>21.0</ele><time>2026-04-04T09:38:44Z</time></trkpt><trkpt lat="45.89222632662363" lon="12.88984747140152"><ele>21.333333333333332</ele><time>2026-04-04T09:38:45Z</time></trkpt><trkpt lat="45.89218026717589" lon="12.88961529857215"><ele>21.666666666666664</ele><time>2026-04-04T09:38:46Z</time></trkpt><trkpt lat="45.892154405893315" lon="12.889373836601017"><ele>22.0</ele><time>2026-04-04T09:38:47Z</time></trkpt><trkpt lat="45.89214114264919" lon="12.889123355745504"><ele>22.0</ele><time>2026-04-04T09:38:48Z</time></trkpt><trkpt lat="45.89213607481844" lon="12.888860062652396"><ele>22.0</ele><time>2026-04-04T09:38:49Z</time></trkpt><trkpt lat="45.89213188770594" lon="12.88858974266176"><ele>22.0</ele><time>2026-04-04T09:38:50Z</time></trkpt><trkpt lat="45.89213018589018" lon="12.88831779288351"><ele>22.333333333333332</ele><time>2026-04-04T09:38:51Z</time></trkpt><trkpt lat="45.89212897507684" lon="12.888042623714224"><ele>22.666666666666668</ele><time>2026-04-04T09:38:52Z</time></trkpt><trkpt lat="45.892128764545355" lon="12.887769026420717"><ele>23.0</ele><time>2026-04-04T09:38:53Z</time></trkpt><trkpt lat="45.89211203677806" lon="12.887508443253166"><ele>23.0</ele><time>2026-04-04T09:38:54Z</time></trkpt><trkpt lat="45.89212837935271" lon="12.887268447300135"><ele>23.0</ele><time>2026-04-04T09:38:55Z</time></trkpt><trkpt lat="45.892128208820026" lon="12.887046831008085"><ele>23.0</ele><time>2026-04-04T09:38:56Z</time></trkpt><trkpt lat="45.89211488009169" lon="12.886836056000575"><ele>23.25</ele><time>2026-04-04T09:38:57Z</time></trkpt><trkpt lat="45.892135674321715" lon="12.886636161530271"><ele>23.5</ele><time>2026-04-04T09:38:58Z</time></trkpt><trkpt lat="45.89216853520084" lon="12.88644337528606"><ele>23.75</ele><time>2026-04-04T09:38:59Z</time></trkpt><trkpt lat="45.892211465515174" lon="12.886268322455823"><ele>24.0</ele><time>2026-04-04T09:39:00Z</time></trkpt><trkpt lat="45.89225950843142" lon="12.886121189869902"><ele>24.0</ele><time>2026-04-04T09:39:01Z</time></trkpt><trkpt lat="45.892292022794514" lon="12.886021842028034"><ele>24.0</ele><time>2026-04-04T09:39:03Z</time></trkpt><trkpt lat="45.89234546299031" lon="12.885916296627347"><ele>24.0</ele><time>2026-04-04T09:39:09Z</time></trkpt><trkpt lat="45.892383985231184" lon="12.88579389333375"><ele>24.0</ele><time>2026-04-04T09:39:10Z</time></trkpt><trkpt lat="45.89242926194543" lon="12.885666779794215"><ele>24.0</ele><time>2026-04-04T09:39:11Z</time></trkpt><trkpt lat="45.89248680621142" lon="12.88552396889833"><ele>24.0</ele><time>2026-04-04T09:39:12Z</time></trkpt><trkpt lat="45.89254670583818" lon="12.885373195005052"><ele>24.0</ele><time>2026-04-04T09:39:13Z</time></trkpt><trkpt lat="45.892616250449585" lon="12.885198558423554"><ele>24.0</ele><time>2026-04-04T09:39:14Z</time></trkpt><trkpt lat="45.89268522352996" lon="12.88501971439051"><ele>24.0</ele><time>2026-04-04T09:39:15Z</time></trkpt><trkpt lat="45.89275748327081" lon="12.884836810728126"><ele>24.0</ele><time>2026-04-04T09:39:16Z</time></trkpt><trkpt lat="45.892840899675846" lon="12.884664457624734"><ele>24.0</ele><time>2026-04-04T09:39:17Z</time></trkpt><trkpt lat="45.89290520055571" lon="12.88450353615299"><ele>24.0</ele><time>2026-04-04T09:39:18Z</time></trkpt><trkpt lat="45.892952882803556" lon="12.884340780277588"><ele>24.0</ele><time>2026-04-04T09:39:19Z</time></trkpt><trkpt lat="45.89302397846485" lon="12.884182747582717"><ele>23.666666666666668</ele><time>2026-04-04T09:39:20Z</time></trkpt><trkpt lat="45.89310426264124" lon="12.883997060490444"><ele>23.333333333333336</ele><time>2026-04-04T09:39:21Z</time></trkpt><trkpt lat="45.89318488929811" lon="12.8837920755735"><ele>23.0</ele><time>2026-04-04T09:39:22Z</time></trkpt><trkpt lat="45.893274013654555" lon="12.883562429960413"><ele>23.0</ele><time>2026-04-04T09:39:23Z</time></trkpt><trkpt lat="45.893356834372305" lon="12.883340916854547"><ele>23.0</ele><time>2026-04-04T09:39:24Z</time></trkpt><trkpt lat="45.893431411103336" lon="12.88314255531896"><ele>23.0</ele><time>2026-04-04T09:39:25Z</time></trkpt><trkpt lat="45.89349203680905" lon="12.88291647739315"><ele>22.666666666666668</ele><time>2026-04-04T09:39:26Z</time></trkpt><trkpt lat="45.89353523068336" lon="12.882652751049728"><ele>22.333333333333332</ele><time>2026-04-04T09:39:27Z</time></trkpt><trkpt lat="45.89355858951429" lon="12.882360315929052"><ele>22.0</ele><time>2026-04-04T09:39:28Z</time></trkpt><trkpt lat="45.89356857787921" lon="12.882069012937771"><ele>22.0</ele><time>2026-04-04T09:39:29Z</time></trkpt><trkpt lat="45.89357864676436" lon="12.8817729604727"><ele>22.0</ele><time>2026-04-04T09:39:30Z</time></trkpt><trkpt lat="45.893590844076655" lon="12.881485232789176"><ele>22.0</ele><time>2026-04-04T09:39:31Z</time></trkpt><trkpt lat="45.893607105009046" lon="12.8812199019248"><ele>22.0</ele><time>2026-04-04T09:39:32Z</time></trkpt><trkpt lat="45.893620653898154" lon="12.88100320558039"><ele>22.0</ele><time>2026-04-04T09:39:33Z</time></trkpt><trkpt lat="45.893629793741326" lon="12.880835017656024"><ele>22.0</ele><time>2026-04-04T09:39:34Z</time></trkpt><trkpt lat="45.89363561054694" lon="12.880697269993753"><ele>22.0</ele><time>2026-04-04T09:39:35Z</time></trkpt><trkpt lat="45.89363917975535" lon="12.88059460508906"><ele>22.0</ele><time>2026-04-04T09:39:36Z</time></trkpt><trkpt lat="45.893644131627624" lon="12.880481265940144"><ele>22.25</ele><time>2026-04-04T09:39:37Z</time></trkpt><trkpt lat="45.89365870525267" lon="12.880323430628485"><ele>22.5</ele><time>2026-04-04T09:39:38Z</time></trkpt><trkpt lat="45.893666602496666" lon="12.880154785612714"><ele>22.75</ele><time>2026-04-04T09:39:39Z</time></trkpt><trkpt lat="45.89367306662518" lon="12.879986046434714"><ele>23.0</ele><time>2026-04-04T09:39:40Z</time></trkpt><trkpt lat="45.8936792932789" lon="12.879819845947663"><ele>23.0</ele><time>2026-04-04T09:39:41Z</time></trkpt><trkpt lat="45.893689728558755" lon="12.879650407179541"><ele>23.0</ele><time>2026-04-04T09:39:42Z</time></trkpt><trkpt lat="45.89369989787462" lon="12.879471734600013"><ele>23.0</ele><time>2026-04-04T09:39:43Z</time></trkpt><trkpt lat="45.893709211428906" lon="12.879289217187628"><ele>23.0</ele><time>2026-04-04T09:39:44Z</time></trkpt><trkpt lat="45.89372006452237" lon="12.879103991996347"><ele>23.0</ele><time>2026-04-04T09:39:45Z</time></trkpt><trkpt lat="45.8937309123473" lon="12.87891616940376"><ele>23.0</ele><time>2026-04-04T09:39:46Z</time></trkpt><trkpt lat="45.893739971475604" lon="12.878740153754176"><ele>23.0</ele><time>2026-04-04T09:39:47Z</time></trkpt><trkpt lat="45.893749572898365" lon="12.878580502351566"><ele>23.0</ele><time>2026-04-04T09:39:48Z</time></trkpt><trkpt lat="45.893749493998925" lon="12.878392610795046"><ele>23.0</ele><time>2026-04-04T09:39:49Z</time></trkpt><trkpt lat="45.893773461497425" lon="12.878227082883486"><ele>23.0</ele><time>2026-04-04T09:39:50Z</time></trkpt><trkpt lat="45.89376784949474" lon="12.878071244111117"><ele>23.0</ele><time>2026-04-04T09:39:51Z</time></trkpt><trkpt lat="45.89377893798683" lon="12.877901459667129"><ele>23.0</ele><time>2026-04-04T09:39:52Z</time></trkpt><trkpt lat="45.89378907103846" lon="12.877719180836321"><ele>23.25</ele><time>2026-04-04T09:39:53Z</time></trkpt><trkpt lat="45.89379792457905" lon="12.877520775887357"><ele>23.5</ele><time>2026-04-04T09:39:54Z</time></trkpt><trkpt lat="45.89380736102615" lon="12.877319338615225"><ele>23.75</ele><time>2026-04-04T09:39:55Z</time></trkpt><trkpt lat="45.8938178101547" lon="12.877117565262497"><ele>24.0</ele><time>2026-04-04T09:39:56Z</time></trkpt><trkpt lat="45.89383167203754" lon="12.876906362292084"><ele>24.25</ele><time>2026-04-04T09:39:57Z</time></trkpt><trkpt lat="45.89384402690143" lon="12.876701852638913"><ele>24.5</ele><time>2026-04-04T09:39:58Z</time></trkpt><trkpt lat="45.89385679124904" lon="12.876500100330102"><ele>24.75</ele><time>2026-04-04T09:39:59Z</time></trkpt><trkpt lat="45.89386485737081" lon="12.8763122053335"><ele>25.0</ele><time>2026-04-04T09:40:00Z</time></trkpt><trkpt lat="45.89387283707979" lon="12.876125796564196"><ele>24.5</ele><time>2026-04-04T09:40:01Z</time></trkpt><trkpt lat="45.89387975260119" lon="12.875930906272712"><ele>24.0</ele><time>2026-04-04T09:40:02Z</time></trkpt><trkpt lat="45.893887942523946" lon="12.875741116675302"><ele>23.5</ele><time>2026-04-04T09:40:03Z</time></trkpt><trkpt lat="45.893900984073184" lon="12.875555885572123"><ele>23.0</ele><time>2026-04-04T09:40:04Z</time></trkpt><trkpt lat="45.893927894465854" lon="12.875376142678075"><ele>23.0</ele><time>2026-04-04T09:40:05Z</time></trkpt><trkpt lat="45.89393892575895" lon="12.8752008733993"><ele>23.0</ele><time>2026-04-04T09:40:06Z</time></trkpt><trkpt lat="45.893949082709" lon="12.875035822975526"><ele>23.0</ele><time>2026-04-04T09:40:07Z</time></trkpt><trkpt lat="45.89395803307751" lon="12.874890379483354"><ele>23.0</ele><time>2026-04-04T09:40:08Z</time></trkpt><trkpt lat="45.89395253891235" lon="12.874753909741553"><ele>23.0</ele><time>2026-04-04T09:40:09Z</time></trkpt><trkpt lat="45.89396728585889" lon="12.874639437693688"><ele>23.0</ele><time>2026-04-04T09:40:10Z</time></trkpt><trkpt lat="45.89398473597017" lon="12.874534830053953"><ele>23.0</ele><time>2026-04-04T09:40:11Z</time></trkpt><trkpt lat="45.89401850151652" lon="12.874427536609916"><ele>23.0</ele><time>2026-04-04T09:40:12Z</time></trkpt><trkpt lat="45.89403014207211" lon="12.874279014619123"><ele>23.0</ele><time>2026-04-04T09:40:13Z</time></trkpt><trkpt lat="45.89408704318416" lon="12.874119843624127"><ele>23.0</ele><time>2026-04-04T09:40:14Z</time></trkpt><trkpt lat="45.89416284282787" lon="12.873990115300705"><ele>23.0</ele><time>2026-04-04T09:40:15Z</time></trkpt><trkpt lat="45.89425094000549" lon="12.873862582609123"><ele>23.0</ele><time>2026-04-04T09:40:16Z</time></trkpt><trkpt lat="45.89434858284443" lon="12.873758406278553"><ele>23.0</ele><time>2026-04-04T09:40:17Z</time></trkpt><trkpt lat="45.89444834566582" lon="12.873653935262231"><ele>23.0</ele><time>2026-04-04T09:40:18Z</time></trkpt><trkpt lat="45.89456145651008" lon="12.873523226763787"><ele>23.0</ele><time>2026-04-04T09:40:19Z</time></trkpt><trkpt lat="45.894676219580596" lon="12.87340385472149"><ele>23.0</ele><time>2026-04-04T09:40:20Z</time></trkpt><trkpt lat="45.89479153173491" lon="12.873280941077596"><ele>23.0</ele><time>2026-04-04T09:40:21Z</time></trkpt><trkpt lat="45.89490122316303" lon="12.873142644214273"><ele>23.0</ele><time>2026-04-04T09:40:22Z</time></trkpt><trkpt lat="45.89500701540257" lon="12.873020910202225"><ele>23.0</ele><time>2026-04-04T09:40:23Z</time></trkpt><trkpt lat="45.89510349639314" lon="12.872910324535228"><ele>23.0</ele><time>2026-04-04T09:40:24Z</time></trkpt><trkpt lat="45.89519569227566" lon="12.872819247768948"><ele>23.0</ele><time>2026-04-04T09:40:25Z</time></trkpt><trkpt lat="45.89529059644625" lon="12.872744006588851"><ele>23.0</ele><time>2026-04-04T09:40:26Z</time></trkpt><trkpt lat="45.89539393865362" lon="12.872694362950455"><ele>23.0</ele><time>2026-04-04T09:40:27Z</time></trkpt><trkpt lat="45.89550953855479" lon="12.872665380190625"><ele>23.0</ele><time>2026-04-04T09:40:28Z</time></trkpt><trkpt lat="45.89563085882535" lon="12.872663555887497"><ele>23.0</ele><time>2026-04-04T09:40:29Z</time></trkpt><trkpt lat="45.8957554033498" lon="12.872691567015057"><ele>23.0</ele><time>2026-04-04T09:40:30Z</time></trkpt><trkpt lat="45.895883642772475" lon="12.8727495708468"><ele>23.5</ele><time>2026-04-04T09:40:31Z</time></trkpt><trkpt lat="45.896018218155355" lon="12.872815005087995"><ele>24.0</ele><time>2026-04-04T09:40:32Z</time></trkpt><trkpt lat="45.89615742526696" lon="12.87288937932833"><ele>24.5</ele><time>2026-04-04T09:40:33Z</time></trkpt><trkpt lat="45.8962917994319" lon="12.872959091838197"><ele>25.0</ele><time>2026-04-04T09:40:34Z</time></trkpt><trkpt lat="45.896421456352435" lon="12.873026397121711"><ele>25.0</ele><time>2026-04-04T09:40:35Z</time></trkpt><trkpt lat="45.89654557602215" lon="12.873092039548485"><ele>25.0</ele><time>2026-04-04T09:40:36Z</time></trkpt><trkpt lat="45.89666150206605" lon="12.873145159382041"><ele>25.0</ele><time>2026-04-04T09:40:37Z</time></trkpt><trkpt lat="45.89677149204502" lon="12.873200163140735"><ele>25.0</ele><time>2026-04-04T09:40:38Z</time></trkpt><trkpt lat="45.89687135199924" lon="12.873250869603824"><ele>24.8</ele><time>2026-04-04T09:40:39Z</time></trkpt><trkpt lat="45.89696772833666" lon="12.87328589353473"><ele>24.6</ele><time>2026-04-04T09:40:40Z</time></trkpt><trkpt lat="45.89706129718532" lon="12.873307203315159"><ele>24.4</ele><time>2026-04-04T09:40:41Z</time></trkpt><trkpt lat="45.897161181692105" lon="12.873306726626899"><ele>24.2</ele><time>2026-04-04T09:40:42Z</time></trkpt><trkpt lat="45.89726665787692" lon="12.873292475466318"><ele>24.0</ele><time>2026-04-04T09:40:43Z</time></trkpt><trkpt lat="45.89736839718097" lon="12.87325328429914"><ele>24.0</ele><time>2026-04-04T09:40:44Z</time></trkpt><trkpt lat="45.897475652799855" lon="12.873202824362854"><ele>24.0</ele><time>2026-04-04T09:40:45Z</time></trkpt><trkpt lat="45.89756019330363" lon="12.873168158904022"><ele>24.0</ele><time>2026-04-04T09:40:46Z</time></trkpt><trkpt lat="45.89764725894498" lon="12.873149435638663"><ele>24.0</ele><time>2026-04-04T09:40:47Z</time></trkpt><trkpt lat="45.89773300811895" lon="12.87314780020282"><ele>24.0</ele><time>2026-04-04T09:40:48Z</time></trkpt><trkpt lat="45.897824700009764" lon="12.873164675398655"><ele>24.0</ele><time>2026-04-04T09:40:49Z</time></trkpt><trkpt lat="45.89794955504346" lon="12.873220485498974"><ele>24.0</ele><time>2026-04-04T09:40:50Z</time></trkpt><trkpt lat="45.89810089122531" lon="12.87329909430153"><ele>24.0</ele><time>2026-04-04T09:40:51Z</time></trkpt><trkpt lat="45.898279760496" lon="12.873400976443545"><ele>24.333333333333336</ele><time>2026-04-04T09:40:52Z</time></trkpt><trkpt lat="45.89847122841715" lon="12.873508302904828"><ele>24.666666666666668</ele><time>2026-04-04T09:40:53Z</time></trkpt><trkpt lat="45.89868621453328" lon="12.873632372526702"><ele>25.0</ele><time>2026-04-04T09:40:54Z</time></trkpt><trkpt lat="45.898899381291734" lon="12.873760291516811"><ele>25.0</ele><time>2026-04-04T09:40:55Z</time></trkpt><trkpt lat="45.899107630277015" lon="12.873884650047312"><ele>25.0</ele><time>2026-04-04T09:40:56Z</time></trkpt><trkpt lat="45.89931917193629" lon="12.87400302608338"><ele>26.0</ele><time>2026-04-04T09:40:57Z</time></trkpt><trkpt lat="45.89953470487023" lon="12.874120896956915"><ele>27.0</ele><time>2026-04-04T09:40:58Z</time></trkpt><trkpt lat="45.89974029859352" lon="12.874237951161392"><ele>27.0</ele><time>2026-04-04T09:40:59Z</time></trkpt><trkpt lat="45.89994086952885" lon="12.874353062815242"><ele>27.0</ele><time>2026-04-04T09:41:00Z</time></trkpt><trkpt lat="45.90013653195598" lon="12.874467801691296"><ele>27.0</ele><time>2026-04-04T09:41:01Z</time></trkpt><trkpt lat="45.90031616115168" lon="12.874575638787633"><ele>27.0</ele><time>2026-04-04T09:41:02Z</time></trkpt><trkpt lat="45.90048833288582" lon="12.874674482355108"><ele>27.0</ele><time>2026-04-04T09:41:03Z</time></trkpt><trkpt lat="45.90065551903203" lon="12.874752305914788"><ele>27.0</ele><time>2026-04-04T09:41:04Z</time></trkpt><trkpt lat="45.90081414148031" lon="12.874800026889506"><ele>26.666666666666664</ele><time>2026-04-04T09:41:05Z</time></trkpt><trkpt lat="45.90096993556142" lon="12.874813671422562"><ele>26.333333333333332</ele><time>2026-04-04T09:41:06Z</time></trkpt><trkpt lat="45.90112036349697" lon="12.87482880529305"><ele>26.0</ele><time>2026-04-04T09:41:07Z</time></trkpt><trkpt lat="45.90126208040377" lon="12.87480440127842"><ele>26.0</ele><time>2026-04-04T09:41:08Z</time></trkpt><trkpt lat="45.90141149686829" lon="12.874736854604361"><ele>26.0</ele><time>2026-04-04T09:41:09Z</time></trkpt><trkpt lat="45.901570651909836" lon="12.87463780919394"><ele>26.0</ele><time>2026-04-04T09:41:10Z</time></trkpt><trkpt lat="45.90174286571766" lon="12.874499470672658"><ele>26.0</ele><time>2026-04-04T09:41:11Z</time></trkpt><trkpt lat="45.90193697045147" lon="12.874351930688926"><ele>26.0</ele><time>2026-04-04T09:41:12Z</time></trkpt><trkpt lat="45.90213673738531" lon="12.874221181385757"><ele>26.0</ele><time>2026-04-04T09:41:13Z</time></trkpt><trkpt lat="45.90231688569101" lon="12.874092769981381"><ele>26.0</ele><time>2026-04-04T09:41:14Z</time></trkpt><trkpt lat="45.90249975081067" lon="12.873960991819931"><ele>26.0</ele><time>2026-04-04T09:41:15Z</time></trkpt><trkpt lat="45.90268015047887" lon="12.873837007539713"><ele>26.0</ele><time>2026-04-04T09:41:16Z</time></trkpt><trkpt lat="45.90285241361087" lon="12.873717165136028"><ele>27.0</ele><time>2026-04-04T09:41:17Z</time></trkpt><trkpt lat="45.903016086568215" lon="12.8736029635619"><ele>28.0</ele><time>2026-04-04T09:41:18Z</time></trkpt><trkpt lat="45.903174897542755" lon="12.87349060265517"><ele>29.0</ele><time>2026-04-04T09:41:19Z</time></trkpt><trkpt lat="45.90333375294249" lon="12.873385915285178"><ele>28.333333333333332</ele><time>2026-04-04T09:41:20Z</time></trkpt><trkpt lat="45.90348308403016" lon="12.873288556851477"><ele>27.666666666666664</ele><time>2026-04-04T09:41:21Z</time></trkpt><trkpt lat="45.90362596103365" lon="12.873190925208187"><ele>27.0</ele><time>2026-04-04T09:41:22Z</time></trkpt><trkpt lat="45.903763260602034" lon="12.873084469632609"><ele>27.0</ele><time>2026-04-04T09:41:23Z</time></trkpt><trkpt lat="45.90388907433504" lon="12.87296088775111"><ele>27.0</ele><time>2026-04-04T09:41:24Z</time></trkpt><trkpt lat="45.90400636716385" lon="12.872819963507101"><ele>27.0</ele><time>2026-04-04T09:41:25Z</time></trkpt><trkpt lat="45.90411169742275" lon="12.87265807899564"><ele>27.0</ele><time>2026-04-04T09:41:26Z</time></trkpt><trkpt lat="45.90420794136965" lon="12.87248589428595"><ele>27.0</ele><time>2026-04-04T09:41:27Z</time></trkpt><trkpt lat="45.90429725204717" lon="12.872295460894037"><ele>27.0</ele><time>2026-04-04T09:41:28Z</time></trkpt><trkpt lat="45.90438047745843" lon="12.872077081101452"><ele>27.0</ele><time>2026-04-04T09:41:29Z</time></trkpt><trkpt lat="45.904454531442795" lon="12.871842476109787"><ele>27.0</ele><time>2026-04-04T09:41:30Z</time></trkpt><trkpt lat="45.90450573527787" lon="12.871606477535991"><ele>27.0</ele><time>2026-04-04T09:41:31Z</time></trkpt><trkpt lat="45.90454586363098" lon="12.871373099551871"><ele>27.333333333333336</ele><time>2026-04-04T09:41:32Z</time></trkpt><trkpt lat="45.904567043518966" lon="12.8711479131443"><ele>27.666666666666668</ele><time>2026-04-04T09:41:33Z</time></trkpt><trkpt lat="45.904574719361264" lon="12.870912112651338"><ele>28.0</ele><time>2026-04-04T09:41:34Z</time></trkpt><trkpt lat="45.90456746432981" lon="12.870665798672732"><ele>27.333333333333336</ele><time>2026-04-04T09:41:35Z</time></trkpt><trkpt lat="45.90454626037328" lon="12.870411548025709"><ele>26.666666666666664</ele><time>2026-04-04T09:41:36Z</time></trkpt><trkpt lat="45.90451183529789" lon="12.870146356633143"><ele>26.0</ele><time>2026-04-04T09:41:37Z</time></trkpt><trkpt lat="45.904461247519926" lon="12.869866853635173"><ele>26.0</ele><time>2026-04-04T09:41:38Z</time></trkpt><trkpt lat="45.90441501773601" lon="12.869595315472463"><ele>26.0</ele><time>2026-04-04T09:41:39Z</time></trkpt><trkpt lat="45.90438348461746" lon="12.869370698085431"><ele>26.0</ele><time>2026-04-04T09:41:40Z</time></trkpt><trkpt lat="45.90436471033197" lon="12.869153385591288"><ele>26.0</ele><time>2026-04-04T09:41:41Z</time></trkpt><trkpt lat="45.90431871507058" lon="12.868955847693432"><ele>26.0</ele><time>2026-04-04T09:41:42Z</time></trkpt><trkpt lat="45.90429355521423" lon="12.868758954806728"><ele>26.0</ele><time>2026-04-04T09:41:43Z</time></trkpt><trkpt lat="45.904266389241506" lon="12.868552831795967"><ele>26.0</ele><time>2026-04-04T09:41:44Z</time></trkpt><trkpt lat="45.90423709760713" lon="12.868342145692845"><ele>26.0</ele><time>2026-04-04T09:41:45Z</time></trkpt><trkpt lat="45.90420977006744" lon="12.868132700991996"><ele>26.0</ele><time>2026-04-04T09:41:46Z</time></trkpt><trkpt lat="45.90419717774997" lon="12.867917569060658"><ele>26.0</ele><time>2026-04-04T09:41:47Z</time></trkpt><trkpt lat="45.904218456932135" lon="12.86770224905041"><ele>25.333333333333332</ele><time>2026-04-04T09:41:48Z</time></trkpt><trkpt lat="45.90426995428813" lon="12.867498229218771"><ele>24.666666666666664</ele><time>2026-04-04T09:41:49Z</time></trkpt><trkpt lat="45.90435395219113" lon="12.867306911673863"><ele>24.0</ele><time>2026-04-04T09:41:50Z</time></trkpt><trkpt lat="45.904414196420625" lon="12.86708221868174"><ele>24.0</ele><time>2026-04-04T09:41:51Z</time></trkpt><trkpt lat="45.90452242323366" lon="12.866843200614905"><ele>24.0</ele><time>2026-04-04T09:41:52Z</time></trkpt><trkpt lat="45.90446534891469" lon="12.866741732570063"><ele>24.0</ele><time>2026-04-04T09:41:53Z</time></trkpt><trkpt lat="45.904567340655994" lon="12.866580654158545"><ele>24.0</ele><time>2026-04-04T09:41:54Z</time></trkpt><trkpt lat="45.904683309834326" lon="12.866437836128341"><ele>24.0</ele><time>2026-04-04T09:41:55Z</time></trkpt><trkpt lat="45.9048117435225" lon="12.866312098024586"><ele>24.0</ele><time>2026-04-04T09:41:56Z</time></trkpt><trkpt lat="45.90496264233708" lon="12.866238744020887"><ele>24.0</ele><time>2026-04-04T09:41:57Z</time></trkpt><trkpt lat="45.90511593843976" lon="12.866150681823074"><ele>24.0</ele><time>2026-04-04T09:41:58Z</time></trkpt><trkpt lat="45.90528643526445" lon="12.866077609963593"><ele>24.0</ele><time>2026-04-04T09:41:59Z</time></trkpt><trkpt lat="45.90546777535374" lon="12.86600702244624"><ele>24.0</ele><time>2026-04-04T09:42:00Z</time></trkpt><trkpt lat="45.905660262365814" lon="12.865933164298777"><ele>24.666666666666664</ele><time>2026-04-04T09:42:01Z</time></trkpt><trkpt lat="45.90584419070495" lon="12.86584317161522"><ele>25.333333333333332</ele><time>2026-04-04T09:42:02Z</time></trkpt><trkpt lat="45.906020332419615" lon="12.865788028415846"><ele>26.0</ele><time>2026-04-04T09:42:03Z</time></trkpt><trkpt lat="45.90618786949061" lon="12.865725799743638"><ele>26.666666666666664</ele><time>2026-04-04T09:42:04Z</time></trkpt><trkpt lat="45.906359517541354" lon="12.86565723063966"><ele>27.333333333333336</ele><time>2026-04-04T09:42:05Z</time></trkpt><trkpt lat="45.906528081742906" lon="12.865595931289395"><ele>28.0</ele><time>2026-04-04T09:42:06Z</time></trkpt><trkpt lat="45.90669385895609" lon="12.865526133290667"><ele>28.666666666666668</ele><time>2026-04-04T09:42:07Z</time></trkpt><trkpt lat="45.906861533755574" lon="12.86545442499682"><ele>29.333333333333336</ele><time>2026-04-04T09:42:08Z</time></trkpt><trkpt lat="45.90702829312901" lon="12.865389182684766"><ele>30.0</ele><time>2026-04-04T09:42:09Z</time></trkpt><trkpt lat="45.907191557617026" lon="12.865327430210549"><ele>30.0</ele><time>2026-04-04T09:42:10Z</time></trkpt><trkpt lat="45.90733469538948" lon="12.865284901591275"><ele>30.0</ele><time>2026-04-04T09:42:11Z</time></trkpt><trkpt lat="45.90747450294966" lon="12.865207086094127"><ele>30.0</ele><time>2026-04-04T09:42:12Z</time></trkpt><trkpt lat="45.907619516826564" lon="12.86516376894796"><ele>30.0</ele><time>2026-04-04T09:42:13Z</time></trkpt><trkpt lat="45.90775828132474" lon="12.865111684263892"><ele>29.0</ele><time>2026-04-04T09:42:14Z</time></trkpt><trkpt lat="45.90790117067865" lon="12.86505294006001"><ele>28.0</ele><time>2026-04-04T09:42:15Z</time></trkpt><trkpt lat="45.908056621330886" lon="12.864983500890942"><ele>27.0</ele><time>2026-04-04T09:42:16Z</time></trkpt><trkpt lat="45.90820026773391" lon="12.864947280806161"><ele>27.0</ele><time>2026-04-04T09:42:17Z</time></trkpt><trkpt lat="45.90836155490751" lon="12.864884363370814"><ele>27.0</ele><time>2026-04-04T09:42:18Z</time></trkpt><trkpt lat="45.908471267775425" lon="12.864841564839354"><ele>27.0</ele><time>2026-04-04T09:42:19Z</time></trkpt><trkpt lat="45.9085633345127" lon="12.864807689176427"><ele>27.0</ele><time>2026-04-04T09:42:28Z</time></trkpt><trkpt lat="45.90871214654412" lon="12.864823342989972"><ele>26.75</ele><time>2026-04-04T09:42:30Z</time></trkpt><trkpt lat="45.90883242947386" lon="12.86489028258447"><ele>26.5</ele><time>2026-04-04T09:42:31Z</time></trkpt><trkpt lat="45.908911550339056" lon="12.864804051042503"><ele>26.25</ele><time>2026-04-04T09:42:33Z</time></trkpt><trkpt lat="45.9089878458359" lon="12.864705365967051"><ele>26.0</ele><time>2026-04-04T09:42:34Z</time></trkpt><trkpt lat="45.90908374054602" lon="12.864601678924842"><ele>26.0</ele><time>2026-04-04T09:42:35Z</time></trkpt><trkpt lat="45.90921515180877" lon="12.864534257144216"><ele>26.0</ele><time>2026-04-04T09:42:36Z</time></trkpt><trkpt lat="45.909353871205" lon="12.864484006574388"><ele>26.0</ele><time>2026-04-04T09:42:37Z</time></trkpt><trkpt lat="45.90950687563426" lon="12.864421289418724"><ele>26.0</ele><time>2026-04-04T09:42:38Z</time></trkpt><trkpt lat="45.90965364787962" lon="12.864365134223737"><ele>26.666666666666664</ele><time>2026-04-04T09:42:39Z</time></trkpt><trkpt lat="45.90979889481392" lon="12.864313716902045"><ele>27.333333333333336</ele><time>2026-04-04T09:42:40Z</time></trkpt><trkpt lat="45.909942493171215" lon="12.864250724809251"><ele>28.0</ele><time>2026-04-04T09:42:41Z</time></trkpt><trkpt lat="45.91009719196652" lon="12.864185869340483"><ele>28.666666666666668</ele><time>2026-04-04T09:42:42Z</time></trkpt><trkpt lat="45.91024831731192" lon="12.864129522983967"><ele>29.333333333333336</ele><time>2026-04-04T09:42:43Z</time></trkpt><trkpt lat="45.910395423870284" lon="12.864072043745706"><ele>30.0</ele><time>2026-04-04T09:42:44Z</time></trkpt><trkpt lat="45.9105407639589" lon="12.864037849856798"><ele>30.0</ele><time>2026-04-04T09:42:45Z</time></trkpt><trkpt lat="45.91067257547564" lon="12.863974611914948"><ele>30.0</ele><time>2026-04-04T09:42:46Z</time></trkpt><trkpt lat="45.910803724045174" lon="12.863934851137305"><ele>30.0</ele><time>2026-04-04T09:42:47Z</time></trkpt><trkpt lat="45.91094188825894" lon="12.863904048258691"><ele>30.0</ele><time>2026-04-04T09:42:48Z</time></trkpt><trkpt lat="45.911088730262406" lon="12.863898254947115"><ele>30.0</ele><time>2026-04-04T09:42:49Z</time></trkpt><trkpt lat="45.911220420004994" lon="12.86388566099131"><ele>30.0</ele><time>2026-04-04T09:42:50Z</time></trkpt><trkpt lat="45.91134561373243" lon="12.863852497564995"><ele>30.0</ele><time>2026-04-04T09:42:51Z</time></trkpt><trkpt lat="45.911452612816014" lon="12.863846430214418"><ele>30.0</ele><time>2026-04-04T09:42:52Z</time></trkpt><trkpt lat="45.91155051443712" lon="12.863840375437517"><ele>30.0</ele><time>2026-04-04T09:42:53Z</time></trkpt><trkpt lat="45.91164452778426" lon="12.863827243985453"><ele>30.0</ele><time>2026-04-04T09:42:54Z</time></trkpt><trkpt lat="45.91172389679588" lon="12.8638257790181"><ele>30.0</ele><time>2026-04-04T09:42:55Z</time></trkpt><trkpt lat="45.91180321901481" lon="12.863815537885799"><ele>30.0</ele><time>2026-04-04T09:42:56Z</time></trkpt><trkpt lat="45.91187803234542" lon="12.863804313344234"><ele>30.0</ele><time>2026-04-04T09:42:57Z</time></trkpt><trkpt lat="45.91196048915671" lon="12.86379890155761"><ele>30.0</ele><time>2026-04-04T09:42:58Z</time></trkpt><trkpt lat="45.91204074239555" lon="12.863782082617575"><ele>30.333333333333332</ele><time>2026-04-04T09:42:59Z</time></trkpt><trkpt lat="45.912105724875445" lon="12.863758828653616"><ele>30.666666666666664</ele><time>2026-04-04T09:43:00Z</time></trkpt><trkpt lat="45.91216698046141" lon="12.863728927870646"><ele>31.0</ele><time>2026-04-04T09:43:02Z</time></trkpt><trkpt lat="45.91224485400623" lon="12.863695532911619"><ele>31.333333333333332</ele><time>2026-04-04T09:43:07Z</time></trkpt><trkpt lat="45.912359560985664" lon="12.863727239852643"><ele>31.666666666666664</ele><time>2026-04-04T09:43:09Z</time></trkpt><trkpt lat="45.91244906985851" lon="12.863777227425237"><ele>32.0</ele><time>2026-04-04T09:43:10Z</time></trkpt><trkpt lat="45.91255103253599" lon="12.86381672781392"><ele>32.0</ele><time>2026-04-04T09:43:11Z</time></trkpt><trkpt lat="45.91266885477285" lon="12.863857647720131"><ele>32.0</ele><time>2026-04-04T09:43:12Z</time></trkpt><trkpt lat="45.912794989113344" lon="12.863904729372004"><ele>32.0</ele><time>2026-04-04T09:43:13Z</time></trkpt><trkpt lat="45.912933741096666" lon="12.8639342770248"><ele>32.0</ele><time>2026-04-04T09:43:14Z</time></trkpt><trkpt lat="45.91308511824703" lon="12.863947464975011"><ele>32.0</ele><time>2026-04-04T09:43:15Z</time></trkpt><trkpt lat="45.913249140014344" lon="12.863971643252711"><ele>32.0</ele><time>2026-04-04T09:43:16Z</time></trkpt><trkpt lat="45.91340119024208" lon="12.864002818772642"><ele>32.0</ele><time>2026-04-04T09:43:17Z</time></trkpt><trkpt lat="45.91355342041413" lon="12.864036167413689"><ele>31.25</ele><time>2026-04-04T09:43:18Z</time></trkpt><trkpt lat="45.91370408230073" lon="12.864070863398146"><ele>30.5</ele><time>2026-04-04T09:43:19Z</time></trkpt><trkpt lat="45.913846738511765" lon="12.864099835860936"><ele>29.75</ele><time>2026-04-04T09:43:20Z</time></trkpt><trkpt lat="45.913976063571035" lon="12.864126825601867"><ele>29.0</ele><time>2026-04-04T09:43:21Z</time></trkpt><trkpt lat="45.914093938445156" lon="12.864149079910069"><ele>29.0</ele><time>2026-04-04T09:43:22Z</time></trkpt><trkpt lat="45.91421279494551" lon="12.864178059048516"><ele>29.0</ele><time>2026-04-04T09:43:23Z</time></trkpt><trkpt lat="45.91433802458879" lon="12.864205239820597"><ele>29.0</ele><time>2026-04-04T09:43:24Z</time></trkpt><trkpt lat="45.914462839678485" lon="12.86423147258357"><ele>29.0</ele><time>2026-04-04T09:43:25Z</time></trkpt><trkpt lat="45.914586957048705" lon="12.864254088098246"><ele>29.25</ele><time>2026-04-04T09:43:26Z</time></trkpt><trkpt lat="45.914709365190234" lon="12.864273361853076"><ele>29.5</ele><time>2026-04-04T09:43:27Z</time></trkpt><trkpt lat="45.914838981135425" lon="12.864283967453236"><ele>29.75</ele><time>2026-04-04T09:43:28Z</time></trkpt><trkpt lat="45.914969740596355" lon="12.864285812376826"><ele>30.0</ele><time>2026-04-04T09:43:29Z</time></trkpt><trkpt lat="45.915096015411116" lon="12.864292688862893"><ele>30.0</ele><time>2026-04-04T09:43:30Z</time></trkpt><trkpt lat="45.9152211845407" lon="12.864282420535329"><ele>30.0</ele><time>2026-04-04T09:43:31Z</time></trkpt><trkpt lat="45.91534922281594" lon="12.864243866446767"><ele>30.0</ele><time>2026-04-04T09:43:32Z</time></trkpt><trkpt lat="45.915478438553635" lon="12.86419459544924"><ele>30.0</ele><time>2026-04-04T09:43:33Z</time></trkpt><trkpt lat="45.915610839078845" lon="12.864146516408825"><ele>30.0</ele><time>2026-04-04T09:43:34Z</time></trkpt><trkpt lat="45.91574071381967" lon="12.864090786654986"><ele>30.0</ele><time>2026-04-04T09:43:35Z</time></trkpt><trkpt lat="45.91587003916309" lon="12.864027831015225"><ele>30.0</ele><time>2026-04-04T09:43:36Z</time></trkpt><trkpt lat="45.91600023404956" lon="12.863964787826772"><ele>30.0</ele><time>2026-04-04T09:43:37Z</time></trkpt><trkpt lat="45.9161267555317" lon="12.863910604057496"><ele>30.0</ele><time>2026-04-04T09:43:38Z</time></trkpt><trkpt lat="45.91624527557953" lon="12.863883205558526"><ele>30.0</ele><time>2026-04-04T09:43:39Z</time></trkpt><trkpt lat="45.916354395366376" lon="12.863871145270958"><ele>30.0</ele><time>2026-04-04T09:43:40Z</time></trkpt><trkpt lat="45.91645795003315" lon="12.863876648083252"><ele>30.0</ele><time>2026-04-04T09:43:41Z</time></trkpt><trkpt lat="45.916554811446595" lon="12.863910994232278"><ele>30.0</ele><time>2026-04-04T09:43:42Z</time></trkpt><trkpt lat="45.916652008785164" lon="12.863969654831154"><ele>30.4</ele><time>2026-04-04T09:43:43Z</time></trkpt><trkpt lat="45.9167492117064" lon="12.86404996363704"><ele>30.8</ele><time>2026-04-04T09:43:44Z</time></trkpt><trkpt lat="45.916831094357356" lon="12.864151782333746"><ele>31.200000000000003</ele><time>2026-04-04T09:43:45Z</time></trkpt><trkpt lat="45.91690991129604" lon="12.86424205901789"><ele>31.6</ele><time>2026-04-04T09:43:46Z</time></trkpt><trkpt lat="45.91698068404641" lon="12.86432840408033"><ele>32.0</ele><time>2026-04-04T09:43:47Z</time></trkpt><trkpt lat="45.9170377066901" lon="12.864393628022537"><ele>31.999999999999996</ele><time>2026-04-04T09:43:48Z</time></trkpt><trkpt lat="45.917093466462404" lon="12.864470286763352"><ele>32.0</ele><time>2026-04-04T09:43:50Z</time></trkpt><trkpt lat="45.917158030195964" lon="12.864550969507425"><ele>32.0</ele><time>2026-04-04T09:43:53.001Z</time></trkpt><trkpt lat="45.91720657064978" lon="12.864688526519089"><ele>32.0</ele><time>2026-04-04T09:43:55Z</time></trkpt><trkpt lat="45.917230409278936" lon="12.864787769696148"><ele>31.999999999999996</ele><time>2026-04-04T09:43:56Z</time></trkpt><trkpt lat="45.917266783125015" lon="12.86486299971554"><ele>32.0</ele><time>2026-04-04T09:43:57Z</time></trkpt><trkpt lat="45.91738830430829" lon="12.864980002776107"><ele>32.0</ele><time>2026-04-04T09:43:59Z</time></trkpt><trkpt lat="45.91746415918468" lon="12.865036151546759"><ele>32.0</ele><time>2026-04-04T09:44:00Z</time></trkpt><trkpt lat="45.91753417282025" lon="12.865161017839975"><ele>32.0</ele><time>2026-04-04T09:44:01Z</time></trkpt><trkpt lat="45.91760040337654" lon="12.86528400692137"><ele>32.0</ele><time>2026-04-04T09:44:02Z</time></trkpt><trkpt lat="45.9176686044943" lon="12.865393980671247"><ele>32.0</ele><time>2026-04-04T09:44:03Z</time></trkpt><trkpt lat="45.917740769565945" lon="12.865496869231722"><ele>32.0</ele><time>2026-04-04T09:44:04Z</time></trkpt><trkpt lat="45.91781782446266" lon="12.865591408666353"><ele>32.0</ele><time>2026-04-04T09:44:05Z</time></trkpt><trkpt lat="45.9178795428631" lon="12.865693984585832"><ele>32.0</ele><time>2026-04-04T09:44:06Z</time></trkpt><trkpt lat="45.917946076748294" lon="12.865789344463343"><ele>32.0</ele><time>2026-04-04T09:44:07Z</time></trkpt><trkpt lat="45.91801469244" lon="12.865883798654446"><ele>32.0</ele><time>2026-04-04T09:44:08Z</time></trkpt><trkpt lat="45.91807978492458" lon="12.865978074767535"><ele>32.0</ele><time>2026-04-04T09:44:09Z</time></trkpt><trkpt lat="45.918145944825895" lon="12.866074735476136"><ele>32.0</ele><time>2026-04-04T09:44:10Z</time></trkpt><trkpt lat="45.91821175906588" lon="12.866172006645959"><ele>32.0</ele><time>2026-04-04T09:44:11Z</time></trkpt><trkpt lat="45.91827718153523" lon="12.866265552625158"><ele>32.0</ele><time>2026-04-04T09:44:12Z</time></trkpt><trkpt lat="45.91834687816045" lon="12.86635685053308"><ele>32.0</ele><time>2026-04-04T09:44:13Z</time></trkpt><trkpt lat="45.91841386589157" lon="12.866456702098253"><ele>32.0</ele><time>2026-04-04T09:44:14Z</time></trkpt><trkpt lat="45.91849370175707" lon="12.866568045737717"><ele>32.0</ele><time>2026-04-04T09:44:15Z</time></trkpt><trkpt lat="45.91858012897407" lon="12.866694779735623"><ele>32.0</ele><time>2026-04-04T09:44:16Z</time></trkpt><trkpt lat="45.91867122331614" lon="12.86682481847957"><ele>32.0</ele><time>2026-04-04T09:44:17Z</time></trkpt><trkpt lat="45.91876467300442" lon="12.866956305539698"><ele>32.0</ele><time>2026-04-04T09:44:18Z</time></trkpt><trkpt lat="45.91885012444745" lon="12.86708031629683"><ele>32.0</ele><time>2026-04-04T09:44:19Z</time></trkpt><trkpt lat="45.91892844357121" lon="12.867189520952442"><ele>32.0</ele><time>2026-04-04T09:44:20Z</time></trkpt><trkpt lat="45.91898724734813" lon="12.867294117946559"><ele>32.0</ele><time>2026-04-04T09:44:21Z</time></trkpt><trkpt lat="45.91905316879294" lon="12.867383669081526"><ele>32.0</ele><time>2026-04-04T09:44:22Z</time></trkpt><trkpt lat="45.91910097830596" lon="12.867449504920089"><ele>31.999999999999996</ele><time>2026-04-04T09:44:23Z</time></trkpt><trkpt lat="45.91916097869174" lon="12.867514774574742"><ele>32.0</ele><time>2026-04-04T09:44:25Z</time></trkpt><trkpt lat="45.91920548072312" lon="12.867599470677556"><ele>32.0</ele><time>2026-04-04T09:44:27Z</time></trkpt><trkpt lat="45.91927707388322" lon="12.86770830104704"><ele>32.0</ele><time>2026-04-04T09:44:31Z</time></trkpt><trkpt lat="45.91932406602273" lon="12.867782454682956"><ele>31.999999999999996</ele><time>2026-04-04T09:44:32Z</time></trkpt><trkpt lat="45.91937084379365" lon="12.86785998683851"><ele>32.0</ele><time>2026-04-04T09:44:33Z</time></trkpt><trkpt lat="45.91941169734178" lon="12.867932420821958"><ele>31.400000000000002</ele><time>2026-04-04T09:44:34Z</time></trkpt><trkpt lat="45.91941573858462" lon="12.868032160701475"><ele>30.800000000000004</ele><time>2026-04-04T09:44:35Z</time></trkpt><trkpt lat="45.9194077637526" lon="12.868125570570065"><ele>30.2</ele><time>2026-04-04T09:44:36Z</time></trkpt><trkpt lat="45.91941352248598" lon="12.8682795246895"><ele>29.6</ele><time>2026-04-04T09:44:38Z</time></trkpt><trkpt lat="45.919533701069184" lon="12.868362065879687"><ele>29.0</ele><time>2026-04-04T09:44:40Z</time></trkpt><trkpt lat="45.91961580823715" lon="12.868344446621157"><ele>29.0</ele><time>2026-04-04T09:44:41Z</time></trkpt><trkpt lat="45.91970098490126" lon="12.868429532649447"><ele>29.0</ele><time>2026-04-04T09:44:42Z</time></trkpt><trkpt lat="45.9197886667372" lon="12.868544577161806"><ele>29.0</ele><time>2026-04-04T09:44:43Z</time></trkpt><trkpt lat="45.91987313158697" lon="12.868677908055751"><ele>29.0</ele><time>2026-04-04T09:44:44Z</time></trkpt><trkpt lat="45.919965175195685" lon="12.868816168991172"><ele>29.0</ele><time>2026-04-04T09:44:45Z</time></trkpt><trkpt lat="45.920054521598615" lon="12.868946237859626"><ele>29.0</ele><time>2026-04-04T09:44:46Z</time></trkpt><trkpt lat="45.920151393618916" lon="12.869076854833269"><ele>29.0</ele><time>2026-04-04T09:44:47Z</time></trkpt><trkpt lat="45.920254801083466" lon="12.869193980499404"><ele>29.0</ele><time>2026-04-04T09:44:48Z</time></trkpt><trkpt lat="45.92035371710952" lon="12.869309370224052"><ele>29.0</ele><time>2026-04-04T09:44:49Z</time></trkpt><trkpt lat="45.92045428139947" lon="12.869418129979378"><ele>29.0</ele><time>2026-04-04T09:44:50Z</time></trkpt><trkpt lat="45.92055125989325" lon="12.869543417582717"><ele>29.0</ele><time>2026-04-04T09:44:51Z</time></trkpt><trkpt lat="45.92065287511336" lon="12.869684323974"><ele>29.0</ele><time>2026-04-04T09:44:52Z</time></trkpt><trkpt lat="45.92075586191101" lon="12.869835561655206"><ele>29.0</ele><time>2026-04-04T09:44:53Z</time></trkpt><trkpt lat="45.92086092172687" lon="12.86998807532119"><ele>29.0</ele><time>2026-04-04T09:44:54Z</time></trkpt><trkpt lat="45.920963742851484" lon="12.870142607228887"><ele>29.0</ele><time>2026-04-04T09:44:55Z</time></trkpt><trkpt lat="45.92106292037899" lon="12.87029299795229"><ele>29.0</ele><time>2026-04-04T09:44:56Z</time></trkpt><trkpt lat="45.92116675809743" lon="12.87044670392913"><ele>29.666666666666664</ele><time>2026-04-04T09:44:57Z</time></trkpt><trkpt lat="45.921272139452284" lon="12.870602024266669"><ele>30.333333333333336</ele><time>2026-04-04T09:44:58Z</time></trkpt><trkpt lat="45.9213817105682" lon="12.870761659588485"><ele>31.0</ele><time>2026-04-04T09:44:59Z</time></trkpt><trkpt lat="45.92148693733773" lon="12.87093318979116"><ele>31.0</ele><time>2026-04-04T09:45:00Z</time></trkpt><trkpt lat="45.92160059130215" lon="12.871106023942387"><ele>31.0</ele><time>2026-04-04T09:45:01Z</time></trkpt><trkpt lat="45.92171624065596" lon="12.871283289246097"><ele>31.0</ele><time>2026-04-04T09:45:02Z</time></trkpt><trkpt lat="45.92183383003492" lon="12.871459064920488"><ele>31.0</ele><time>2026-04-04T09:45:03Z</time></trkpt><trkpt lat="45.92195329592746" lon="12.871630612584262"><ele>31.0</ele><time>2026-04-04T09:45:04Z</time></trkpt><trkpt lat="45.92206861994101" lon="12.871809732284328"><ele>31.0</ele><time>2026-04-04T09:45:05Z</time></trkpt><trkpt lat="45.92217579381838" lon="12.871972883649505"><ele>31.0</ele><time>2026-04-04T09:45:06Z</time></trkpt><trkpt lat="45.922277108847965" lon="12.872124314290636"><ele>31.0</ele><time>2026-04-04T09:45:07Z</time></trkpt><trkpt lat="45.92236954458827" lon="12.872271587025601"><ele>31.0</ele><time>2026-04-04T09:45:08Z</time></trkpt><trkpt lat="45.922470133228515" lon="12.872418381527112"><ele>31.0</ele><time>2026-04-04T09:45:09Z</time></trkpt><trkpt lat="45.92256890014501" lon="12.872564253766976"><ele>31.5</ele><time>2026-04-04T09:45:10Z</time></trkpt><trkpt lat="45.92267127557419" lon="12.872704248884359"><ele>32.0</ele><time>2026-04-04T09:45:11Z</time></trkpt><trkpt lat="45.92276659839169" lon="12.872834818220433"><ele>32.5</ele><time>2026-04-04T09:45:12Z</time></trkpt><trkpt lat="45.92284845625223" lon="12.872961408348031"><ele>33.0</ele><time>2026-04-04T09:45:13Z</time></trkpt><trkpt lat="45.922928813530994" lon="12.873072918607331"><ele>33.0</ele><time>2026-04-04T09:45:14Z</time></trkpt><trkpt lat="45.92301284536319" lon="12.873185448035077"><ele>33.0</ele><time>2026-04-04T09:45:15Z</time></trkpt><trkpt lat="45.92309328750908" lon="12.873284211983488"><ele>33.0</ele><time>2026-04-04T09:45:16Z</time></trkpt><trkpt lat="45.923164617744234" lon="12.873362728947622"><ele>33.0</ele><time>2026-04-04T09:45:17Z</time></trkpt><trkpt lat="45.92322673186801" lon="12.873425882908014"><ele>33.0</ele><time>2026-04-04T09:45:18Z</time></trkpt><trkpt lat="45.92328578464174" lon="12.873497702655502"><ele>33.166666666666664</ele><time>2026-04-04T09:45:19Z</time></trkpt><trkpt lat="45.923338879151835" lon="12.873589496072118"><ele>33.333333333333336</ele><time>2026-04-04T09:45:20Z</time></trkpt><trkpt lat="45.92338186366264" lon="12.873688187751862"><ele>33.5</ele><time>2026-04-04T09:45:21Z</time></trkpt><trkpt lat="45.923411251538774" lon="12.873776021400326"><ele>33.66666666666667</ele><time>2026-04-04T09:45:22Z</time></trkpt><trkpt lat="45.92346620070639" lon="12.873870048420835"><ele>33.833333333333336</ele><time>2026-04-04T09:45:24Z</time></trkpt><trkpt lat="45.92356447073479" lon="12.87382835143943"><ele>34.0</ele><time>2026-04-04T09:45:25Z</time></trkpt><trkpt lat="45.92365591982381" lon="12.873737709435654"><ele>34.0</ele><time>2026-04-04T09:45:26Z</time></trkpt><trkpt lat="45.92377708458929" lon="12.873721280027278"><ele>34.0</ele><time>2026-04-04T09:45:27Z</time></trkpt><trkpt lat="45.923911782664874" lon="12.873684189263829"><ele>34.0</ele><time>2026-04-04T09:45:28Z</time></trkpt><trkpt lat="45.92404963665749" lon="12.873732482367663"><ele>34.0</ele><time>2026-04-04T09:45:30Z</time></trkpt><trkpt lat="45.924190040765076" lon="12.8737241890389"><ele>33.333333333333336</ele><time>2026-04-04T09:45:31Z</time></trkpt><trkpt lat="45.92433778526976" lon="12.873718138093682"><ele>32.666666666666664</ele><time>2026-04-04T09:45:32Z</time></trkpt><trkpt lat="45.92449515199354" lon="12.873695901091205"><ele>32.0</ele><time>2026-04-04T09:45:33Z</time></trkpt><trkpt lat="45.92465859553236" lon="12.873655418769768"><ele>32.0</ele><time>2026-04-04T09:45:34Z</time></trkpt><trkpt lat="45.924815431174025" lon="12.87361087867344"><ele>32.0</ele><time>2026-04-04T09:45:35Z</time></trkpt><trkpt lat="45.92497252713333" lon="12.873568213765838"><ele>32.0</ele><time>2026-04-04T09:45:36Z</time></trkpt><trkpt lat="45.925130791429666" lon="12.873522337386472"><ele>32.25</ele><time>2026-04-04T09:45:37Z</time></trkpt><trkpt lat="45.92528507976264" lon="12.873478775582832"><ele>32.5</ele><time>2026-04-04T09:45:38Z</time></trkpt><trkpt lat="45.92542780290737" lon="12.873443196408115"><ele>32.75</ele><time>2026-04-04T09:45:39Z</time></trkpt><trkpt lat="45.92555701710762" lon="12.873404894800444"><ele>33.0</ele><time>2026-04-04T09:45:40Z</time></trkpt><trkpt lat="45.925687076089375" lon="12.873369213447557"><ele>33.0</ele><time>2026-04-04T09:45:41Z</time></trkpt><trkpt lat="45.9258260006977" lon="12.873333609432981"><ele>33.0</ele><time>2026-04-04T09:45:42Z</time></trkpt><trkpt lat="45.92596392817736" lon="12.873296021762"><ele>33.0</ele><time>2026-04-04T09:45:43Z</time></trkpt><trkpt lat="45.92609874387593" lon="12.87325128998924"><ele>33.0</ele><time>2026-04-04T09:45:44Z</time></trkpt><trkpt lat="45.92624072236942" lon="12.87321435325161"><ele>33.0</ele><time>2026-04-04T09:45:45Z</time></trkpt><trkpt lat="45.92638267361986" lon="12.873173043623392"><ele>33.0</ele><time>2026-04-04T09:45:46Z</time></trkpt><trkpt lat="45.926522367236736" lon="12.873131000154945"><ele>33.0</ele><time>2026-04-04T09:45:47Z</time></trkpt><trkpt lat="45.926671606083836" lon="12.873086426912304"><ele>33.0</ele><time>2026-04-04T09:45:48Z</time></trkpt><trkpt lat="45.92682363988554" lon="12.873053094637632"><ele>33.0</ele><time>2026-04-04T09:45:49Z</time></trkpt><trkpt lat="45.92695405896333" lon="12.873009059170899"><ele>33.0</ele><time>2026-04-04T09:45:50Z</time></trkpt><trkpt lat="45.92708875947925" lon="12.87297144394696"><ele>33.0</ele><time>2026-04-04T09:45:51Z</time></trkpt><trkpt lat="45.92720138256679" lon="12.872940152360126"><ele>33.0</ele><time>2026-04-04T09:45:52Z</time></trkpt><trkpt lat="45.927311117943624" lon="12.872898433868738"><ele>33.0</ele><time>2026-04-04T09:45:53Z</time></trkpt><trkpt lat="45.9274288524417" lon="12.872865307100067"><ele>33.0</ele><time>2026-04-04T09:45:54Z</time></trkpt><trkpt lat="45.92755379578707" lon="12.872841437103883"><ele>33.0</ele><time>2026-04-04T09:45:55Z</time></trkpt><trkpt lat="45.927682577857205" lon="12.872805504084432"><ele>33.0</ele><time>2026-04-04T09:45:56Z</time></trkpt><trkpt lat="45.927813602707026" lon="12.872765368682824"><ele>33.4</ele><time>2026-04-04T09:45:57Z</time></trkpt><trkpt lat="45.92792455045016" lon="12.872734836027702"><ele>33.8</ele><time>2026-04-04T09:45:58Z</time></trkpt><trkpt lat="45.92802327728214" lon="12.872700816297002"><ele>34.2</ele><time>2026-04-04T09:45:59Z</time></trkpt><trkpt lat="45.92811612382693" lon="12.872653834797834"><ele>34.6</ele><time>2026-04-04T09:46:00Z</time></trkpt><trkpt lat="45.9282297209573" lon="12.872638416256192"><ele>35.0</ele><time>2026-04-04T09:46:01Z</time></trkpt><trkpt lat="45.928338096304245" lon="12.87258930034115"><ele>34.83333333333333</ele><time>2026-04-04T09:46:02Z</time></trkpt><trkpt lat="45.928427806600226" lon="12.872559772317715"><ele>34.666666666666664</ele><time>2026-04-04T09:46:03Z</time></trkpt><trkpt lat="45.92850774227708" lon="12.872536583005985"><ele>34.5</ele><time>2026-04-04T09:46:04Z</time></trkpt><trkpt lat="45.92858681615291" lon="12.872526272212886"><ele>34.333333333333336</ele><time>2026-04-04T09:46:05Z</time></trkpt><trkpt lat="45.928664167639624" lon="12.87254823654034"><ele>34.16666666666667</ele><time>2026-04-04T09:46:06Z</time></trkpt><trkpt lat="45.92872603096408" lon="12.872574278639776"><ele>34.0</ele><time>2026-04-04T09:46:07Z</time></trkpt><trkpt lat="45.928793596170394" lon="12.872568825339789"><ele>34.0</ele><time>2026-04-04T09:46:08Z</time></trkpt><trkpt lat="45.92886239080069" lon="12.872530240740947"><ele>34.0</ele><time>2026-04-04T09:46:09Z</time></trkpt><trkpt lat="45.92893468009638" lon="12.87246228915045"><ele>34.0</ele><time>2026-04-04T09:46:10Z</time></trkpt><trkpt lat="45.92901967664394" lon="12.872398133004907"><ele>34.0</ele><time>2026-04-04T09:46:11Z</time></trkpt><trkpt lat="45.929131636417495" lon="12.872360086146385"><ele>34.0</ele><time>2026-04-04T09:46:12Z</time></trkpt><trkpt lat="45.92927261939286" lon="12.872335435527905"><ele>33.333333333333336</ele><time>2026-04-04T09:46:13Z</time></trkpt><trkpt lat="45.92942570739003" lon="12.872303841376866"><ele>32.666666666666664</ele><time>2026-04-04T09:46:14Z</time></trkpt><trkpt lat="45.92958799455442" lon="12.872284008543245"><ele>32.0</ele><time>2026-04-04T09:46:15Z</time></trkpt><trkpt lat="45.92977128250306" lon="12.872249515862281"><ele>32.0</ele><time>2026-04-04T09:46:16Z</time></trkpt><trkpt lat="45.92996750804599" lon="12.872194658829684"><ele>32.0</ele><time>2026-04-04T09:46:17Z</time></trkpt><trkpt lat="45.93017450809641" lon="12.872133595945735"><ele>32.0</ele><time>2026-04-04T09:46:18Z</time></trkpt><trkpt lat="45.93041177825249" lon="12.872072950252667"><ele>33.0</ele><time>2026-04-04T09:46:19Z</time></trkpt><trkpt lat="45.930644615943834" lon="12.871997647757219"><ele>34.0</ele><time>2026-04-04T09:46:20Z</time></trkpt><trkpt lat="45.93087646954542" lon="12.871940997492064"><ele>33.0</ele><time>2026-04-04T09:46:21Z</time></trkpt><trkpt lat="45.931108438597754" lon="12.871879455452783"><ele>32.0</ele><time>2026-04-04T09:46:22Z</time></trkpt><trkpt lat="45.9313306489666" lon="12.871820118752282"><ele>32.666666666666664</ele><time>2026-04-04T09:46:23Z</time></trkpt><trkpt lat="45.93155370595142" lon="12.871760871370963"><ele>33.333333333333336</ele><time>2026-04-04T09:46:24Z</time></trkpt><trkpt lat="45.93176616671648" lon="12.87169855037331"><ele>34.0</ele><time>2026-04-04T09:46:25Z</time></trkpt><trkpt lat="45.931975138110815" lon="12.871637574742193"><ele>34.333333333333336</ele><time>2026-04-04T09:46:26Z</time></trkpt><trkpt lat="45.932186445382754" lon="12.871579649793548"><ele>34.666666666666664</ele><time>2026-04-04T09:46:27Z</time></trkpt><trkpt lat="45.93239540320705" lon="12.871519322870252"><ele>35.0</ele><time>2026-04-04T09:46:28Z</time></trkpt><trkpt lat="45.9326021092401" lon="12.871461721740651"><ele>34.0</ele><time>2026-04-04T09:46:29Z</time></trkpt><trkpt lat="45.932802828796014" lon="12.871405623360026"><ele>33.0</ele><time>2026-04-04T09:46:30Z</time></trkpt><trkpt lat="45.93299380657928" lon="12.871347615865949"><ele>32.0</ele><time>2026-04-04T09:46:31Z</time></trkpt><trkpt lat="45.93317632622313" lon="12.87129295073759"><ele>32.0</ele><time>2026-04-04T09:46:32Z</time></trkpt><trkpt lat="45.93334654434121" lon="12.871249140122998"><ele>32.0</ele><time>2026-04-04T09:46:33Z</time></trkpt><trkpt lat="45.93351140017262" lon="12.871209877849369"><ele>32.0</ele><time>2026-04-04T09:46:34Z</time></trkpt><trkpt lat="45.93367585260149" lon="12.871174200863829"><ele>33.0</ele><time>2026-04-04T09:46:35Z</time></trkpt><trkpt lat="45.933849193872135" lon="12.87115816545704"><ele>34.0</ele><time>2026-04-04T09:46:36Z</time></trkpt><trkpt lat="45.93401855886478" lon="12.871165850066411"><ele>35.0</ele><time>2026-04-04T09:46:37Z</time></trkpt><trkpt lat="45.93418339935264" lon="12.871197155341209"><ele>35.666666666666664</ele><time>2026-04-04T09:46:38Z</time></trkpt><trkpt lat="45.93434192046222" lon="12.871258312105786"><ele>36.333333333333336</ele><time>2026-04-04T09:46:39Z</time></trkpt><trkpt lat="45.934509244370176" lon="12.871345414486191"><ele>37.0</ele><time>2026-04-04T09:46:40.001Z</time></trkpt><trkpt lat="45.93468004074441" lon="12.87146924034089"><ele>37.0</ele><time>2026-04-04T09:46:41.001Z</time></trkpt><trkpt lat="45.934861940594544" lon="12.871608237948365"><ele>37.0</ele><time>2026-04-04T09:46:42.001Z</time></trkpt><trkpt lat="45.935052151360345" lon="12.871751936454128"><ele>37.0</ele><time>2026-04-04T09:46:43.001Z</time></trkpt><trkpt lat="45.93524247128101" lon="12.871898430437941"><ele>36.66666666666667</ele><time>2026-04-04T09:46:44.001Z</time></trkpt><trkpt lat="45.9354353640473" lon="12.87204211215142"><ele>36.333333333333336</ele><time>2026-04-04T09:46:45.001Z</time></trkpt><trkpt lat="45.93562884878052" lon="12.872181248931245"><ele>36.0</ele><time>2026-04-04T09:46:46.001Z</time></trkpt><trkpt lat="45.935804585721804" lon="12.87231201376739"><ele>35.666666666666664</ele><time>2026-04-04T09:46:47.001Z</time></trkpt><trkpt lat="45.93597194247169" lon="12.872435221496811"><ele>35.33333333333333</ele><time>2026-04-04T09:46:48.001Z</time></trkpt><trkpt lat="45.936134102704635" lon="12.872558489587341"><ele>35.0</ele><time>2026-04-04T09:46:49.001Z</time></trkpt><trkpt lat="45.93628660028099" lon="12.872672764808106"><ele>35.0</ele><time>2026-04-04T09:46:50.001Z</time></trkpt><trkpt lat="45.936432974978246" lon="12.872781644621357"><ele>35.0</ele><time>2026-04-04T09:46:51.001Z</time></trkpt><trkpt lat="45.93657600220693" lon="12.872886935835814"><ele>35.0</ele><time>2026-04-04T09:46:52.001Z</time></trkpt><trkpt lat="45.936709618338746" lon="12.872983568335941"><ele>35.0</ele><time>2026-04-04T09:46:53.001Z</time></trkpt><trkpt lat="45.93682453492151" lon="12.87306494071072"><ele>35.0</ele><time>2026-04-04T09:46:54.001Z</time></trkpt><trkpt lat="45.936920082344365" lon="12.873133529523743"><ele>35.0</ele><time>2026-04-04T09:46:55Z</time></trkpt><trkpt lat="45.937003014834" lon="12.873182408306475"><ele>35.0</ele><time>2026-04-04T09:46:56Z</time></trkpt><trkpt lat="45.93706869101681" lon="12.873238027723646"><ele>35.0</ele><time>2026-04-04T09:46:57Z</time></trkpt><trkpt lat="45.93712857000703" lon="12.873328106255231"><ele>35.5</ele><time>2026-04-04T09:46:58Z</time></trkpt><trkpt lat="45.93718688507222" lon="12.873440721345158"><ele>36.0</ele><time>2026-04-04T09:46:59Z</time></trkpt><trkpt lat="45.93724736187342" lon="12.873533814256705"><ele>36.5</ele><time>2026-04-04T09:47:00Z</time></trkpt><trkpt lat="45.9373128760877" lon="12.873596222376348"><ele>37.0</ele><time>2026-04-04T09:47:01Z</time></trkpt><trkpt lat="45.937385032974184" lon="12.873626127875227"><ele>37.5</ele><time>2026-04-04T09:47:02Z</time></trkpt><trkpt lat="45.93746106997798" lon="12.873629803330376"><ele>38.0</ele><time>2026-04-04T09:47:03Z</time></trkpt><trkpt lat="45.9375415091691" lon="12.873606579970282"><ele>37.666666666666664</ele><time>2026-04-04T09:47:04Z</time></trkpt><trkpt lat="45.93761585054796" lon="12.873553027917746"><ele>37.33333333333333</ele><time>2026-04-04T09:47:05Z</time></trkpt><trkpt lat="45.937675713532734" lon="12.873466583958294"><ele>37.0</ele><time>2026-04-04T09:47:06Z</time></trkpt><trkpt lat="45.93772408939412" lon="12.873360376628675"><ele>36.666666666666664</ele><time>2026-04-04T09:47:07Z</time></trkpt><trkpt lat="45.937753447157995" lon="12.873233422826686"><ele>36.333333333333336</ele><time>2026-04-04T09:47:08Z</time></trkpt><trkpt lat="45.937754771734745" lon="12.87309041859042"><ele>36.0</ele><time>2026-04-04T09:47:09Z</time></trkpt><trkpt lat="45.93774320684901" lon="12.872921195013717"><ele>35.666666666666664</ele><time>2026-04-04T09:47:10Z</time></trkpt><trkpt lat="45.93774170432597" lon="12.872721461243616"><ele>35.33333333333333</ele><time>2026-04-04T09:47:11Z</time></trkpt><trkpt lat="45.93776555066768" lon="12.872495382707548"><ele>35.0</ele><time>2026-04-04T09:47:12Z</time></trkpt><trkpt lat="45.93780564477377" lon="12.872260293785994"><ele>36.33333333333333</ele><time>2026-04-04T09:47:13Z</time></trkpt><trkpt lat="45.93784700470282" lon="12.872038259732463"><ele>37.666666666666664</ele><time>2026-04-04T09:47:14Z</time></trkpt><trkpt lat="45.93788712127403" lon="12.871821648656262"><ele>39.0</ele><time>2026-04-04T09:47:15Z</time></trkpt><trkpt lat="45.9379518432988" lon="12.871613296724794"><ele>39.0</ele><time>2026-04-04T09:47:16Z</time></trkpt><trkpt lat="45.938007848035845" lon="12.871388545204484"><ele>39.0</ele><time>2026-04-04T09:47:17Z</time></trkpt><trkpt lat="45.93809463583223" lon="12.871169419654525"><ele>39.0</ele><time>2026-04-04T09:47:18Z</time></trkpt><trkpt lat="45.938185563369345" lon="12.870941982112658"><ele>39.333333333333336</ele><time>2026-04-04T09:47:19Z</time></trkpt><trkpt lat="45.93828323426295" lon="12.870707867375518"><ele>39.66666666666667</ele><time>2026-04-04T09:47:20Z</time></trkpt><trkpt lat="45.9383973149785" lon="12.870480235063336"><ele>40.0</ele><time>2026-04-04T09:47:21Z</time></trkpt><trkpt lat="45.938524555249565" lon="12.870270712812061"><ele>39.0</ele><time>2026-04-04T09:47:22Z</time></trkpt><trkpt lat="45.93864959583465" lon="12.870097183131461"><ele>38.0</ele><time>2026-04-04T09:47:23Z</time></trkpt><trkpt lat="45.938775980959896" lon="12.869950179110102"><ele>37.0</ele><time>2026-04-04T09:47:24Z</time></trkpt><trkpt lat="45.93889453099133" lon="12.869804480749384"><ele>37.0</ele><time>2026-04-04T09:47:25Z</time></trkpt><trkpt lat="45.939069985427764" lon="12.869725069529675"><ele>37.0</ele><time>2026-04-04T09:47:26Z</time></trkpt><trkpt lat="45.9392423254437" lon="12.869639190189273"><ele>37.0</ele><time>2026-04-04T09:47:27Z</time></trkpt><trkpt lat="45.93942431682243" lon="12.869581256331042"><ele>37.0</ele><time>2026-04-04T09:47:28Z</time></trkpt><trkpt lat="45.93961899505475" lon="12.869542601832627"><ele>37.0</ele><time>2026-04-04T09:47:29Z</time></trkpt><trkpt lat="45.93981832076986" lon="12.869498288732563"><ele>37.0</ele><time>2026-04-04T09:47:30Z</time></trkpt><trkpt lat="45.9400088958489" lon="12.869445891798334"><ele>36.66666666666667</ele><time>2026-04-04T09:47:31Z</time></trkpt><trkpt lat="45.940196712062914" lon="12.869390539184923"><ele>36.333333333333336</ele><time>2026-04-04T09:47:32Z</time></trkpt><trkpt lat="45.94038189707187" lon="12.86934257663786"><ele>36.0</ele><time>2026-04-04T09:47:33Z</time></trkpt><trkpt lat="45.94057044551669" lon="12.869292461889781"><ele>36.0</ele><time>2026-04-04T09:47:34Z</time></trkpt><trkpt lat="45.94076110267501" lon="12.869240226249927"><ele>36.0</ele><time>2026-04-04T09:47:35Z</time></trkpt><trkpt lat="45.940951915382904" lon="12.869189706237249"><ele>36.0</ele><time>2026-04-04T09:47:36Z</time></trkpt><trkpt lat="45.941138715164804" lon="12.869137394614375"><ele>35.333333333333336</ele><time>2026-04-04T09:47:37Z</time></trkpt><trkpt lat="45.94132662310163" lon="12.869086982719738"><ele>34.66666666666667</ele><time>2026-04-04T09:47:38Z</time></trkpt><trkpt lat="45.941507564220075" lon="12.869038647543452"><ele>34.0</ele><time>2026-04-04T09:47:39Z</time></trkpt><trkpt lat="45.94168275669317" lon="12.868994737301152"><ele>33.66666666666667</ele><time>2026-04-04T09:47:40Z</time></trkpt><trkpt lat="45.941838591484164" lon="12.868945694948957"><ele>33.333333333333336</ele><time>2026-04-04T09:47:41Z</time></trkpt><trkpt lat="45.941988850566226" lon="12.868902692160724"><ele>33.0</ele><time>2026-04-04T09:47:42Z</time></trkpt><trkpt lat="45.94214743398648" lon="12.86886152295924"><ele>33.0</ele><time>2026-04-04T09:47:43Z</time></trkpt><trkpt lat="45.94231427520273" lon="12.868828785518609"><ele>33.0</ele><time>2026-04-04T09:47:44Z</time></trkpt><trkpt lat="45.94248337482678" lon="12.868812705727319"><ele>33.0</ele><time>2026-04-04T09:47:45Z</time></trkpt><trkpt lat="45.9426526442436" lon="12.86881569401135"><ele>34.0</ele><time>2026-04-04T09:47:46Z</time></trkpt><trkpt lat="45.94282276263956" lon="12.868822875260063"><ele>35.0</ele><time>2026-04-04T09:47:47Z</time></trkpt><trkpt lat="45.943006125638526" lon="12.868828906012466"><ele>36.0</ele><time>2026-04-04T09:47:48Z</time></trkpt><trkpt lat="45.94319496456945" lon="12.868833761122179"><ele>35.333333333333336</ele><time>2026-04-04T09:47:49Z</time></trkpt><trkpt lat="45.943388435826684" lon="12.868840357185162"><ele>34.66666666666667</ele><time>2026-04-04T09:47:50Z</time></trkpt><trkpt lat="45.94357785364552" lon="12.868873129063253"><ele>34.0</ele><time>2026-04-04T09:47:51Z</time></trkpt><trkpt lat="45.94377402426674" lon="12.868853576780275"><ele>34.0</ele><time>2026-04-04T09:47:52Z</time></trkpt><trkpt lat="45.94396897250645" lon="12.868859974735141"><ele>34.0</ele><time>2026-04-04T09:47:53Z</time></trkpt><trkpt lat="45.94415279177244" lon="12.86886859690887"><ele>34.0</ele><time>2026-04-04T09:47:54Z</time></trkpt><trkpt lat="45.94433721596634" lon="12.86887432625725"><ele>35.66666666666667</ele><time>2026-04-04T09:47:55Z</time></trkpt><trkpt lat="45.944530758387586" lon="12.868875876156858"><ele>37.333333333333336</ele><time>2026-04-04T09:47:56Z</time></trkpt><trkpt lat="45.944727057159604" lon="12.868881566875984"><ele>39.0</ele><time>2026-04-04T09:47:57Z</time></trkpt><trkpt lat="45.94492660530352" lon="12.868909993683866"><ele>38.666666666666664</ele><time>2026-04-04T09:47:58Z</time></trkpt><trkpt lat="45.94512515955526" lon="12.868895676626064"><ele>38.33333333333333</ele><time>2026-04-04T09:47:59Z</time></trkpt><trkpt lat="45.945324697028134" lon="12.868905695893046"><ele>38.0</ele><time>2026-04-04T09:48:00Z</time></trkpt><trkpt lat="45.94552244101499" lon="12.868912788076212"><ele>38.0</ele><time>2026-04-04T09:48:01Z</time></trkpt><trkpt lat="45.94572384336813" lon="12.868919527742742"><ele>38.0</ele><time>2026-04-04T09:48:02Z</time></trkpt><trkpt lat="45.94591709081509" lon="12.868929878193917"><ele>38.0</ele><time>2026-04-04T09:48:03Z</time></trkpt><trkpt lat="45.946119868927866" lon="12.868936578344647"><ele>37.666666666666664</ele><time>2026-04-04T09:48:04Z</time></trkpt><trkpt lat="45.946319416397984" lon="12.868934248399924"><ele>37.333333333333336</ele><time>2026-04-04T09:48:05Z</time></trkpt><trkpt lat="45.946515264192364" lon="12.868940481084207"><ele>37.0</ele><time>2026-04-04T09:48:06Z</time></trkpt><trkpt lat="45.94669284066573" lon="12.86895090163422"><ele>37.0</ele><time>2026-04-04T09:48:07Z</time></trkpt><trkpt lat="45.94686615347051" lon="12.86895794135589"><ele>37.0</ele><time>2026-04-04T09:48:08Z</time></trkpt><trkpt lat="45.94704943046947" lon="12.868963249924494"><ele>37.0</ele><time>2026-04-04T09:48:09Z</time></trkpt><trkpt lat="45.947232935450124" lon="12.868971784853498"><ele>37.0</ele><time>2026-04-04T09:48:10Z</time></trkpt><trkpt lat="45.94741678542568" lon="12.868975905401069"><ele>37.0</ele><time>2026-04-04T09:48:11Z</time></trkpt><trkpt lat="45.947603028064904" lon="12.868978781265566"><ele>37.0</ele><time>2026-04-04T09:48:12Z</time></trkpt><trkpt lat="45.947792834132024" lon="12.868987651261001"><ele>36.66666666666667</ele><time>2026-04-04T09:48:13Z</time></trkpt><trkpt lat="45.94798339736559" lon="12.868996066004344"><ele>36.333333333333336</ele><time>2026-04-04T09:48:14Z</time></trkpt><trkpt lat="45.948171739296235" lon="12.869006045294027"><ele>36.0</ele><time>2026-04-04T09:48:15Z</time></trkpt><trkpt lat="45.94836040179214" lon="12.869009353835033"><ele>36.333333333333336</ele><time>2026-04-04T09:48:16Z</time></trkpt><trkpt lat="45.94854739642104" lon="12.869009538075609"><ele>36.66666666666667</ele><time>2026-04-04T09:48:17Z</time></trkpt><trkpt lat="45.94873009384848" lon="12.869015554951924"><ele>37.0</ele><time>2026-04-04T09:48:18Z</time></trkpt><trkpt lat="45.94891727301768" lon="12.868998903156685"><ele>37.0</ele><time>2026-04-04T09:48:19Z</time></trkpt><trkpt lat="45.94910711268481" lon="12.868961052919385"><ele>37.0</ele><time>2026-04-04T09:48:20Z</time></trkpt><trkpt lat="45.9492970024023" lon="12.868907346983471"><ele>37.0</ele><time>2026-04-04T09:48:21Z</time></trkpt><trkpt lat="45.94949488726617" lon="12.868842971852521"><ele>37.66666666666667</ele><time>2026-04-04T09:48:22Z</time></trkpt><trkpt lat="45.94969722489858" lon="12.868783102288866"><ele>38.333333333333336</ele><time>2026-04-04T09:48:23Z</time></trkpt><trkpt lat="45.949905233780584" lon="12.868718366189436"><ele>39.0</ele><time>2026-04-04T09:48:24Z</time></trkpt><trkpt lat="45.95012097197608" lon="12.868653194622256"><ele>39.333333333333336</ele><time>2026-04-04T09:48:25Z</time></trkpt><trkpt lat="45.95032264920009" lon="12.868591427657927"><ele>39.66666666666667</ele><time>2026-04-04T09:48:26Z</time></trkpt><trkpt lat="45.95052111019622" lon="12.868529562483182"><ele>40.0</ele><time>2026-04-04T09:48:27Z</time></trkpt><trkpt lat="45.950713523468586" lon="12.868467275992716"><ele>40.333333333333336</ele><time>2026-04-04T09:48:28Z</time></trkpt><trkpt lat="45.95090038774493" lon="12.868406050180562"><ele>40.666666666666664</ele><time>2026-04-04T09:48:29Z</time></trkpt><trkpt lat="45.95108499271465" lon="12.868347378893397"><ele>41.0</ele><time>2026-04-04T09:48:30Z</time></trkpt><trkpt lat="45.951271606786186" lon="12.86829046334229"><ele>41.0</ele><time>2026-04-04T09:48:31.001Z</time></trkpt><trkpt lat="45.95146125939574" lon="12.868229878300342"><ele>41.0</ele><time>2026-04-04T09:48:32.001Z</time></trkpt><trkpt lat="45.95165245568861" lon="12.868170708678214"><ele>41.0</ele><time>2026-04-04T09:48:33.001Z</time></trkpt><trkpt lat="45.95184789258911" lon="12.868106442075872"><ele>40.33333333333333</ele><time>2026-04-04T09:48:34.001Z</time></trkpt><trkpt lat="45.95205754899208" lon="12.868044107034404"><ele>39.666666666666664</ele><time>2026-04-04T09:48:35.001Z</time></trkpt><trkpt lat="45.95227372641384" lon="12.86798020016877"><ele>39.0</ele><time>2026-04-04T09:48:36.001Z</time></trkpt><trkpt lat="45.95248123892455" lon="12.867912899937263"><ele>39.333333333333336</ele><time>2026-04-04T09:48:37.001Z</time></trkpt><trkpt lat="45.95269206554656" lon="12.867847695261915"><ele>39.66666666666667</ele><time>2026-04-04T09:48:38.001Z</time></trkpt><trkpt lat="45.9529037893924" lon="12.867781462502423"><ele>40.0</ele><time>2026-04-04T09:48:39.001Z</time></trkpt><trkpt lat="45.95311182059885" lon="12.86771488816632"><ele>40.0</ele><time>2026-04-04T09:48:40.001Z</time></trkpt><trkpt lat="45.95331951102983" lon="12.867652887946976"><ele>40.0</ele><time>2026-04-04T09:48:41.001Z</time></trkpt><trkpt lat="45.95352081873443" lon="12.867592923240569"><ele>40.0</ele><time>2026-04-04T09:48:42.001Z</time></trkpt><trkpt lat="45.95371891848498" lon="12.867532149874853"><ele>40.0</ele><time>2026-04-04T09:48:43.001Z</time></trkpt><trkpt lat="45.95391547961332" lon="12.867467437666546"><ele>40.0</ele><time>2026-04-04T09:48:44.001Z</time></trkpt><trkpt lat="45.95410721012981" lon="12.867409094283596"><ele>40.0</ele><time>2026-04-04T09:48:45.001Z</time></trkpt><trkpt lat="45.9543025825373" lon="12.867350376693063"><ele>40.333333333333336</ele><time>2026-04-04T09:48:46.001Z</time></trkpt><trkpt lat="45.954494493980015" lon="12.867292947243698"><ele>40.666666666666664</ele><time>2026-04-04T09:48:47.001Z</time></trkpt><trkpt lat="45.95468646450726" lon="12.867232375485406"><ele>41.0</ele><time>2026-04-04T09:48:48.001Z</time></trkpt><trkpt lat="45.9548756824441" lon="12.867174051941396"><ele>42.0</ele><time>2026-04-04T09:48:49.001Z</time></trkpt><trkpt lat="45.955063918696155" lon="12.867114078278012"><ele>43.0</ele><time>2026-04-04T09:48:50.001Z</time></trkpt><trkpt lat="45.9552505042112" lon="12.86705980463589"><ele>44.0</ele><time>2026-04-04T09:48:51.001Z</time></trkpt><trkpt lat="45.95543614760546" lon="12.867004152047024"><ele>44.0</ele><time>2026-04-04T09:48:52.001Z</time></trkpt><trkpt lat="45.955623384801896" lon="12.866943591309411"><ele>44.0</ele><time>2026-04-04T09:48:53.001Z</time></trkpt><trkpt lat="45.95580940995445" lon="12.866888322807918"><ele>44.0</ele><time>2026-04-04T09:48:54.001Z</time></trkpt><trkpt lat="45.9559981016673" lon="12.866826719351437"><ele>44.33333333333333</ele><time>2026-04-04T09:48:55.001Z</time></trkpt><trkpt lat="45.9561904852777" lon="12.866769847207804"><ele>44.666666666666664</ele><time>2026-04-04T09:48:56.001Z</time></trkpt><trkpt lat="45.95638274908173" lon="12.866710435141343"><ele>45.0</ele><time>2026-04-04T09:48:57.001Z</time></trkpt><trkpt lat="45.956575410222065" lon="12.866651858005408"><ele>44.0</ele><time>2026-04-04T09:48:58.001Z</time></trkpt><trkpt lat="45.95677488873856" lon="12.866589932583361"><ele>43.0</ele><time>2026-04-04T09:48:59.001Z</time></trkpt><trkpt lat="45.95696830014516" lon="12.866534271108996"><ele>42.0</ele><time>2026-04-04T09:49:00.001Z</time></trkpt><trkpt lat="45.95715346443542" lon="12.866477648357169"><ele>42.0</ele><time>2026-04-04T09:49:01Z</time></trkpt><trkpt lat="45.95732688674047" lon="12.866419035782275"><ele>42.0</ele><time>2026-04-04T09:49:02Z</time></trkpt><trkpt lat="45.95749420493017" lon="12.866374210656506"><ele>42.0</ele><time>2026-04-04T09:49:03Z</time></trkpt><trkpt lat="45.95765550009557" lon="12.866317861956288"><ele>42.0</ele><time>2026-04-04T09:49:04Z</time></trkpt><trkpt lat="45.95780732365386" lon="12.866277124840977"><ele>42.0</ele><time>2026-04-04T09:49:05Z</time></trkpt><trkpt lat="45.95794632211596" lon="12.866238680184457"><ele>42.0</ele><time>2026-04-04T09:49:06Z</time></trkpt><trkpt lat="45.958076986237536" lon="12.866214059069058"><ele>42.0</ele><time>2026-04-04T09:49:07Z</time></trkpt><trkpt lat="45.95820124816381" lon="12.86618234084251"><ele>42.0</ele><time>2026-04-04T09:49:08Z</time></trkpt><trkpt lat="45.958343464065415" lon="12.866142880238336"><ele>42.0</ele><time>2026-04-04T09:49:09Z</time></trkpt><trkpt lat="45.958484705130715" lon="12.866078430497948"><ele>42.0</ele><time>2026-04-04T09:49:10Z</time></trkpt><trkpt lat="45.95861394063319" lon="12.865996163205496"><ele>42.0</ele><time>2026-04-04T09:49:11Z</time></trkpt><trkpt lat="45.95873240497596" lon="12.865931937914246"><ele>42.2</ele><time>2026-04-04T09:49:12Z</time></trkpt><trkpt lat="45.95882426034424" lon="12.86588173759018"><ele>42.400000000000006</ele><time>2026-04-04T09:49:13Z</time></trkpt><trkpt lat="45.95891028010451" lon="12.865844548548354"><ele>42.599999999999994</ele><time>2026-04-04T09:49:14Z</time></trkpt><trkpt lat="45.95897643609628" lon="12.86581430999035"><ele>42.8</ele><time>2026-04-04T09:49:15Z</time></trkpt><trkpt lat="45.95908697026439" lon="12.865753580588903"><ele>43.0</ele><time>2026-04-04T09:49:17Z</time></trkpt><trkpt lat="45.959200405052215" lon="12.865725706175914"><ele>42.599999999999994</ele><time>2026-04-04T09:49:19Z</time></trkpt><trkpt lat="45.95931980017253" lon="12.865735370213855"><ele>42.199999999999996</ele><time>2026-04-04T09:49:21Z</time></trkpt><trkpt lat="45.9593906839918" lon="12.865788037271273"><ele>41.8</ele><time>2026-04-04T09:49:22Z</time></trkpt><trkpt lat="45.959457905262454" lon="12.865867630130872"><ele>41.4</ele><time>2026-04-04T09:49:23Z</time></trkpt><trkpt lat="45.95951395942768" lon="12.865969066871086"><ele>41.0</ele><time>2026-04-04T09:49:24Z</time></trkpt><trkpt lat="45.959562139736036" lon="12.866115887137596"><ele>41.0</ele><time>2026-04-04T09:49:25Z</time></trkpt><trkpt lat="45.95959805045972" lon="12.866278310131946"><ele>41.0</ele><time>2026-04-04T09:49:26Z</time></trkpt><trkpt lat="45.95963620225098" lon="12.866479716503067"><ele>41.0</ele><time>2026-04-04T09:49:27Z</time></trkpt><trkpt lat="45.95967610203645" lon="12.866710689296628"><ele>41.0</ele><time>2026-04-04T09:49:28Z</time></trkpt><trkpt lat="45.95971808256829" lon="12.866948902491126"><ele>41.0</ele><time>2026-04-04T09:49:29Z</time></trkpt><trkpt lat="45.95976976984434" lon="12.86718529631355"><ele>41.0</ele><time>2026-04-04T09:49:30Z</time></trkpt><trkpt lat="45.959822304263014" lon="12.8674322826841"><ele>41.0</ele><time>2026-04-04T09:49:31Z</time></trkpt><trkpt lat="45.95987471035954" lon="12.867688024409476"><ele>42.0</ele><time>2026-04-04T09:49:32Z</time></trkpt><trkpt lat="45.95992600792786" lon="12.867947907488086"><ele>43.0</ele><time>2026-04-04T09:49:33Z</time></trkpt><trkpt lat="45.959975841726475" lon="12.868198213187288"><ele>44.0</ele><time>2026-04-04T09:49:34Z</time></trkpt><trkpt lat="45.96001937622432" lon="12.868428568671346"><ele>44.33333333333333</ele><time>2026-04-04T09:49:35Z</time></trkpt><trkpt lat="45.96005810384262" lon="12.86864511970905"><ele>44.666666666666664</ele><time>2026-04-04T09:49:36Z</time></trkpt><trkpt lat="45.960099281580746" lon="12.868860621820724"><ele>45.0</ele><time>2026-04-04T09:49:37Z</time></trkpt><trkpt lat="45.96013981215816" lon="12.869075145665933"><ele>44.75</ele><time>2026-04-04T09:49:38Z</time></trkpt><trkpt lat="45.960179972014274" lon="12.86927830026389"><ele>44.5</ele><time>2026-04-04T09:49:39Z</time></trkpt><trkpt lat="45.960213010635634" lon="12.869468344730725"><ele>44.25</ele><time>2026-04-04T09:49:40Z</time></trkpt><trkpt lat="45.96023517875984" lon="12.869648805718965"><ele>44.0</ele><time>2026-04-04T09:49:41Z</time></trkpt><trkpt lat="45.960246968519854" lon="12.869796791795984"><ele>44.0</ele><time>2026-04-04T09:49:42Z</time></trkpt><trkpt lat="45.960248673467284" lon="12.869922898057325"><ele>44.0</ele><time>2026-04-04T09:49:43Z</time></trkpt><trkpt lat="45.96023264002291" lon="12.870056132012335"><ele>44.0</ele><time>2026-04-04T09:49:44Z</time></trkpt><trkpt lat="45.96021294668116" lon="12.87017305291725"><ele>44.0</ele><time>2026-04-04T09:49:45Z</time></trkpt><trkpt lat="45.960218827269586" lon="12.87028586615452"><ele>44.0</ele><time>2026-04-04T09:49:46Z</time></trkpt><trkpt lat="45.96025193008177" lon="12.870371503788059"><ele>44.0</ele><time>2026-04-04T09:49:47Z</time></trkpt><trkpt lat="45.96030306839186" lon="12.870452020147553"><ele>44.0</ele><time>2026-04-04T09:49:48Z</time></trkpt><trkpt lat="45.96036413206159" lon="12.870496096952683"><ele>44.0</ele><time>2026-04-04T09:49:49Z</time></trkpt><trkpt lat="45.96043703863717" lon="12.870498785374707"><ele>44.0</ele><time>2026-04-04T09:49:50Z</time></trkpt><trkpt lat="45.96050088084024" lon="12.870456094745236"><ele>44.0</ele><time>2026-04-04T09:49:51Z</time></trkpt><trkpt lat="45.9605608688765" lon="12.87037077856873"><ele>44.0</ele><time>2026-04-04T09:49:52Z</time></trkpt><trkpt lat="45.9606168155729" lon="12.870261715382222"><ele>44.0</ele><time>2026-04-04T09:49:53Z</time></trkpt><trkpt lat="45.960679976835465" lon="12.870171025971633"><ele>44.0</ele><time>2026-04-04T09:49:54Z</time></trkpt><trkpt lat="45.960774756244284" lon="12.870099492340866"><ele>44.0</ele><time>2026-04-04T09:49:55Z</time></trkpt><trkpt lat="45.96090002763297" lon="12.870054298035647"><ele>44.0</ele><time>2026-04-04T09:49:56Z</time></trkpt><trkpt lat="45.96104924475009" lon="12.870019951185252"><ele>44.0</ele><time>2026-04-04T09:49:57Z</time></trkpt><trkpt lat="45.96121606310322" lon="12.86999805069965"><ele>43.33333333333333</ele><time>2026-04-04T09:49:58Z</time></trkpt><trkpt lat="45.96139186566727" lon="12.869977741905904"><ele>42.666666666666664</ele><time>2026-04-04T09:49:59Z</time></trkpt><trkpt lat="45.961521854097604" lon="12.869908635978792"><ele>42.0</ele><time>2026-04-04T09:50:00Z</time></trkpt><trkpt lat="45.96172152967572" lon="12.869884189967497"><ele>42.0</ele><time>2026-04-04T09:50:01Z</time></trkpt><trkpt lat="45.9619079313803" lon="12.869854447721048"><ele>42.0</ele><time>2026-04-04T09:50:02Z</time></trkpt><trkpt lat="45.96210289037746" lon="12.86985278614274"><ele>42.0</ele><time>2026-04-04T09:50:03Z</time></trkpt><trkpt lat="45.962277168155055" lon="12.869806542915946"><ele>42.0</ele><time>2026-04-04T09:50:04Z</time></trkpt><trkpt lat="45.96243879733353" lon="12.869794947447692"><ele>42.0</ele><time>2026-04-04T09:50:05Z</time></trkpt><trkpt lat="45.96259152984526" lon="12.86977712485421"><ele>42.0</ele><time>2026-04-04T09:50:06Z</time></trkpt><trkpt lat="45.962744933160984" lon="12.869755511229885"><ele>42.333333333333336</ele><time>2026-04-04T09:50:07Z</time></trkpt><trkpt lat="45.962904893853455" lon="12.86974150537503"><ele>42.66666666666667</ele><time>2026-04-04T09:50:08Z</time></trkpt><trkpt lat="45.963070679686744" lon="12.869717622645458"><ele>43.0</ele><time>2026-04-04T09:50:09Z</time></trkpt><trkpt lat="45.963244055152735" lon="12.869685378507858"><ele>43.66666666666667</ele><time>2026-04-04T09:50:10Z</time></trkpt><trkpt lat="45.96342263386037" lon="12.86966013467734"><ele>44.333333333333336</ele><time>2026-04-04T09:50:11Z</time></trkpt><trkpt lat="45.96360190812599" lon="12.869631430963382"><ele>45.0</ele><time>2026-04-04T09:50:12Z</time></trkpt><trkpt lat="45.96378841297508" lon="12.869605184825595"><ele>45.0</ele><time>2026-04-04T09:50:13Z</time></trkpt><trkpt lat="45.96397985701854" lon="12.86957208547926"><ele>45.0</ele><time>2026-04-04T09:50:14Z</time></trkpt><trkpt lat="45.96417137987002" lon="12.869550380435102"><ele>45.0</ele><time>2026-04-04T09:50:15Z</time></trkpt><trkpt lat="45.9643647324179" lon="12.869520710317707"><ele>44.333333333333336</ele><time>2026-04-04T09:50:16Z</time></trkpt><trkpt lat="45.964558164282316" lon="12.869491646634863"><ele>43.66666666666667</ele><time>2026-04-04T09:50:17Z</time></trkpt><trkpt lat="45.96476192902139" lon="12.869477819780997"><ele>43.0</ele><time>2026-04-04T09:50:18Z</time></trkpt><trkpt lat="45.96496013691086" lon="12.869452359386635"><ele>43.333333333333336</ele><time>2026-04-04T09:50:19Z</time></trkpt><trkpt lat="45.96515000928769" lon="12.869422158748936"><ele>43.666666666666664</ele><time>2026-04-04T09:50:20Z</time></trkpt><trkpt lat="45.965336642085866" lon="12.869399456179497"><ele>44.0</ele><time>2026-04-04T09:50:21Z</time></trkpt><trkpt lat="45.96552353733885" lon="12.869369938025837"><ele>44.0</ele><time>2026-04-04T09:50:22Z</time></trkpt><trkpt lat="45.965702903062606" lon="12.869345013972165"><ele>44.0</ele><time>2026-04-04T09:50:23Z</time></trkpt><trkpt lat="45.96588891700325" lon="12.86931697179395"><ele>44.0</ele><time>2026-04-04T09:50:24Z</time></trkpt><trkpt lat="45.96607675057338" lon="12.869295693639588"><ele>44.0</ele><time>2026-04-04T09:50:25Z</time></trkpt><trkpt lat="45.966269923614995" lon="12.869270321301371"><ele>44.0</ele><time>2026-04-04T09:50:26Z</time></trkpt><trkpt lat="45.96647415735327" lon="12.869240637107877"><ele>44.0</ele><time>2026-04-04T09:50:27Z</time></trkpt><trkpt lat="45.966681806881034" lon="12.86920784012719"><ele>44.33333333333333</ele><time>2026-04-04T09:50:28Z</time></trkpt><trkpt lat="45.96689661829661" lon="12.869181542809024"><ele>44.666666666666664</ele><time>2026-04-04T09:50:29Z</time></trkpt><trkpt lat="45.967110496858425" lon="12.86914970130057"><ele>45.0</ele><time>2026-04-04T09:50:30Z</time></trkpt><trkpt lat="45.96731993290277" lon="12.869126791583572"><ele>44.333333333333336</ele><time>2026-04-04T09:50:31Z</time></trkpt><trkpt lat="45.96752993414685" lon="12.869095972538641"><ele>43.66666666666667</ele><time>2026-04-04T09:50:32Z</time></trkpt><trkpt lat="45.96773946361136" lon="12.869065347177266"><ele>43.0</ele><time>2026-04-04T09:50:33.001Z</time></trkpt><trkpt lat="45.96793998873632" lon="12.869026767046956"><ele>43.0</ele><time>2026-04-04T09:50:34.001Z</time></trkpt><trkpt lat="45.96813031813891" lon="12.868997162983275"><ele>43.0</ele><time>2026-04-04T09:50:35.001Z</time></trkpt><trkpt lat="45.96830924043" lon="12.868974055728154"><ele>43.0</ele><time>2026-04-04T09:50:36.001Z</time></trkpt><trkpt lat="45.968480739889756" lon="12.868949157960353"><ele>43.0</ele><time>2026-04-04T09:50:37.001Z</time></trkpt><trkpt lat="45.96864557502115" lon="12.868922990521746"><ele>43.0</ele><time>2026-04-04T09:50:38.001Z</time></trkpt><trkpt lat="45.9688060462038" lon="12.868896741837471"><ele>43.0</ele><time>2026-04-04T09:50:39.001Z</time></trkpt><trkpt lat="45.96897215354398" lon="12.868875996863022"><ele>43.0</ele><time>2026-04-04T09:50:40.001Z</time></trkpt><trkpt lat="45.96914149963791" lon="12.868848728266485"><ele>43.0</ele><time>2026-04-04T09:50:41.001Z</time></trkpt><trkpt lat="45.96931616019886" lon="12.86882567045438"><ele>43.0</ele><time>2026-04-04T09:50:42.001Z</time></trkpt><trkpt lat="45.96949125433261" lon="12.86880376953645"><ele>43.66666666666667</ele><time>2026-04-04T09:50:43.001Z</time></trkpt><trkpt lat="45.96966688761984" lon="12.868772104586576"><ele>44.333333333333336</ele><time>2026-04-04T09:50:44.001Z</time></trkpt><trkpt lat="45.96984099153753" lon="12.868742926337044"><ele>45.0</ele><time>2026-04-04T09:50:45.001Z</time></trkpt><trkpt lat="45.97002265233071" lon="12.868711647637479"><ele>44.666666666666664</ele><time>2026-04-04T09:50:46.001Z</time></trkpt><trkpt lat="45.97021503206071" lon="12.868686634142046"><ele>44.33333333333333</ele><time>2026-04-04T09:50:47.001Z</time></trkpt><trkpt lat="45.97041258100514" lon="12.86866225028736"><ele>44.0</ele><time>2026-04-04T09:50:48.001Z</time></trkpt><trkpt lat="45.970611772915795" lon="12.868647438709973"><ele>44.0</ele><time>2026-04-04T09:50:49.001Z</time></trkpt><trkpt lat="45.970811592982386" lon="12.86863918746859"><ele>44.0</ele><time>2026-04-04T09:50:50.001Z</time></trkpt><trkpt lat="45.9710089975687" lon="12.868640056019046"><ele>44.0</ele><time>2026-04-04T09:50:51.001Z</time></trkpt><trkpt lat="45.971207145867815" lon="12.86864007278069"><ele>43.666666666666664</ele><time>2026-04-04T09:50:52.001Z</time></trkpt><trkpt lat="45.971398591792216" lon="12.868631206381504"><ele>43.333333333333336</ele><time>2026-04-04T09:50:53.001Z</time></trkpt><trkpt lat="45.97159424227439" lon="12.868606876047842"><ele>43.0</ele><time>2026-04-04T09:50:54.001Z</time></trkpt><trkpt lat="45.971784412637476" lon="12.868568480890898"><ele>43.66666666666667</ele><time>2026-04-04T09:50:55.001Z</time></trkpt><trkpt lat="45.97197756364617" lon="12.86853306966602"><ele>44.333333333333336</ele><time>2026-04-04T09:50:56.001Z</time></trkpt><trkpt lat="45.97216604919803" lon="12.868502501458044"><ele>45.0</ele><time>2026-04-04T09:50:57.001Z</time></trkpt><trkpt lat="45.97235743006187" lon="12.868470077975754"><ele>45.333333333333336</ele><time>2026-04-04T09:50:58.001Z</time></trkpt><trkpt lat="45.97254210908989" lon="12.868434075326967"><ele>45.66666666666667</ele><time>2026-04-04T09:50:59.001Z</time></trkpt><trkpt lat="45.9727254048848" lon="12.868390204655029"><ele>46.0</ele><time>2026-04-04T09:51:00.001Z</time></trkpt><trkpt lat="45.97291110935143" lon="12.868340092762507"><ele>46.0</ele><time>2026-04-04T09:51:01.001Z</time></trkpt><trkpt lat="45.97309335372529" lon="12.868274524719833"><ele>46.0</ele><time>2026-04-04T09:51:02.001Z</time></trkpt><trkpt lat="45.97328270016922" lon="12.868183334748494"><ele>46.0</ele><time>2026-04-04T09:51:03.001Z</time></trkpt><trkpt lat="45.97348402963965" lon="12.868085246568338"><ele>46.333333333333336</ele><time>2026-04-04T09:51:04.001Z</time></trkpt><trkpt lat="45.97368687866568" lon="12.867991697441266"><ele>46.666666666666664</ele><time>2026-04-04T09:51:05.001Z</time></trkpt><trkpt lat="45.973881316627086" lon="12.867904705245618"><ele>47.0</ele><time>2026-04-04T09:51:06.001Z</time></trkpt><trkpt lat="45.974079719817944" lon="12.86781887348455"><ele>47.0</ele><time>2026-04-04T09:51:07Z</time></trkpt><trkpt lat="45.974282833459895" lon="12.8677320857344"><ele>47.0</ele><time>2026-04-04T09:51:08Z</time></trkpt><trkpt lat="45.97449107051093" lon="12.867646946431119"><ele>47.0</ele><time>2026-04-04T09:51:09Z</time></trkpt><trkpt lat="45.97470460894835" lon="12.867564131506912"><ele>47.0</ele><time>2026-04-04T09:51:10Z</time></trkpt><trkpt lat="45.974923311477475" lon="12.867476477930026"><ele>47.0</ele><time>2026-04-04T09:51:11Z</time></trkpt><trkpt lat="45.975138389084904" lon="12.86739029779073"><ele>47.33333333333333</ele><time>2026-04-04T09:51:12Z</time></trkpt><trkpt lat="45.97534866620646" lon="12.867313974188946"><ele>47.666666666666664</ele><time>2026-04-04T09:51:13Z</time></trkpt><trkpt lat="45.975544491643014" lon="12.867246833376027"><ele>48.0</ele><time>2026-04-04T09:51:14Z</time></trkpt><trkpt lat="45.97571725818239" lon="12.867178014272636"><ele>48.0</ele><time>2026-04-04T09:51:15Z</time></trkpt><trkpt lat="45.97587526976963" lon="12.8671229802193"><ele>48.0</ele><time>2026-04-04T09:51:16Z</time></trkpt><trkpt lat="45.976021394894865" lon="12.867066158992415"><ele>48.0</ele><time>2026-04-04T09:51:17Z</time></trkpt><trkpt lat="45.97615534898035" lon="12.86701425276146"><ele>48.0</ele><time>2026-04-04T09:51:18Z</time></trkpt><trkpt lat="45.97629117132423" lon="12.866973142394249"><ele>48.0</ele><time>2026-04-04T09:51:19Z</time></trkpt><trkpt lat="45.976422558367254" lon="12.866950464150685"><ele>48.0</ele><time>2026-04-04T09:51:20Z</time></trkpt><trkpt lat="45.97654901241405" lon="12.866938064021337"><ele>48.0</ele><time>2026-04-04T09:51:21Z</time></trkpt><trkpt lat="45.97668298424686" lon="12.86693564581397"><ele>48.0</ele><time>2026-04-04T09:51:22Z</time></trkpt><trkpt lat="45.97681322491638" lon="12.866935042414575"><ele>48.0</ele><time>2026-04-04T09:51:23Z</time></trkpt><trkpt lat="45.97692974518117" lon="12.866930798104288"><ele>48.0</ele><time>2026-04-04T09:51:24Z</time></trkpt><trkpt lat="45.977039168329554" lon="12.866915954632828"><ele>48.0</ele><time>2026-04-04T09:51:25Z</time></trkpt><trkpt lat="45.977158183825416" lon="12.866885316065703"><ele>48.0</ele><time>2026-04-04T09:51:26Z</time></trkpt><trkpt lat="45.97729313254097" lon="12.866834536426847"><ele>48.0</ele><time>2026-04-04T09:51:27Z</time></trkpt><trkpt lat="45.97744162037135" lon="12.866768933370176"><ele>48.0</ele><time>2026-04-04T09:51:28Z</time></trkpt><trkpt lat="45.977601540770486" lon="12.86668972651589"><ele>48.0</ele><time>2026-04-04T09:51:29Z</time></trkpt><trkpt lat="45.97777090447511" lon="12.866601357214732"><ele>48.0</ele><time>2026-04-04T09:51:30Z</time></trkpt><trkpt lat="45.97794135972926" lon="12.866508644990583"><ele>48.0</ele><time>2026-04-04T09:51:31Z</time></trkpt><trkpt lat="45.978096440989354" lon="12.866421408362347"><ele>48.0</ele><time>2026-04-04T09:51:32Z</time></trkpt><trkpt lat="45.978238077317584" lon="12.866338052063346"><ele>48.0</ele><time>2026-04-04T09:51:33Z</time></trkpt><trkpt lat="45.978375646335394" lon="12.866257322703822"><ele>48.0</ele><time>2026-04-04T09:51:34Z</time></trkpt><trkpt lat="45.978511056794424" lon="12.86618610188295"><ele>48.0</ele><time>2026-04-04T09:51:35Z</time></trkpt><trkpt lat="45.97863456055825" lon="12.866117985125264"><ele>48.0</ele><time>2026-04-04T09:51:36Z</time></trkpt><trkpt lat="45.97874755806848" lon="12.866039769707575"><ele>48.0</ele><time>2026-04-04T09:51:37Z</time></trkpt><trkpt lat="45.978861784043076" lon="12.865976729546697"><ele>48.0</ele><time>2026-04-04T09:51:38Z</time></trkpt><trkpt lat="45.97897118504363" lon="12.865918379519085"><ele>48.0</ele><time>2026-04-04T09:51:39Z</time></trkpt><trkpt lat="45.97908236640066" lon="12.86585250032348"><ele>47.75</ele><time>2026-04-04T09:51:40Z</time></trkpt><trkpt lat="45.979191121610675" lon="12.86578814392561"><ele>47.5</ele><time>2026-04-04T09:51:41Z</time></trkpt><trkpt lat="45.97929762751119" lon="12.86572205561017"><ele>47.25</ele><time>2026-04-04T09:51:42Z</time></trkpt><trkpt lat="45.97940117667963" lon="12.865657294748495"><ele>47.0</ele><time>2026-04-04T09:51:43Z</time></trkpt><trkpt lat="45.97950863229186" lon="12.86558962835733"><ele>47.0</ele><time>2026-04-04T09:51:44Z</time></trkpt><trkpt lat="45.97961809384289" lon="12.86552184253015"><ele>47.0</ele><time>2026-04-04T09:51:45Z</time></trkpt><trkpt lat="45.979729829134364" lon="12.865448427501278"><ele>47.0</ele><time>2026-04-04T09:51:46Z</time></trkpt><trkpt lat="45.97984492068221" lon="12.86537630038822"><ele>47.0</ele><time>2026-04-04T09:51:47Z</time></trkpt><trkpt lat="45.979960375435375" lon="12.865299929744651"><ele>47.25</ele><time>2026-04-04T09:51:48Z</time></trkpt><trkpt lat="45.980078987045275" lon="12.865218106742018"><ele>47.5</ele><time>2026-04-04T09:51:49Z</time></trkpt><trkpt lat="45.98019700877406" lon="12.865133529817507"><ele>47.75</ele><time>2026-04-04T09:51:50Z</time></trkpt><trkpt lat="45.98030538887877" lon="12.865065797782586"><ele>48.0</ele><time>2026-04-04T09:51:51Z</time></trkpt><trkpt lat="45.9804184390485" lon="12.86499559329087"><ele>48.0</ele><time>2026-04-04T09:51:52Z</time></trkpt><trkpt lat="45.98054071877762" lon="12.864918578844296"><ele>48.0</ele><time>2026-04-04T09:51:53Z</time></trkpt><trkpt lat="45.980660748955586" lon="12.864832318010965"><ele>48.0</ele><time>2026-04-04T09:51:54Z</time></trkpt><trkpt lat="45.98077546169469" lon="12.864746968945274"><ele>48.0</ele><time>2026-04-04T09:51:55Z</time></trkpt><trkpt lat="45.98089428927984" lon="12.864662356905233"><ele>47.75</ele><time>2026-04-04T09:51:56Z</time></trkpt><trkpt lat="45.98101354374269" lon="12.864582329175922"><ele>47.5</ele><time>2026-04-04T09:51:57Z</time></trkpt><trkpt lat="45.98113221498701" lon="12.864507172134772"><ele>47.25</ele><time>2026-04-04T09:51:58Z</time></trkpt><trkpt lat="45.98124968274438" lon="12.864434973269898"><ele>47.0</ele><time>2026-04-04T09:51:59Z</time></trkpt><trkpt lat="45.98136205569635" lon="12.864366962431339"><ele>47.0</ele><time>2026-04-04T09:52:00Z</time></trkpt><trkpt lat="45.98147973929521" lon="12.864312099634255"><ele>47.0</ele><time>2026-04-04T09:52:01Z</time></trkpt><trkpt lat="45.98159891900522" lon="12.86428989829349"><ele>47.0</ele><time>2026-04-04T09:52:02Z</time></trkpt><trkpt lat="45.98171998827074" lon="12.864287914405763"><ele>47.0</ele><time>2026-04-04T09:52:03Z</time></trkpt><trkpt lat="45.981839272074616" lon="12.864289624884568"><ele>47.5</ele><time>2026-04-04T09:52:04Z</time></trkpt><trkpt lat="45.981961462986966" lon="12.864293904450857"><ele>48.0</ele><time>2026-04-04T09:52:05Z</time></trkpt><trkpt lat="45.982088074146674" lon="12.864305342516614"><ele>48.5</ele><time>2026-04-04T09:52:06Z</time></trkpt><trkpt lat="45.98221838335794" lon="12.864307916753775"><ele>49.0</ele><time>2026-04-04T09:52:07Z</time></trkpt><trkpt lat="45.98235242966854" lon="12.864310084157964"><ele>49.0</ele><time>2026-04-04T09:52:08Z</time></trkpt><trkpt lat="45.98247407157934" lon="12.864312068229076"><ele>49.0</ele><time>2026-04-04T09:52:09Z</time></trkpt><trkpt lat="45.98258710086136" lon="12.864310385922046"><ele>49.0</ele><time>2026-04-04T09:52:10Z</time></trkpt><trkpt lat="45.98269964718179" lon="12.864307652689858"><ele>49.0</ele><time>2026-04-04T09:52:11Z</time></trkpt><trkpt lat="45.98281579264893" lon="12.864317427345624"><ele>49.0</ele><time>2026-04-04T09:52:12Z</time></trkpt><trkpt lat="45.982941198580264" lon="12.864330875654558"><ele>49.0</ele><time>2026-04-04T09:52:13Z</time></trkpt><trkpt lat="45.983070682998225" lon="12.864353878653574"><ele>49.0</ele><time>2026-04-04T09:52:14Z</time></trkpt><trkpt lat="45.98321578756112" lon="12.86437006235742"><ele>49.0</ele><time>2026-04-04T09:52:15Z</time></trkpt><trkpt lat="45.983372805772824" lon="12.864386651970594"><ele>49.666666666666664</ele><time>2026-04-04T09:52:16Z</time></trkpt><trkpt lat="45.98353600360109" lon="12.864405518890953"><ele>50.33333333333333</ele><time>2026-04-04T09:52:17Z</time></trkpt><trkpt lat="45.98370389624724" lon="12.864422453729734"><ele>51.0</ele><time>2026-04-04T09:52:18Z</time></trkpt><trkpt lat="45.98387241525121" lon="12.864440041646608"><ele>51.0</ele><time>2026-04-04T09:52:19Z</time></trkpt><trkpt lat="45.984041722580194" lon="12.864457539321451"><ele>51.0</ele><time>2026-04-04T09:52:20Z</time></trkpt><trkpt lat="45.98421560782596" lon="12.864479612420569"><ele>51.0</ele><time>2026-04-04T09:52:21Z</time></trkpt><trkpt lat="45.98439096675041" lon="12.864504263988694"><ele>51.0</ele><time>2026-04-04T09:52:22Z</time></trkpt><trkpt lat="45.984564424373524" lon="12.864517545603208"><ele>51.0</ele><time>2026-04-04T09:52:23Z</time></trkpt><trkpt lat="45.98473821355227" lon="12.8645380258988"><ele>51.0</ele><time>2026-04-04T09:52:24Z</time></trkpt><trkpt lat="45.98490641722605" lon="12.864559987710088"><ele>50.75</ele><time>2026-04-04T09:52:25Z</time></trkpt><trkpt lat="45.985059589893005" lon="12.86457428494308"><ele>50.5</ele><time>2026-04-04T09:52:26Z</time></trkpt><trkpt lat="45.98520023103757" lon="12.86458853750211"><ele>50.25</ele><time>2026-04-04T09:52:27.001Z</time></trkpt><trkpt lat="45.985327999351355" lon="12.864609416933567"><ele>50.0</ele><time>2026-04-04T09:52:28.001Z</time></trkpt><trkpt lat="45.98544160470213" lon="12.864621778126729"><ele>50.0</ele><time>2026-04-04T09:52:29.001Z</time></trkpt><trkpt lat="45.98555327035237" lon="12.864628678508641"><ele>50.0</ele><time>2026-04-04T09:52:30.001Z</time></trkpt><trkpt lat="45.985652967125596" lon="12.864634346870252"><ele>50.0</ele><time>2026-04-04T09:52:31.001Z</time></trkpt><trkpt lat="45.98575599848351" lon="12.864637135315178"><ele>50.0</ele><time>2026-04-04T09:52:32.001Z</time></trkpt><trkpt lat="45.98585154097439" lon="12.864652173171962"><ele>50.0</ele><time>2026-04-04T09:52:33.001Z</time></trkpt><trkpt lat="45.9859373574333" lon="12.864655319096865"><ele>50.25</ele><time>2026-04-04T09:52:34.001Z</time></trkpt><trkpt lat="45.98602681588481" lon="12.864662842968942"><ele>50.5</ele><time>2026-04-04T09:52:35.001Z</time></trkpt><trkpt lat="45.98614673229699" lon="12.864672016722485"><ele>50.75</ele><time>2026-04-04T09:52:36.001Z</time></trkpt><trkpt lat="45.98627920174735" lon="12.864710457483493"><ele>51.0</ele><time>2026-04-04T09:52:37.001Z</time></trkpt><trkpt lat="45.98641308819348" lon="12.864770417590194"><ele>51.0</ele><time>2026-04-04T09:52:38.001Z</time></trkpt><trkpt lat="45.986568540764125" lon="12.864846958661907"><ele>51.0</ele><time>2026-04-04T09:52:39.001Z</time></trkpt><trkpt lat="45.98673030269134" lon="12.86491497755462"><ele>51.0</ele><time>2026-04-04T09:52:40.001Z</time></trkpt><trkpt lat="45.986897456093196" lon="12.864963074233257"><ele>51.0</ele><time>2026-04-04T09:52:41.001Z</time></trkpt><trkpt lat="45.98704632327622" lon="12.865013157167535"><ele>51.0</ele><time>2026-04-04T09:52:42.001Z</time></trkpt><trkpt lat="45.987187257492735" lon="12.865069507033658"><ele>51.0</ele><time>2026-04-04T09:52:43.001Z</time></trkpt><trkpt lat="45.98731596803784" lon="12.865119428737502"><ele>51.0</ele><time>2026-04-04T09:52:44.001Z</time></trkpt><trkpt lat="45.987438417666105" lon="12.865167028889271"><ele>51.0</ele><time>2026-04-04T09:52:45.001Z</time></trkpt><trkpt lat="45.987566784948385" lon="12.865221878446153"><ele>51.0</ele><time>2026-04-04T09:52:46.001Z</time></trkpt><trkpt lat="45.98771085639738" lon="12.865273710910987"><ele>51.0</ele><time>2026-04-04T09:52:47.001Z</time></trkpt><trkpt lat="45.98785340677578" lon="12.86532739698839"><ele>51.0</ele><time>2026-04-04T09:52:48.001Z</time></trkpt><trkpt lat="45.98798019638067" lon="12.865376596088002"><ele>51.0</ele><time>2026-04-04T09:52:49.001Z</time></trkpt><trkpt lat="45.98809862609081" lon="12.865419889525521"><ele>51.0</ele><time>2026-04-04T09:52:50.001Z</time></trkpt><trkpt lat="45.988209504991154" lon="12.865458493086237"><ele>51.0</ele><time>2026-04-04T09:52:51.001Z</time></trkpt><trkpt lat="45.98831673874907" lon="12.865492975584058"><ele>51.0</ele><time>2026-04-04T09:52:52.001Z</time></trkpt><trkpt lat="45.988426604705104" lon="12.86553552390557"><ele>51.25</ele><time>2026-04-04T09:52:53.001Z</time></trkpt><trkpt lat="45.98854206462781" lon="12.865582729681371"><ele>51.5</ele><time>2026-04-04T09:52:54.001Z</time></trkpt><trkpt lat="45.98866330385084" lon="12.865630042281097"><ele>51.75</ele><time>2026-04-04T09:52:55.001Z</time></trkpt><trkpt lat="45.988785131446086" lon="12.865680022236532"><ele>52.0</ele><time>2026-04-04T09:52:56.001Z</time></trkpt><trkpt lat="45.98891239266116" lon="12.865728264759646"><ele>52.0</ele><time>2026-04-04T09:52:57.001Z</time></trkpt><trkpt lat="45.989038575625315" lon="12.865771370374606"><ele>52.0</ele><time>2026-04-04T09:52:58.001Z</time></trkpt><trkpt lat="45.989160559085335" lon="12.865813898078944"><ele>52.0</ele><time>2026-04-04T09:52:59.001Z</time></trkpt><trkpt lat="45.98928384340711" lon="12.865857178604463"><ele>52.0</ele><time>2026-04-04T09:53:00.001Z</time></trkpt><trkpt lat="45.98940496591928" lon="12.865900488637246"><ele>51.75</ele><time>2026-04-04T09:53:01.001Z</time></trkpt><trkpt lat="45.98952510651481" lon="12.865944908051324"><ele>51.5</ele><time>2026-04-04T09:53:02.001Z</time></trkpt><trkpt lat="45.98964491907919" lon="12.865994844078736"><ele>51.25</ele><time>2026-04-04T09:53:03.001Z</time></trkpt><trkpt lat="45.9897546993008" lon="12.86603868865863"><ele>51.0</ele><time>2026-04-04T09:53:04.001Z</time></trkpt><trkpt lat="45.9898562206285" lon="12.8660778877915"><ele>51.0</ele><time>2026-04-04T09:53:05.001Z</time></trkpt><trkpt lat="45.98996323735522" lon="12.86610595892817"><ele>51.0</ele><time>2026-04-04T09:53:06.001Z</time></trkpt><trkpt lat="45.99007681146904" lon="12.866147941345641"><ele>51.0</ele><time>2026-04-04T09:53:07.001Z</time></trkpt><trkpt lat="45.990189763103245" lon="12.866197989281105"><ele>51.0</ele><time>2026-04-04T09:53:08.001Z</time></trkpt><trkpt lat="45.99030105119347" lon="12.866241375806498"><ele>51.0</ele><time>2026-04-04T09:53:09.001Z</time></trkpt><trkpt lat="45.990410501428826" lon="12.866279147622837"><ele>51.0</ele><time>2026-04-04T09:53:10.001Z</time></trkpt><trkpt lat="45.99051482569576" lon="12.866321462973431"><ele>51.0</ele><time>2026-04-04T09:53:11.001Z</time></trkpt><trkpt lat="45.99061856564495" lon="12.866363346269061"><ele>51.0</ele><time>2026-04-04T09:53:12.001Z</time></trkpt><trkpt lat="45.990718044474896" lon="12.866401167289023"><ele>51.0</ele><time>2026-04-04T09:53:13Z</time></trkpt><trkpt lat="45.99082767467094" lon="12.866425379742457"><ele>51.5</ele><time>2026-04-04T09:53:14Z</time></trkpt><trkpt lat="45.990938612383204" lon="12.866488718793821"><ele>52.0</ele><time>2026-04-04T09:53:15Z</time></trkpt><trkpt lat="45.99106536149569" lon="12.866536625678703"><ele>52.5</ele><time>2026-04-04T09:53:16Z</time></trkpt><trkpt lat="45.99117616063725" lon="12.866578503936388"><ele>53.0</ele><time>2026-04-04T09:53:17Z</time></trkpt><trkpt lat="45.99128724838136" lon="12.866620491350865"><ele>53.0</ele><time>2026-04-04T09:53:18Z</time></trkpt><trkpt lat="45.9913957819941" lon="12.86666151337299"><ele>53.0</ele><time>2026-04-04T09:53:19Z</time></trkpt><trkpt lat="45.99150771612508" lon="12.866703820364501"><ele>53.0</ele><time>2026-04-04T09:53:20Z</time></trkpt><trkpt lat="45.991582264166084" lon="12.866734840279811"><ele>53.0</ele><time>2026-04-04T09:53:22Z</time></trkpt><trkpt lat="45.99168266630316" lon="12.866774868074042"><ele>53.0</ele><time>2026-04-04T09:53:23Z</time></trkpt><trkpt lat="45.99179145924759" lon="12.866814261207868"><ele>53.0</ele><time>2026-04-04T09:53:24Z</time></trkpt><trkpt lat="45.99191444250052" lon="12.866859309049888"><ele>53.0</ele><time>2026-04-04T09:53:25Z</time></trkpt><trkpt lat="45.99204733317059" lon="12.866904297377866"><ele>53.0</ele><time>2026-04-04T09:53:26Z</time></trkpt><trkpt lat="45.99217180845201" lon="12.866953889895912"><ele>53.0</ele><time>2026-04-04T09:53:27Z</time></trkpt><trkpt lat="45.99229388563733" lon="12.866999186732588"><ele>53.0</ele><time>2026-04-04T09:53:28Z</time></trkpt><trkpt lat="45.99241486184629" lon="12.867045511505959"><ele>53.0</ele><time>2026-04-04T09:53:29Z</time></trkpt><trkpt lat="45.992522169540656" lon="12.867084942915792"><ele>53.0</ele><time>2026-04-04T09:53:30Z</time></trkpt><trkpt lat="45.99261105776448" lon="12.867122432195929"><ele>53.0</ele><time>2026-04-04T09:53:31Z</time></trkpt><trkpt lat="45.99270357064922" lon="12.867156670805926"><ele>53.0</ele><time>2026-04-04T09:53:32Z</time></trkpt><trkpt lat="45.992804965493164" lon="12.867199233017782"><ele>53.2</ele><time>2026-04-04T09:53:33Z</time></trkpt><trkpt lat="45.99290738164672" lon="12.867230454231986"><ele>53.4</ele><time>2026-04-04T09:53:34Z</time></trkpt><trkpt lat="45.993007150571756" lon="12.867264187071092"><ele>53.60000000000001</ele><time>2026-04-04T09:53:35Z</time></trkpt><trkpt lat="45.99310529239263" lon="12.867301997468402"><ele>53.800000000000004</ele><time>2026-04-04T09:53:36Z</time></trkpt><trkpt lat="45.99321369903101" lon="12.867343417072108"><ele>54.0</ele><time>2026-04-04T09:53:37Z</time></trkpt><trkpt lat="45.99332545988656" lon="12.867385417415253"><ele>54.2</ele><time>2026-04-04T09:53:38Z</time></trkpt><trkpt lat="45.99342692474993" lon="12.867429622747935"><ele>54.400000000000006</ele><time>2026-04-04T09:53:39Z</time></trkpt><trkpt lat="45.99353560290433" lon="12.867469337280436"><ele>54.6</ele><time>2026-04-04T09:53:40Z</time></trkpt><trkpt lat="45.993638500484096" lon="12.867506760978683"><ele>54.8</ele><time>2026-04-04T09:53:41Z</time></trkpt><trkpt lat="45.99373506878676" lon="12.867544464767562"><ele>55.0</ele><time>2026-04-04T09:53:42Z</time></trkpt><trkpt lat="45.99381721164313" lon="12.867578268704804"><ele>54.99999999999999</ele><time>2026-04-04T09:53:43Z</time></trkpt><trkpt lat="45.993888754157425" lon="12.867602376838015"><ele>55.0</ele><time>2026-04-04T09:53:44Z</time></trkpt><trkpt lat="45.993968224221035" lon="12.867629483300975"><ele>55.0</ele><time>2026-04-04T09:53:45Z</time></trkpt><trkpt lat="45.994041852308264" lon="12.867654816771184"><ele>55.0</ele><time>2026-04-04T09:53:46Z</time></trkpt><trkpt lat="45.99411647458719" lon="12.867691042604061"><ele>54.99999999999999</ele><time>2026-04-04T09:53:47Z</time></trkpt><trkpt lat="45.99422281158518" lon="12.867737592615308"><ele>55.0</ele><time>2026-04-04T09:53:49Z</time></trkpt><trkpt lat="45.99431810011156" lon="12.8677659428077"><ele>54.99999999999999</ele><time>2026-04-04T09:53:51Z</time></trkpt><trkpt lat="45.9944083572667" lon="12.867810583681337"><ele>55.0</ele><time>2026-04-04T09:53:53Z</time></trkpt><trkpt lat="45.99448550687225" lon="12.867853785691185"><ele>55.0</ele><time>2026-04-04T09:53:55Z</time></trkpt><trkpt lat="45.99456354686882" lon="12.867910851062728"><ele>55.0</ele><time>2026-04-04T09:53:58Z</time></trkpt><trkpt lat="45.99463363091723" lon="12.867977292874855"><ele>54.99999999999999</ele><time>2026-04-04T09:54:01Z</time></trkpt><trkpt lat="45.99469446972102" lon="12.86806329188733"><ele>55.0</ele><time>2026-04-04T09:54:06Z</time></trkpt><trkpt lat="45.994725681186644" lon="12.868178596540503"><ele>54.99999999999999</ele><time>2026-04-04T09:54:08Z</time></trkpt><trkpt lat="45.99475647464525" lon="12.86828877072039"><ele>55.0</ele><time>2026-04-04T09:54:10Z</time></trkpt><trkpt lat="45.99484505059849" lon="12.868299967575634"><ele>55.0</ele><time>2026-04-04T09:54:12Z</time></trkpt><trkpt lat="45.99490452473191" lon="12.868255338441907"><ele>55.0</ele><time>2026-04-04T09:54:13Z</time></trkpt><trkpt lat="45.994966626944034" lon="12.86821931496886"><ele>54.99999999999999</ele><time>2026-04-04T09:54:14Z</time></trkpt><trkpt lat="45.99504208979672" lon="12.868216268032306"><ele>55.0</ele><time>2026-04-04T09:54:15Z</time></trkpt><trkpt lat="45.995119875928644" lon="12.868241697576616"><ele>54.99999999999999</ele><time>2026-04-04T09:54:16Z</time></trkpt><trkpt lat="45.99519297452984" lon="12.868249962403926"><ele>55.0</ele><time>2026-04-04T09:54:17Z</time></trkpt><trkpt lat="45.995258423224804" lon="12.868260918073199"><ele>55.0</ele><time>2026-04-04T09:54:18Z</time></trkpt><trkpt lat="45.99533104704486" lon="12.86828323094392"><ele>55.0</ele><time>2026-04-04T09:54:19Z</time></trkpt><trkpt lat="45.99541603521094" lon="12.868315187731161"><ele>54.99999999999999</ele><time>2026-04-04T09:54:20Z</time></trkpt><trkpt lat="45.99550832291059" lon="12.868357120229664"><ele>55.0</ele><time>2026-04-04T09:54:21Z</time></trkpt><trkpt lat="45.99559831988489" lon="12.868407283899147"><ele>55.0</ele><time>2026-04-04T09:54:22Z</time></trkpt><trkpt lat="45.99569829749718" lon="12.868403369547613"><ele>55.0</ele><time>2026-04-04T09:54:23Z</time></trkpt><trkpt lat="45.99582961885825" lon="12.868413018374193"><ele>55.0</ele><time>2026-04-04T09:54:24Z</time></trkpt><trkpt lat="45.9959835764724" lon="12.868417891458233"><ele>55.0</ele><time>2026-04-04T09:54:25Z</time></trkpt><trkpt lat="45.99612125268284" lon="12.868421837698621"><ele>55.2</ele><time>2026-04-04T09:54:26Z</time></trkpt><trkpt lat="45.99623127593981" lon="12.868415276173105"><ele>55.4</ele><time>2026-04-04T09:54:27Z</time></trkpt><trkpt lat="45.99632595110267" lon="12.86841813286227"><ele>55.599999999999994</ele><time>2026-04-04T09:54:28.001Z</time></trkpt><trkpt lat="45.99641810487699" lon="12.868416649647669"><ele>55.8</ele><time>2026-04-04T09:54:29.001Z</time></trkpt><trkpt lat="45.996505545843654" lon="12.868422960751566"><ele>56.0</ele><time>2026-04-04T09:54:30.001Z</time></trkpt><trkpt lat="45.9965993184121" lon="12.868421527025285"><ele>55.8</ele><time>2026-04-04T09:54:31.001Z</time></trkpt><trkpt lat="45.99669628951469" lon="12.86842141266173"><ele>55.599999999999994</ele><time>2026-04-04T09:54:32.001Z</time></trkpt><trkpt lat="45.9968007415726" lon="12.868420455122841"><ele>55.4</ele><time>2026-04-04T09:54:33.001Z</time></trkpt><trkpt lat="45.996912452621686" lon="12.868419988730055"><ele>55.2</ele><time>2026-04-04T09:54:34.001Z</time></trkpt><trkpt lat="45.99702448116828" lon="12.868428370238993"><ele>55.0</ele><time>2026-04-04T09:54:35.001Z</time></trkpt><trkpt lat="45.99716373516021" lon="12.868434068619912"><ele>55.0</ele><time>2026-04-04T09:54:36.001Z</time></trkpt><trkpt lat="45.99733116325724" lon="12.868436476177846"><ele>55.0</ele><time>2026-04-04T09:54:37.001Z</time></trkpt><trkpt lat="45.99753855897333" lon="12.868465812983095"><ele>55.0</ele><time>2026-04-04T09:54:38.001Z</time></trkpt><trkpt lat="45.99776880018173" lon="12.86848407248763"><ele>55.33333333333333</ele><time>2026-04-04T09:54:39.001Z</time></trkpt><trkpt lat="45.99798605927618" lon="12.868466166647503"><ele>55.66666666666667</ele><time>2026-04-04T09:54:40.001Z</time></trkpt><trkpt lat="45.99818870833275" lon="12.868504448289452"><ele>56.0</ele><time>2026-04-04T09:54:41.001Z</time></trkpt><trkpt lat="45.99837656376395" lon="12.868534855655213"><ele>56.25</ele><time>2026-04-04T09:54:42.001Z</time></trkpt><trkpt lat="45.998534959007245" lon="12.86855143884597"><ele>56.5</ele><time>2026-04-04T09:54:43.001Z</time></trkpt><trkpt lat="45.99866382251972" lon="12.868566536625396"><ele>56.75</ele><time>2026-04-04T09:54:44.001Z</time></trkpt><trkpt lat="45.998786145874035" lon="12.868592013865037"><ele>57.0</ele><time>2026-04-04T09:54:45.001Z</time></trkpt><trkpt lat="45.9988988412504" lon="12.868605738590865"><ele>57.0</ele><time>2026-04-04T09:54:46.001Z</time></trkpt><trkpt lat="45.99901132043631" lon="12.868612361577537"><ele>57.0</ele><time>2026-04-04T09:54:47.001Z</time></trkpt><trkpt lat="45.99912723112841" lon="12.868631372591828"><ele>57.0</ele><time>2026-04-04T09:54:48.001Z</time></trkpt><trkpt lat="45.99926450532214" lon="12.868657532885623"><ele>57.0</ele><time>2026-04-04T09:54:49.001Z</time></trkpt><trkpt lat="45.999425129727044" lon="12.868685401267959"><ele>57.33333333333333</ele><time>2026-04-04T09:54:50.001Z</time></trkpt><trkpt lat="45.999613261158665" lon="12.868754902063271"><ele>57.666666666666664</ele><time>2026-04-04T09:54:51.001Z</time></trkpt><trkpt lat="45.99983145697316" lon="12.868809101168996"><ele>58.0</ele><time>2026-04-04T09:54:52.001Z</time></trkpt><trkpt lat="46.00005297469608" lon="12.868907504445827"><ele>58.0</ele><time>2026-04-04T09:54:53.001Z</time></trkpt><trkpt lat="46.00029566104976" lon="12.868998702868087"><ele>58.0</ele><time>2026-04-04T09:54:54.001Z</time></trkpt><trkpt lat="46.000534615652775" lon="12.869083908851717"><ele>58.0</ele><time>2026-04-04T09:54:55.001Z</time></trkpt><trkpt lat="46.00077324887744" lon="12.86916610915586"><ele>58.0</ele><time>2026-04-04T09:54:56.001Z</time></trkpt><trkpt lat="46.00102423738941" lon="12.8692359794928"><ele>57.666666666666664</ele><time>2026-04-04T09:54:57.001Z</time></trkpt><trkpt lat="46.00124945375401" lon="12.869311887854618"><ele>57.33333333333333</ele><time>2026-04-04T09:54:58.001Z</time></trkpt><trkpt lat="46.00145548132462" lon="12.869391791282823"><ele>57.0</ele><time>2026-04-04T09:54:59.001Z</time></trkpt><trkpt lat="46.00164491979054" lon="12.869467926510078"><ele>57.66666666666667</ele><time>2026-04-04T09:55:00.001Z</time></trkpt><trkpt lat="46.00182213074837" lon="12.869536367402517"><ele>58.333333333333336</ele><time>2026-04-04T09:55:01.001Z</time></trkpt><trkpt lat="46.00199372475415" lon="12.869606024554754"><ele>59.0</ele><time>2026-04-04T09:55:02.001Z</time></trkpt><trkpt lat="46.00216912548574" lon="12.869679711174918"><ele>59.0</ele><time>2026-04-04T09:55:03.001Z</time></trkpt><trkpt lat="46.0023491045213" lon="12.869756238476299"><ele>59.0</ele><time>2026-04-04T09:55:04.001Z</time></trkpt><trkpt lat="46.00253107224149" lon="12.869838951864013"><ele>59.0</ele><time>2026-04-04T09:55:05.001Z</time></trkpt><trkpt lat="46.00270583100198" lon="12.869920168221151"><ele>58.66666666666667</ele><time>2026-04-04T09:55:06.001Z</time></trkpt><trkpt lat="46.00288383083843" lon="12.870004317838717"><ele>58.33333333333333</ele><time>2026-04-04T09:55:07.001Z</time></trkpt><trkpt lat="46.00306468485186" lon="12.870093202677824"><ele>58.0</ele><time>2026-04-04T09:55:08.001Z</time></trkpt><trkpt lat="46.00324940251023" lon="12.87018376850315"><ele>57.666666666666664</ele><time>2026-04-04T09:55:09.001Z</time></trkpt><trkpt lat="46.00343454989162" lon="12.870274881137894"><ele>57.33333333333333</ele><time>2026-04-04T09:55:10.001Z</time></trkpt><trkpt lat="46.00363075054603" lon="12.870364671408915"><ele>57.0</ele><time>2026-04-04T09:55:11.001Z</time></trkpt><trkpt lat="46.00382663447992" lon="12.870456736287524"><ele>57.0</ele><time>2026-04-04T09:55:12.001Z</time></trkpt><trkpt lat="46.00402205347316" lon="12.87055212973644"><ele>57.0</ele><time>2026-04-04T09:55:13.001Z</time></trkpt><trkpt lat="46.004223851050575" lon="12.870648654431493"><ele>57.0</ele><time>2026-04-04T09:55:14.001Z</time></trkpt><trkpt lat="46.00443063984815" lon="12.870748924201608"><ele>56.5</ele><time>2026-04-04T09:55:15.001Z</time></trkpt><trkpt lat="46.00464526156729" lon="12.870854541904235"><ele>56.0</ele><time>2026-04-04T09:55:16.001Z</time></trkpt><trkpt lat="46.00486080481644" lon="12.870958181355626"><ele>56.5</ele><time>2026-04-04T09:55:17.001Z</time></trkpt><trkpt lat="46.00507677603186" lon="12.871061288145325"><ele>57.0</ele><time>2026-04-04T09:55:18.001Z</time></trkpt><trkpt lat="46.005296940512736" lon="12.871162992395295"><ele>57.0</ele><time>2026-04-04T09:55:19Z</time></trkpt><trkpt lat="46.0055162648126" lon="12.871266373125664"><ele>57.0</ele><time>2026-04-04T09:55:20Z</time></trkpt><trkpt lat="46.00572911369448" lon="12.871370969110588"><ele>57.33333333333333</ele><time>2026-04-04T09:55:21Z</time></trkpt><trkpt lat="46.005938383045795" lon="12.871473191804602"><ele>57.666666666666664</ele><time>2026-04-04T09:55:22Z</time></trkpt><trkpt lat="46.00613279885189" lon="12.87156529941305"><ele>58.0</ele><time>2026-04-04T09:55:23Z</time></trkpt><trkpt lat="46.006325267625805" lon="12.871650172078654"><ele>58.0</ele><time>2026-04-04T09:55:24Z</time></trkpt><trkpt lat="46.00652812633737" lon="12.871734350131407"><ele>58.0</ele><time>2026-04-04T09:55:25Z</time></trkpt><trkpt lat="46.00673675314948" lon="12.871816651196356"><ele>58.0</ele><time>2026-04-04T09:55:26Z</time></trkpt><trkpt lat="46.00696064572088" lon="12.871900225388531"><ele>59.0</ele><time>2026-04-04T09:55:27Z</time></trkpt><trkpt lat="46.00718319774596" lon="12.871983380568993"><ele>60.0</ele><time>2026-04-04T09:55:28Z</time></trkpt><trkpt lat="46.00741141949812" lon="12.872062773788713"><ele>60.0</ele><time>2026-04-04T09:55:29Z</time></trkpt><trkpt lat="46.00764773716057" lon="12.8721391750953"><ele>60.0</ele><time>2026-04-04T09:55:30Z</time></trkpt><trkpt lat="46.00788245682267" lon="12.872210442424082"><ele>60.0</ele><time>2026-04-04T09:55:31Z</time></trkpt><trkpt lat="46.00812104471256" lon="12.87227425249587"><ele>60.0</ele><time>2026-04-04T09:55:32Z</time></trkpt><trkpt lat="46.008353614167135" lon="12.872333788242166"><ele>61.0</ele><time>2026-04-04T09:55:33Z</time></trkpt><trkpt lat="46.00858097783854" lon="12.872393916806953"><ele>62.0</ele><time>2026-04-04T09:55:34Z</time></trkpt><trkpt lat="46.00880237967976" lon="12.872452717632882"><ele>62.0</ele><time>2026-04-04T09:55:35Z</time></trkpt><trkpt lat="46.00902513969974" lon="12.872514786518687"><ele>62.0</ele><time>2026-04-04T09:55:36Z</time></trkpt><trkpt lat="46.00924891652569" lon="12.8725757037743"><ele>61.0</ele><time>2026-04-04T09:55:37Z</time></trkpt><trkpt lat="46.009470871973356" lon="12.87262893368201"><ele>60.0</ele><time>2026-04-04T09:55:38Z</time></trkpt><trkpt lat="46.00968666121544" lon="12.872690341489381"><ele>59.0</ele><time>2026-04-04T09:55:39Z</time></trkpt><trkpt lat="46.00989650520404" lon="12.872750672143159"><ele>60.333333333333336</ele><time>2026-04-04T09:55:40Z</time></trkpt><trkpt lat="46.01010774821974" lon="12.872811305059486"><ele>61.66666666666667</ele><time>2026-04-04T09:55:41Z</time></trkpt><trkpt lat="46.010315192344365" lon="12.872867428083815"><ele>63.0</ele><time>2026-04-04T09:55:42Z</time></trkpt><trkpt lat="46.01052750003899" lon="12.872926796506677"><ele>63.0</ele><time>2026-04-04T09:55:43Z</time></trkpt><trkpt lat="46.01074117483193" lon="12.872984411989387"><ele>63.0</ele><time>2026-04-04T09:55:44Z</time></trkpt><trkpt lat="46.01095809957406" lon="12.873039833462762"><ele>63.0</ele><time>2026-04-04T09:55:45Z</time></trkpt><trkpt lat="46.01117807551718" lon="12.873079582510169"><ele>62.33333333333333</ele><time>2026-04-04T09:55:46Z</time></trkpt><trkpt lat="46.011400017051436" lon="12.873113234920138"><ele>61.666666666666664</ele><time>2026-04-04T09:55:47Z</time></trkpt><trkpt lat="46.01162127290764" lon="12.873148299186777"><ele>61.0</ele><time>2026-04-04T09:55:48Z</time></trkpt><trkpt lat="46.01183543960096" lon="12.873180777302158"><ele>61.0</ele><time>2026-04-04T09:55:49Z</time></trkpt><trkpt lat="46.01204865487004" lon="12.873221356635351"><ele>61.0</ele><time>2026-04-04T09:55:50Z</time></trkpt><trkpt lat="46.01226105961419" lon="12.87327418013432"><ele>61.0</ele><time>2026-04-04T09:55:51Z</time></trkpt><trkpt lat="46.012473850148254" lon="12.873331855664237"><ele>61.33333333333333</ele><time>2026-04-04T09:55:52Z</time></trkpt><trkpt lat="46.01269119605244" lon="12.873390891856415"><ele>61.66666666666667</ele><time>2026-04-04T09:55:53Z</time></trkpt><trkpt lat="46.01290506582071" lon="12.87344488942189"><ele>62.0</ele><time>2026-04-04T09:55:54Z</time></trkpt><trkpt lat="46.01311810258077" lon="12.873505368674508"><ele>61.333333333333336</ele><time>2026-04-04T09:55:55Z</time></trkpt><trkpt lat="46.013331458540634" lon="12.873560258061195"><ele>60.66666666666667</ele><time>2026-04-04T09:55:56Z</time></trkpt><trkpt lat="46.0135472067233" lon="12.873621423767933"><ele>60.0</ele><time>2026-04-04T09:55:57Z</time></trkpt><trkpt lat="46.01376586073268" lon="12.873684571304652"><ele>60.0</ele><time>2026-04-04T09:55:58Z</time></trkpt><trkpt lat="46.013983558214804" lon="12.873740258280536"><ele>60.0</ele><time>2026-04-04T09:55:59Z</time></trkpt><trkpt lat="46.014197256111096" lon="12.873797189743263"><ele>60.0</ele><time>2026-04-04T09:56:00Z</time></trkpt><trkpt lat="46.014413625006085" lon="12.873857662333707"><ele>60.33333333333333</ele><time>2026-04-04T09:56:01Z</time></trkpt><trkpt lat="46.01463130940405" lon="12.873918561817984"><ele>60.666666666666664</ele><time>2026-04-04T09:56:02Z</time></trkpt><trkpt lat="46.01485329865141" lon="12.873967941589125"><ele>61.0</ele><time>2026-04-04T09:56:03Z</time></trkpt><trkpt lat="46.01507145726649" lon="12.874023490912506"><ele>61.666666666666664</ele><time>2026-04-04T09:56:04Z</time></trkpt><trkpt lat="46.01528726864179" lon="12.87408379684964"><ele>62.33333333333333</ele><time>2026-04-04T09:56:05Z</time></trkpt><trkpt lat="46.01550337009876" lon="12.874139642959415"><ele>63.0</ele><time>2026-04-04T09:56:06Z</time></trkpt><trkpt lat="46.0157187080899" lon="12.874195102465153"><ele>62.66666666666667</ele><time>2026-04-04T09:56:07Z</time></trkpt><trkpt lat="46.01592924287958" lon="12.874249417556353"><ele>62.333333333333336</ele><time>2026-04-04T09:56:08Z</time></trkpt><trkpt lat="46.01613213016551" lon="12.87430785901075"><ele>62.0</ele><time>2026-04-04T09:56:09Z</time></trkpt><trkpt lat="46.01632840591122" lon="12.874355134116293"><ele>62.0</ele><time>2026-04-04T09:56:10Z</time></trkpt><trkpt lat="46.01651321479603" lon="12.874404085552717"><ele>62.0</ele><time>2026-04-04T09:56:11Z</time></trkpt><trkpt lat="46.01669407115817" lon="12.87445350170506"><ele>62.0</ele><time>2026-04-04T09:56:12Z</time></trkpt><trkpt lat="46.016880036999304" lon="12.874499141611814"><ele>61.66666666666667</ele><time>2026-04-04T09:56:13.001Z</time></trkpt><trkpt lat="46.01706979736669" lon="12.874549116150673"><ele>61.33333333333333</ele><time>2026-04-04T09:56:14.001Z</time></trkpt><trkpt lat="46.01725486096128" lon="12.874589252859852"><ele>61.0</ele><time>2026-04-04T09:56:15.001Z</time></trkpt><trkpt lat="46.017437109283776" lon="12.874629588689386"><ele>62.0</ele><time>2026-04-04T09:56:16.001Z</time></trkpt><trkpt lat="46.01762201506842" lon="12.874678349778803"><ele>63.0</ele><time>2026-04-04T09:56:17.001Z</time></trkpt><trkpt lat="46.01780283532679" lon="12.874723195620456"><ele>64.0</ele><time>2026-04-04T09:56:18.001Z</time></trkpt><trkpt lat="46.01797759100187" lon="12.874758301545754"><ele>64.0</ele><time>2026-04-04T09:56:19.001Z</time></trkpt><trkpt lat="46.01815979426372" lon="12.874774112229922"><ele>64.0</ele><time>2026-04-04T09:56:20.001Z</time></trkpt><trkpt lat="46.018334270746664" lon="12.874805664859478"><ele>64.0</ele><time>2026-04-04T09:56:21.001Z</time></trkpt><trkpt lat="46.01851159211767" lon="12.874821559636525"><ele>64.66666666666666</ele><time>2026-04-04T09:56:22.001Z</time></trkpt><trkpt lat="46.0186952139459" lon="12.874837250152792"><ele>65.33333333333333</ele><time>2026-04-04T09:56:23.001Z</time></trkpt><trkpt lat="46.01887927612643" lon="12.874847976408239"><ele>66.0</ele><time>2026-04-04T09:56:24.001Z</time></trkpt><trkpt lat="46.019063562073555" lon="12.87485165515969"><ele>65.66666666666667</ele><time>2026-04-04T09:56:25.001Z</time></trkpt><trkpt lat="46.01924895617303" lon="12.87485367879799"><ele>65.33333333333334</ele><time>2026-04-04T09:56:26.001Z</time></trkpt><trkpt lat="46.019429603965094" lon="12.874858992585137"><ele>65.0</ele><time>2026-04-04T09:56:27.001Z</time></trkpt><trkpt lat="46.01959937361874" lon="12.874865083253942"><ele>65.0</ele><time>2026-04-04T09:56:28.001Z</time></trkpt><trkpt lat="46.01976194294254" lon="12.874867697781369"><ele>65.0</ele><time>2026-04-04T09:56:29.001Z</time></trkpt><trkpt lat="46.019935616220565" lon="12.87487322256409"><ele>65.0</ele><time>2026-04-04T09:56:30.001Z</time></trkpt><trkpt lat="46.02011987187554" lon="12.874881629672593"><ele>65.33333333333334</ele><time>2026-04-04T09:56:31.001Z</time></trkpt><trkpt lat="46.02029798491998" lon="12.874889165252755"><ele>65.66666666666667</ele><time>2026-04-04T09:56:32.001Z</time></trkpt><trkpt lat="46.02047686629798" lon="12.874893484873564"><ele>66.0</ele><time>2026-04-04T09:56:33.001Z</time></trkpt><trkpt lat="46.02065530332931" lon="12.874894776143547"><ele>66.33333333333333</ele><time>2026-04-04T09:56:34.001Z</time></trkpt><trkpt lat="46.02083358077237" lon="12.87489693787295"><ele>66.66666666666666</ele><time>2026-04-04T09:56:35.001Z</time></trkpt><trkpt lat="46.02101272825262" lon="12.874900297748992"><ele>67.0</ele><time>2026-04-04T09:56:36.001Z</time></trkpt><trkpt lat="46.02119125742897" lon="12.874910871235235"><ele>67.0</ele><time>2026-04-04T09:56:37.001Z</time></trkpt><trkpt lat="46.021369560562874" lon="12.87492647313286"><ele>67.0</ele><time>2026-04-04T09:56:38.001Z</time></trkpt><trkpt lat="46.021548587444705" lon="12.874953589285871"><ele>67.0</ele><time>2026-04-04T09:56:39.001Z</time></trkpt><trkpt lat="46.02172941831879" lon="12.87499384426086"><ele>67.0</ele><time>2026-04-04T09:56:40.001Z</time></trkpt><trkpt lat="46.021915200838514" lon="12.875055120473482"><ele>67.0</ele><time>2026-04-04T09:56:41.001Z</time></trkpt><trkpt lat="46.02210545205776" lon="12.875132043746623"><ele>67.0</ele><time>2026-04-04T09:56:42.001Z</time></trkpt><trkpt lat="46.02230346736485" lon="12.875230724848722"><ele>68.0</ele><time>2026-04-04T09:56:43.001Z</time></trkpt><trkpt lat="46.02249940321282" lon="12.875342577487531"><ele>69.0</ele><time>2026-04-04T09:56:44.001Z</time></trkpt><trkpt lat="46.022695036850436" lon="12.875470406683199"><ele>70.0</ele><time>2026-04-04T09:56:45.001Z</time></trkpt><trkpt lat="46.022888143534104" lon="12.875588843037152"><ele>70.0</ele><time>2026-04-04T09:56:46.001Z</time></trkpt><trkpt lat="46.02308709736503" lon="12.875719363836557"><ele>70.0</ele><time>2026-04-04T09:56:47.001Z</time></trkpt><trkpt lat="46.023288597056435" lon="12.875847803015"><ele>70.0</ele><time>2026-04-04T09:56:48.001Z</time></trkpt><trkpt lat="46.0234937240946" lon="12.875980741960102"><ele>69.5</ele><time>2026-04-04T09:56:49.001Z</time></trkpt><trkpt lat="46.02369984106101" lon="12.876116095530886"><ele>69.0</ele><time>2026-04-04T09:56:50.001Z</time></trkpt><trkpt lat="46.02390841596145" lon="12.876249285912564"><ele>69.0</ele><time>2026-04-04T09:56:51.001Z</time></trkpt><trkpt lat="46.02411504634834" lon="12.876379953194157"><ele>69.0</ele><time>2026-04-04T09:56:52.001Z</time></trkpt><trkpt lat="46.02432118842768" lon="12.876508861231766"><ele>69.33333333333333</ele><time>2026-04-04T09:56:53.001Z</time></trkpt><trkpt lat="46.02451431497837" lon="12.876631005930816"><ele>69.66666666666666</ele><time>2026-04-04T09:56:54.001Z</time></trkpt><trkpt lat="46.024698653354854" lon="12.87674992579213"><ele>70.0</ele><time>2026-04-04T09:56:55.001Z</time></trkpt><trkpt lat="46.024884918483934" lon="12.876871201806908"><ele>69.66666666666666</ele><time>2026-04-04T09:56:56.001Z</time></trkpt><trkpt lat="46.02507208777446" lon="12.876985290002176"><ele>69.33333333333333</ele><time>2026-04-04T09:56:57.001Z</time></trkpt><trkpt lat="46.02526387464281" lon="12.877081441222735"><ele>69.0</ele><time>2026-04-04T09:56:58.001Z</time></trkpt><trkpt lat="46.025467940046" lon="12.877159260248575"><ele>69.0</ele><time>2026-04-04T09:56:59.001Z</time></trkpt><trkpt lat="46.02568564520013" lon="12.87722537358029"><ele>69.0</ele><time>2026-04-04T09:57:00.001Z</time></trkpt><trkpt lat="46.02591148454047" lon="12.877286877059126"><ele>69.5</ele><time>2026-04-04T09:57:01.001Z</time></trkpt><trkpt lat="46.02614528953975" lon="12.877346865010152"><ele>70.0</ele><time>2026-04-04T09:57:02.001Z</time></trkpt><trkpt lat="46.026374602819025" lon="12.877402318813875"><ele>70.0</ele><time>2026-04-04T09:57:03.001Z</time></trkpt><trkpt lat="46.026594455913305" lon="12.87746040697663"><ele>70.0</ele><time>2026-04-04T09:57:04.001Z</time></trkpt><trkpt lat="46.02680058320546" lon="12.877508525890157"><ele>70.0</ele><time>2026-04-04T09:57:05.001Z</time></trkpt><trkpt lat="46.02702354072105" lon="12.87754324985093"><ele>70.5</ele><time>2026-04-04T09:57:06.001Z</time></trkpt><trkpt lat="46.02725856063899" lon="12.877558670455976"><ele>71.0</ele><time>2026-04-04T09:57:07.001Z</time></trkpt><trkpt lat="46.02750159798201" lon="12.8775486752086"><ele>70.0</ele><time>2026-04-04T09:57:08.001Z</time></trkpt><trkpt lat="46.02774528434157" lon="12.877526344190976"><ele>69.0</ele><time>2026-04-04T09:57:09.001Z</time></trkpt><trkpt lat="46.027998067983816" lon="12.877507192951008"><ele>69.0</ele><time>2026-04-04T09:57:10.001Z</time></trkpt><trkpt lat="46.028255450021206" lon="12.877496816292796"><ele>69.0</ele><time>2026-04-04T09:57:11.001Z</time></trkpt><trkpt lat="46.02851671568407" lon="12.877482382675211"><ele>69.5</ele><time>2026-04-04T09:57:12.001Z</time></trkpt><trkpt lat="46.028778758142884" lon="12.877466172740789"><ele>70.0</ele><time>2026-04-04T09:57:13.001Z</time></trkpt><trkpt lat="46.02903065527413" lon="12.877449659394218"><ele>70.5</ele><time>2026-04-04T09:57:14.001Z</time></trkpt><trkpt lat="46.029270152668374" lon="12.877429384686556"><ele>71.0</ele><time>2026-04-04T09:57:15.001Z</time></trkpt><trkpt lat="46.02950477601912" lon="12.877412746037734"><ele>71.0</ele><time>2026-04-04T09:57:16.001Z</time></trkpt><trkpt lat="46.02973063553999" lon="12.877398285986303"><ele>71.0</ele><time>2026-04-04T09:57:17.001Z</time></trkpt><trkpt lat="46.02995461857207" lon="12.877381643074687"><ele>70.0</ele><time>2026-04-04T09:57:18.001Z</time></trkpt><trkpt lat="46.030180055766856" lon="12.877366885912759"><ele>69.0</ele><time>2026-04-04T09:57:19.001Z</time></trkpt><trkpt lat="46.03040740265256" lon="12.877351211011781"><ele>69.0</ele><time>2026-04-04T09:57:20.001Z</time></trkpt><trkpt lat="46.03063860926493" lon="12.877338578561762"><ele>69.0</ele><time>2026-04-04T09:57:21.001Z</time></trkpt><trkpt lat="46.03086667309521" lon="12.877326197540574"><ele>69.66666666666667</ele><time>2026-04-04T09:57:22.001Z</time></trkpt><trkpt lat="46.03109005960412" lon="12.87731427828205"><ele>70.33333333333334</ele><time>2026-04-04T09:57:23.001Z</time></trkpt><trkpt lat="46.031310553790576" lon="12.877303548878665"><ele>71.0</ele><time>2026-04-04T09:57:24.001Z</time></trkpt><trkpt lat="46.03153369466038" lon="12.877288279272848"><ele>70.5</ele><time>2026-04-04T09:57:25.001Z</time></trkpt><trkpt lat="46.03176612717221" lon="12.87726759904162"><ele>70.0</ele><time>2026-04-04T09:57:26.001Z</time></trkpt><trkpt lat="46.032005041038644" lon="12.877243787784046"><ele>70.0</ele><time>2026-04-04T09:57:27.001Z</time></trkpt><trkpt lat="46.03225178883071" lon="12.877216025818763"><ele>70.0</ele><time>2026-04-04T09:57:28.001Z</time></trkpt><trkpt lat="46.03250491613857" lon="12.87717657577003"><ele>71.0</ele><time>2026-04-04T09:57:29.001Z</time></trkpt><trkpt lat="46.032760664144504" lon="12.877137516380815"><ele>72.0</ele><time>2026-04-04T09:57:30.001Z</time></trkpt><trkpt lat="46.03301354331777" lon="12.87710410248958"><ele>72.0</ele><time>2026-04-04T09:57:31.001Z</time></trkpt><trkpt lat="46.03325381867887" lon="12.877071610352978"><ele>72.0</ele><time>2026-04-04T09:57:32.001Z</time></trkpt><trkpt lat="46.0334844385215" lon="12.877036452021194"><ele>72.0</ele><time>2026-04-04T09:57:33.001Z</time></trkpt><trkpt lat="46.033716001580565" lon="12.876998901995659"><ele>72.0</ele><time>2026-04-04T09:57:34.001Z</time></trkpt><trkpt lat="46.03394805121426" lon="12.876964648366052"><ele>73.0</ele><time>2026-04-04T09:57:35.001Z</time></trkpt><trkpt lat="46.034179492417756" lon="12.876929465806432"><ele>74.0</ele><time>2026-04-04T09:57:36.001Z</time></trkpt><trkpt lat="46.0344110836785" lon="12.876897501942414"><ele>74.0</ele><time>2026-04-04T09:57:37.001Z</time></trkpt><trkpt lat="46.03463925285627" lon="12.876863084620318"><ele>74.0</ele><time>2026-04-04T09:57:38.001Z</time></trkpt><trkpt lat="46.03486659182397" lon="12.876822970909668"><ele>73.5</ele><time>2026-04-04T09:57:39.001Z</time></trkpt><trkpt lat="46.035095594371896" lon="12.876785361700215"><ele>73.0</ele><time>2026-04-04T09:57:40Z</time></trkpt><trkpt lat="46.03532813716235" lon="12.876751676330091"><ele>73.0</ele><time>2026-04-04T09:57:41Z</time></trkpt><trkpt lat="46.03555618472224" lon="12.8767178841645"><ele>73.0</ele><time>2026-04-04T09:57:42Z</time></trkpt><trkpt lat="46.035782805508205" lon="12.876678912653029"><ele>73.0</ele><time>2026-04-04T09:57:43Z</time></trkpt><trkpt lat="46.03600505395595" lon="12.876641709461543"><ele>73.0</ele><time>2026-04-04T09:57:44Z</time></trkpt><trkpt lat="46.0362222263122" lon="12.876620587147913"><ele>73.0</ele><time>2026-04-04T09:57:45Z</time></trkpt><trkpt lat="46.036439362392755" lon="12.876593950029836"><ele>73.0</ele><time>2026-04-04T09:57:46Z</time></trkpt><trkpt lat="46.03665739288656" lon="12.876561294628686"><ele>73.0</ele><time>2026-04-04T09:57:47Z</time></trkpt><trkpt lat="46.03687483995517" lon="12.876524887126859"><ele>73.0</ele><time>2026-04-04T09:57:48Z</time></trkpt><trkpt lat="46.03709697352498" lon="12.876490225881327"><ele>73.0</ele><time>2026-04-04T09:57:49Z</time></trkpt><trkpt lat="46.03731982074317" lon="12.876453897485222"><ele>73.0</ele><time>2026-04-04T09:57:50Z</time></trkpt><trkpt lat="46.037545334495306" lon="12.876416152782014"><ele>73.0</ele><time>2026-04-04T09:57:51Z</time></trkpt><trkpt lat="46.03777196275141" lon="12.876381137447959"><ele>73.0</ele><time>2026-04-04T09:57:52Z</time></trkpt><trkpt lat="46.03799572520168" lon="12.876349688739381"><ele>73.0</ele><time>2026-04-04T09:57:53Z</time></trkpt><trkpt lat="46.03822011072102" lon="12.876318442726532"><ele>73.0</ele><time>2026-04-04T09:57:54Z</time></trkpt><trkpt lat="46.038446340686065" lon="12.876283473990101"><ele>74.0</ele><time>2026-04-04T09:57:55Z</time></trkpt><trkpt lat="46.03867077344013" lon="12.876247874462168"><ele>75.0</ele><time>2026-04-04T09:57:56Z</time></trkpt><trkpt lat="46.038896836446156" lon="12.876216864555186"><ele>75.0</ele><time>2026-04-04T09:57:57Z</time></trkpt><trkpt lat="46.03912167279719" lon="12.876184737849087"><ele>75.0</ele><time>2026-04-04T09:57:58Z</time></trkpt><trkpt lat="46.03934835996586" lon="12.876152904401248"><ele>75.0</ele><time>2026-04-04T09:57:59Z</time></trkpt><trkpt lat="46.039575746367014" lon="12.876120620541789"><ele>75.0</ele><time>2026-04-04T09:58:00Z</time></trkpt><trkpt lat="46.039798370202654" lon="12.87608642136647"><ele>75.33333333333333</ele><time>2026-04-04T09:58:01Z</time></trkpt><trkpt lat="46.04001805317837" lon="12.876054430196735"><ele>75.66666666666666</ele><time>2026-04-04T09:58:02Z</time></trkpt><trkpt lat="46.040243942385395" lon="12.876015972227325"><ele>76.0</ele><time>2026-04-04T09:58:03Z</time></trkpt><trkpt lat="46.04047215555143" lon="12.875990350026125"><ele>76.0</ele><time>2026-04-04T09:58:04Z</time></trkpt><trkpt lat="46.04069076796008" lon="12.875955166448506"><ele>76.0</ele><time>2026-04-04T09:58:05Z</time></trkpt><trkpt lat="46.0409095153725" lon="12.875919191423156"><ele>76.0</ele><time>2026-04-04T09:58:06Z</time></trkpt><trkpt lat="46.04112740730403" lon="12.87588065714522"><ele>76.0</ele><time>2026-04-04T09:58:07Z</time></trkpt><trkpt lat="46.04134652781846" lon="12.875848929344642"><ele>76.0</ele><time>2026-04-04T09:58:08Z</time></trkpt><trkpt lat="46.04156092513287" lon="12.875811195128932"><ele>76.0</ele><time>2026-04-04T09:58:09Z</time></trkpt><trkpt lat="46.04178241271724" lon="12.87577605471325"><ele>76.33333333333333</ele><time>2026-04-04T09:58:10Z</time></trkpt><trkpt lat="46.04199981563081" lon="12.875743625466502"><ele>76.66666666666667</ele><time>2026-04-04T09:58:11Z</time></trkpt><trkpt lat="46.042218562647015" lon="12.875712187737426"><ele>77.0</ele><time>2026-04-04T09:58:12Z</time></trkpt><trkpt lat="46.04243737751242" lon="12.875681430041137"><ele>77.66666666666667</ele><time>2026-04-04T09:58:13Z</time></trkpt><trkpt lat="46.04265686227617" lon="12.875650426985997"><ele>78.33333333333333</ele><time>2026-04-04T09:58:14Z</time></trkpt><trkpt lat="46.04287275933915" lon="12.875613222846747"><ele>79.0</ele><time>2026-04-04T09:58:15Z</time></trkpt><trkpt lat="46.04309026982868" lon="12.875575414764198"><ele>78.33333333333333</ele><time>2026-04-04T09:58:16Z</time></trkpt><trkpt lat="46.04331126328873" lon="12.87554199101985"><ele>77.66666666666667</ele><time>2026-04-04T09:58:17Z</time></trkpt><trkpt lat="46.04352295025213" lon="12.87551040793301"><ele>77.0</ele><time>2026-04-04T09:58:18Z</time></trkpt><trkpt lat="46.043734476657754" lon="12.875478247306061"><ele>77.0</ele><time>2026-04-04T09:58:19Z</time></trkpt><trkpt lat="46.04393873314229" lon="12.87545155728305"><ele>77.0</ele><time>2026-04-04T09:58:20Z</time></trkpt><trkpt lat="46.04414889417684" lon="12.87541679820976"><ele>77.0</ele><time>2026-04-04T09:58:21Z</time></trkpt><trkpt lat="46.0443539943499" lon="12.875384058255806"><ele>77.66666666666667</ele><time>2026-04-04T09:58:22Z</time></trkpt><trkpt lat="46.044551992536995" lon="12.8753497015915"><ele>78.33333333333333</ele><time>2026-04-04T09:58:23Z</time></trkpt><trkpt lat="46.04473342759316" lon="12.875322527391143"><ele>79.0</ele><time>2026-04-04T09:58:24Z</time></trkpt><trkpt lat="46.04491112367493" lon="12.875291484658089"><ele>79.66666666666666</ele><time>2026-04-04T09:58:25Z</time></trkpt><trkpt lat="46.04509255804962" lon="12.875255678532232"><ele>80.33333333333333</ele><time>2026-04-04T09:58:26Z</time></trkpt><trkpt lat="46.04528126831339" lon="12.875231835146613"><ele>81.0</ele><time>2026-04-04T09:58:27Z</time></trkpt><trkpt lat="46.04545744943421" lon="12.875203420174914"><ele>81.0</ele><time>2026-04-04T09:58:28Z</time></trkpt><trkpt lat="46.04563060859929" lon="12.875180896474687"><ele>81.0</ele><time>2026-04-04T09:58:29Z</time></trkpt><trkpt lat="46.0458042311535" lon="12.87515395592342"><ele>81.0</ele><time>2026-04-04T09:58:30Z</time></trkpt><trkpt lat="46.04597527264574" lon="12.875128180284971"><ele>81.0</ele><time>2026-04-04T09:58:31Z</time></trkpt><trkpt lat="46.04614957793836" lon="12.875101299794235"><ele>81.0</ele><time>2026-04-04T09:58:32Z</time></trkpt><trkpt lat="46.04632097913265" lon="12.875071882098792"><ele>81.0</ele><time>2026-04-04T09:58:33.001Z</time></trkpt><trkpt lat="46.04650580997152" lon="12.875043638817173"><ele>81.33333333333333</ele><time>2026-04-04T09:58:34.001Z</time></trkpt><trkpt lat="46.046700951988065" lon="12.875007311491967"><ele>81.66666666666666</ele><time>2026-04-04T09:58:35.001Z</time></trkpt><trkpt lat="46.04690043546393" lon="12.874978939113927"><ele>82.0</ele><time>2026-04-04T09:58:36.001Z</time></trkpt><trkpt lat="46.04710401373414" lon="12.874949484646065"><ele>82.0</ele><time>2026-04-04T09:58:37.001Z</time></trkpt><trkpt lat="46.047312655355825" lon="12.87492685988614"><ele>82.0</ele><time>2026-04-04T09:58:38.001Z</time></trkpt><trkpt lat="46.047528370739755" lon="12.874886843564427"><ele>82.0</ele><time>2026-04-04T09:58:39.001Z</time></trkpt><trkpt lat="46.04775487184624" lon="12.87485111909231"><ele>82.0</ele><time>2026-04-04T09:58:40.001Z</time></trkpt><trkpt lat="46.04797443952294" lon="12.87482097237637"><ele>82.0</ele><time>2026-04-04T09:58:41.001Z</time></trkpt><trkpt lat="46.04819841235785" lon="12.874780846376806"><ele>82.0</ele><time>2026-04-04T09:58:42.001Z</time></trkpt><trkpt lat="46.048421867717785" lon="12.874749395338567"><ele>81.66666666666666</ele><time>2026-04-04T09:58:43.001Z</time></trkpt><trkpt lat="46.048638542019944" lon="12.874704420888742"><ele>81.33333333333333</ele><time>2026-04-04T09:58:44.001Z</time></trkpt><trkpt lat="46.0488552390702" lon="12.8746457026427"><ele>81.0</ele><time>2026-04-04T09:58:45.001Z</time></trkpt><trkpt lat="46.049086182031026" lon="12.874643778493192"><ele>81.33333333333333</ele><time>2026-04-04T09:58:46.001Z</time></trkpt><trkpt lat="46.04930561114356" lon="12.87461265352007"><ele>81.66666666666666</ele><time>2026-04-04T09:58:47.001Z</time></trkpt><trkpt lat="46.049514475206436" lon="12.874583627564776"><ele>82.0</ele><time>2026-04-04T09:58:48.001Z</time></trkpt><trkpt lat="46.0497090224559" lon="12.874551918525716"><ele>82.0</ele><time>2026-04-04T09:58:49.001Z</time></trkpt><trkpt lat="46.04989650065271" lon="12.874521853852217"><ele>82.0</ele><time>2026-04-04T09:58:50.001Z</time></trkpt><trkpt lat="46.05008255267513" lon="12.87449214320657"><ele>82.0</ele><time>2026-04-04T09:58:51.001Z</time></trkpt><trkpt lat="46.05027433746812" lon="12.874472265513328"><ele>81.66666666666666</ele><time>2026-04-04T09:58:52.001Z</time></trkpt><trkpt lat="46.05045608085291" lon="12.87446677873633"><ele>81.33333333333333</ele><time>2026-04-04T09:58:53.001Z</time></trkpt><trkpt lat="46.05063082802119" lon="12.874473301186086"><ele>81.0</ele><time>2026-04-04T09:58:54.001Z</time></trkpt><trkpt lat="46.05080498217367" lon="12.874482785064474"><ele>81.66666666666667</ele><time>2026-04-04T09:58:55.001Z</time></trkpt><trkpt lat="46.050974994542685" lon="12.874503605036068"><ele>82.33333333333334</ele><time>2026-04-04T09:58:56.001Z</time></trkpt><trkpt lat="46.05114330946399" lon="12.874535419715189"><ele>83.0</ele><time>2026-04-04T09:58:57.001Z</time></trkpt><trkpt lat="46.05130617906147" lon="12.874573084654356"><ele>83.0</ele><time>2026-04-04T09:58:58.001Z</time></trkpt><trkpt lat="46.05147131220761" lon="12.874608870998385"><ele>83.0</ele><time>2026-04-04T09:58:59.001Z</time></trkpt><trkpt lat="46.051638479689366" lon="12.87465089392588"><ele>83.0</ele><time>2026-04-04T09:59:00.001Z</time></trkpt><trkpt lat="46.05182107685191" lon="12.874707178157275"><ele>83.33333333333334</ele><time>2026-04-04T09:59:01.001Z</time></trkpt><trkpt lat="46.05200049396064" lon="12.874786449322919"><ele>83.66666666666667</ele><time>2026-04-04T09:59:02.001Z</time></trkpt><trkpt lat="46.05218348166818" lon="12.874873140698277"><ele>84.0</ele><time>2026-04-04T09:59:03.001Z</time></trkpt><trkpt lat="46.052362858057386" lon="12.874969281860027"><ele>84.0</ele><time>2026-04-04T09:59:04.001Z</time></trkpt><trkpt lat="46.05254272640568" lon="12.87508095878355"><ele>84.0</ele><time>2026-04-04T09:59:05.001Z</time></trkpt><trkpt lat="46.052723968603296" lon="12.875199164780513"><ele>84.0</ele><time>2026-04-04T09:59:06.001Z</time></trkpt><trkpt lat="46.05289606713281" lon="12.875322375608654"><ele>84.0</ele><time>2026-04-04T09:59:07.001Z</time></trkpt><trkpt lat="46.0530671511982" lon="12.875446419233636"><ele>84.0</ele><time>2026-04-04T09:59:08.001Z</time></trkpt><trkpt lat="46.05325234671266" lon="12.875568248276712"><ele>84.0</ele><time>2026-04-04T09:59:09.001Z</time></trkpt><trkpt lat="46.05344386984013" lon="12.875695568023191"><ele>84.33333333333333</ele><time>2026-04-04T09:59:10.001Z</time></trkpt><trkpt lat="46.05363179088244" lon="12.875825379318977"><ele>84.66666666666666</ele><time>2026-04-04T09:59:11.001Z</time></trkpt><trkpt lat="46.053815430878814" lon="12.875971188509675"><ele>85.0</ele><time>2026-04-04T09:59:12.001Z</time></trkpt><trkpt lat="46.053998527201706" lon="12.876107950303664"><ele>85.33333333333333</ele><time>2026-04-04T09:59:13.001Z</time></trkpt><trkpt lat="46.05418088319578" lon="12.876241811194797"><ele>85.66666666666667</ele><time>2026-04-04T09:59:14.001Z</time></trkpt><trkpt lat="46.054360507155096" lon="12.87637479890903"><ele>86.0</ele><time>2026-04-04T09:59:15.001Z</time></trkpt><trkpt lat="46.054543761498415" lon="12.876505893322326"><ele>86.0</ele><time>2026-04-04T09:59:16.001Z</time></trkpt><trkpt lat="46.054725934177654" lon="12.876638741164427"><ele>86.0</ele><time>2026-04-04T09:59:17.001Z</time></trkpt><trkpt lat="46.05490798177645" lon="12.876770235098657"><ele>86.0</ele><time>2026-04-04T09:59:18.001Z</time></trkpt><trkpt lat="46.05509011195825" lon="12.87690373558263"><ele>86.0</ele><time>2026-04-04T09:59:19.001Z</time></trkpt><trkpt lat="46.05527099345041" lon="12.877035461805882"><ele>86.0</ele><time>2026-04-04T09:59:20.001Z</time></trkpt><trkpt lat="46.05545354209088" lon="12.877166910616946"><ele>86.0</ele><time>2026-04-04T09:59:21.001Z</time></trkpt><trkpt lat="46.055632708547826" lon="12.877299711986515"><ele>85.66666666666667</ele><time>2026-04-04T09:59:22.001Z</time></trkpt><trkpt lat="46.055818129600915" lon="12.877432610714862"><ele>85.33333333333333</ele><time>2026-04-04T09:59:23.001Z</time></trkpt><trkpt lat="46.056003412829895" lon="12.877565110556233"><ele>85.0</ele><time>2026-04-04T09:59:24.001Z</time></trkpt><trkpt lat="46.056187983084854" lon="12.877699483230765"><ele>85.0</ele><time>2026-04-04T09:59:25.001Z</time></trkpt><trkpt lat="46.056375189343754" lon="12.87783161503845"><ele>85.0</ele><time>2026-04-04T09:59:26.001Z</time></trkpt><trkpt lat="46.05656342888929" lon="12.877969678836855"><ele>85.0</ele><time>2026-04-04T09:59:27.001Z</time></trkpt><trkpt lat="46.056754038233606" lon="12.878106488094385"><ele>85.0</ele><time>2026-04-04T09:59:28.001Z</time></trkpt><trkpt lat="46.056945022030405" lon="12.878241559450231"><ele>85.0</ele><time>2026-04-04T09:59:29.001Z</time></trkpt><trkpt lat="46.05713381644849" lon="12.878377104525851"><ele>85.0</ele><time>2026-04-04T09:59:30.001Z</time></trkpt><trkpt lat="46.05732467415209" lon="12.878510953211796"><ele>85.0</ele><time>2026-04-04T09:59:31Z</time></trkpt><trkpt lat="46.05751156290963" lon="12.878648017339888"><ele>85.0</ele><time>2026-04-04T09:59:32Z</time></trkpt><trkpt lat="46.057701312402834" lon="12.878786597021028"><ele>85.0</ele><time>2026-04-04T09:59:33Z</time></trkpt><trkpt lat="46.05788746799886" lon="12.878916481838164"><ele>85.0</ele><time>2026-04-04T09:59:34Z</time></trkpt><trkpt lat="46.05806845965132" lon="12.87903809713032"><ele>85.0</ele><time>2026-04-04T09:59:35Z</time></trkpt><trkpt lat="46.058247211235155" lon="12.87915212591386"><ele>85.0</ele><time>2026-04-04T09:59:36Z</time></trkpt><trkpt lat="46.05842210048076" lon="12.879258180034434"><ele>85.66666666666666</ele><time>2026-04-04T09:59:37Z</time></trkpt><trkpt lat="46.05859034020388" lon="12.87936118646323"><ele>86.33333333333333</ele><time>2026-04-04T09:59:38Z</time></trkpt><trkpt lat="46.05875818142368" lon="12.879460349718405"><ele>87.0</ele><time>2026-04-04T09:59:39Z</time></trkpt><trkpt lat="46.05892794007356" lon="12.879557291212835"><ele>87.0</ele><time>2026-04-04T09:59:40Z</time></trkpt><trkpt lat="46.059096723239726" lon="12.879650617456743"><ele>87.0</ele><time>2026-04-04T09:59:41Z</time></trkpt><trkpt lat="46.05927133453426" lon="12.879742704108896"><ele>87.0</ele><time>2026-04-04T09:59:42Z</time></trkpt><trkpt lat="46.05944899156594" lon="12.879837802295956"><ele>87.0</ele><time>2026-04-04T09:59:43Z</time></trkpt><trkpt lat="46.05962934021407" lon="12.879934470544574"><ele>87.0</ele><time>2026-04-04T09:59:44Z</time></trkpt><trkpt lat="46.05981055037807" lon="12.880033726438828"><ele>87.0</ele><time>2026-04-04T09:59:45Z</time></trkpt><trkpt lat="46.059993186565784" lon="12.88013382279123"><ele>87.0</ele><time>2026-04-04T09:59:46Z</time></trkpt><trkpt lat="46.06017809655236" lon="12.880223296741406"><ele>87.0</ele><time>2026-04-04T09:59:47Z</time></trkpt><trkpt lat="46.060368375333894" lon="12.880317801679013"><ele>87.0</ele><time>2026-04-04T09:59:48Z</time></trkpt><trkpt lat="46.06056182597435" lon="12.880419763618145"><ele>87.0</ele><time>2026-04-04T09:59:49Z</time></trkpt><trkpt lat="46.06075504778417" lon="12.880519730207629"><ele>87.0</ele><time>2026-04-04T09:59:50Z</time></trkpt><trkpt lat="46.06094846042442" lon="12.880620233083786"><ele>87.0</ele><time>2026-04-04T09:59:51Z</time></trkpt><trkpt lat="46.06114224661148" lon="12.88072271404535"><ele>87.66666666666667</ele><time>2026-04-04T09:59:52Z</time></trkpt><trkpt lat="46.061336566467475" lon="12.88082097812342"><ele>88.33333333333334</ele><time>2026-04-04T09:59:53Z</time></trkpt><trkpt lat="46.06153097704946" lon="12.880921785791815"><ele>89.0</ele><time>2026-04-04T09:59:54Z</time></trkpt><trkpt lat="46.061712772300346" lon="12.881021254773646"><ele>89.33333333333334</ele><time>2026-04-04T09:59:55Z</time></trkpt><trkpt lat="46.061885220541456" lon="12.88111300242342"><ele>89.66666666666667</ele><time>2026-04-04T09:59:56Z</time></trkpt><trkpt lat="46.06205473887579" lon="12.881203397187955"><ele>90.0</ele><time>2026-04-04T09:59:57Z</time></trkpt><trkpt lat="46.062228455069786" lon="12.881291436223316"><ele>90.0</ele><time>2026-04-04T09:59:58Z</time></trkpt><trkpt lat="46.06240216133432" lon="12.881372668485737"><ele>90.0</ele><time>2026-04-04T09:59:59Z</time></trkpt><trkpt lat="46.062577009093694" lon="12.881465302895759"><ele>90.0</ele><time>2026-04-04T10:00:00Z</time></trkpt><trkpt lat="46.06276260976339" lon="12.881560328470464"><ele>90.0</ele><time>2026-04-04T10:00:01Z</time></trkpt><trkpt lat="46.062935662306934" lon="12.881660414834844"><ele>90.0</ele><time>2026-04-04T10:00:02Z</time></trkpt><trkpt lat="46.06311128458358" lon="12.881753113211424"><ele>90.0</ele><time>2026-04-04T10:00:03Z</time></trkpt><trkpt lat="46.063278877200666" lon="12.881840364885527"><ele>90.0</ele><time>2026-04-04T10:00:04Z</time></trkpt><trkpt lat="46.06343702844841" lon="12.881925832556842"><ele>90.0</ele><time>2026-04-04T10:00:05Z</time></trkpt><trkpt lat="46.06358833512071" lon="12.882003315345127"><ele>90.0</ele><time>2026-04-04T10:00:06Z</time></trkpt><trkpt lat="46.06373295080294" lon="12.882085577816987"><ele>90.0</ele><time>2026-04-04T10:00:07Z</time></trkpt><trkpt lat="46.063863571102786" lon="12.882153389243816"><ele>90.0</ele><time>2026-04-04T10:00:08Z</time></trkpt><trkpt lat="46.06398695457089" lon="12.882214004756074"><ele>90.0</ele><time>2026-04-04T10:00:09Z</time></trkpt><trkpt lat="46.064098744361395" lon="12.882280880495918"><ele>90.0</ele><time>2026-04-04T10:00:10Z</time></trkpt><trkpt lat="46.06419975635616" lon="12.882368800174016"><ele>90.0</ele><time>2026-04-04T10:00:11Z</time></trkpt><trkpt lat="46.064291406476926" lon="12.882487844706722"><ele>90.0</ele><time>2026-04-04T10:00:12Z</time></trkpt><trkpt lat="46.06437533398942" lon="12.88260652241595"><ele>90.0</ele><time>2026-04-04T10:00:13Z</time></trkpt><trkpt lat="46.06446499141246" lon="12.882729982164943"><ele>90.0</ele><time>2026-04-04T10:00:14Z</time></trkpt><trkpt lat="46.06454880607163" lon="12.882847389995318"><ele>90.5</ele><time>2026-04-04T10:00:15Z</time></trkpt><trkpt lat="46.06464417642824" lon="12.882956887813608"><ele>91.0</ele><time>2026-04-04T10:00:16Z</time></trkpt><trkpt lat="46.06473914314094" lon="12.883088872504288"><ele>91.5</ele><time>2026-04-04T10:00:17Z</time></trkpt><trkpt lat="46.06483217957634" lon="12.88325491227257"><ele>92.0</ele><time>2026-04-04T10:00:18Z</time></trkpt><trkpt lat="46.064935901893975" lon="12.883437494815755"><ele>92.66666666666667</ele><time>2026-04-04T10:00:19Z</time></trkpt><trkpt lat="46.065033939081026" lon="12.883642526404339"><ele>93.33333333333333</ele><time>2026-04-04T10:00:20Z</time></trkpt><trkpt lat="46.06513928491966" lon="12.883864525450123"><ele>94.0</ele><time>2026-04-04T10:00:21Z</time></trkpt><trkpt lat="46.065238481091775" lon="12.884090672662715"><ele>94.0</ele><time>2026-04-04T10:00:22Z</time></trkpt><trkpt lat="46.065334915545755" lon="12.884311346050854"><ele>94.0</ele><time>2026-04-04T10:00:23Z</time></trkpt><trkpt lat="46.06543936486197" lon="12.88452776506331"><ele>94.0</ele><time>2026-04-04T10:00:24Z</time></trkpt><trkpt lat="46.06554147841941" lon="12.884728594180393"><ele>94.0</ele><time>2026-04-04T10:00:25Z</time></trkpt><trkpt lat="46.06562767604281" lon="12.884922985316633"><ele>94.0</ele><time>2026-04-04T10:00:26Z</time></trkpt><trkpt lat="46.0657142717532" lon="12.885112796623003"><ele>94.0</ele><time>2026-04-04T10:00:27Z</time></trkpt><trkpt lat="46.065800428947284" lon="12.885295085786762"><ele>93.5</ele><time>2026-04-04T10:00:28Z</time></trkpt><trkpt lat="46.0658792849407" lon="12.885476969507735"><ele>93.0</ele><time>2026-04-04T10:00:29Z</time></trkpt><trkpt lat="46.06595301835352" lon="12.885655901565249"><ele>92.5</ele><time>2026-04-04T10:00:30Z</time></trkpt><trkpt lat="46.0660216447575" lon="12.885827018162907"><ele>92.0</ele><time>2026-04-04T10:00:31Z</time></trkpt><trkpt lat="46.066097227250324" lon="12.88599766341465"><ele>92.0</ele><time>2026-04-04T10:00:32Z</time></trkpt><trkpt lat="46.06617787024958" lon="12.886165755069676"><ele>92.0</ele><time>2026-04-04T10:00:33Z</time></trkpt><trkpt lat="46.066257064034936" lon="12.886331302769978"><ele>92.0</ele><time>2026-04-04T10:00:34Z</time></trkpt><trkpt lat="46.0663338739939" lon="12.886497591216688"><ele>92.0</ele><time>2026-04-04T10:00:35Z</time></trkpt><trkpt lat="46.06642001833576" lon="12.886666938244172"><ele>92.0</ele><time>2026-04-04T10:00:36Z</time></trkpt><trkpt lat="46.06651025191048" lon="12.886845648135871"><ele>92.0</ele><time>2026-04-04T10:00:37Z</time></trkpt><trkpt lat="46.06660017854615" lon="12.887018299076376"><ele>92.0</ele><time>2026-04-04T10:00:38Z</time></trkpt><trkpt lat="46.06671822244223" lon="12.88718943148881"><ele>92.0</ele><time>2026-04-04T10:00:39Z</time></trkpt><trkpt lat="46.066857415539175" lon="12.887366203862875"><ele>92.0</ele><time>2026-04-04T10:00:40Z</time></trkpt><trkpt lat="46.06699446474292" lon="12.887581859289618"><ele>92.0</ele><time>2026-04-04T10:00:41Z</time></trkpt><trkpt lat="46.06717075458561" lon="12.887746851291942"><ele>92.0</ele><time>2026-04-04T10:00:42Z</time></trkpt><trkpt lat="46.06734458085957" lon="12.887924973081784"><ele>92.0</ele><time>2026-04-04T10:00:43Z</time></trkpt><trkpt lat="46.06750361314199" lon="12.888120053268732"><ele>92.0</ele><time>2026-04-04T10:00:44Z</time></trkpt><trkpt lat="46.067672324289646" lon="12.888311837813015"><ele>92.0</ele><time>2026-04-04T10:00:45Z</time></trkpt><trkpt lat="46.06781800125842" lon="12.888539468822804"><ele>92.0</ele><time>2026-04-04T10:00:46Z</time></trkpt><trkpt lat="46.06795471588772" lon="12.888803961781917"><ele>92.0</ele><time>2026-04-04T10:00:47Z</time></trkpt><trkpt lat="46.06812395163084" lon="12.889016086157431"><ele>92.33333333333334</ele><time>2026-04-04T10:00:48Z</time></trkpt><trkpt lat="46.06828212758567" lon="12.889210882372101"><ele>92.66666666666667</ele><time>2026-04-04T10:00:49Z</time></trkpt><trkpt lat="46.06843779154098" lon="12.8894117752911"><ele>93.0</ele><time>2026-04-04T10:00:50Z</time></trkpt><trkpt lat="46.06859880009607" lon="12.889613335305333"><ele>93.0</ele><time>2026-04-04T10:00:51Z</time></trkpt><trkpt lat="46.068759091608975" lon="12.88981679728953"><ele>93.0</ele><time>2026-04-04T10:00:52Z</time></trkpt><trkpt lat="46.068919532618146" lon="12.890015241895812"><ele>93.0</ele><time>2026-04-04T10:00:53Z</time></trkpt><trkpt lat="46.06907856915046" lon="12.890209318799181"><ele>92.66666666666667</ele><time>2026-04-04T10:00:54Z</time></trkpt><trkpt lat="46.06923712818484" lon="12.890412462134753"><ele>92.33333333333334</ele><time>2026-04-04T10:00:55.001Z</time></trkpt><trkpt lat="46.06939785115497" lon="12.890605736565583"><ele>92.0</ele><time>2026-04-04T10:00:56.001Z</time></trkpt><trkpt lat="46.06955936693969" lon="12.890797749314938"><ele>92.0</ele><time>2026-04-04T10:00:57.001Z</time></trkpt><trkpt lat="46.0697130072992" lon="12.89099494630244"><ele>92.0</ele><time>2026-04-04T10:00:58.001Z</time></trkpt><trkpt lat="46.06987242451701" lon="12.891179987466153"><ele>92.0</ele><time>2026-04-04T10:00:59.001Z</time></trkpt><trkpt lat="46.070025549850385" lon="12.891377804992976"><ele>92.0</ele><time>2026-04-04T10:01:00.001Z</time></trkpt><trkpt lat="46.070181287268596" lon="12.891570062526066"><ele>92.0</ele><time>2026-04-04T10:01:01.001Z</time></trkpt><trkpt lat="46.07033579506541" lon="12.89176610557561"><ele>92.0</ele><time>2026-04-04T10:01:02.001Z</time></trkpt><trkpt lat="46.070488386091306" lon="12.891963293593138"><ele>91.66666666666667</ele><time>2026-04-04T10:01:03.001Z</time></trkpt><trkpt lat="46.07064371656264" lon="12.892159910060235"><ele>91.33333333333333</ele><time>2026-04-04T10:01:04.001Z</time></trkpt><trkpt lat="46.070797255168756" lon="12.89234847098853"><ele>91.0</ele><time>2026-04-04T10:01:05.001Z</time></trkpt><trkpt lat="46.07095613261151" lon="12.892526866551009"><ele>91.0</ele><time>2026-04-04T10:01:06.001Z</time></trkpt><trkpt lat="46.0711185517796" lon="12.892693292698546"><ele>91.0</ele><time>2026-04-04T10:01:07.001Z</time></trkpt><trkpt lat="46.07128065562522" lon="12.892852974944109"><ele>91.0</ele><time>2026-04-04T10:01:08.001Z</time></trkpt><trkpt lat="46.07143882013549" lon="12.893003001625866"><ele>91.0</ele><time>2026-04-04T10:01:09.001Z</time></trkpt><trkpt lat="46.07158360504783" lon="12.893142866255536"><ele>91.0</ele><time>2026-04-04T10:01:10.001Z</time></trkpt><trkpt lat="46.07172522943976" lon="12.893274772572749"><ele>91.0</ele><time>2026-04-04T10:01:11.001Z</time></trkpt><trkpt lat="46.07186033535888" lon="12.89339992193735"><ele>90.75</ele><time>2026-04-04T10:01:12.001Z</time></trkpt><trkpt lat="46.071985193102094" lon="12.893517065237061"><ele>90.5</ele><time>2026-04-04T10:01:13.001Z</time></trkpt><trkpt lat="46.072104423080184" lon="12.89362295340835"><ele>90.25</ele><time>2026-04-04T10:01:14.001Z</time></trkpt><trkpt lat="46.072227731064565" lon="12.893710072310606"><ele>90.0</ele><time>2026-04-04T10:01:15.001Z</time></trkpt><trkpt lat="46.072358108728324" lon="12.893786834040114"><ele>91.25</ele><time>2026-04-04T10:01:16.001Z</time></trkpt><trkpt lat="46.072490691199214" lon="12.893846944859677"><ele>92.5</ele><time>2026-04-04T10:01:17.001Z</time></trkpt><trkpt lat="46.072622839841394" lon="12.893926337963801"><ele>93.75</ele><time>2026-04-04T10:01:18.001Z</time></trkpt><trkpt lat="46.072735595381154" lon="12.894032317256647"><ele>95.0</ele><time>2026-04-04T10:01:19.001Z</time></trkpt><trkpt lat="46.072837897091524" lon="12.894164644555831"><ele>94.0</ele><time>2026-04-04T10:01:20.001Z</time></trkpt><trkpt lat="46.072929815777144" lon="12.89431451835145"><ele>93.0</ele><time>2026-04-04T10:01:21.001Z</time></trkpt><trkpt lat="46.07302076176677" lon="12.894443618927102"><ele>92.0</ele><time>2026-04-04T10:01:22.001Z</time></trkpt><trkpt lat="46.07312989146218" lon="12.894566649504197"><ele>91.0</ele><time>2026-04-04T10:01:23.001Z</time></trkpt><trkpt lat="46.07325817677613" lon="12.894684278043608"><ele>92.33333333333333</ele><time>2026-04-04T10:01:24.001Z</time></trkpt><trkpt lat="46.073394281770774" lon="12.894803066599836"><ele>93.66666666666667</ele><time>2026-04-04T10:01:25.001Z</time></trkpt><trkpt lat="46.07353195498528" lon="12.894927669833583"><ele>95.0</ele><time>2026-04-04T10:01:26.001Z</time></trkpt><trkpt lat="46.07366771321503" lon="12.895054461374828"><ele>93.66666666666667</ele><time>2026-04-04T10:01:27.001Z</time></trkpt><trkpt lat="46.0738044744906" lon="12.89518194257226"><ele>92.33333333333333</ele><time>2026-04-04T10:01:28.001Z</time></trkpt><trkpt lat="46.073937252760906" lon="12.89530780532576"><ele>91.0</ele><time>2026-04-04T10:01:29.001Z</time></trkpt><trkpt lat="46.074057870292464" lon="12.895419967370822"><ele>91.75</ele><time>2026-04-04T10:01:30.001Z</time></trkpt><trkpt lat="46.074165208269626" lon="12.895519300793612"><ele>92.5</ele><time>2026-04-04T10:01:31.001Z</time></trkpt><trkpt lat="46.074282710830964" lon="12.895629058361612"><ele>93.25</ele><time>2026-04-04T10:01:32.001Z</time></trkpt><trkpt lat="46.07441781758008" lon="12.895756116798584"><ele>94.0</ele><time>2026-04-04T10:01:33.001Z</time></trkpt><trkpt lat="46.07455516132197" lon="12.895886170717569"><ele>94.66666666666666</ele><time>2026-04-04T10:01:34.001Z</time></trkpt><trkpt lat="46.074696433003496" lon="12.896018033504818"><ele>95.33333333333333</ele><time>2026-04-04T10:01:35.001Z</time></trkpt><trkpt lat="46.07484038924474" lon="12.896151419029223"><ele>96.0</ele><time>2026-04-04T10:01:36.001Z</time></trkpt><trkpt lat="46.07498302168537" lon="12.896282140146662"><ele>96.0</ele><time>2026-04-04T10:01:37Z</time></trkpt><trkpt lat="46.07511495511832" lon="12.896406832754915"><ele>96.0</ele><time>2026-04-04T10:01:38Z</time></trkpt><trkpt lat="46.07524234387599" lon="12.896531359302715"><ele>96.0</ele><time>2026-04-04T10:01:39Z</time></trkpt><trkpt lat="46.07537316227691" lon="12.89665234574744"><ele>95.66666666666667</ele><time>2026-04-04T10:01:40Z</time></trkpt><trkpt lat="46.07550490049196" lon="12.896772738599301"><ele>95.33333333333334</ele><time>2026-04-04T10:01:41Z</time></trkpt><trkpt lat="46.07563992703222" lon="12.896900355076614"><ele>95.0</ele><time>2026-04-04T10:01:42Z</time></trkpt><trkpt lat="46.075777687150904" lon="12.897029018693841"><ele>95.0</ele><time>2026-04-04T10:01:43Z</time></trkpt><trkpt lat="46.075920222330026" lon="12.89715704624405"><ele>95.0</ele><time>2026-04-04T10:01:44Z</time></trkpt><trkpt lat="46.076058938331556" lon="12.89728666818288"><ele>95.0</ele><time>2026-04-04T10:01:45Z</time></trkpt><trkpt lat="46.0761899554777" lon="12.89741143503477"><ele>95.0</ele><time>2026-04-04T10:01:46Z</time></trkpt><trkpt lat="46.07631932176469" lon="12.897533584214019"><ele>95.0</ele><time>2026-04-04T10:01:47Z</time></trkpt><trkpt lat="46.07644331189647" lon="12.897652421075302"><ele>95.0</ele><time>2026-04-04T10:01:48Z</time></trkpt><trkpt lat="46.07656634841636" lon="12.897767736706484"><ele>95.0</ele><time>2026-04-04T10:01:49Z</time></trkpt><trkpt lat="46.076686392921175" lon="12.897879369660263"><ele>95.0</ele><time>2026-04-04T10:01:50Z</time></trkpt><trkpt lat="46.07680337709511" lon="12.897983852227153"><ele>95.0</ele><time>2026-04-04T10:01:51Z</time></trkpt><trkpt lat="46.07691764654626" lon="12.898082954900161"><ele>95.0</ele><time>2026-04-04T10:01:52Z</time></trkpt><trkpt lat="46.07705198641572" lon="12.89816910614037"><ele>95.0</ele><time>2026-04-04T10:01:53Z</time></trkpt><trkpt lat="46.077207818493775" lon="12.89824700009288"><ele>95.0</ele><time>2026-04-04T10:01:54Z</time></trkpt><trkpt lat="46.077388786833104" lon="12.898315818880853"><ele>95.0</ele><time>2026-04-04T10:01:55Z</time></trkpt><trkpt lat="46.0775884805152" lon="12.89838071125305"><ele>94.66666666666667</ele><time>2026-04-04T10:01:56Z</time></trkpt><trkpt lat="46.07778555529492" lon="12.898443170066436"><ele>94.33333333333333</ele><time>2026-04-04T10:01:57Z</time></trkpt><trkpt lat="46.07797992416629" lon="12.898506545991657"><ele>94.0</ele><time>2026-04-04T10:01:58Z</time></trkpt><trkpt lat="46.07817588664875" lon="12.898571730164093"><ele>94.66666666666666</ele><time>2026-04-04T10:01:59Z</time></trkpt><trkpt lat="46.078372661785124" lon="12.898636849422875"><ele>95.33333333333333</ele><time>2026-04-04T10:02:00Z</time></trkpt><trkpt lat="46.07856974562279" lon="12.898698905007828"><ele>96.0</ele><time>2026-04-04T10:02:01Z</time></trkpt><trkpt lat="46.07876693919818" lon="12.898760545412884"><ele>96.0</ele><time>2026-04-04T10:02:02Z</time></trkpt><trkpt lat="46.078959660913576" lon="12.898826195126505"><ele>96.0</ele><time>2026-04-04T10:02:03Z</time></trkpt><trkpt lat="46.079148643571784" lon="12.898888720430985"><ele>96.0</ele><time>2026-04-04T10:02:04Z</time></trkpt><trkpt lat="46.079329699428115" lon="12.898945155391745"><ele>98.0</ele><time>2026-04-04T10:02:05Z</time></trkpt><trkpt lat="46.07951018382219" lon="12.89899705108414"><ele>100.0</ele><time>2026-04-04T10:02:06Z</time></trkpt><trkpt lat="46.079690174111015" lon="12.899038888331424"><ele>102.0</ele><time>2026-04-04T10:02:07Z</time></trkpt><trkpt lat="46.079874704351205" lon="12.899071603509249"><ele>103.0</ele><time>2026-04-04T10:02:08Z</time></trkpt><trkpt lat="46.080059115037855" lon="12.89909595137787"><ele>104.0</ele><time>2026-04-04T10:02:09Z</time></trkpt><trkpt lat="46.08025026069791" lon="12.89911660324091"><ele>105.0</ele><time>2026-04-04T10:02:10Z</time></trkpt><trkpt lat="46.08044660762078" lon="12.899138403617108"><ele>105.0</ele><time>2026-04-04T10:02:11Z</time></trkpt><trkpt lat="46.080642412217756" lon="12.899162235994748"><ele>105.0</ele><time>2026-04-04T10:02:12Z</time></trkpt><trkpt lat="46.08084194860616" lon="12.89918348053587"><ele>105.0</ele><time>2026-04-04T10:02:13Z</time></trkpt><trkpt lat="46.08103552020014" lon="12.899206063560431"><ele>105.66666666666666</ele><time>2026-04-04T10:02:14Z</time></trkpt><trkpt lat="46.08121611525493" lon="12.899223373117788"><ele>106.33333333333333</ele><time>2026-04-04T10:02:15Z</time></trkpt><trkpt lat="46.08139171654923" lon="12.899242091788135"><ele>107.0</ele><time>2026-04-04T10:02:16Z</time></trkpt><trkpt lat="46.08157244690094" lon="12.899259750657828"><ele>107.66666666666666</ele><time>2026-04-04T10:02:17Z</time></trkpt><trkpt lat="46.08175719897759" lon="12.89927738508861"><ele>108.33333333333334</ele><time>2026-04-04T10:02:18Z</time></trkpt><trkpt lat="46.08194203111222" lon="12.899297791133383"><ele>109.0</ele><time>2026-04-04T10:02:19Z</time></trkpt><trkpt lat="46.08212748808019" lon="12.899317427121083"><ele>109.0</ele><time>2026-04-04T10:02:20Z</time></trkpt><trkpt lat="46.082314511551274" lon="12.899340605673261"><ele>109.0</ele><time>2026-04-04T10:02:21Z</time></trkpt><trkpt lat="46.08250130188143" lon="12.899363365525122"><ele>109.0</ele><time>2026-04-04T10:02:22Z</time></trkpt><trkpt lat="46.08268847074626" lon="12.899387275717102"><ele>109.33333333333334</ele><time>2026-04-04T10:02:23Z</time></trkpt><trkpt lat="46.08287608614274" lon="12.899417985918406"><ele>109.66666666666666</ele><time>2026-04-04T10:02:24Z</time></trkpt><trkpt lat="46.08306437645019" lon="12.899454271328668"><ele>110.0</ele><time>2026-04-04T10:02:25Z</time></trkpt><trkpt lat="46.083251612524734" lon="12.899498821406475"><ele>110.33333333333333</ele><time>2026-04-04T10:02:26Z</time></trkpt><trkpt lat="46.083437631716485" lon="12.899547857931715"><ele>110.66666666666666</ele><time>2026-04-04T10:02:27Z</time></trkpt><trkpt lat="46.08362104416031" lon="12.899594078545826"><ele>111.0</ele><time>2026-04-04T10:02:28Z</time></trkpt><trkpt lat="46.08380304836399" lon="12.899641877600214"><ele>111.0</ele><time>2026-04-04T10:02:29Z</time></trkpt><trkpt lat="46.08397968171847" lon="12.899689824401651"><ele>111.0</ele><time>2026-04-04T10:02:30Z</time></trkpt><trkpt lat="46.0841533938479" lon="12.899733740168095"><ele>111.0</ele><time>2026-04-04T10:02:31Z</time></trkpt><trkpt lat="46.084327284355204" lon="12.89977508120826"><ele>111.0</ele><time>2026-04-04T10:02:32Z</time></trkpt><trkpt lat="46.08450916630552" lon="12.899811396833536"><ele>111.0</ele><time>2026-04-04T10:02:33Z</time></trkpt><trkpt lat="46.084696823409494" lon="12.89983542622242"><ele>111.0</ele><time>2026-04-04T10:02:34Z</time></trkpt><trkpt lat="46.08489076025007" lon="12.899851336215846"><ele>111.0</ele><time>2026-04-04T10:02:35Z</time></trkpt><trkpt lat="46.08508718399417" lon="12.899856200981233"><ele>111.0</ele><time>2026-04-04T10:02:36Z</time></trkpt><trkpt lat="46.08528468121171" lon="12.899851245839713"><ele>111.0</ele><time>2026-04-04T10:02:37Z</time></trkpt><trkpt lat="46.08547820760502" lon="12.899844790733379"><ele>111.0</ele><time>2026-04-04T10:02:38Z</time></trkpt><trkpt lat="46.085670683611646" lon="12.899839265072316"><ele>111.0</ele><time>2026-04-04T10:02:39Z</time></trkpt><trkpt lat="46.08585953226774" lon="12.899830647320986"><ele>111.0</ele><time>2026-04-04T10:02:40Z</time></trkpt><trkpt lat="46.086052965302656" lon="12.899823852894444"><ele>111.0</ele><time>2026-04-04T10:02:41Z</time></trkpt><trkpt lat="46.086246863324625" lon="12.899817939172463"><ele>111.0</ele><time>2026-04-04T10:02:42Z</time></trkpt><trkpt lat="46.0864402625373" lon="12.899817371395283"><ele>111.0</ele><time>2026-04-04T10:02:43Z</time></trkpt><trkpt lat="46.08663231212806" lon="12.899812902995578"><ele>110.66666666666666</ele><time>2026-04-04T10:02:44Z</time></trkpt><trkpt lat="46.086824841098284" lon="12.899807914592888"><ele>110.33333333333333</ele><time>2026-04-04T10:02:45Z</time></trkpt><trkpt lat="46.08701759787456" lon="12.899810702618842"><ele>110.0</ele><time>2026-04-04T10:02:46Z</time></trkpt><trkpt lat="46.087208896822695" lon="12.899820169227116"><ele>110.0</ele><time>2026-04-04T10:02:47Z</time></trkpt><trkpt lat="46.0873990836733" lon="12.899839116201207"><ele>110.0</ele><time>2026-04-04T10:02:48Z</time></trkpt><trkpt lat="46.08758807753288" lon="12.899874538433338"><ele>110.0</ele><time>2026-04-04T10:02:49Z</time></trkpt><trkpt lat="46.087781558565666" lon="12.899921643924914"><ele>110.66666666666666</ele><time>2026-04-04T10:02:50Z</time></trkpt><trkpt lat="46.08797685842951" lon="12.899979996286623"><ele>111.33333333333334</ele><time>2026-04-04T10:02:51Z</time></trkpt><trkpt lat="46.08817256542967" lon="12.900047361091785"><ele>112.0</ele><time>2026-04-04T10:02:52Z</time></trkpt><trkpt lat="46.08835852658122" lon="12.900120791068762"><ele>112.66666666666667</ele><time>2026-04-04T10:02:53Z</time></trkpt><trkpt lat="46.08853980284829" lon="12.900202569608702"><ele>113.33333333333334</ele><time>2026-04-04T10:02:54Z</time></trkpt><trkpt lat="46.08872079494352" lon="12.90028790362732"><ele>114.0</ele><time>2026-04-04T10:02:55Z</time></trkpt><trkpt lat="46.088899106928466" lon="12.900374238727881"><ele>114.0</ele><time>2026-04-04T10:02:56Z</time></trkpt><trkpt lat="46.089076226103096" lon="12.900461779124456"><ele>114.0</ele><time>2026-04-04T10:02:57Z</time></trkpt><trkpt lat="46.08925292497334" lon="12.900557601795565"><ele>114.0</ele><time>2026-04-04T10:02:58Z</time></trkpt><trkpt lat="46.089426857687016" lon="12.90064896687046"><ele>114.0</ele><time>2026-04-04T10:02:59Z</time></trkpt><trkpt lat="46.08959678734628" lon="12.90073982302428"><ele>114.0</ele><time>2026-04-04T10:03:00Z</time></trkpt><trkpt lat="46.089762382310624" lon="12.90082058915158"><ele>114.0</ele><time>2026-04-04T10:03:01Z</time></trkpt><trkpt lat="46.08992303662904" lon="12.900892584285593"><ele>114.25</ele><time>2026-04-04T10:03:02Z</time></trkpt><trkpt lat="46.090071192772115" lon="12.900962146993347"><ele>114.5</ele><time>2026-04-04T10:03:03Z</time></trkpt><trkpt lat="46.09021585054942" lon="12.901024173105244"><ele>114.75</ele><time>2026-04-04T10:03:04Z</time></trkpt><trkpt lat="46.09035136917598" lon="12.901075871917788"><ele>115.0</ele><time>2026-04-04T10:03:05Z</time></trkpt><trkpt lat="46.090477134305274" lon="12.901121629064669"><ele>115.0</ele><time>2026-04-04T10:03:06Z</time></trkpt><trkpt lat="46.09060140476715" lon="12.901159212224655"><ele>115.0</ele><time>2026-04-04T10:03:07Z</time></trkpt><trkpt lat="46.09072539854643" lon="12.90120507007188"><ele>115.0</ele><time>2026-04-04T10:03:08Z</time></trkpt><trkpt lat="46.09084166365704" lon="12.901235261165802"><ele>115.0</ele><time>2026-04-04T10:03:09Z</time></trkpt><trkpt lat="46.090969858392725" lon="12.901260102997979"><ele>114.66666666666667</ele><time>2026-04-04T10:03:10Z</time></trkpt><trkpt lat="46.09113900565592" lon="12.901267617865242"><ele>114.33333333333334</ele><time>2026-04-04T10:03:11Z</time></trkpt><trkpt lat="46.09129009850876" lon="12.90129305213785"><ele>114.0</ele><time>2026-04-04T10:03:12Z</time></trkpt><trkpt lat="46.091448441983204" lon="12.901317250936819"><ele>114.33333333333334</ele><time>2026-04-04T10:03:13Z</time></trkpt><trkpt lat="46.09160494760642" lon="12.901344264061885"><ele>114.66666666666667</ele><time>2026-04-04T10:03:14Z</time></trkpt><trkpt lat="46.09176508786666" lon="12.901364113585924"><ele>115.0</ele><time>2026-04-04T10:03:15Z</time></trkpt><trkpt lat="46.09192745336584" lon="12.901381225780263"><ele>115.0</ele><time>2026-04-04T10:03:16Z</time></trkpt><trkpt lat="46.09208618970811" lon="12.901401644841227"><ele>115.0</ele><time>2026-04-04T10:03:17Z</time></trkpt><trkpt lat="46.0922459735885" lon="12.90142409544772"><ele>115.0</ele><time>2026-04-04T10:03:18Z</time></trkpt><trkpt lat="46.09241169266946" lon="12.901445551868298"><ele>115.66666666666667</ele><time>2026-04-04T10:03:19Z</time></trkpt><trkpt lat="46.09258098721965" lon="12.901470505004843"><ele>116.33333333333334</ele><time>2026-04-04T10:03:20Z</time></trkpt><trkpt lat="46.09274150161045" lon="12.901494964965138"><ele>117.0</ele><time>2026-04-04T10:03:21Z</time></trkpt><trkpt lat="46.09289856199275" lon="12.901517251419907"><ele>117.0</ele><time>2026-04-04T10:03:22Z</time></trkpt><trkpt lat="46.09305325252847" lon="12.901546039182538"><ele>117.0</ele><time>2026-04-04T10:03:23Z</time></trkpt><trkpt lat="46.09321190402163" lon="12.901569739892354"><ele>117.0</ele><time>2026-04-04T10:03:24Z</time></trkpt><trkpt lat="46.09335744254943" lon="12.901589635761983"><ele>117.33333333333334</ele><time>2026-04-04T10:03:25Z</time></trkpt><trkpt lat="46.09350659429717" lon="12.901607658677891"><ele>117.66666666666667</ele><time>2026-04-04T10:03:26Z</time></trkpt><trkpt lat="46.09365511706043" lon="12.901606061256038"><ele>118.0</ele><time>2026-04-04T10:03:27Z</time></trkpt><trkpt lat="46.093808169773844" lon="12.901580433397369"><ele>118.0</ele><time>2026-04-04T10:03:28Z</time></trkpt><trkpt lat="46.09395921084018" lon="12.901531998398879"><ele>118.0</ele><time>2026-04-04T10:03:29Z</time></trkpt><trkpt lat="46.09411890092494" lon="12.901462484156767"><ele>118.0</ele><time>2026-04-04T10:03:30Z</time></trkpt><trkpt lat="46.09427321088618" lon="12.901378896322065"><ele>118.0</ele><time>2026-04-04T10:03:31Z</time></trkpt><trkpt lat="46.094424328208675" lon="12.9012851955302"><ele>118.0</ele><time>2026-04-04T10:03:32Z</time></trkpt><trkpt lat="46.09457681830017" lon="12.901187157375817"><ele>118.0</ele><time>2026-04-04T10:03:33Z</time></trkpt><trkpt lat="46.09471117148078" lon="12.901094463497643"><ele>118.0</ele><time>2026-04-04T10:03:34Z</time></trkpt><trkpt lat="46.09483804051622" lon="12.90102277072996"><ele>118.0</ele><time>2026-04-04T10:03:35Z</time></trkpt><trkpt lat="46.094978309706015" lon="12.900964471617144"><ele>118.0</ele><time>2026-04-04T10:03:36Z</time></trkpt><trkpt lat="46.095119379259344" lon="12.900885372848506"><ele>118.0</ele><time>2026-04-04T10:03:37Z</time></trkpt><trkpt lat="46.095296707943525" lon="12.900855942051379"><ele>118.0</ele><time>2026-04-04T10:03:38Z</time></trkpt><trkpt lat="46.09547077929262" lon="12.900833926506092"><ele>118.0</ele><time>2026-04-04T10:03:39Z</time></trkpt><trkpt lat="46.095643139165816" lon="12.900813752850487"><ele>118.0</ele><time>2026-04-04T10:03:40Z</time></trkpt><trkpt lat="46.0958122453032" lon="12.90080232278902"><ele>118.0</ele><time>2026-04-04T10:03:41Z</time></trkpt><trkpt lat="46.09596934546549" lon="12.900800010927115"><ele>118.0</ele><time>2026-04-04T10:03:42Z</time></trkpt><trkpt lat="46.09611613640145" lon="12.900795097943993"><ele>118.0</ele><time>2026-04-04T10:03:43Z</time></trkpt><trkpt lat="46.09627506593767" lon="12.900783469584443"><ele>118.0</ele><time>2026-04-04T10:03:44Z</time></trkpt><trkpt lat="46.09644144728067" lon="12.900768340599063"><ele>118.0</ele><time>2026-04-04T10:03:45Z</time></trkpt><trkpt lat="46.0966100765865" lon="12.900764545671313"><ele>118.0</ele><time>2026-04-04T10:03:46Z</time></trkpt><trkpt lat="46.0967827889015" lon="12.900759709432181"><ele>118.33333333333334</ele><time>2026-04-04T10:03:47Z</time></trkpt><trkpt lat="46.09695912913482" lon="12.900753624612237"><ele>118.66666666666666</ele><time>2026-04-04T10:03:48Z</time></trkpt><trkpt lat="46.09713461242886" lon="12.900739073454343"><ele>119.0</ele><time>2026-04-04T10:03:49Z</time></trkpt><trkpt lat="46.09731337573387" lon="12.900730086814393"><ele>119.33333333333333</ele><time>2026-04-04T10:03:50Z</time></trkpt><trkpt lat="46.097491491589146" lon="12.900721642172998"><ele>119.66666666666666</ele><time>2026-04-04T10:03:51Z</time></trkpt><trkpt lat="46.097675245513" lon="12.900716515352874"><ele>120.0</ele><time>2026-04-04T10:03:52Z</time></trkpt><trkpt lat="46.097860172502195" lon="12.90070541168228"><ele>120.0</ele><time>2026-04-04T10:03:53Z</time></trkpt><trkpt lat="46.098041314354724" lon="12.900688530935819"><ele>120.0</ele><time>2026-04-04T10:03:54Z</time></trkpt><trkpt lat="46.098230143975016" lon="12.90067698127912"><ele>120.0</ele><time>2026-04-04T10:03:55Z</time></trkpt><trkpt lat="46.09842084080612" lon="12.90067023983381"><ele>119.66666666666666</ele><time>2026-04-04T10:03:56Z</time></trkpt><trkpt lat="46.098613921217364" lon="12.900657188984773"><ele>119.33333333333333</ele><time>2026-04-04T10:03:57Z</time></trkpt><trkpt lat="46.09880865418734" lon="12.900644613826701"><ele>119.0</ele><time>2026-04-04T10:03:58Z</time></trkpt><trkpt lat="46.09899649356334" lon="12.900634805678136"><ele>119.33333333333333</ele><time>2026-04-04T10:03:59Z</time></trkpt><trkpt lat="46.0991798545446" lon="12.900628587557035"><ele>119.66666666666666</ele><time>2026-04-04T10:04:00Z</time></trkpt><trkpt lat="46.0993679163383" lon="12.900615858005521"><ele>120.0</ele><time>2026-04-04T10:04:01Z</time></trkpt><trkpt lat="46.0995471564093" lon="12.9006023230545"><ele>120.0</ele><time>2026-04-04T10:04:02Z</time></trkpt><trkpt lat="46.09971897343934" lon="12.900593757471482"><ele>120.0</ele><time>2026-04-04T10:04:03Z</time></trkpt><trkpt lat="46.09989449456278" lon="12.900582148063114"><ele>120.0</ele><time>2026-04-04T10:04:04Z</time></trkpt><trkpt lat="46.10005822357007" lon="12.900577579147946"><ele>120.66666666666666</ele><time>2026-04-04T10:04:05Z</time></trkpt><trkpt lat="46.10023261449005" lon="12.900569264170977"><ele>121.33333333333333</ele><time>2026-04-04T10:04:06Z</time></trkpt><trkpt lat="46.10039318708785" lon="12.900574953705263"><ele>122.0</ele><time>2026-04-04T10:04:07Z</time></trkpt><trkpt lat="46.10058145035427" lon="12.900553930648712"><ele>122.0</ele><time>2026-04-04T10:04:08Z</time></trkpt><trkpt lat="46.10075907073814" lon="12.900540653743784"><ele>122.0</ele><time>2026-04-04T10:04:09Z</time></trkpt><trkpt lat="46.10092277212975" lon="12.900527137362454"><ele>122.0</ele><time>2026-04-04T10:04:10Z</time></trkpt><trkpt lat="46.10107773644025" lon="12.90051561271228"><ele>122.0</ele><time>2026-04-04T10:04:11Z</time></trkpt><trkpt lat="46.10122907579619" lon="12.90051015913581"><ele>122.0</ele><time>2026-04-04T10:04:12Z</time></trkpt><trkpt lat="46.10137764112153" lon="12.90050136534098"><ele>122.0</ele><time>2026-04-04T10:04:13Z</time></trkpt><trkpt lat="46.101529146984475" lon="12.900492220473009"><ele>122.33333333333333</ele><time>2026-04-04T10:04:14Z</time></trkpt><trkpt lat="46.101682893830166" lon="12.900492523400557"><ele>122.66666666666666</ele><time>2026-04-04T10:04:15Z</time></trkpt><trkpt lat="46.10183621598239" lon="12.900479178903945"><ele>123.0</ele><time>2026-04-04T10:04:16Z</time></trkpt><trkpt lat="46.10198818114494" lon="12.900474059867658"><ele>123.0</ele><time>2026-04-04T10:04:17Z</time></trkpt><trkpt lat="46.10213665569774" lon="12.900473638463454"><ele>123.0</ele><time>2026-04-04T10:04:18Z</time></trkpt><trkpt lat="46.10228499326599" lon="12.900459023266489"><ele>123.0</ele><time>2026-04-04T10:04:19Z</time></trkpt><trkpt lat="46.10242975084238" lon="12.900442770652989"><ele>123.0</ele><time>2026-04-04T10:04:20Z</time></trkpt><trkpt lat="46.10256190292281" lon="12.900431770647135"><ele>122.75</ele><time>2026-04-04T10:04:21Z</time></trkpt><trkpt lat="46.102695162627434" lon="12.90042247371069"><ele>122.5</ele><time>2026-04-04T10:04:22Z</time></trkpt><trkpt lat="46.102828565897056" lon="12.900418172709331"><ele>122.25</ele><time>2026-04-04T10:04:23Z</time></trkpt><trkpt lat="46.102953776045304" lon="12.900416726266817"><ele>122.0</ele><time>2026-04-04T10:04:24Z</time></trkpt><trkpt lat="46.10306775200667" lon="12.900414123499619"><ele>121.99999999999999</ele><time>2026-04-04T10:04:25Z</time></trkpt><trkpt lat="46.103172756648014" lon="12.900409654162262"><ele>122.0</ele><time>2026-04-04T10:04:26Z</time></trkpt><trkpt lat="46.103258719811684" lon="12.900407162748992"><ele>122.0</ele><time>2026-04-04T10:04:27Z</time></trkpt><trkpt lat="46.103323851298846" lon="12.900401186141783"><ele>122.0</ele><time>2026-04-04T10:04:28Z</time></trkpt><trkpt lat="46.103414453872354" lon="12.900394245584785"><ele>121.99999999999999</ele><time>2026-04-04T10:04:30Z</time></trkpt><trkpt lat="46.103503324045924" lon="12.90040331882833"><ele>122.0</ele><time>2026-04-04T10:04:44Z</time></trkpt><trkpt lat="46.1035697527888" lon="12.900403326518067"><ele>122.33333333333333</ele><time>2026-04-04T10:04:45Z</time></trkpt><trkpt lat="46.103637389041815" lon="12.900382777582564"><ele>122.66666666666666</ele><time>2026-04-04T10:04:48Z</time></trkpt><trkpt lat="46.10371752476687" lon="12.900405715208977"><ele>123.0</ele><time>2026-04-04T10:05:54Z</time></trkpt><trkpt lat="46.10378868648626" lon="12.900426939291107"><ele>123.33333333333334</ele><time>2026-04-04T10:05:57Z</time></trkpt><trkpt lat="46.10387023413153" lon="12.900450279426767"><ele>123.66666666666667</ele><time>2026-04-04T10:05:59Z</time></trkpt><trkpt lat="46.10398170846392" lon="12.90043358889655"><ele>124.0</ele><time>2026-04-04T10:06:01Z</time></trkpt><trkpt lat="46.104037045426956" lon="12.900382664259961"><ele>124.28571428571429</ele><time>2026-04-04T10:06:02Z</time></trkpt><trkpt lat="46.104102817470185" lon="12.900385096052501"><ele>124.57142857142858</ele><time>2026-04-04T10:06:03Z</time></trkpt><trkpt lat="46.10417151388292" lon="12.900357296236715"><ele>124.85714285714286</ele><time>2026-04-04T10:06:04Z</time></trkpt><trkpt lat="46.10424048930821" lon="12.900329480127237"><ele>125.14285714285714</ele><time>2026-04-04T10:06:05Z</time></trkpt><trkpt lat="46.104314064237506" lon="12.900304243405417"><ele>125.42857142857143</ele><time>2026-04-04T10:06:06Z</time></trkpt><trkpt lat="46.104389728442946" lon="12.900277957656497"><ele>125.71428571428572</ele><time>2026-04-04T10:06:07Z</time></trkpt><trkpt lat="46.10446958413521" lon="12.900245037850846"><ele>126.0</ele><time>2026-04-04T10:06:08Z</time></trkpt><trkpt lat="46.10454944411144" lon="12.900219090892547"><ele>126.0</ele><time>2026-04-04T10:06:09Z</time></trkpt><trkpt lat="46.10462464702559" lon="12.900176464870926"><ele>126.0</ele><time>2026-04-04T10:06:10Z</time></trkpt><trkpt lat="46.104707658050216" lon="12.90015142867995"><ele>126.0</ele><time>2026-04-04T10:06:11Z</time></trkpt><trkpt lat="46.10479437298998" lon="12.900113261253182"><ele>126.0</ele><time>2026-04-04T10:06:12Z</time></trkpt><trkpt lat="46.10488969808463" lon="12.900071304942921"><ele>126.0</ele><time>2026-04-04T10:06:13Z</time></trkpt><trkpt lat="46.104989841857474" lon="12.900031346706456"><ele>125.75</ele><time>2026-04-04T10:06:14Z</time></trkpt><trkpt lat="46.105092898938274" lon="12.900018993406691"><ele>125.5</ele><time>2026-04-04T10:06:15Z</time></trkpt><trkpt lat="46.105207390412495" lon="12.900017099591196"><ele>125.25</ele><time>2026-04-04T10:06:16Z</time></trkpt><trkpt lat="46.10532694220726" lon="12.899977676273"><ele>125.0</ele><time>2026-04-04T10:06:17Z</time></trkpt><trkpt lat="46.105449155008635" lon="12.899955181116775"><ele>125.0</ele><time>2026-04-04T10:06:18Z</time></trkpt><trkpt lat="46.10557491075019" lon="12.89993037756509"><ele>125.0</ele><time>2026-04-04T10:06:19Z</time></trkpt><trkpt lat="46.105705143975655" lon="12.899911616601134"><ele>125.0</ele><time>2026-04-04T10:06:20Z</time></trkpt><trkpt lat="46.105839086452306" lon="12.899889745970842"><ele>125.0</ele><time>2026-04-04T10:06:21Z</time></trkpt><trkpt lat="46.10597566828965" lon="12.899868188872468"><ele>125.0</ele><time>2026-04-04T10:06:22Z</time></trkpt><trkpt lat="46.106117877739216" lon="12.89984720673925"><ele>125.0</ele><time>2026-04-04T10:06:23Z</time></trkpt><trkpt lat="46.10626531712699" lon="12.899824674877962"><ele>125.0</ele><time>2026-04-04T10:06:24Z</time></trkpt><trkpt lat="46.10641214589503" lon="12.899800444229387"><ele>125.0</ele><time>2026-04-04T10:06:25Z</time></trkpt><trkpt lat="46.106552125848" lon="12.899769914984596"><ele>125.5</ele><time>2026-04-04T10:06:26Z</time></trkpt><trkpt lat="46.10669277697466" lon="12.899753529285643"><ele>126.0</ele><time>2026-04-04T10:06:27Z</time></trkpt><trkpt lat="46.10682596429493" lon="12.899730578063618"><ele>126.5</ele><time>2026-04-04T10:06:28Z</time></trkpt><trkpt lat="46.106958162398854" lon="12.899709067596396"><ele>127.0</ele><time>2026-04-04T10:06:29Z</time></trkpt><trkpt lat="46.10709443599784" lon="12.899694103424654"><ele>127.0</ele><time>2026-04-04T10:06:30Z</time></trkpt><trkpt lat="46.10723088751018" lon="12.899684449141864"><ele>127.0</ele><time>2026-04-04T10:06:31Z</time></trkpt><trkpt lat="46.10735688437203" lon="12.899673537083114"><ele>127.0</ele><time>2026-04-04T10:06:32Z</time></trkpt><trkpt lat="46.10746563875436" lon="12.899674705791027"><ele>127.0</ele><time>2026-04-04T10:06:33Z</time></trkpt><trkpt lat="46.10755809220255" lon="12.899678962584172"><ele>127.33333333333334</ele><time>2026-04-04T10:06:34Z</time></trkpt><trkpt lat="46.107636504757" lon="12.899674558617582"><ele>127.66666666666667</ele><time>2026-04-04T10:06:35Z</time></trkpt><trkpt lat="46.10773319098241" lon="12.89970295831463"><ele>128.0</ele><time>2026-04-04T10:06:37Z</time></trkpt><trkpt lat="46.10781289651115" lon="12.899705914165844"><ele>128.33333333333334</ele><time>2026-04-04T10:06:40Z</time></trkpt><trkpt lat="46.107884810167455" lon="12.899699972262166"><ele>128.66666666666666</ele><time>2026-04-04T10:07:30Z</time></trkpt><trkpt lat="46.10798563172794" lon="12.899719358934414"><ele>129.0</ele><time>2026-04-04T10:07:32Z</time></trkpt><trkpt lat="46.10806261286508" lon="12.899731414113484"><ele>129.0</ele><time>2026-04-04T10:07:33Z</time></trkpt><trkpt lat="46.10814778765807" lon="12.899752536216685"><ele>129.0</ele><time>2026-04-04T10:07:34Z</time></trkpt><trkpt lat="46.10824695633339" lon="12.89977668679464"><ele>129.0</ele><time>2026-04-04T10:07:35Z</time></trkpt><trkpt lat="46.10835206791284" lon="12.899796312260172"><ele>129.0</ele><time>2026-04-04T10:07:36Z</time></trkpt><trkpt lat="46.10844676090407" lon="12.899814167545404"><ele>129.0</ele><time>2026-04-04T10:07:37Z</time></trkpt><trkpt lat="46.1085391266225" lon="12.899839194632973"><ele>129.16666666666666</ele><time>2026-04-04T10:07:38.001Z</time></trkpt><trkpt lat="46.10862129550059" lon="12.899855646342294"><ele>129.33333333333334</ele><time>2026-04-04T10:07:39.001Z</time></trkpt><trkpt lat="46.10869601630855" lon="12.899875960480125"><ele>129.5</ele><time>2026-04-04T10:07:40.001Z</time></trkpt><trkpt lat="46.10876793614772" lon="12.899894256376836"><ele>129.66666666666669</ele><time>2026-04-04T10:07:41.001Z</time></trkpt><trkpt lat="46.108834141293784" lon="12.899906770617598"><ele>129.83333333333334</ele><time>2026-04-04T10:07:42.001Z</time></trkpt><trkpt lat="46.10890221701351" lon="12.899921301037427"><ele>130.0</ele><time>2026-04-04T10:07:43.001Z</time></trkpt><trkpt lat="46.10902055686113" lon="12.899943211965006"><ele>130.0</ele><time>2026-04-04T10:07:45.001Z</time></trkpt><trkpt lat="46.10909461265828" lon="12.899978792903177"><ele>130.0</ele><time>2026-04-04T10:07:47.001Z</time></trkpt><trkpt lat="46.109173266205055" lon="12.900002921222306"><ele>130.0</ele><time>2026-04-04T10:07:51.001Z</time></trkpt><trkpt lat="46.10924310155515" lon="12.900024553223373"><ele>130.0</ele><time>2026-04-04T10:07:55Z</time></trkpt><trkpt lat="46.109306335345536" lon="12.900003695100807"><ele>130.0</ele><time>2026-04-04T10:07:58Z</time></trkpt><trkpt lat="46.10938969075002" lon="12.900010842174895"><ele>130.0</ele><time>2026-04-04T10:08:01Z</time></trkpt><trkpt lat="46.1093629463377" lon="12.899860216513158"><ele>130.0</ele><time>2026-04-04T10:08:03Z</time></trkpt><trkpt lat="46.10944544945584" lon="12.899828811560647"><ele>130.0</ele><time>2026-04-04T10:08:05Z</time></trkpt><trkpt lat="46.10949788576997" lon="12.899767901112423"><ele>130.0</ele><time>2026-04-04T10:08:07Z</time></trkpt><trkpt lat="46.109553142903415" lon="12.89968394339147"><ele>130.0</ele><time>2026-04-04T10:08:09Z</time></trkpt><trkpt lat="46.1096199472497" lon="12.899608463922215"><ele>130.0</ele><time>2026-04-04T10:08:11Z</time></trkpt><trkpt lat="46.10967903990862" lon="12.89955010840336"><ele>130.0</ele><time>2026-04-04T10:08:13Z</time></trkpt><trkpt lat="46.10975150867392" lon="12.899474916957475"><ele>130.0</ele><time>2026-04-04T10:08:16Z</time></trkpt><trkpt lat="46.10982515559525" lon="12.899378328147389"><ele>130.0</ele><time>2026-04-04T10:08:19Z</time></trkpt><trkpt lat="46.10988428324422" lon="12.899309773384307"><ele>130.0</ele><time>2026-04-04T10:08:21Z</time></trkpt><trkpt lat="46.10994078236262" lon="12.899231042341878"><ele>130.0</ele><time>2026-04-04T10:08:23Z</time></trkpt><trkpt lat="46.11003842552345" lon="12.899134292403001"><ele>130.0</ele><time>2026-04-04T10:08:25Z</time></trkpt><trkpt lat="46.110113941751244" lon="12.899107811583633"><ele>129.83333333333334</ele><time>2026-04-04T10:08:26Z</time></trkpt><trkpt lat="46.11019898011787" lon="12.89910265856356"><ele>129.66666666666669</ele><time>2026-04-04T10:08:27Z</time></trkpt><trkpt lat="46.11028021358901" lon="12.899104483669372"><ele>129.5</ele><time>2026-04-04T10:08:28Z</time></trkpt><trkpt lat="46.1103605746351" lon="12.899116175087594"><ele>129.33333333333334</ele><time>2026-04-04T10:08:29Z</time></trkpt><trkpt lat="46.11043691346874" lon="12.89912123661545"><ele>129.16666666666666</ele><time>2026-04-04T10:08:30Z</time></trkpt><trkpt lat="46.11050540304708" lon="12.899118837175743"><ele>129.0</ele><time>2026-04-04T10:08:31Z</time></trkpt><trkpt lat="46.11056968297175" lon="12.899112639535343"><ele>129.0</ele><time>2026-04-04T10:08:32Z</time></trkpt><trkpt lat="46.11063679241616" lon="12.899114050967217"><ele>129.0</ele><time>2026-04-04T10:08:33Z</time></trkpt><trkpt lat="46.110709599003954" lon="12.899120101347192"><ele>129.0</ele><time>2026-04-04T10:08:34Z</time></trkpt><trkpt lat="46.110777764907816" lon="12.89911716893538"><ele>129.0</ele><time>2026-04-04T10:08:35Z</time></trkpt><trkpt lat="46.11084410111909" lon="12.89911177073931"><ele>129.0</ele><time>2026-04-04T10:08:36Z</time></trkpt><trkpt lat="46.110957868192" lon="12.899126613194323"><ele>129.0</ele><time>2026-04-04T10:08:38Z</time></trkpt><trkpt lat="46.11104652086261" lon="12.89914895796235"><ele>129.16666666666666</ele><time>2026-04-04T10:08:40Z</time></trkpt><trkpt lat="46.11112863585101" lon="12.899135631275588"><ele>129.33333333333334</ele><time>2026-04-04T10:08:47Z</time></trkpt><trkpt lat="46.111205075325074" lon="12.899151045010031"><ele>129.5</ele><time>2026-04-04T10:08:49Z</time></trkpt><trkpt lat="46.11129841151239" lon="12.899159267702204"><ele>129.66666666666669</ele><time>2026-04-04T10:08:51Z</time></trkpt><trkpt lat="46.111380466571205" lon="12.899128993603208"><ele>129.83333333333334</ele><time>2026-04-04T10:08:53Z</time></trkpt><trkpt lat="46.11145336624838" lon="12.899115114217851"><ele>130.0</ele><time>2026-04-04T10:08:55Z</time></trkpt><trkpt lat="46.111550658563594" lon="12.899091933280168"><ele>130.4</ele><time>2026-04-04T10:08:57Z</time></trkpt><trkpt lat="46.11162773003282" lon="12.899056759242102"><ele>130.8</ele><time>2026-04-04T10:08:58Z</time></trkpt><trkpt lat="46.11170975071763" lon="12.89899124432203"><ele>131.2</ele><time>2026-04-04T10:08:59Z</time></trkpt><trkpt lat="46.111799867170184" lon="12.898908684364898"><ele>131.6</ele><time>2026-04-04T10:09:00Z</time></trkpt><trkpt lat="46.111898487321035" lon="12.898833883181208"><ele>132.0</ele><time>2026-04-04T10:09:01Z</time></trkpt><trkpt lat="46.11198871608759" lon="12.898767284933506"><ele>132.0</ele><time>2026-04-04T10:09:02Z</time></trkpt><trkpt lat="46.11207424919957" lon="12.898723604857626"><ele>132.0</ele><time>2026-04-04T10:09:03Z</time></trkpt><trkpt lat="46.11215631330198" lon="12.89868610922856"><ele>132.0</ele><time>2026-04-04T10:09:04Z</time></trkpt><trkpt lat="46.112241745140835" lon="12.898669205370972"><ele>132.0</ele><time>2026-04-04T10:09:05Z</time></trkpt><trkpt lat="46.11232719035296" lon="12.89867467673524"><ele>132.0</ele><time>2026-04-04T10:09:06Z</time></trkpt><trkpt lat="46.11240322017171" lon="12.898669888308998"><ele>132.0</ele><time>2026-04-04T10:09:07Z</time></trkpt><trkpt lat="46.1124940827788" lon="12.898654097609079"><ele>132.2</ele><time>2026-04-04T10:09:08Z</time></trkpt><trkpt lat="46.11258486271117" lon="12.898683622056716"><ele>132.39999999999998</ele><time>2026-04-04T10:09:09Z</time></trkpt><trkpt lat="46.11267630549099" lon="12.898694186141782"><ele>132.60000000000002</ele><time>2026-04-04T10:09:10Z</time></trkpt><trkpt lat="46.11276885230627" lon="12.898705720561981"><ele>132.8</ele><time>2026-04-04T10:09:11Z</time></trkpt><trkpt lat="46.11286946997077" lon="12.898719096181008"><ele>133.0</ele><time>2026-04-04T10:09:12Z</time></trkpt><trkpt lat="46.11298013509846" lon="12.898734767382852"><ele>133.0</ele><time>2026-04-04T10:09:13Z</time></trkpt><trkpt lat="46.11310292424773" lon="12.898751936568676"><ele>133.0</ele><time>2026-04-04T10:09:14Z</time></trkpt><trkpt lat="46.11323004050617" lon="12.898769510888073"><ele>133.0</ele><time>2026-04-04T10:09:15Z</time></trkpt><trkpt lat="46.11337482116171" lon="12.898789527408251"><ele>133.0</ele><time>2026-04-04T10:09:16Z</time></trkpt><trkpt lat="46.11351387536899" lon="12.898808752220527"><ele>135.0</ele><time>2026-04-04T10:09:17Z</time></trkpt><trkpt lat="46.11367443285386" lon="12.898833781513739"><ele>137.0</ele><time>2026-04-04T10:09:18Z</time></trkpt><trkpt lat="46.11383393384922" lon="12.898862587660883"><ele>139.0</ele><time>2026-04-04T10:09:19Z</time></trkpt><trkpt lat="46.11398635298177" lon="12.89890377211875"><ele>137.66666666666669</ele><time>2026-04-04T10:09:20Z</time></trkpt><trkpt lat="46.11414374892647" lon="12.898937245826898"><ele>136.33333333333334</ele><time>2026-04-04T10:09:21Z</time></trkpt><trkpt lat="46.114301635743566" lon="12.89899247915583"><ele>135.0</ele><time>2026-04-04T10:09:22Z</time></trkpt><trkpt lat="46.114461890035436" lon="12.899032099761998"><ele>135.0</ele><time>2026-04-04T10:09:23Z</time></trkpt><trkpt lat="46.11463583954464" lon="12.899055022919748"><ele>135.0</ele><time>2026-04-04T10:09:24Z</time></trkpt><trkpt lat="46.11480349318163" lon="12.899085677809607"><ele>135.0</ele><time>2026-04-04T10:09:25Z</time></trkpt><trkpt lat="46.11497883689883" lon="12.899133019035958"><ele>135.0</ele><time>2026-04-04T10:09:26Z</time></trkpt><trkpt lat="46.11515964930009" lon="12.899160170509672"><ele>135.0</ele><time>2026-04-04T10:09:27Z</time></trkpt><trkpt lat="46.11533340195153" lon="12.899185879938221"><ele>135.0</ele><time>2026-04-04T10:09:28Z</time></trkpt><trkpt lat="46.11551348631897" lon="12.899213695424825"><ele>135.0</ele><time>2026-04-04T10:09:29Z</time></trkpt><trkpt lat="46.11567097020216" lon="12.899237922152377"><ele>135.0</ele><time>2026-04-04T10:09:30Z</time></trkpt><trkpt lat="46.115817674742544" lon="12.899260260597845"><ele>135.0</ele><time>2026-04-04T10:09:31Z</time></trkpt><trkpt lat="46.115961603365186" lon="12.899249444945323"><ele>134.75</ele><time>2026-04-04T10:09:32Z</time></trkpt><trkpt lat="46.11608592869424" lon="12.899265136376481"><ele>134.5</ele><time>2026-04-04T10:09:33Z</time></trkpt><trkpt lat="46.116209138681114" lon="12.899287953852987"><ele>134.25</ele><time>2026-04-04T10:09:34Z</time></trkpt><trkpt lat="46.11633280048285" lon="12.899306655928255"><ele>134.0</ele><time>2026-04-04T10:09:35Z</time></trkpt><trkpt lat="46.11646182029076" lon="12.899329740797123"><ele>134.4</ele><time>2026-04-04T10:09:36Z</time></trkpt><trkpt lat="46.116584792200975" lon="12.899377179490134"><ele>134.8</ele><time>2026-04-04T10:09:37Z</time></trkpt><trkpt lat="46.11669747228508" lon="12.899395381275491"><ele>135.2</ele><time>2026-04-04T10:09:38Z</time></trkpt><trkpt lat="46.11679615683539" lon="12.899411322565902"><ele>135.6</ele><time>2026-04-04T10:09:39Z</time></trkpt><trkpt lat="46.11688815288551" lon="12.899400757445443"><ele>136.0</ele><time>2026-04-04T10:09:40Z</time></trkpt><trkpt lat="46.11696618179444" lon="12.899418441563352"><ele>136.0</ele><time>2026-04-04T10:09:41Z</time></trkpt><trkpt lat="46.11704463486249" lon="12.899440706280279"><ele>136.0</ele><time>2026-04-04T10:09:42Z</time></trkpt><trkpt lat="46.11712862524305" lon="12.899508062007582"><ele>136.0</ele><time>2026-04-04T10:09:43Z</time></trkpt><trkpt lat="46.11719438370757" lon="12.899576007857869"><ele>136.0</ele><time>2026-04-04T10:09:44Z</time></trkpt><trkpt lat="46.117259409739646" lon="12.899587386024743"><ele>136.0</ele><time>2026-04-04T10:09:45Z</time></trkpt><trkpt lat="46.11733773845292" lon="12.89956964640211"><ele>136.0</ele><time>2026-04-04T10:09:46Z</time></trkpt><trkpt lat="46.117428943285965" lon="12.899529327077518"><ele>136.5</ele><time>2026-04-04T10:09:47Z</time></trkpt><trkpt lat="46.11753344623765" lon="12.899561895310436"><ele>137.0</ele><time>2026-04-04T10:09:48.001Z</time></trkpt><trkpt lat="46.11764853982928" lon="12.8995881715867"><ele>137.5</ele><time>2026-04-04T10:09:49.001Z</time></trkpt><trkpt lat="46.11776496478616" lon="12.899615928983293"><ele>138.0</ele><time>2026-04-04T10:09:50.001Z</time></trkpt><trkpt lat="46.11788408114741" lon="12.899644328046495"><ele>138.0</ele><time>2026-04-04T10:09:51.001Z</time></trkpt><trkpt lat="46.11803388115305" lon="12.89967654528319"><ele>138.0</ele><time>2026-04-04T10:09:52.001Z</time></trkpt><trkpt lat="46.118207441541735" lon="12.899693140690697"><ele>138.0</ele><time>2026-04-04T10:09:53.001Z</time></trkpt><trkpt lat="46.11839044340157" lon="12.89970284738779"><ele>138.0</ele><time>2026-04-04T10:09:54.001Z</time></trkpt><trkpt lat="46.1185776193608" lon="12.899709829351249"><ele>138.0</ele><time>2026-04-04T10:09:55.001Z</time></trkpt><trkpt lat="46.11876680556596" lon="12.899714907466176"><ele>138.0</ele><time>2026-04-04T10:09:56.001Z</time></trkpt><trkpt lat="46.11894487249065" lon="12.899718231114688"><ele>138.0</ele><time>2026-04-04T10:09:57.001Z</time></trkpt><trkpt lat="46.11913714911554" lon="12.899723622423284"><ele>138.0</ele><time>2026-04-04T10:09:58.001Z</time></trkpt><trkpt lat="46.11932804126039" lon="12.899728974914433"><ele>138.0</ele><time>2026-04-04T10:09:59.001Z</time></trkpt><trkpt lat="46.119517278403464" lon="12.899734280819626"><ele>138.0</ele><time>2026-04-04T10:10:00.001Z</time></trkpt><trkpt lat="46.11970960112972" lon="12.899740024897572"><ele>138.0</ele><time>2026-04-04T10:10:00.999Z</time></trkpt><trkpt lat="46.11990120350993" lon="12.899746569359738"><ele>138.0</ele><time>2026-04-04T10:10:01.999Z</time></trkpt><trkpt lat="46.12008751797013" lon="12.899714016132075"><ele>137.33333333333334</ele><time>2026-04-04T10:10:02.999Z</time></trkpt><trkpt lat="46.120256609658966" lon="12.89971657090533"><ele>136.66666666666669</ele><time>2026-04-04T10:10:03.999Z</time></trkpt><trkpt lat="46.120416338421805" lon="12.899724079812131"><ele>136.0</ele><time>2026-04-04T10:10:04.999Z</time></trkpt><trkpt lat="46.120566268873084" lon="12.89974218318622"><ele>136.0</ele><time>2026-04-04T10:10:05.999Z</time></trkpt><trkpt lat="46.120702207855615" lon="12.899807912848711"><ele>136.0</ele><time>2026-04-04T10:10:06.999Z</time></trkpt><trkpt lat="46.12082718083634" lon="12.899889430035108"><ele>136.0</ele><time>2026-04-04T10:10:07.999Z</time></trkpt><trkpt lat="46.12097736895917" lon="12.89998016533847"><ele>136.0</ele><time>2026-04-04T10:10:08.999Z</time></trkpt><trkpt lat="46.12110471095543" lon="12.90008557836594"><ele>136.25</ele><time>2026-04-04T10:10:09.999Z</time></trkpt><trkpt lat="46.121234983344436" lon="12.900177231623855"><ele>136.5</ele><time>2026-04-04T10:10:10.999Z</time></trkpt><trkpt lat="46.12137227314516" lon="12.900257920378365"><ele>136.75</ele><time>2026-04-04T10:10:11.999Z</time></trkpt><trkpt lat="46.12150875114972" lon="12.900313185972836"><ele>137.0</ele><time>2026-04-04T10:10:12.999Z</time></trkpt><trkpt lat="46.12165100078902" lon="12.90033100186402"><ele>137.25</ele><time>2026-04-04T10:10:13.999Z</time></trkpt><trkpt lat="46.121798326986905" lon="12.900324382635198"><ele>137.5</ele><time>2026-04-04T10:10:14.999Z</time></trkpt><trkpt lat="46.12194069903974" lon="12.900302911237947"><ele>137.75</ele><time>2026-04-04T10:10:15.999Z</time></trkpt><trkpt lat="46.12208663229013" lon="12.900274541087747"><ele>138.0</ele><time>2026-04-04T10:10:16.999Z</time></trkpt><trkpt lat="46.122233066438625" lon="12.900245959431997"><ele>138.0</ele><time>2026-04-04T10:10:17.999Z</time></trkpt><trkpt lat="46.12236834897891" lon="12.900226196039554"><ele>138.0</ele><time>2026-04-04T10:10:19Z</time></trkpt><trkpt lat="46.1225031600737" lon="12.900207098382912"><ele>138.0</ele><time>2026-04-04T10:10:20Z</time></trkpt><trkpt lat="46.12265315915145" lon="12.900187050939456"><ele>138.0</ele><time>2026-04-04T10:10:21Z</time></trkpt><trkpt lat="46.12281490157439" lon="12.900177703839613"><ele>138.33333333333334</ele><time>2026-04-04T10:10:22Z</time></trkpt><trkpt lat="46.122983647484574" lon="12.90018955037725"><ele>138.66666666666669</ele><time>2026-04-04T10:10:23Z</time></trkpt><trkpt lat="46.12315480012014" lon="12.900244217207137"><ele>139.0</ele><time>2026-04-04T10:10:24Z</time></trkpt><trkpt lat="46.12332461586791" lon="12.900327820754715"><ele>139.33333333333334</ele><time>2026-04-04T10:10:25Z</time></trkpt><trkpt lat="46.123491557699964" lon="12.90042998305355"><ele>139.66666666666666</ele><time>2026-04-04T10:10:26Z</time></trkpt><trkpt lat="46.123655011305495" lon="12.900536593378913"><ele>140.0</ele><time>2026-04-04T10:10:27Z</time></trkpt><trkpt lat="46.12380647531015" lon="12.900633101453531"><ele>140.0</ele><time>2026-04-04T10:10:28Z</time></trkpt><trkpt lat="46.12395457600066" lon="12.900713565501816"><ele>140.0</ele><time>2026-04-04T10:10:29Z</time></trkpt><trkpt lat="46.12409188183525" lon="12.900788144046093"><ele>140.0</ele><time>2026-04-04T10:10:30Z</time></trkpt><trkpt lat="46.12423992638539" lon="12.900855948797068"><ele>140.33333333333331</ele><time>2026-04-04T10:10:31Z</time></trkpt><trkpt lat="46.12439639608683" lon="12.900920295955611"><ele>140.66666666666666</ele><time>2026-04-04T10:10:32Z</time></trkpt><trkpt lat="46.12456522364995" lon="12.900979254616454"><ele>141.0</ele><time>2026-04-04T10:10:33Z</time></trkpt><trkpt lat="46.124743655435935" lon="12.901003665369878"><ele>141.33333333333334</ele><time>2026-04-04T10:10:34Z</time></trkpt><trkpt lat="46.1249243790605" lon="12.901015128108494"><ele>141.66666666666669</ele><time>2026-04-04T10:10:35Z</time></trkpt><trkpt lat="46.12511257550616" lon="12.901002345668072"><ele>142.0</ele><time>2026-04-04T10:10:36Z</time></trkpt><trkpt lat="46.125311296876156" lon="12.901035667341606"><ele>142.0</ele><time>2026-04-04T10:10:37Z</time></trkpt><trkpt lat="46.125515647846754" lon="12.901025927286998"><ele>142.0</ele><time>2026-04-04T10:10:38Z</time></trkpt><trkpt lat="46.125711906088185" lon="12.901030122475227"><ele>142.0</ele><time>2026-04-04T10:10:39Z</time></trkpt><trkpt lat="46.12590770055821" lon="12.901038380861154"><ele>142.0</ele><time>2026-04-04T10:10:40Z</time></trkpt><trkpt lat="46.12609089107068" lon="12.901047465597317"><ele>142.0</ele><time>2026-04-04T10:10:41Z</time></trkpt><trkpt lat="46.126265721967805" lon="12.901055925351"><ele>142.0</ele><time>2026-04-04T10:10:42Z</time></trkpt><trkpt lat="46.12643168485549" lon="12.901063972468043"><ele>142.33333333333334</ele><time>2026-04-04T10:10:43Z</time></trkpt><trkpt lat="46.12660019225178" lon="12.901075827501085"><ele>142.66666666666666</ele><time>2026-04-04T10:10:44Z</time></trkpt><trkpt lat="46.12675968304031" lon="12.90108551066244"><ele>143.0</ele><time>2026-04-04T10:10:45Z</time></trkpt><trkpt lat="46.12691564198979" lon="12.901095221137068"><ele>143.0</ele><time>2026-04-04T10:10:46Z</time></trkpt><trkpt lat="46.12706126671581" lon="12.90109496236599"><ele>143.0</ele><time>2026-04-04T10:10:47Z</time></trkpt><trkpt lat="46.12720486716121" lon="12.901118436182994"><ele>143.0</ele><time>2026-04-04T10:10:48Z</time></trkpt><trkpt lat="46.12735488018245" lon="12.901109225665714"><ele>143.0</ele><time>2026-04-04T10:10:49Z</time></trkpt><trkpt lat="46.12751279620182" lon="12.901068715949286"><ele>143.33333333333331</ele><time>2026-04-04T10:10:50Z</time></trkpt><trkpt lat="46.127683916734526" lon="12.901036519254253"><ele>143.66666666666666</ele><time>2026-04-04T10:10:51Z</time></trkpt><trkpt lat="46.12786840197536" lon="12.901031685773223"><ele>144.0</ele><time>2026-04-04T10:10:52Z</time></trkpt><trkpt lat="46.12805696299516" lon="12.900981290647133"><ele>144.0</ele><time>2026-04-04T10:10:53Z</time></trkpt><trkpt lat="46.12825672228441" lon="12.900952395509432"><ele>144.0</ele><time>2026-04-04T10:10:54Z</time></trkpt><trkpt lat="46.12846552906531" lon="12.900925243336143"><ele>144.0</ele><time>2026-04-04T10:10:55Z</time></trkpt><trkpt lat="46.12867080950032" lon="12.90089439727474"><ele>144.0</ele><time>2026-04-04T10:10:56Z</time></trkpt><trkpt lat="46.12887777308721" lon="12.900856882405128"><ele>144.0</ele><time>2026-04-04T10:10:57Z</time></trkpt><trkpt lat="46.129084042871824" lon="12.900847002357288"><ele>144.0</ele><time>2026-04-04T10:10:58Z</time></trkpt><trkpt lat="46.1292915657423" lon="12.900813409577463"><ele>144.0</ele><time>2026-04-04T10:10:59Z</time></trkpt><trkpt lat="46.12949969518239" lon="12.900788514977386"><ele>144.0</ele><time>2026-04-04T10:11:00Z</time></trkpt><trkpt lat="46.12968630395323" lon="12.900759398146485"><ele>144.0</ele><time>2026-04-04T10:11:01Z</time></trkpt><trkpt lat="46.129869984853784" lon="12.900724909860552"><ele>144.33333333333334</ele><time>2026-04-04T10:11:02Z</time></trkpt><trkpt lat="46.13004049416682" lon="12.900699876775857"><ele>144.66666666666669</ele><time>2026-04-04T10:11:03Z</time></trkpt><trkpt lat="46.13020552278826" lon="12.90067126388718"><ele>145.0</ele><time>2026-04-04T10:11:04Z</time></trkpt><trkpt lat="46.13035201370366" lon="12.900639812652797"><ele>145.0</ele><time>2026-04-04T10:11:05Z</time></trkpt><trkpt lat="46.13048848528343" lon="12.900613367035556"><ele>145.0</ele><time>2026-04-04T10:11:06Z</time></trkpt><trkpt lat="46.130635815276904" lon="12.900606996017828"><ele>145.0</ele><time>2026-04-04T10:11:07Z</time></trkpt><trkpt lat="46.13079196750275" lon="12.90064152230994"><ele>145.0</ele><time>2026-04-04T10:11:08Z</time></trkpt><trkpt lat="46.13095172507912" lon="12.900694604960794"><ele>145.33333333333334</ele><time>2026-04-04T10:11:09Z</time></trkpt><trkpt lat="46.13111774493473" lon="12.900757051791842"><ele>145.66666666666666</ele><time>2026-04-04T10:11:10Z</time></trkpt><trkpt lat="46.131293651169486" lon="12.9008214539024"><ele>146.0</ele><time>2026-04-04T10:11:11Z</time></trkpt><trkpt lat="46.13148089714532" lon="12.900887959903432"><ele>146.66666666666666</ele><time>2026-04-04T10:11:12Z</time></trkpt><trkpt lat="46.13169592409809" lon="12.900968880759251"><ele>147.33333333333334</ele><time>2026-04-04T10:11:13Z</time></trkpt><trkpt lat="46.13190541838838" lon="12.901037268952047"><ele>148.0</ele><time>2026-04-04T10:11:14Z</time></trkpt><trkpt lat="46.132106402213275" lon="12.901111245024493"><ele>148.0</ele><time>2026-04-04T10:11:15Z</time></trkpt><trkpt lat="46.1323183922198" lon="12.90118343435359"><ele>148.0</ele><time>2026-04-04T10:11:16Z</time></trkpt><trkpt lat="46.13254326671115" lon="12.901252331327475"><ele>148.0</ele><time>2026-04-04T10:11:17Z</time></trkpt><trkpt lat="46.132775104752966" lon="12.90133677702014"><ele>148.0</ele><time>2026-04-04T10:11:18Z</time></trkpt><trkpt lat="46.13299987384355" lon="12.90142119994269"><ele>148.0</ele><time>2026-04-04T10:11:19Z</time></trkpt><trkpt lat="46.133226898782304" lon="12.901504836327419"><ele>146.5</ele><time>2026-04-04T10:11:20Z</time></trkpt><trkpt lat="46.133452818618906" lon="12.901587425250066"><ele>145.0</ele><time>2026-04-04T10:11:21Z</time></trkpt><trkpt lat="46.13367893825001" lon="12.901664074551594"><ele>145.0</ele><time>2026-04-04T10:11:22Z</time></trkpt><trkpt lat="46.13390873956362" lon="12.901742057561572"><ele>145.0</ele><time>2026-04-04T10:11:23Z</time></trkpt><trkpt lat="46.13414158538279" lon="12.901826509795363"><ele>146.5</ele><time>2026-04-04T10:11:24Z</time></trkpt><trkpt lat="46.134372340073725" lon="12.901908367361969"><ele>148.0</ele><time>2026-04-04T10:11:25Z</time></trkpt><trkpt lat="46.134598883677185" lon="12.901983452599383"><ele>148.0</ele><time>2026-04-04T10:11:26Z</time></trkpt><trkpt lat="46.13482226598921" lon="12.902063628267326"><ele>148.0</ele><time>2026-04-04T10:11:27Z</time></trkpt><trkpt lat="46.13504273332676" lon="12.902144196262286"><ele>148.0</ele><time>2026-04-04T10:11:28Z</time></trkpt><trkpt lat="46.13526284804908" lon="12.902227891489192"><ele>148.0</ele><time>2026-04-04T10:11:29Z</time></trkpt><trkpt lat="46.135483074093294" lon="12.902311912538664"><ele>148.0</ele><time>2026-04-04T10:11:30Z</time></trkpt><trkpt lat="46.13570176626123" lon="12.902377147590348"><ele>148.0</ele><time>2026-04-04T10:11:31Z</time></trkpt><trkpt lat="46.135910619377704" lon="12.902475385135599"><ele>148.0</ele><time>2026-04-04T10:11:32Z</time></trkpt><trkpt lat="46.1361183373798" lon="12.902549461531082"><ele>148.66666666666669</ele><time>2026-04-04T10:11:33Z</time></trkpt><trkpt lat="46.13632632481343" lon="12.902623634023973"><ele>149.33333333333334</ele><time>2026-04-04T10:11:34Z</time></trkpt><trkpt lat="46.136534441068235" lon="12.902697852450242"><ele>150.0</ele><time>2026-04-04T10:11:35Z</time></trkpt><trkpt lat="46.136742534680224" lon="12.902747992354866"><ele>150.0</ele><time>2026-04-04T10:11:36Z</time></trkpt><trkpt lat="46.13694784771431" lon="12.902825138463223"><ele>150.0</ele><time>2026-04-04T10:11:37Z</time></trkpt><trkpt lat="46.13715083431355" lon="12.902900097331326"><ele>150.0</ele><time>2026-04-04T10:11:38Z</time></trkpt><trkpt lat="46.137350975717546" lon="12.902976968450295"><ele>150.33333333333334</ele><time>2026-04-04T10:11:39Z</time></trkpt><trkpt lat="46.13755494678985" lon="12.903049683925532"><ele>150.66666666666669</ele><time>2026-04-04T10:11:40Z</time></trkpt><trkpt lat="46.137757982028354" lon="12.903122404102726"><ele>151.0</ele><time>2026-04-04T10:11:41Z</time></trkpt><trkpt lat="46.137961012414664" lon="12.903196071879771"><ele>151.0</ele><time>2026-04-04T10:11:42Z</time></trkpt><trkpt lat="46.13816357153071" lon="12.903265405470854"><ele>151.0</ele><time>2026-04-04T10:11:43.001Z</time></trkpt><trkpt lat="46.1383632848144" lon="12.903333959710775"><ele>151.0</ele><time>2026-04-04T10:11:44.001Z</time></trkpt><trkpt lat="46.138559974057785" lon="12.903401054090315"><ele>151.66666666666669</ele><time>2026-04-04T10:11:45.001Z</time></trkpt><trkpt lat="46.13873960836696" lon="12.903467734937973"><ele>152.33333333333334</ele><time>2026-04-04T10:11:46.001Z</time></trkpt><trkpt lat="46.13890368578019" lon="12.903531609087773"><ele>153.0</ele><time>2026-04-04T10:11:47.001Z</time></trkpt><trkpt lat="46.13904965817801" lon="12.90358126682114"><ele>152.75</ele><time>2026-04-04T10:11:48.001Z</time></trkpt><trkpt lat="46.1391857254267" lon="12.903629695051876"><ele>152.5</ele><time>2026-04-04T10:11:49.001Z</time></trkpt><trkpt lat="46.13931374555418" lon="12.903674624151373"><ele>152.25</ele><time>2026-04-04T10:11:50.001Z</time></trkpt><trkpt lat="46.139448115855885" lon="12.903717609800795"><ele>152.0</ele><time>2026-04-04T10:11:51.001Z</time></trkpt><trkpt lat="46.139582514763575" lon="12.903788802462843"><ele>152.0</ele><time>2026-04-04T10:11:52.001Z</time></trkpt><trkpt lat="46.13971832300153" lon="12.903837538478115"><ele>152.0</ele><time>2026-04-04T10:11:53.001Z</time></trkpt><trkpt lat="46.13985519968379" lon="12.903885196500992"><ele>152.0</ele><time>2026-04-04T10:11:54.001Z</time></trkpt><trkpt lat="46.14000190127981" lon="12.9039113919762"><ele>152.0</ele><time>2026-04-04T10:11:55.001Z</time></trkpt><trkpt lat="46.14015816763039" lon="12.903972551017384"><ele>151.33333333333331</ele><time>2026-04-04T10:11:56.001Z</time></trkpt><trkpt lat="46.14032921808611" lon="12.904037584643632"><ele>150.66666666666666</ele><time>2026-04-04T10:11:57.001Z</time></trkpt><trkpt lat="46.1405135373759" lon="12.904101611750967"><ele>150.0</ele><time>2026-04-04T10:11:58.001Z</time></trkpt><trkpt lat="46.14069589393967" lon="12.90416778598255"><ele>150.33333333333334</ele><time>2026-04-04T10:11:59.001Z</time></trkpt><trkpt lat="46.14089564854023" lon="12.904234341011266"><ele>150.66666666666669</ele><time>2026-04-04T10:12:00.001Z</time></trkpt><trkpt lat="46.14110938991898" lon="12.904310130389923"><ele>151.0</ele><time>2026-04-04T10:12:01.001Z</time></trkpt><trkpt lat="46.141337467533745" lon="12.904386460869576"><ele>151.5</ele><time>2026-04-04T10:12:02.001Z</time></trkpt><trkpt lat="46.1415820901227" lon="12.904463499021658"><ele>152.0</ele><time>2026-04-04T10:12:03.001Z</time></trkpt><trkpt lat="46.14183181813935" lon="12.904549301273603"><ele>152.0</ele><time>2026-04-04T10:12:04.001Z</time></trkpt><trkpt lat="46.142083722913796" lon="12.904641294489679"><ele>152.0</ele><time>2026-04-04T10:12:05.001Z</time></trkpt><trkpt lat="46.142332520863924" lon="12.904745571442374"><ele>152.0</ele><time>2026-04-04T10:12:06.001Z</time></trkpt><trkpt lat="46.142575289725684" lon="12.904852806743554"><ele>152.0</ele><time>2026-04-04T10:12:06.999Z</time></trkpt><trkpt lat="46.14281053934787" lon="12.904942840026445"><ele>152.0</ele><time>2026-04-04T10:12:07.999Z</time></trkpt><trkpt lat="46.14304049774359" lon="12.905018860932957"><ele>152.0</ele><time>2026-04-04T10:12:08.999Z</time></trkpt><trkpt lat="46.143265820472564" lon="12.905094828285662"><ele>153.0</ele><time>2026-04-04T10:12:09.999Z</time></trkpt><trkpt lat="46.143477468576506" lon="12.905166615014078"><ele>154.0</ele><time>2026-04-04T10:12:10.999Z</time></trkpt><trkpt lat="46.14368560872219" lon="12.905241953226772"><ele>155.0</ele><time>2026-04-04T10:12:11.999Z</time></trkpt><trkpt lat="46.14390213020495" lon="12.905321050349464"><ele>155.0</ele><time>2026-04-04T10:12:12.999Z</time></trkpt><trkpt lat="46.14412582266545" lon="12.905397005109059"><ele>155.0</ele><time>2026-04-04T10:12:13.999Z</time></trkpt><trkpt lat="46.14435086341047" lon="12.905478213513884"><ele>155.0</ele><time>2026-04-04T10:12:14.999Z</time></trkpt><trkpt lat="46.144573098297535" lon="12.905559489416364"><ele>155.0</ele><time>2026-04-04T10:12:15.999Z</time></trkpt><trkpt lat="46.144790988496354" lon="12.905636685526886"><ele>154.33333333333331</ele><time>2026-04-04T10:12:16.999Z</time></trkpt><trkpt lat="46.14500481631724" lon="12.905714084257776"><ele>153.66666666666666</ele><time>2026-04-04T10:12:17.999Z</time></trkpt><trkpt lat="46.14521689759769" lon="12.905789750695114"><ele>153.0</ele><time>2026-04-04T10:12:18.999Z</time></trkpt><trkpt lat="46.145427982462564" lon="12.905865941468148"><ele>153.66666666666666</ele><time>2026-04-04T10:12:19.999Z</time></trkpt><trkpt lat="46.14564187015758" lon="12.905942025210644"><ele>154.33333333333331</ele><time>2026-04-04T10:12:20.999Z</time></trkpt><trkpt lat="46.14586110641532" lon="12.906018883042782"><ele>155.0</ele><time>2026-04-04T10:12:21.999Z</time></trkpt><trkpt lat="46.14608682429357" lon="12.906093951923179"><ele>155.5</ele><time>2026-04-04T10:12:22.999Z</time></trkpt><trkpt lat="46.1463151961233" lon="12.906167997828696"><ele>156.0</ele><time>2026-04-04T10:12:23.999Z</time></trkpt><trkpt lat="46.14654272174423" lon="12.906245835660823"><ele>156.5</ele><time>2026-04-04T10:12:24.999Z</time></trkpt><trkpt lat="46.14676594082872" lon="12.906329868026793"><ele>157.0</ele><time>2026-04-04T10:12:26Z</time></trkpt><trkpt lat="46.14699157623251" lon="12.906417348536362"><ele>157.0</ele><time>2026-04-04T10:12:27Z</time></trkpt><trkpt lat="46.147216466814996" lon="12.906500975154605"><ele>157.0</ele><time>2026-04-04T10:12:28Z</time></trkpt><trkpt lat="46.14743927813764" lon="12.906583980210158"><ele>157.0</ele><time>2026-04-04T10:12:29Z</time></trkpt><trkpt lat="46.147656831675945" lon="12.906660152952414"><ele>157.0</ele><time>2026-04-04T10:12:30Z</time></trkpt><trkpt lat="46.14787160134841" lon="12.906732518455184"><ele>157.0</ele><time>2026-04-04T10:12:31Z</time></trkpt><trkpt lat="46.14808151663157" lon="12.906808386699709"><ele>156.66666666666669</ele><time>2026-04-04T10:12:32Z</time></trkpt><trkpt lat="46.14828890571084" lon="12.906880148364937"><ele>156.33333333333334</ele><time>2026-04-04T10:12:33Z</time></trkpt><trkpt lat="46.14850256494961" lon="12.906957456891908"><ele>156.0</ele><time>2026-04-04T10:12:34Z</time></trkpt><trkpt lat="46.14871702987221" lon="12.907035673706986"><ele>156.0</ele><time>2026-04-04T10:12:35Z</time></trkpt><trkpt lat="46.14893627004684" lon="12.907121035777255"><ele>156.0</ele><time>2026-04-04T10:12:36Z</time></trkpt><trkpt lat="46.14915431942556" lon="12.907209010056535"><ele>156.5</ele><time>2026-04-04T10:12:37Z</time></trkpt><trkpt lat="46.14936965894869" lon="12.907293935290541"><ele>157.0</ele><time>2026-04-04T10:12:38Z</time></trkpt><trkpt lat="46.14959250602252" lon="12.907389597049534"><ele>157.0</ele><time>2026-04-04T10:12:39Z</time></trkpt><trkpt lat="46.14981684101305" lon="12.90748924905697"><ele>157.0</ele><time>2026-04-04T10:12:40Z</time></trkpt><trkpt lat="46.15005003070903" lon="12.907584394339159"><ele>157.5</ele><time>2026-04-04T10:12:41Z</time></trkpt><trkpt lat="46.15029300363811" lon="12.90768116054249"><ele>158.0</ele><time>2026-04-04T10:12:42Z</time></trkpt><trkpt lat="46.1505428477582" lon="12.907780754224824"><ele>158.0</ele><time>2026-04-04T10:12:43Z</time></trkpt><trkpt lat="46.150793582486" lon="12.907881553540978"><ele>158.0</ele><time>2026-04-04T10:12:44Z</time></trkpt><trkpt lat="46.15104526980992" lon="12.907987361547734"><ele>158.0</ele><time>2026-04-04T10:12:45Z</time></trkpt><trkpt lat="46.151301677499404" lon="12.908091185018579"><ele>158.0</ele><time>2026-04-04T10:12:46Z</time></trkpt><trkpt lat="46.15155931918181" lon="12.908193607895099"><ele>158.0</ele><time>2026-04-04T10:12:47Z</time></trkpt><trkpt lat="46.15181144978062" lon="12.908295862973102"><ele>158.0</ele><time>2026-04-04T10:12:48Z</time></trkpt><trkpt lat="46.152063895027005" lon="12.908394290904488"><ele>159.0</ele><time>2026-04-04T10:12:49Z</time></trkpt><trkpt lat="46.152315685758836" lon="12.9084920784438"><ele>160.0</ele><time>2026-04-04T10:12:50Z</time></trkpt><trkpt lat="46.15256408918645" lon="12.908587944381901"><ele>160.0</ele><time>2026-04-04T10:12:51Z</time></trkpt><trkpt lat="46.152806919969194" lon="12.908686741250616"><ele>160.0</ele><time>2026-04-04T10:12:52Z</time></trkpt><trkpt lat="46.15304521787034" lon="12.908785734050712"><ele>159.5</ele><time>2026-04-04T10:12:53Z</time></trkpt><trkpt lat="46.15328558545293" lon="12.908880663820206"><ele>159.0</ele><time>2026-04-04T10:12:54Z</time></trkpt><trkpt lat="46.15352657685039" lon="12.908976962964937"><ele>159.0</ele><time>2026-04-04T10:12:55Z</time></trkpt><trkpt lat="46.15376499797512" lon="12.90907719615007"><ele>159.0</ele><time>2026-04-04T10:12:56Z</time></trkpt><trkpt lat="46.154002913772175" lon="12.909174079185563"><ele>162.0</ele><time>2026-04-04T10:12:57Z</time></trkpt><trkpt lat="46.154235523199084" lon="12.909274438934121"><ele>165.0</ele><time>2026-04-04T10:12:58Z</time></trkpt><trkpt lat="46.15445096426117" lon="12.909367853282161"><ele>165.0</ele><time>2026-04-04T10:12:59Z</time></trkpt><trkpt lat="46.15466282674789" lon="12.90945621801012"><ele>165.0</ele><time>2026-04-04T10:13:00Z</time></trkpt><trkpt lat="46.15486927022148" lon="12.909537697150862"><ele>165.0</ele><time>2026-04-04T10:13:01Z</time></trkpt><trkpt lat="46.15507809786923" lon="12.909616985184812"><ele>166.0</ele><time>2026-04-04T10:13:02Z</time></trkpt><trkpt lat="46.1552902677562" lon="12.909696787766068"><ele>167.0</ele><time>2026-04-04T10:13:03Z</time></trkpt><trkpt lat="46.15550021996109" lon="12.909803249229775"><ele>168.0</ele><time>2026-04-04T10:13:04Z</time></trkpt><trkpt lat="46.155721184616866" lon="12.909891504893306"><ele>170.0</ele><time>2026-04-04T10:13:05Z</time></trkpt><trkpt lat="46.15594234878736" lon="12.909979840245322"><ele>172.0</ele><time>2026-04-04T10:13:06Z</time></trkpt><trkpt lat="46.15616791236186" lon="12.910069932766486"><ele>172.0</ele><time>2026-04-04T10:13:07Z</time></trkpt><trkpt lat="46.156389919954435" lon="12.910135477682374"><ele>172.0</ele><time>2026-04-04T10:13:08Z</time></trkpt><trkpt lat="46.15661668966366" lon="12.910235212537508"><ele>172.5</ele><time>2026-04-04T10:13:09Z</time></trkpt><trkpt lat="46.156847543016255" lon="12.910324374619151"><ele>173.0</ele><time>2026-04-04T10:13:10Z</time></trkpt><trkpt lat="46.15708495833306" lon="12.910425761825751"><ele>173.0</ele><time>2026-04-04T10:13:11Z</time></trkpt><trkpt lat="46.1573278191974" lon="12.910519489462926"><ele>173.0</ele><time>2026-04-04T10:13:12Z</time></trkpt><trkpt lat="46.15756595861732" lon="12.910617310253501"><ele>174.0</ele><time>2026-04-04T10:13:13Z</time></trkpt><trkpt lat="46.15781518781294" lon="12.91071772871091"><ele>175.0</ele><time>2026-04-04T10:13:14Z</time></trkpt><trkpt lat="46.158065960626395" lon="12.91084149501066"><ele>174.0</ele><time>2026-04-04T10:13:15Z</time></trkpt><trkpt lat="46.15832146418812" lon="12.910943825617341"><ele>173.0</ele><time>2026-04-04T10:13:16Z</time></trkpt><trkpt lat="46.15857254615199" lon="12.911044969876555"><ele>173.0</ele><time>2026-04-04T10:13:17Z</time></trkpt><trkpt lat="46.158826494901675" lon="12.911148261390258"><ele>173.0</ele><time>2026-04-04T10:13:18Z</time></trkpt><trkpt lat="46.15906678786644" lon="12.911244960168087"><ele>174.0</ele><time>2026-04-04T10:13:19Z</time></trkpt><trkpt lat="46.159285110193515" lon="12.911332177661613"><ele>175.0</ele><time>2026-04-04T10:13:20Z</time></trkpt><trkpt lat="46.1595080227361" lon="12.911421228876957"><ele>175.0</ele><time>2026-04-04T10:13:21Z</time></trkpt><trkpt lat="46.15973294107852" lon="12.911511081386434"><ele>175.0</ele><time>2026-04-04T10:13:22Z</time></trkpt><trkpt lat="46.15995536250732" lon="12.911600449505357"><ele>175.0</ele><time>2026-04-04T10:13:23Z</time></trkpt><trkpt lat="46.16018105134811" lon="12.911691874796357"><ele>175.0</ele><time>2026-04-04T10:13:24Z</time></trkpt><trkpt lat="46.160409371404036" lon="12.911784069213347"><ele>175.0</ele><time>2026-04-04T10:13:25Z</time></trkpt><trkpt lat="46.1606343831498" lon="12.911874083635384"><ele>175.0</ele><time>2026-04-04T10:13:26Z</time></trkpt><trkpt lat="46.16085486298312" lon="12.911962608879596"><ele>175.0</ele><time>2026-04-04T10:13:27Z</time></trkpt><trkpt lat="46.16107491873549" lon="12.912052354676685"><ele>175.0</ele><time>2026-04-04T10:13:28Z</time></trkpt><trkpt lat="46.161289724154905" lon="12.912139959318862"><ele>175.0</ele><time>2026-04-04T10:13:29Z</time></trkpt><trkpt lat="46.16150969141052" lon="12.912228623814034"><ele>175.0</ele><time>2026-04-04T10:13:30Z</time></trkpt><trkpt lat="46.16172074707249" lon="12.912292886960522"><ele>175.0</ele><time>2026-04-04T10:13:31Z</time></trkpt><trkpt lat="46.16191295378138" lon="12.912375998440595"><ele>175.33333333333334</ele><time>2026-04-04T10:13:32Z</time></trkpt><trkpt lat="46.16211505229646" lon="12.912458130329133"><ele>175.66666666666666</ele><time>2026-04-04T10:13:33Z</time></trkpt><trkpt lat="46.16232388093607" lon="12.912556577598439"><ele>176.0</ele><time>2026-04-04T10:13:34Z</time></trkpt><trkpt lat="46.16251593351171" lon="12.912696565882124"><ele>176.0</ele><time>2026-04-04T10:13:35Z</time></trkpt><trkpt lat="46.162713958537545" lon="12.91282830739389"><ele>176.0</ele><time>2026-04-04T10:13:36Z</time></trkpt><trkpt lat="46.16290769984394" lon="12.912968600475285"><ele>176.0</ele><time>2026-04-04T10:13:37Z</time></trkpt><trkpt lat="46.163103557925254" lon="12.913115543827201"><ele>176.33333333333331</ele><time>2026-04-04T10:13:38Z</time></trkpt><trkpt lat="46.16329740158557" lon="12.913261131325307"><ele>176.66666666666666</ele><time>2026-04-04T10:13:39Z</time></trkpt><trkpt lat="46.16348565503905" lon="12.913402558327034"><ele>177.0</ele><time>2026-04-04T10:13:40Z</time></trkpt><trkpt lat="46.16367086306608" lon="12.913541052811938"><ele>177.0</ele><time>2026-04-04T10:13:41Z</time></trkpt><trkpt lat="46.16384307765809" lon="12.913668887358945"><ele>177.0</ele><time>2026-04-04T10:13:42Z</time></trkpt><trkpt lat="46.164011760119294" lon="12.913794099865225"><ele>177.0</ele><time>2026-04-04T10:13:43Z</time></trkpt><trkpt lat="46.16417368665894" lon="12.91391293047693"><ele>178.0</ele><time>2026-04-04T10:13:44Z</time></trkpt><trkpt lat="46.16433958741331" lon="12.914007309488692"><ele>179.0</ele><time>2026-04-04T10:13:45Z</time></trkpt><trkpt lat="46.16448865294739" lon="12.914109887844226"><ele>180.0</ele><time>2026-04-04T10:13:46Z</time></trkpt><trkpt lat="46.16464331788881" lon="12.914212442254453"><ele>179.33333333333334</ele><time>2026-04-04T10:13:47Z</time></trkpt><trkpt lat="46.16480134589668" lon="12.914307014071829"><ele>178.66666666666669</ele><time>2026-04-04T10:13:48Z</time></trkpt><trkpt lat="46.16500487298652" lon="12.914266307010278"><ele>178.0</ele><time>2026-04-04T10:13:49.001Z</time></trkpt><trkpt lat="46.16519145328235" lon="12.914278142173435"><ele>177.0</ele><time>2026-04-04T10:13:50.001Z</time></trkpt><trkpt lat="46.165375433144185" lon="12.914311312831714"><ele>176.0</ele><time>2026-04-04T10:13:51.001Z</time></trkpt><trkpt lat="46.16556181697387" lon="12.914321725930572"><ele>175.0</ele><time>2026-04-04T10:13:52.001Z</time></trkpt><trkpt lat="46.16575508816969" lon="12.914305457350329"><ele>175.66666666666669</ele><time>2026-04-04T10:13:53.001Z</time></trkpt><trkpt lat="46.165943914810235" lon="12.914273424089718"><ele>176.33333333333334</ele><time>2026-04-04T10:13:54.001Z</time></trkpt><trkpt lat="46.16612064944798" lon="12.91424270495529"><ele>177.0</ele><time>2026-04-04T10:13:55.001Z</time></trkpt><trkpt lat="46.16629452457992" lon="12.914221485072767"><ele>177.0</ele><time>2026-04-04T10:13:56.001Z</time></trkpt><trkpt lat="46.16644703614007" lon="12.914199888488639"><ele>177.0</ele><time>2026-04-04T10:13:57.001Z</time></trkpt><trkpt lat="46.16657845459387" lon="12.914184597952143"><ele>177.0</ele><time>2026-04-04T10:13:58.001Z</time></trkpt><trkpt lat="46.16670046705226" lon="12.914188576313466"><ele>177.0</ele><time>2026-04-04T10:13:59.001Z</time></trkpt><trkpt lat="46.166816119486136" lon="12.914225091905278"><ele>172.25</ele><time>2026-04-04T10:14:00.001Z</time></trkpt><trkpt lat="46.166924745660836" lon="12.914278118595478"><ele>167.5</ele><time>2026-04-04T10:14:01.001Z</time></trkpt><trkpt lat="46.16703233521787" lon="12.914359120823395"><ele>162.75</ele><time>2026-04-04T10:14:02.001Z</time></trkpt><trkpt lat="46.16715305884466" lon="12.914474440173818"><ele>158.0</ele><time>2026-04-04T10:14:03.001Z</time></trkpt><trkpt lat="46.16725844188529" lon="12.914609703389797"><ele>158.0</ele><time>2026-04-04T10:14:04.001Z</time></trkpt><trkpt lat="46.16734031980459" lon="12.91476250167864"><ele>158.0</ele><time>2026-04-04T10:14:05.001Z</time></trkpt><trkpt lat="46.167410337459344" lon="12.914952497887981"><ele>158.0</ele><time>2026-04-04T10:14:06.001Z</time></trkpt><trkpt lat="46.16746228427238" lon="12.915157357361604"><ele>158.0</ele><time>2026-04-04T10:14:07.001Z</time></trkpt><trkpt lat="46.16751377334245" lon="12.915350607552861"><ele>159.25</ele><time>2026-04-04T10:14:08.001Z</time></trkpt><trkpt lat="46.167577147408636" lon="12.915506414431594"><ele>160.5</ele><time>2026-04-04T10:14:09.001Z</time></trkpt><trkpt lat="46.16766495537105" lon="12.915625831127532"><ele>161.75</ele><time>2026-04-04T10:14:10.001Z</time></trkpt><trkpt lat="46.167772904786545" lon="12.9157436012475"><ele>163.0</ele><time>2026-04-04T10:14:11.001Z</time></trkpt><trkpt lat="46.16787845895508" lon="12.915878397612932"><ele>165.0</ele><time>2026-04-04T10:14:12.001Z</time></trkpt><trkpt lat="46.16802384355098" lon="12.915975102368973"><ele>167.0</ele><time>2026-04-04T10:14:13Z</time></trkpt><trkpt lat="46.16819254079368" lon="12.916082103327716"><ele>169.0</ele><time>2026-04-04T10:14:14Z</time></trkpt><trkpt lat="46.168355489434184" lon="12.916190860781096"><ele>171.66666666666669</ele><time>2026-04-04T10:14:15Z</time></trkpt><trkpt lat="46.16851028184107" lon="12.91630363403403"><ele>174.33333333333334</ele><time>2026-04-04T10:14:16Z</time></trkpt><trkpt lat="46.16865825045808" lon="12.916397733998128"><ele>177.0</ele><time>2026-04-04T10:14:17Z</time></trkpt><trkpt lat="46.168774286690685" lon="12.916480948870795"><ele>177.0</ele><time>2026-04-04T10:14:18Z</time></trkpt><trkpt lat="46.168849393028715" lon="12.916541993372222"><ele>177.0</ele><time>2026-04-04T10:14:19Z</time></trkpt><trkpt lat="46.16892546926911" lon="12.91666196106461"><ele>177.0</ele><time>2026-04-04T10:14:21Z</time></trkpt><trkpt lat="46.16894818214668" lon="12.916752357424961"><ele>177.0</ele><time>2026-04-04T10:14:22Z</time></trkpt><trkpt lat="46.1689537069771" lon="12.916866786713014"><ele>177.0</ele><time>2026-04-04T10:14:23Z</time></trkpt><trkpt lat="46.16893528950373" lon="12.91698327625477"><ele>177.0</ele><time>2026-04-04T10:14:24Z</time></trkpt><trkpt lat="46.16890185626911" lon="12.917090658428616"><ele>177.42857142857144</ele><time>2026-04-04T10:14:25Z</time></trkpt><trkpt lat="46.168849827031316" lon="12.917165176592095"><ele>177.85714285714283</ele><time>2026-04-04T10:14:26Z</time></trkpt><trkpt lat="46.1687856539696" lon="12.917215386455105"><ele>178.28571428571428</ele><time>2026-04-04T10:14:27Z</time></trkpt><trkpt lat="46.168727628394464" lon="12.917278544346122"><ele>178.71428571428572</ele><time>2026-04-04T10:14:28Z</time></trkpt><trkpt lat="46.16866655296105" lon="12.917340905982686"><ele>179.14285714285717</ele><time>2026-04-04T10:14:29Z</time></trkpt><trkpt lat="46.16861330240703" lon="12.917410905072103"><ele>179.57142857142856</ele><time>2026-04-04T10:14:30Z</time></trkpt><trkpt lat="46.16855202266101" lon="12.91747776433486"><ele>180.0</ele><time>2026-04-04T10:14:31Z</time></trkpt><trkpt lat="46.16846838934213" lon="12.91753613294299"><ele>180.0</ele><time>2026-04-04T10:14:32Z</time></trkpt><trkpt lat="46.16837144532327" lon="12.917576731662674"><ele>180.0</ele><time>2026-04-04T10:14:33Z</time></trkpt><trkpt lat="46.16827539577634" lon="12.91764412632992"><ele>180.0</ele><time>2026-04-04T10:14:34Z</time></trkpt><trkpt lat="46.16816149850004" lon="12.917786018483337"><ele>180.0</ele><time>2026-04-04T10:14:35Z</time></trkpt><trkpt lat="46.16807790436847" lon="12.917935476782226"><ele>179.8</ele><time>2026-04-04T10:14:36Z</time></trkpt><trkpt lat="46.167994925863596" lon="12.918078187197946"><ele>179.6</ele><time>2026-04-04T10:14:37Z</time></trkpt><trkpt lat="46.16791929463819" lon="12.918199576651244"><ele>179.39999999999998</ele><time>2026-04-04T10:14:38Z</time></trkpt><trkpt lat="46.167844471385926" lon="12.91830767724126"><ele>179.2</ele><time>2026-04-04T10:14:39Z</time></trkpt><trkpt lat="46.16779012378292" lon="12.918410382600957"><ele>179.0</ele><time>2026-04-04T10:14:40Z</time></trkpt><trkpt lat="46.16776534701961" lon="12.918541872789682"><ele>179.0</ele><time>2026-04-04T10:14:41Z</time></trkpt><trkpt lat="46.167758617127646" lon="12.918713886433634"><ele>179.0</ele><time>2026-04-04T10:14:42Z</time></trkpt><trkpt lat="46.16776604268813" lon="12.918916979691614"><ele>179.0</ele><time>2026-04-04T10:14:43Z</time></trkpt><trkpt lat="46.167787810928864" lon="12.919145675508314"><ele>179.0</ele><time>2026-04-04T10:14:44Z</time></trkpt><trkpt lat="46.167810982126376" lon="12.919370306468675"><ele>179.0</ele><time>2026-04-04T10:14:45Z</time></trkpt><trkpt lat="46.167836907699574" lon="12.91959968202551"><ele>179.0</ele><time>2026-04-04T10:14:46Z</time></trkpt><trkpt lat="46.167849905492226" lon="12.919827439039617"><ele>179.0</ele><time>2026-04-04T10:14:47Z</time></trkpt><trkpt lat="46.167863352612216" lon="12.920050302458595"><ele>179.5</ele><time>2026-04-04T10:14:48Z</time></trkpt><trkpt lat="46.16786956486434" lon="12.920255858426557"><ele>180.0</ele><time>2026-04-04T10:14:49Z</time></trkpt><trkpt lat="46.167882033909144" lon="12.920442345740337"><ele>180.5</ele><time>2026-04-04T10:14:50Z</time></trkpt><trkpt lat="46.16787531057604" lon="12.920639813783703"><ele>181.0</ele><time>2026-04-04T10:14:51Z</time></trkpt><trkpt lat="46.167845528353524" lon="12.920835719784874"><ele>180.75</ele><time>2026-04-04T10:14:52Z</time></trkpt><trkpt lat="46.16778377448624" lon="12.921014897697987"><ele>180.5</ele><time>2026-04-04T10:14:53Z</time></trkpt><trkpt lat="46.16774964876008" lon="12.921201274244277"><ele>180.25</ele><time>2026-04-04T10:14:54Z</time></trkpt><trkpt lat="46.16773227938164" lon="12.92140029245853"><ele>180.0</ele><time>2026-04-04T10:14:55Z</time></trkpt><trkpt lat="46.167744352535415" lon="12.921605078753847"><ele>180.0</ele><time>2026-04-04T10:14:56Z</time></trkpt><trkpt lat="46.16775269526012" lon="12.921794784783046"><ele>180.0</ele><time>2026-04-04T10:14:57Z</time></trkpt><trkpt lat="46.1677718276034" lon="12.921967246710404"><ele>180.0</ele><time>2026-04-04T10:14:58Z</time></trkpt><trkpt lat="46.16780950243212" lon="12.922117333935638"><ele>180.0</ele><time>2026-04-04T10:14:59Z</time></trkpt><trkpt lat="46.16786843576241" lon="12.922268579213783"><ele>180.0</ele><time>2026-04-04T10:15:00Z</time></trkpt><trkpt lat="46.16796060913737" lon="12.922445445298587"><ele>180.0</ele><time>2026-04-04T10:15:01Z</time></trkpt><trkpt lat="46.16806841430775" lon="12.922631605017484"><ele>180.0</ele><time>2026-04-04T10:15:02Z</time></trkpt><trkpt lat="46.1681755648223" lon="12.92286228714004"><ele>180.66666666666666</ele><time>2026-04-04T10:15:03Z</time></trkpt><trkpt lat="46.16829732206863" lon="12.923093227155164"><ele>181.33333333333331</ele><time>2026-04-04T10:15:04Z</time></trkpt><trkpt lat="46.16842885301673" lon="12.923342820245997"><ele>182.0</ele><time>2026-04-04T10:15:05Z</time></trkpt><trkpt lat="46.16856316974407" lon="12.923598018108384"><ele>182.0</ele><time>2026-04-04T10:15:06Z</time></trkpt><trkpt lat="46.16869509554623" lon="12.92384867441737"><ele>182.0</ele><time>2026-04-04T10:15:07Z</time></trkpt><trkpt lat="46.16882143479431" lon="12.924089220237974"><ele>182.0</ele><time>2026-04-04T10:15:08Z</time></trkpt><trkpt lat="46.16893732469274" lon="12.92431110264924"><ele>182.0</ele><time>2026-04-04T10:15:09Z</time></trkpt><trkpt lat="46.16905329286316" lon="12.924533135468677"><ele>182.0</ele><time>2026-04-04T10:15:10Z</time></trkpt><trkpt lat="46.169169153988996" lon="12.924754962866455"><ele>182.0</ele><time>2026-04-04T10:15:11Z</time></trkpt><trkpt lat="46.169284441440176" lon="12.924975692015323"><ele>181.66666666666666</ele><time>2026-04-04T10:15:12Z</time></trkpt><trkpt lat="46.16939506462486" lon="12.925187490926975"><ele>181.33333333333334</ele><time>2026-04-04T10:15:13.001Z</time></trkpt><trkpt lat="46.169510043243555" lon="12.925407628766983"><ele>181.0</ele><time>2026-04-04T10:15:14.001Z</time></trkpt><trkpt lat="46.16963781754443" lon="12.925617908441666"><ele>181.0</ele><time>2026-04-04T10:15:15.001Z</time></trkpt><trkpt lat="46.16975749085655" lon="12.925842074013689"><ele>181.0</ele><time>2026-04-04T10:15:16.001Z</time></trkpt><trkpt lat="46.16985689933549" lon="12.926071621641233"><ele>181.0</ele><time>2026-04-04T10:15:17.001Z</time></trkpt><trkpt lat="46.169965513219594" lon="12.926280416827721"><ele>181.33333333333334</ele><time>2026-04-04T10:15:18.001Z</time></trkpt><trkpt lat="46.17007624564135" lon="12.926457838717093"><ele>181.66666666666666</ele><time>2026-04-04T10:15:19.001Z</time></trkpt><trkpt lat="46.17017216376693" lon="12.926636645624152"><ele>182.0</ele><time>2026-04-04T10:15:20.001Z</time></trkpt><trkpt lat="46.17026640502282" lon="12.926794168980582"><ele>181.5</ele><time>2026-04-04T10:15:21.001Z</time></trkpt><trkpt lat="46.1703736139491" lon="12.926926903085315"><ele>181.0</ele><time>2026-04-04T10:15:22.001Z</time></trkpt><trkpt lat="46.17049744367951" lon="12.927031513549261"><ele>180.5</ele><time>2026-04-04T10:15:23.001Z</time></trkpt><trkpt lat="46.17061958769111" lon="12.927123453612491"><ele>180.0</ele><time>2026-04-04T10:15:24.001Z</time></trkpt><trkpt lat="46.170738894851496" lon="12.92719309190789"><ele>179.5</ele><time>2026-04-04T10:15:25.001Z</time></trkpt><trkpt lat="46.170856966999224" lon="12.927227491305892"><ele>179.0</ele><time>2026-04-04T10:15:26.001Z</time></trkpt><trkpt lat="46.17098000296215" lon="12.927227359818419"><ele>178.5</ele><time>2026-04-04T10:15:27.001Z</time></trkpt><trkpt lat="46.171113771967" lon="12.927174260379953"><ele>178.0</ele><time>2026-04-04T10:15:28.001Z</time></trkpt><trkpt lat="46.17128056439275" lon="12.927079319254965"><ele>178.0</ele><time>2026-04-04T10:15:29.001Z</time></trkpt><trkpt lat="46.17145184527018" lon="12.926948014001498"><ele>178.0</ele><time>2026-04-04T10:15:30.001Z</time></trkpt><trkpt lat="46.171624350799426" lon="12.926821792187127"><ele>178.0</ele><time>2026-04-04T10:15:31.001Z</time></trkpt><trkpt lat="46.17178323251289" lon="12.926721538141226"><ele>180.0</ele><time>2026-04-04T10:15:32.001Z</time></trkpt><trkpt lat="46.171940339158525" lon="12.926640225447702"><ele>182.0</ele><time>2026-04-04T10:15:33.001Z</time></trkpt><trkpt lat="46.17209772428854" lon="12.926554673128079"><ele>184.0</ele><time>2026-04-04T10:15:34.001Z</time></trkpt><trkpt lat="46.17225523531815" lon="12.926464659446635"><ele>180.66666666666669</ele><time>2026-04-04T10:15:35.001Z</time></trkpt><trkpt lat="46.17242517305741" lon="12.926385973203141"><ele>177.33333333333334</ele><time>2026-04-04T10:15:36.001Z</time></trkpt><trkpt lat="46.17260055507952" lon="12.926323075201312"><ele>174.0</ele><time>2026-04-04T10:15:37.001Z</time></trkpt><trkpt lat="46.172784706222814" lon="12.9262863036232"><ele>174.0</ele><time>2026-04-04T10:15:38.001Z</time></trkpt><trkpt lat="46.17296169612568" lon="12.926272668219642"><ele>174.0</ele><time>2026-04-04T10:15:39.001Z</time></trkpt><trkpt lat="46.17312750649572" lon="12.92626461800139"><ele>174.0</ele><time>2026-04-04T10:15:40.001Z</time></trkpt><trkpt lat="46.17328456301764" lon="12.926247171554923"><ele>173.0</ele><time>2026-04-04T10:15:41.001Z</time></trkpt><trkpt lat="46.173433542320154" lon="12.926231748842813"><ele>172.0</ele><time>2026-04-04T10:15:42.001Z</time></trkpt><trkpt lat="46.173575625688464" lon="12.926222542403957"><ele>171.0</ele><time>2026-04-04T10:15:43.001Z</time></trkpt><trkpt lat="46.17370763867153" lon="12.926220649416736"><ele>170.0</ele><time>2026-04-04T10:15:44.001Z</time></trkpt><trkpt lat="46.17383976376389" lon="12.92625708758793"><ele>170.0</ele><time>2026-04-04T10:15:45.001Z</time></trkpt><trkpt lat="46.17397586480658" lon="12.926355442552804"><ele>170.0</ele><time>2026-04-04T10:15:46.001Z</time></trkpt><trkpt lat="46.17411461556826" lon="12.926452086362042"><ele>170.0</ele><time>2026-04-04T10:15:47.001Z</time></trkpt><trkpt lat="46.17425279408996" lon="12.926554182588353"><ele>170.66666666666666</ele><time>2026-04-04T10:15:48.001Z</time></trkpt><trkpt lat="46.17438394186375" lon="12.926683427581159"><ele>171.33333333333334</ele><time>2026-04-04T10:15:49.001Z</time></trkpt><trkpt lat="46.17451320747047" lon="12.926838560216313"><ele>172.0</ele><time>2026-04-04T10:15:50.001Z</time></trkpt><trkpt lat="46.17464241570117" lon="12.926975453322518"><ele>169.75</ele><time>2026-04-04T10:15:51.001Z</time></trkpt><trkpt lat="46.17475603537822" lon="12.927115566478644"><ele>167.5</ele><time>2026-04-04T10:15:52.001Z</time></trkpt><trkpt lat="46.17487332049429" lon="12.92723812107747"><ele>165.25</ele><time>2026-04-04T10:15:53.001Z</time></trkpt><trkpt lat="46.17499385913864" lon="12.927328355031989"><ele>163.0</ele><time>2026-04-04T10:15:54.001Z</time></trkpt><trkpt lat="46.175109981769204" lon="12.927395549530516"><ele>163.0</ele><time>2026-04-04T10:15:55.001Z</time></trkpt><trkpt lat="46.175221986025115" lon="12.92744361190092"><ele>163.0</ele><time>2026-04-04T10:15:56.001Z</time></trkpt><trkpt lat="46.17531102909453" lon="12.927451012668355"><ele>163.0</ele><time>2026-04-04T10:15:57.001Z</time></trkpt><trkpt lat="46.17540026648411" lon="12.9274241566661"><ele>163.0</ele><time>2026-04-04T10:15:58.001Z</time></trkpt><trkpt lat="46.17549418271566" lon="12.927346965904356"><ele>163.0</ele><time>2026-04-04T10:15:59.001Z</time></trkpt><trkpt lat="46.17561134296423" lon="12.927237773270905"><ele>161.33333333333334</ele><time>2026-04-04T10:16:00.001Z</time></trkpt><trkpt lat="46.17575186060965" lon="12.927104259124294"><ele>159.66666666666666</ele><time>2026-04-04T10:16:01.001Z</time></trkpt><trkpt lat="46.175902452287126" lon="12.926985732294854"><ele>158.0</ele><time>2026-04-04T10:16:02.001Z</time></trkpt><trkpt lat="46.17605561557214" lon="12.926908264229588"><ele>158.0</ele><time>2026-04-04T10:16:03.001Z</time></trkpt><trkpt lat="46.1761778250869" lon="12.926803276777674"><ele>158.0</ele><time>2026-04-04T10:16:04.001Z</time></trkpt><trkpt lat="46.17630304697407" lon="12.926726594593717"><ele>158.0</ele><time>2026-04-04T10:16:05.001Z</time></trkpt><trkpt lat="46.17641454936804" lon="12.92664598965361"><ele>158.0</ele><time>2026-04-04T10:16:06.001Z</time></trkpt><trkpt lat="46.17652640063658" lon="12.92657537470107"><ele>159.4</ele><time>2026-04-04T10:16:07.001Z</time></trkpt><trkpt lat="46.17664947749219" lon="12.926555464267242"><ele>160.8</ele><time>2026-04-04T10:16:08.001Z</time></trkpt><trkpt lat="46.17674036645654" lon="12.926541218521256"><ele>162.2</ele><time>2026-04-04T10:16:09.001Z</time></trkpt><trkpt lat="46.17683171521009" lon="12.926588527976884"><ele>163.6</ele><time>2026-04-04T10:16:10.001Z</time></trkpt><trkpt lat="46.17691586425589" lon="12.926653795550363"><ele>165.0</ele><time>2026-04-04T10:16:11.001Z</time></trkpt><trkpt lat="46.17698840157573" lon="12.926736818412078"><ele>162.2</ele><time>2026-04-04T10:16:12.001Z</time></trkpt><trkpt lat="46.17699061300815" lon="12.926872031845464"><ele>159.4</ele><time>2026-04-04T10:16:13.001Z</time></trkpt><trkpt lat="46.17700502753379" lon="12.926990949673051"><ele>156.6</ele><time>2026-04-04T10:16:14.001Z</time></trkpt><trkpt lat="46.17702845218591" lon="12.927157781723226"><ele>153.8</ele><time>2026-04-04T10:16:15.001Z</time></trkpt><trkpt lat="46.17704962155209" lon="12.927345758060126"><ele>151.0</ele><time>2026-04-04T10:16:16.001Z</time></trkpt><trkpt lat="46.177036811412954" lon="12.927511382920999"><ele>151.25</ele><time>2026-04-04T10:16:17.001Z</time></trkpt><trkpt lat="46.1770540063091" lon="12.927665222107203"><ele>151.5</ele><time>2026-04-04T10:16:18.001Z</time></trkpt><trkpt lat="46.177051246903034" lon="12.927835693398752"><ele>151.75</ele><time>2026-04-04T10:16:19.001Z</time></trkpt><trkpt lat="46.17705280729941" lon="12.92801496127874"><ele>152.0</ele><time>2026-04-04T10:16:20.001Z</time></trkpt><trkpt lat="46.177060697360304" lon="12.92819885771516"><ele>152.0</ele><time>2026-04-04T10:16:21.001Z</time></trkpt><trkpt lat="46.17704525277465" lon="12.928366569731184"><ele>152.0</ele><time>2026-04-04T10:16:22.001Z</time></trkpt><trkpt lat="46.17702905759876" lon="12.9285346643113"><ele>152.0</ele><time>2026-04-04T10:16:23.001Z</time></trkpt><trkpt lat="46.176987634274546" lon="12.928689700368437"><ele>152.0</ele><time>2026-04-04T10:16:24.001Z</time></trkpt><trkpt lat="46.176922139596265" lon="12.928824345111162"><ele>152.83333333333331</ele><time>2026-04-04T10:16:25.001Z</time></trkpt><trkpt lat="46.1768637998418" lon="12.928946189478596"><ele>153.66666666666666</ele><time>2026-04-04T10:16:26.001Z</time></trkpt><trkpt lat="46.17681903275238" lon="12.929049900945012"><ele>154.5</ele><time>2026-04-04T10:16:27.001Z</time></trkpt><trkpt lat="46.17680487190846" lon="12.929173864245664"><ele>155.33333333333334</ele><time>2026-04-04T10:16:28.001Z</time></trkpt><trkpt lat="46.1767939062377" lon="12.92929577119625"><ele>156.16666666666669</ele><time>2026-04-04T10:16:29.001Z</time></trkpt><trkpt lat="46.17681385700598" lon="12.929419202497119"><ele>157.0</ele><time>2026-04-04T10:16:30.001Z</time></trkpt><trkpt lat="46.176870568398634" lon="12.929553967689108"><ele>157.0</ele><time>2026-04-04T10:16:31.001Z</time></trkpt><trkpt lat="46.176941632233465" lon="12.929696864007328"><ele>157.0</ele><time>2026-04-04T10:16:32.001Z</time></trkpt><trkpt lat="46.17700644751251" lon="12.929843015497593"><ele>157.0</ele><time>2026-04-04T10:16:33.001Z</time></trkpt><trkpt lat="46.17706112182968" lon="12.929955351436128"><ele>157.0</ele><time>2026-04-04T10:16:34Z</time></trkpt><trkpt lat="46.177111932322546" lon="12.930046611620643"><ele>157.0</ele><time>2026-04-04T10:16:35Z</time></trkpt><trkpt lat="46.177175062795705" lon="12.930105405843596"><ele>155.79999999999998</ele><time>2026-04-04T10:16:36Z</time></trkpt><trkpt lat="46.177265273727954" lon="12.930115961173312"><ele>154.6</ele><time>2026-04-04T10:16:37Z</time></trkpt><trkpt lat="46.177358708044586" lon="12.930092618595806"><ele>153.39999999999998</ele><time>2026-04-04T10:16:38Z</time></trkpt><trkpt lat="46.17745730428931" lon="12.93003614577354"><ele>152.2</ele><time>2026-04-04T10:16:39Z</time></trkpt><trkpt lat="46.17756641460578" lon="12.929953574239187"><ele>151.0</ele><time>2026-04-04T10:16:40Z</time></trkpt><trkpt lat="46.1776686808423" lon="12.929892965527495"><ele>153.66666666666669</ele><time>2026-04-04T10:16:41Z</time></trkpt><trkpt lat="46.177756313192226" lon="12.92984173692401"><ele>156.33333333333334</ele><time>2026-04-04T10:16:42Z</time></trkpt><trkpt lat="46.17782676573622" lon="12.929798462612752"><ele>159.0</ele><time>2026-04-04T10:16:43Z</time></trkpt><trkpt lat="46.17789941450243" lon="12.929837585972468"><ele>161.66666666666666</ele><time>2026-04-04T10:16:44Z</time></trkpt><trkpt lat="46.1779255578531" lon="12.929944140786432"><ele>164.33333333333331</ele><time>2026-04-04T10:16:45Z</time></trkpt><trkpt lat="46.1779441676647" lon="12.930039785377703"><ele>167.0</ele><time>2026-04-04T10:16:46Z</time></trkpt><trkpt lat="46.17795334095987" lon="12.930165871814388"><ele>167.0</ele><time>2026-04-04T10:16:47Z</time></trkpt><trkpt lat="46.17789259830899" lon="12.930287308287284"><ele>167.0</ele><time>2026-04-04T10:16:48Z</time></trkpt><trkpt lat="46.17783828128873" lon="12.930419345336334"><ele>167.0</ele><time>2026-04-04T10:16:49Z</time></trkpt><trkpt lat="46.17778447115841" lon="12.930580932190074"><ele>167.0</ele><time>2026-04-04T10:16:50Z</time></trkpt><trkpt lat="46.17773445137034" lon="12.930711601899564"><ele>167.0</ele><time>2026-04-04T10:16:51Z</time></trkpt><trkpt lat="46.177712451573974" lon="12.930827493107328"><ele>165.8</ele><time>2026-04-04T10:16:52.001Z</time></trkpt><trkpt lat="46.177719654772844" lon="12.930927908237658"><ele>164.6</ele><time>2026-04-04T10:16:53.001Z</time></trkpt><trkpt lat="46.17775002087122" lon="12.931026013879984"><ele>163.4</ele><time>2026-04-04T10:16:54.001Z</time></trkpt><trkpt lat="46.177808418171814" lon="12.931134730736641"><ele>162.20000000000002</ele><time>2026-04-04T10:16:55.001Z</time></trkpt><trkpt lat="46.177890896232704" lon="12.931239132143856"><ele>161.0</ele><time>2026-04-04T10:16:56.001Z</time></trkpt><trkpt lat="46.177991564155526" lon="12.931344741454808"><ele>161.0</ele><time>2026-04-04T10:16:57.001Z</time></trkpt><trkpt lat="46.178091690678336" lon="12.931446597445094"><ele>161.0</ele><time>2026-04-04T10:16:58.001Z</time></trkpt><trkpt lat="46.178187273362326" lon="12.931544503300069"><ele>161.0</ele><time>2026-04-04T10:16:59.001Z</time></trkpt><trkpt lat="46.17829724371878" lon="12.931624965055793"><ele>161.0</ele><time>2026-04-04T10:17:00.001Z</time></trkpt><trkpt lat="46.178408433193695" lon="12.93169854995045"><ele>163.5</ele><time>2026-04-04T10:17:01.001Z</time></trkpt><trkpt lat="46.17852695639447" lon="12.93176188621267"><ele>166.0</ele><time>2026-04-04T10:17:02.001Z</time></trkpt><trkpt lat="46.17864327309833" lon="12.931827036601096"><ele>168.5</ele><time>2026-04-04T10:17:03.001Z</time></trkpt><trkpt lat="46.178764018399484" lon="12.931890316756206"><ele>171.0</ele><time>2026-04-04T10:17:04.001Z</time></trkpt><trkpt lat="46.17889160875698" lon="12.931971713680914"><ele>171.0</ele><time>2026-04-04T10:17:05.001Z</time></trkpt><trkpt lat="46.17901639822658" lon="12.932051988029304"><ele>171.0</ele><time>2026-04-04T10:17:06.001Z</time></trkpt><trkpt lat="46.179146576473634" lon="12.932122676783294"><ele>171.0</ele><time>2026-04-04T10:17:07.001Z</time></trkpt><trkpt lat="46.17928182317291" lon="12.932189857383394"><ele>171.0</ele><time>2026-04-04T10:17:08.001Z</time></trkpt><trkpt lat="46.17942047774984" lon="12.932255709270713"><ele>175.25</ele><time>2026-04-04T10:17:09.001Z</time></trkpt><trkpt lat="46.1795625373944" lon="12.93231808799598"><ele>179.5</ele><time>2026-04-04T10:17:10.001Z</time></trkpt><trkpt lat="46.17970947165596" lon="12.932365339124747"><ele>183.75</ele><time>2026-04-04T10:17:11.001Z</time></trkpt><trkpt lat="46.17985590264589" lon="12.932411747244668"><ele>188.0</ele><time>2026-04-04T10:17:12.001Z</time></trkpt><trkpt lat="46.179998975844896" lon="12.932463735975157"><ele>189.5</ele><time>2026-04-04T10:17:13.001Z</time></trkpt><trkpt lat="46.180125580807314" lon="12.932512226245565"><ele>191.0</ele><time>2026-04-04T10:17:14.001Z</time></trkpt><trkpt lat="46.18024245020954" lon="12.93255552050003"><ele>192.5</ele><time>2026-04-04T10:17:15.001Z</time></trkpt><trkpt lat="46.18036332426555" lon="12.932599759134828"><ele>194.0</ele><time>2026-04-04T10:17:16.001Z</time></trkpt><trkpt lat="46.1804786001161" lon="12.932649638557955"><ele>194.25</ele><time>2026-04-04T10:17:17.001Z</time></trkpt><trkpt lat="46.18058585243474" lon="12.932718040203843"><ele>194.5</ele><time>2026-04-04T10:17:18.001Z</time></trkpt><trkpt lat="46.18068271787299" lon="12.932814526777053"><ele>194.75</ele><time>2026-04-04T10:17:19.001Z</time></trkpt><trkpt lat="46.18076944435721" lon="12.932938599678323"><ele>195.0</ele><time>2026-04-04T10:17:20.001Z</time></trkpt><trkpt lat="46.180840156934565" lon="12.93307861863731"><ele>195.33333333333331</ele><time>2026-04-04T10:17:21.001Z</time></trkpt><trkpt lat="46.180899354608265" lon="12.933256154695249"><ele>195.66666666666666</ele><time>2026-04-04T10:17:22.001Z</time></trkpt><trkpt lat="46.180950014160025" lon="12.933470467774587"><ele>196.0</ele><time>2026-04-04T10:17:23.001Z</time></trkpt><trkpt lat="46.1809968124297" lon="12.93369008538788"><ele>196.0</ele><time>2026-04-04T10:17:24.001Z</time></trkpt><trkpt lat="46.18103874541324" lon="12.933908134806607"><ele>196.0</ele><time>2026-04-04T10:17:25.001Z</time></trkpt><trkpt lat="46.18108730764325" lon="12.934136061682558"><ele>196.0</ele><time>2026-04-04T10:17:26.001Z</time></trkpt><trkpt lat="46.18113841826628" lon="12.934359468096895"><ele>196.0</ele><time>2026-04-04T10:17:27.001Z</time></trkpt><trkpt lat="46.18119086082241" lon="12.934579652604857"><ele>196.0</ele><time>2026-04-04T10:17:28.001Z</time></trkpt><trkpt lat="46.1812311969911" lon="12.934788164374941"><ele>196.0</ele><time>2026-04-04T10:17:29.001Z</time></trkpt><trkpt lat="46.18127603174715" lon="12.934991109084036"><ele>195.66666666666666</ele><time>2026-04-04T10:17:30.001Z</time></trkpt><trkpt lat="46.181326080062256" lon="12.93519850235541"><ele>195.33333333333331</ele><time>2026-04-04T10:17:31.001Z</time></trkpt><trkpt lat="46.181375011552944" lon="12.9354116574793"><ele>195.0</ele><time>2026-04-04T10:17:32.001Z</time></trkpt><trkpt lat="46.18142581717509" lon="12.935629170022025"><ele>195.0</ele><time>2026-04-04T10:17:33.001Z</time></trkpt><trkpt lat="46.18147408420726" lon="12.935850974878145"><ele>195.0</ele><time>2026-04-04T10:17:34.001Z</time></trkpt><trkpt lat="46.181525824972" lon="12.9360817540016"><ele>195.0</ele><time>2026-04-04T10:17:35.001Z</time></trkpt><trkpt lat="46.1815800385651" lon="12.936319187101116"><ele>197.0</ele><time>2026-04-04T10:17:36.001Z</time></trkpt><trkpt lat="46.18163246571879" lon="12.936558875343614"><ele>199.0</ele><time>2026-04-04T10:17:37.001Z</time></trkpt><trkpt lat="46.18168536175298" lon="12.936794298135256"><ele>201.0</ele><time>2026-04-04T10:17:38.001Z</time></trkpt><trkpt lat="46.181733397546" lon="12.937019243707336"><ele>201.33333333333331</ele><time>2026-04-04T10:17:39.001Z</time></trkpt><trkpt lat="46.18177550825607" lon="12.93724433795524"><ele>201.66666666666666</ele><time>2026-04-04T10:17:40.001Z</time></trkpt><trkpt lat="46.181818021249576" lon="12.937479234903575"><ele>202.0</ele><time>2026-04-04T10:17:41.001Z</time></trkpt><trkpt lat="46.18185097886571" lon="12.937724060841704"><ele>201.66666666666666</ele><time>2026-04-04T10:17:42.001Z</time></trkpt><trkpt lat="46.18187351202671" lon="12.937970863875016"><ele>201.33333333333331</ele><time>2026-04-04T10:17:43.001Z</time></trkpt><trkpt lat="46.18189234647074" lon="12.938203738105573"><ele>201.0</ele><time>2026-04-04T10:17:44.001Z</time></trkpt><trkpt lat="46.18192385925602" lon="12.938447012287622"><ele>201.0</ele><time>2026-04-04T10:17:45.001Z</time></trkpt><trkpt lat="46.18192763933815" lon="12.93867518282135"><ele>201.0</ele><time>2026-04-04T10:17:46.001Z</time></trkpt><trkpt lat="46.1819594955711" lon="12.938883107569236"><ele>201.0</ele><time>2026-04-04T10:17:47.001Z</time></trkpt><trkpt lat="46.18195862073754" lon="12.939083343383798"><ele>201.0</ele><time>2026-04-04T10:17:48.001Z</time></trkpt><trkpt lat="46.18197328034418" lon="12.939276474588983"><ele>201.0</ele><time>2026-04-04T10:17:49.001Z</time></trkpt><trkpt lat="46.18200392382356" lon="12.939471011819093"><ele>201.0</ele><time>2026-04-04T10:17:50.001Z</time></trkpt><trkpt lat="46.18201530936161" lon="12.93966601796243"><ele>201.0</ele><time>2026-04-04T10:17:51.001Z</time></trkpt><trkpt lat="46.18203278380949" lon="12.939852165692283"><ele>201.0</ele><time>2026-04-04T10:17:52.001Z</time></trkpt><trkpt lat="46.182041315512535" lon="12.940026782631683"><ele>200.75</ele><time>2026-04-04T10:17:53.001Z</time></trkpt><trkpt lat="46.182051484163374" lon="12.940202070179186"><ele>200.5</ele><time>2026-04-04T10:17:54.001Z</time></trkpt><trkpt lat="46.18206430494264" lon="12.940368474053873"><ele>200.25</ele><time>2026-04-04T10:17:55.001Z</time></trkpt><trkpt lat="46.18207987558884" lon="12.940535885865655"><ele>200.0</ele><time>2026-04-04T10:17:56.001Z</time></trkpt><trkpt lat="46.182089354892234" lon="12.94071256705166"><ele>200.25</ele><time>2026-04-04T10:17:57.001Z</time></trkpt><trkpt lat="46.18209649381717" lon="12.94089597566665"><ele>200.5</ele><time>2026-04-04T10:17:58.001Z</time></trkpt><trkpt lat="46.18210769448855" lon="12.94108219156953"><ele>200.75</ele><time>2026-04-04T10:17:59.001Z</time></trkpt><trkpt lat="46.18211560581518" lon="12.941265783431431"><ele>201.0</ele><time>2026-04-04T10:18:00.001Z</time></trkpt><trkpt lat="46.182126475906784" lon="12.941435992395817"><ele>201.0</ele><time>2026-04-04T10:18:01.001Z</time></trkpt><trkpt lat="46.182136214008786" lon="12.94158870193126"><ele>201.0</ele><time>2026-04-04T10:18:02.001Z</time></trkpt><trkpt lat="46.182155163673585" lon="12.941725154213549"><ele>201.0</ele><time>2026-04-04T10:18:03.001Z</time></trkpt><trkpt lat="46.18218040224339" lon="12.9418668928244"><ele>201.0</ele><time>2026-04-04T10:18:04.001Z</time></trkpt><trkpt lat="46.18224352039928" lon="12.942002238697375"><ele>201.0</ele><time>2026-04-04T10:18:05.001Z</time></trkpt><trkpt lat="46.18229998460507" lon="12.942141932360158"><ele>202.75</ele><time>2026-04-04T10:18:06.001Z</time></trkpt><trkpt lat="46.182350797050205" lon="12.942301257918515"><ele>204.5</ele><time>2026-04-04T10:18:07.001Z</time></trkpt><trkpt lat="46.18238760754209" lon="12.942484046214387"><ele>206.25</ele><time>2026-04-04T10:18:08.001Z</time></trkpt><trkpt lat="46.18242076034515" lon="12.94266920417406"><ele>208.0</ele><time>2026-04-04T10:18:09.001Z</time></trkpt><trkpt lat="46.18245166078152" lon="12.942831510391553"><ele>208.0</ele><time>2026-04-04T10:18:10.001Z</time></trkpt><trkpt lat="46.18248754196124" lon="12.942984885662225"><ele>208.0</ele><time>2026-04-04T10:18:11.001Z</time></trkpt><trkpt lat="46.18252549253498" lon="12.943123049847388"><ele>208.0</ele><time>2026-04-04T10:18:12.001Z</time></trkpt><trkpt lat="46.18256409559125" lon="12.943265518169943"><ele>208.0</ele><time>2026-04-04T10:18:13.001Z</time></trkpt><trkpt lat="46.18260141048047" lon="12.94340154257599"><ele>208.0</ele><time>2026-04-04T10:18:14.001Z</time></trkpt><trkpt lat="46.18263605775749" lon="12.943527587757501"><ele>207.0</ele><time>2026-04-04T10:18:15.001Z</time></trkpt><trkpt lat="46.182668133978964" lon="12.943644279591389"><ele>206.0</ele><time>2026-04-04T10:18:16.001Z</time></trkpt><trkpt lat="46.182702396811464" lon="12.943776023979709"><ele>205.0</ele><time>2026-04-04T10:18:17.001Z</time></trkpt><trkpt lat="46.18274451064277" lon="12.943923774508125"><ele>204.0</ele><time>2026-04-04T10:18:18.001Z</time></trkpt><trkpt lat="46.18279901104774" lon="12.94406631495112"><ele>203.0</ele><time>2026-04-04T10:18:19.001Z</time></trkpt><trkpt lat="46.182898051145074" lon="12.94426503589817"><ele>202.60000000000002</ele><time>2026-04-04T10:18:20.001Z</time></trkpt><trkpt lat="46.182966882821155" lon="12.944445628212437"><ele>202.20000000000002</ele><time>2026-04-04T10:18:23.001Z</time></trkpt><trkpt lat="46.183020617778034" lon="12.944528572977084"><ele>201.8</ele><time>2026-04-04T10:18:24.001Z</time></trkpt><trkpt lat="46.183041313307385" lon="12.944645095233673"><ele>201.4</ele><time>2026-04-04T10:18:25Z</time></trkpt><trkpt lat="46.183045217034945" lon="12.944763475018426"><ele>201.0</ele><time>2026-04-04T10:18:26Z</time></trkpt><trkpt lat="46.183060371317026" lon="12.944893493573296"><ele>201.0</ele><time>2026-04-04T10:18:27Z</time></trkpt><trkpt lat="46.18307472522947" lon="12.945028598873726"><ele>201.0</ele><time>2026-04-04T10:18:28Z</time></trkpt><trkpt lat="46.183118459252384" lon="12.945168803349468"><ele>201.0</ele><time>2026-04-04T10:18:29Z</time></trkpt><trkpt lat="46.1831233790759" lon="12.94532829682823"><ele>201.0</ele><time>2026-04-04T10:18:30Z</time></trkpt><trkpt lat="46.18310739454991" lon="12.945474468516936"><ele>201.0</ele><time>2026-04-04T10:18:31Z</time></trkpt><trkpt lat="46.1831020646983" lon="12.945602876509863"><ele>201.0</ele><time>2026-04-04T10:18:32Z</time></trkpt><trkpt lat="46.18309921138389" lon="12.945717702567267"><ele>201.0</ele><time>2026-04-04T10:18:33Z</time></trkpt><trkpt lat="46.18306861873549" lon="12.94584309914945"><ele>201.0</ele><time>2026-04-04T10:18:34Z</time></trkpt><trkpt lat="46.183073073635974" lon="12.9459569923094"><ele>201.0</ele><time>2026-04-04T10:18:35Z</time></trkpt><trkpt lat="46.18308122557723" lon="12.946087850843426"><ele>201.0</ele><time>2026-04-04T10:18:36Z</time></trkpt><trkpt lat="46.18309001890855" lon="12.946226604463492"><ele>201.0</ele><time>2026-04-04T10:18:37Z</time></trkpt><trkpt lat="46.18311761822866" lon="12.946363190751478"><ele>200.83333333333334</ele><time>2026-04-04T10:18:38Z</time></trkpt><trkpt lat="46.183128811576445" lon="12.94649101649014"><ele>200.66666666666669</ele><time>2026-04-04T10:18:39Z</time></trkpt><trkpt lat="46.183150205628" lon="12.946621505922595"><ele>200.5</ele><time>2026-04-04T10:18:40Z</time></trkpt><trkpt lat="46.18318743396813" lon="12.94674509060696"><ele>200.33333333333334</ele><time>2026-04-04T10:18:41Z</time></trkpt><trkpt lat="46.183219637267975" lon="12.946866152728942"><ele>200.16666666666669</ele><time>2026-04-04T10:18:42Z</time></trkpt><trkpt lat="46.18325713650472" lon="12.946963486828993"><ele>200.0</ele><time>2026-04-04T10:18:43Z</time></trkpt><trkpt lat="46.18327559249037" lon="12.947083310628328"><ele>200.33333333333334</ele><time>2026-04-04T10:18:44Z</time></trkpt><trkpt lat="46.18331076406171" lon="12.947195818770423"><ele>200.66666666666669</ele><time>2026-04-04T10:18:45Z</time></trkpt><trkpt lat="46.1833489724391" lon="12.947309650257925"><ele>201.0</ele><time>2026-04-04T10:18:46Z</time></trkpt><trkpt lat="46.183381205101384" lon="12.94741693932658"><ele>201.33333333333331</ele><time>2026-04-04T10:18:47Z</time></trkpt><trkpt lat="46.1834249779247" lon="12.947502219311998"><ele>201.66666666666666</ele><time>2026-04-04T10:18:48Z</time></trkpt><trkpt lat="46.183463512219205" lon="12.947596415013713"><ele>202.0</ele><time>2026-04-04T10:18:49Z</time></trkpt><trkpt lat="46.183534752390834" lon="12.947686212009955"><ele>201.33333333333331</ele><time>2026-04-04T10:18:50Z</time></trkpt><trkpt lat="46.18360368734262" lon="12.947782873974448"><ele>200.66666666666666</ele><time>2026-04-04T10:18:51Z</time></trkpt><trkpt lat="46.18365339469848" lon="12.947875220640416"><ele>200.0</ele><time>2026-04-04T10:18:52Z</time></trkpt><trkpt lat="46.18370457852106" lon="12.947930936532305"><ele>199.33333333333331</ele><time>2026-04-04T10:18:53Z</time></trkpt><trkpt lat="46.183745593851846" lon="12.948015307227623"><ele>198.66666666666666</ele><time>2026-04-04T10:18:54Z</time></trkpt><trkpt lat="46.18378752129526" lon="12.948090914332028"><ele>198.0</ele><time>2026-04-04T10:18:55Z</time></trkpt><trkpt lat="46.183845751679534" lon="12.948162604127619"><ele>198.0</ele><time>2026-04-04T10:18:56Z</time></trkpt><trkpt lat="46.183888673404134" lon="12.94822947079262"><ele>198.0</ele><time>2026-04-04T10:18:57Z</time></trkpt><trkpt lat="46.18396908527461" lon="12.948386838971345"><ele>198.0</ele><time>2026-04-04T10:18:59Z</time></trkpt><trkpt lat="46.18401619608477" lon="12.94849131392676"><ele>198.0</ele><time>2026-04-04T10:19:00Z</time></trkpt><trkpt lat="46.184060909314915" lon="12.94859953822281"><ele>198.0</ele><time>2026-04-04T10:19:01Z</time></trkpt><trkpt lat="46.18410230106525" lon="12.948712131015101"><ele>197.83333333333334</ele><time>2026-04-04T10:19:02Z</time></trkpt><trkpt lat="46.18413540343902" lon="12.948820744867236"><ele>197.66666666666669</ele><time>2026-04-04T10:19:03Z</time></trkpt><trkpt lat="46.18416855117793" lon="12.948924551221396"><ele>197.5</ele><time>2026-04-04T10:19:04Z</time></trkpt><trkpt lat="46.18420128290003" lon="12.949028816061007"><ele>197.33333333333334</ele><time>2026-04-04T10:19:05Z</time></trkpt><trkpt lat="46.18421853250532" lon="12.949138176079966"><ele>197.16666666666669</ele><time>2026-04-04T10:19:06Z</time></trkpt><trkpt lat="46.18423357114861" lon="12.949248886716987"><ele>197.0</ele><time>2026-04-04T10:19:07Z</time></trkpt><trkpt lat="46.18423969862762" lon="12.949364549263993"><ele>196.2</ele><time>2026-04-04T10:19:08Z</time></trkpt><trkpt lat="46.18421547003557" lon="12.949490518413942"><ele>195.39999999999998</ele><time>2026-04-04T10:19:09Z</time></trkpt><trkpt lat="46.18419322494816" lon="12.949611171626215"><ele>194.60000000000002</ele><time>2026-04-04T10:19:10Z</time></trkpt><trkpt lat="46.18416889855083" lon="12.949742217107495"><ele>193.8</ele><time>2026-04-04T10:19:11Z</time></trkpt><trkpt lat="46.184109622553926" lon="12.949864737282573"><ele>193.0</ele><time>2026-04-04T10:19:12.001Z</time></trkpt><trkpt lat="46.184055361923896" lon="12.949995137972413"><ele>192.2</ele><time>2026-04-04T10:19:13.001Z</time></trkpt><trkpt lat="46.18399666985165" lon="12.950109006493673"><ele>191.4</ele><time>2026-04-04T10:19:14.001Z</time></trkpt><trkpt lat="46.18393169791933" lon="12.950211188803717"><ele>190.6</ele><time>2026-04-04T10:19:15.001Z</time></trkpt><trkpt lat="46.18385508140666" lon="12.950292624210457"><ele>189.79999999999998</ele><time>2026-04-04T10:19:16.001Z</time></trkpt><trkpt lat="46.18376160720622" lon="12.950375144733806"><ele>189.0</ele><time>2026-04-04T10:19:17.001Z</time></trkpt><trkpt lat="46.18365473788865" lon="12.950464173663578"><ele>189.0</ele><time>2026-04-04T10:19:18.001Z</time></trkpt><trkpt lat="46.18354202906649" lon="12.950554884352115"><ele>189.0</ele><time>2026-04-04T10:19:19.001Z</time></trkpt><trkpt lat="46.18342740184117" lon="12.950645369537856"><ele>189.0</ele><time>2026-04-04T10:19:20.001Z</time></trkpt><trkpt lat="46.18330608094721" lon="12.95073170692623"><ele>189.0</ele><time>2026-04-04T10:19:21.001Z</time></trkpt><trkpt lat="46.18317894311407" lon="12.950809913306982"><ele>188.5</ele><time>2026-04-04T10:19:22.001Z</time></trkpt><trkpt lat="46.18304714651816" lon="12.950873434878536"><ele>188.0</ele><time>2026-04-04T10:19:23.001Z</time></trkpt><trkpt lat="46.182924143244094" lon="12.950931248492543"><ele>187.5</ele><time>2026-04-04T10:19:24.001Z</time></trkpt><trkpt lat="46.182804887531695" lon="12.950986970751744"><ele>187.0</ele><time>2026-04-04T10:19:25.001Z</time></trkpt><trkpt lat="46.182692664924424" lon="12.951038656176756"><ele>186.0</ele><time>2026-04-04T10:19:26.001Z</time></trkpt><trkpt lat="46.18259666129905" lon="12.951082871758354"><ele>185.0</ele><time>2026-04-04T10:19:27.001Z</time></trkpt><trkpt lat="46.182515100983174" lon="12.951120435307478"><ele>184.0</ele><time>2026-04-04T10:19:28.001Z</time></trkpt><trkpt lat="46.182436755208265" lon="12.951156518363993"><ele>183.0</ele><time>2026-04-04T10:19:29.001Z</time></trkpt><trkpt lat="46.18235893429374" lon="12.951192359687415"><ele>182.0</ele><time>2026-04-04T10:19:30.001Z</time></trkpt><trkpt lat="46.18229081630046" lon="12.951223732221672"><ele>181.0</ele><time>2026-04-04T10:19:31.001Z</time></trkpt><trkpt lat="46.182178582479004" lon="12.951312730387862"><ele>180.20000000000002</ele><time>2026-04-04T10:19:33.001Z</time></trkpt><trkpt lat="46.182118778411144" lon="12.951509150437127"><ele>179.4</ele><time>2026-04-04T10:19:35.001Z</time></trkpt><trkpt lat="46.18212968012371" lon="12.95162917443226"><ele>178.6</ele><time>2026-04-04T10:19:36.001Z</time></trkpt><trkpt lat="46.182140120862215" lon="12.951743030341394"><ele>177.8</ele><time>2026-04-04T10:19:37.001Z</time></trkpt><trkpt lat="46.18218239663556" lon="12.951835417621272"><ele>177.0</ele><time>2026-04-04T10:19:38.001Z</time></trkpt><trkpt lat="46.18223079192074" lon="12.951903244486024"><ele>175.0</ele><time>2026-04-04T10:19:39.001Z</time></trkpt><trkpt lat="46.18228929233416" lon="12.951949374777442"><ele>173.0</ele><time>2026-04-04T10:19:40.001Z</time></trkpt><trkpt lat="46.18236531976706" lon="12.951975688567485"><ele>171.0</ele><time>2026-04-04T10:19:41.001Z</time></trkpt><trkpt lat="46.182450876170556" lon="12.9519881236618"><ele>169.0</ele><time>2026-04-04T10:19:42.001Z</time></trkpt><trkpt lat="46.18254484430938" lon="12.95197024672462"><ele>167.0</ele><time>2026-04-04T10:19:43.001Z</time></trkpt><trkpt lat="46.18265754807862" lon="12.951941408948377"><ele>165.0</ele><time>2026-04-04T10:19:44.001Z</time></trkpt><trkpt lat="46.18276922664885" lon="12.951901471744675"><ele>164.6</ele><time>2026-04-04T10:19:45.001Z</time></trkpt><trkpt lat="46.18287184496438" lon="12.951880122463775"><ele>164.2</ele><time>2026-04-04T10:19:46.001Z</time></trkpt><trkpt lat="46.18297161159278" lon="12.95186452043463"><ele>163.8</ele><time>2026-04-04T10:19:47.001Z</time></trkpt><trkpt lat="46.18305860336242" lon="12.951831797895377"><ele>163.4</ele><time>2026-04-04T10:19:48.001Z</time></trkpt><trkpt lat="46.18314312926386" lon="12.951813188686288"><ele>163.0</ele><time>2026-04-04T10:19:49.001Z</time></trkpt><trkpt lat="46.18323144355267" lon="12.95182876865705"><ele>164.0</ele><time>2026-04-04T10:19:50.001Z</time></trkpt><trkpt lat="46.18330554249255" lon="12.951883116014933"><ele>165.0</ele><time>2026-04-04T10:19:51.001Z</time></trkpt><trkpt lat="46.18336834571316" lon="12.951964945260366"><ele>166.0</ele><time>2026-04-04T10:19:52.001Z</time></trkpt><trkpt lat="46.18339289812456" lon="12.952110586773612"><ele>167.0</ele><time>2026-04-04T10:19:53.001Z</time></trkpt><trkpt lat="46.183446686207446" lon="12.952217290327255"><ele>168.0</ele><time>2026-04-04T10:19:54.001Z</time></trkpt><trkpt lat="46.1834810293144" lon="12.952356266039308"><ele>168.0</ele><time>2026-04-04T10:19:55.001Z</time></trkpt><trkpt lat="46.18352457379229" lon="12.952476923874736"><ele>168.0</ele><time>2026-04-04T10:19:56.001Z</time></trkpt><trkpt lat="46.183559466990395" lon="12.952590653517342"><ele>168.0</ele><time>2026-04-04T10:19:57.001Z</time></trkpt><trkpt lat="46.18358210452831" lon="12.952688834776655"><ele>168.0</ele><time>2026-04-04T10:19:58.001Z</time></trkpt><trkpt lat="46.18352458780627" lon="12.952868338200553"><ele>168.0</ele><time>2026-04-04T10:20:00.001Z</time></trkpt><trkpt lat="46.183443947770975" lon="12.952952868326204"><ele>167.5</ele><time>2026-04-04T10:20:01.001Z</time></trkpt><trkpt lat="46.183344483757175" lon="12.95304630760367"><ele>167.0</ele><time>2026-04-04T10:20:02.001Z</time></trkpt><trkpt lat="46.18324232647644" lon="12.95315371155696"><ele>166.5</ele><time>2026-04-04T10:20:03.001Z</time></trkpt><trkpt lat="46.18315111533448" lon="12.95326235591634"><ele>166.0</ele><time>2026-04-04T10:20:04.001Z</time></trkpt><trkpt lat="46.18307488552389" lon="12.953360593803884"><ele>167.0</ele><time>2026-04-04T10:20:05.001Z</time></trkpt><trkpt lat="46.18299068943157" lon="12.953432293254876"><ele>168.0</ele><time>2026-04-04T10:20:06.001Z</time></trkpt><trkpt lat="46.18288812515009" lon="12.953511435207098"><ele>169.0</ele><time>2026-04-04T10:20:07.001Z</time></trkpt><trkpt lat="46.18277949001106" lon="12.95358800051385"><ele>170.0</ele><time>2026-04-04T10:20:08.001Z</time></trkpt><trkpt lat="46.18268002518297" lon="12.953657468238134"><ele>171.0</ele><time>2026-04-04T10:20:09.001Z</time></trkpt><trkpt lat="46.18259039885457" lon="12.953720782885283"><ele>171.0</ele><time>2026-04-04T10:20:10.001Z</time></trkpt><trkpt lat="46.182512964918985" lon="12.953781749087373"><ele>171.0</ele><time>2026-04-04T10:20:11.001Z</time></trkpt><trkpt lat="46.182446610742645" lon="12.953850571049008"><ele>171.0</ele><time>2026-04-04T10:20:12.001Z</time></trkpt><trkpt lat="46.18240547021315" lon="12.953947125652837"><ele>171.0</ele><time>2026-04-04T10:20:13.001Z</time></trkpt><trkpt lat="46.182378925571285" lon="12.95406032029978"><ele>171.0</ele><time>2026-04-04T10:20:14.001Z</time></trkpt><trkpt lat="46.182378118913185" lon="12.95418669084688"><ele>171.0</ele><time>2026-04-04T10:20:15.001Z</time></trkpt><trkpt lat="46.18244014040193" lon="12.95430681388322"><ele>166.20000000000002</ele><time>2026-04-04T10:20:16.001Z</time></trkpt><trkpt lat="46.18250317697327" lon="12.95441085860697"><ele>161.4</ele><time>2026-04-04T10:20:17.001Z</time></trkpt><trkpt lat="46.182576695634395" lon="12.954485348961827"><ele>156.6</ele><time>2026-04-04T10:20:18.001Z</time></trkpt><trkpt lat="46.182661738192664" lon="12.954529913301927"><ele>151.8</ele><time>2026-04-04T10:20:19.001Z</time></trkpt><trkpt lat="46.182763755373415" lon="12.95455163897333"><ele>147.0</ele><time>2026-04-04T10:20:20.001Z</time></trkpt><trkpt lat="46.18287420438818" lon="12.95459640900906"><ele>147.0</ele><time>2026-04-04T10:20:21.001Z</time></trkpt><trkpt lat="46.18299137255799" lon="12.954680591817086"><ele>147.0</ele><time>2026-04-04T10:20:22.001Z</time></trkpt><trkpt lat="46.183093741984585" lon="12.954752149295716"><ele>147.0</ele><time>2026-04-04T10:20:23.001Z</time></trkpt><trkpt lat="46.18318562556049" lon="12.95480647943371"><ele>147.0</ele><time>2026-04-04T10:20:24.001Z</time></trkpt><trkpt lat="46.18327684795248" lon="12.954855170132653"><ele>147.0</ele><time>2026-04-04T10:20:25.001Z</time></trkpt><trkpt lat="46.18336028452877" lon="12.954903323775845"><ele>147.2</ele><time>2026-04-04T10:20:26.001Z</time></trkpt><trkpt lat="46.18342585991533" lon="12.954991174962075"><ele>147.39999999999998</ele><time>2026-04-04T10:20:27.001Z</time></trkpt><trkpt lat="46.1834748546168" lon="12.955097545142669"><ele>147.60000000000002</ele><time>2026-04-04T10:20:28.001Z</time></trkpt><trkpt lat="46.183530520189215" lon="12.955215849944063"><ele>147.8</ele><time>2026-04-04T10:20:29.001Z</time></trkpt><trkpt lat="46.18360888145764" lon="12.955306870726456"><ele>148.0</ele><time>2026-04-04T10:20:30.001Z</time></trkpt><trkpt lat="46.18367745413414" lon="12.9554015819575"><ele>148.0</ele><time>2026-04-04T10:20:31.001Z</time></trkpt><trkpt lat="46.18375939903555" lon="12.955473159236368"><ele>148.0</ele><time>2026-04-04T10:20:32.001Z</time></trkpt><trkpt lat="46.18384440485672" lon="12.955552359038476"><ele>148.0</ele><time>2026-04-04T10:20:33.001Z</time></trkpt><trkpt lat="46.18394677309651" lon="12.955594448380824"><ele>148.0</ele><time>2026-04-04T10:20:34.001Z</time></trkpt><trkpt lat="46.18404336138967" lon="12.955636655718836"><ele>148.0</ele><time>2026-04-04T10:20:35.001Z</time></trkpt><trkpt lat="46.18411843202512" lon="12.955700511315719"><ele>148.20000000000002</ele><time>2026-04-04T10:20:36.001Z</time></trkpt><trkpt lat="46.18418417490911" lon="12.955726003117888"><ele>148.4</ele><time>2026-04-04T10:20:37.001Z</time></trkpt><trkpt lat="46.18424421082005" lon="12.955759806327135"><ele>148.60000000000002</ele><time>2026-04-04T10:20:38.001Z</time></trkpt><trkpt lat="46.18431975349932" lon="12.955791340763817"><ele>148.8</ele><time>2026-04-04T10:20:39.001Z</time></trkpt><trkpt lat="46.18442852211838" lon="12.955849665425916"><ele>149.0</ele><time>2026-04-04T10:20:41Z</time></trkpt><trkpt lat="46.18452827830448" lon="12.955958204049688"><ele>149.0</ele><time>2026-04-04T10:20:43Z</time></trkpt><trkpt lat="46.184563747945205" lon="12.956059475162625"><ele>149.0</ele><time>2026-04-04T10:20:44Z</time></trkpt><trkpt lat="46.18457770926861" lon="12.956165667113737"><ele>149.0</ele><time>2026-04-04T10:20:45Z</time></trkpt><trkpt lat="46.18459672405167" lon="12.956318564640515"><ele>149.0</ele><time>2026-04-04T10:20:47Z</time></trkpt><trkpt lat="46.18461436901447" lon="12.95641147049516"><ele>149.0</ele><time>2026-04-04T10:20:49Z</time></trkpt><trkpt lat="46.18463291209516" lon="12.95652299252553"><ele>149.0</ele><time>2026-04-04T10:23:09Z</time></trkpt><trkpt lat="46.184665128278226" lon="12.956702210401174"><ele>145.5</ele><time>2026-04-04T10:23:11Z</time></trkpt><trkpt lat="46.18468847026062" lon="12.956833471162456"><ele>142.0</ele><time>2026-04-04T10:23:12Z</time></trkpt><trkpt lat="46.18471714711941" lon="12.95699450577781"><ele>138.5</ele><time>2026-04-04T10:23:13Z</time></trkpt><trkpt lat="46.18474910546964" lon="12.957172005247484"><ele>135.0</ele><time>2026-04-04T10:23:14Z</time></trkpt><trkpt lat="46.18477993800762" lon="12.957343251853132"><ele>135.0</ele><time>2026-04-04T10:23:15Z</time></trkpt><trkpt lat="46.18480998377381" lon="12.9575101286609"><ele>135.0</ele><time>2026-04-04T10:23:16Z</time></trkpt><trkpt lat="46.18483747033976" lon="12.957662791447262"><ele>135.0</ele><time>2026-04-04T10:23:17Z</time></trkpt><trkpt lat="46.18486301108795" lon="12.957804646986373"><ele>135.0</ele><time>2026-04-04T10:23:18Z</time></trkpt><trkpt lat="46.184885943927064" lon="12.957932017980118"><ele>135.0</ele><time>2026-04-04T10:23:19Z</time></trkpt><trkpt lat="46.18490545974705" lon="12.95804041054854"><ele>139.2</ele><time>2026-04-04T10:23:20Z</time></trkpt><trkpt lat="46.184923030879546" lon="12.95813660068039"><ele>143.4</ele><time>2026-04-04T10:23:21Z</time></trkpt><trkpt lat="46.184940691764076" lon="12.958229548700285"><ele>147.6</ele><time>2026-04-04T10:23:22Z</time></trkpt><trkpt lat="46.18495637557611" lon="12.958397044953214"><ele>151.8</ele><time>2026-04-04T10:23:24Z</time></trkpt><trkpt lat="46.184875886174545" lon="12.958545666335256"><ele>156.0</ele><time>2026-04-04T10:23:26Z</time></trkpt><trkpt lat="46.18479742322878" lon="12.958618919248417"><ele>161.5</ele><time>2026-04-04T10:23:27Z</time></trkpt><trkpt lat="46.18469480269198" lon="12.958674770230173"><ele>167.0</ele><time>2026-04-04T10:23:28Z</time></trkpt><trkpt lat="46.18457011275571" lon="12.95870672225235"><ele>172.5</ele><time>2026-04-04T10:23:29Z</time></trkpt><trkpt lat="46.18444940324195" lon="12.95872355067977"><ele>178.0</ele><time>2026-04-04T10:23:30Z</time></trkpt><trkpt lat="46.1843426031456" lon="12.958763963083427"><ele>178.0</ele><time>2026-04-04T10:23:31Z</time></trkpt><trkpt lat="46.184219229995655" lon="12.958837341473883"><ele>178.0</ele><time>2026-04-04T10:23:32Z</time></trkpt><trkpt lat="46.18411047913854" lon="12.958888034723627"><ele>178.0</ele><time>2026-04-04T10:23:33Z</time></trkpt><trkpt lat="46.18398737880401" lon="12.958878932869276"><ele>178.0</ele><time>2026-04-04T10:23:34.001Z</time></trkpt><trkpt lat="46.18383516689445" lon="12.958867288094506"><ele>177.0</ele><time>2026-04-04T10:23:35.001Z</time></trkpt><trkpt lat="46.183672128107986" lon="12.958809826894559"><ele>176.0</ele><time>2026-04-04T10:23:36.001Z</time></trkpt><trkpt lat="46.18352907981413" lon="12.958777138710731"><ele>175.0</ele><time>2026-04-04T10:23:37.001Z</time></trkpt><trkpt lat="46.18340389565071" lon="12.958744962536981"><ele>174.0</ele><time>2026-04-04T10:23:38.001Z</time></trkpt><trkpt lat="46.18328542762629" lon="12.958711429427678"><ele>176.0</ele><time>2026-04-04T10:23:39.001Z</time></trkpt><trkpt lat="46.183158872477975" lon="12.958706815394214"><ele>178.0</ele><time>2026-04-04T10:23:40.001Z</time></trkpt><trkpt lat="46.18304293813668" lon="12.958767756445578"><ele>180.0</ele><time>2026-04-04T10:23:41.001Z</time></trkpt><trkpt lat="46.182929257456365" lon="12.958861051305592"><ele>182.0</ele><time>2026-04-04T10:23:42.001Z</time></trkpt><trkpt lat="46.18284118151139" lon="12.95891169953726"><ele>182.0</ele><time>2026-04-04T10:23:43.001Z</time></trkpt><trkpt lat="46.18274091535426" lon="12.958919438645484"><ele>182.0</ele><time>2026-04-04T10:23:44.001Z</time></trkpt><trkpt lat="46.182628412038646" lon="12.958894406366758"><ele>182.0</ele><time>2026-04-04T10:23:45.001Z</time></trkpt><trkpt lat="46.182497383344376" lon="12.958830523766617"><ele>182.0</ele><time>2026-04-04T10:23:46.001Z</time></trkpt><trkpt lat="46.182384773916176" lon="12.958793779499713"><ele>180.75</ele><time>2026-04-04T10:23:47.001Z</time></trkpt><trkpt lat="46.182261464783785" lon="12.958791593682214"><ele>179.5</ele><time>2026-04-04T10:23:48.001Z</time></trkpt><trkpt lat="46.1821166526069" lon="12.958828991876361"><ele>178.25</ele><time>2026-04-04T10:23:49.001Z</time></trkpt><trkpt lat="46.1819591417991" lon="12.95890079517854"><ele>177.0</ele><time>2026-04-04T10:23:50.001Z</time></trkpt><trkpt lat="46.1817749156102" lon="12.958995109939497"><ele>177.0</ele><time>2026-04-04T10:23:51.001Z</time></trkpt><trkpt lat="46.18158818983244" lon="12.959091399166926"><ele>177.0</ele><time>2026-04-04T10:23:52.001Z</time></trkpt><trkpt lat="46.181399504312175" lon="12.95918843577744"><ele>177.0</ele><time>2026-04-04T10:23:53.001Z</time></trkpt><trkpt lat="46.18122307369639" lon="12.95927866228235"><ele>177.66666666666666</ele><time>2026-04-04T10:23:54.001Z</time></trkpt><trkpt lat="46.181049017261536" lon="12.959370754679519"><ele>178.33333333333331</ele><time>2026-04-04T10:23:55.001Z</time></trkpt><trkpt lat="46.18088203746985" lon="12.959456959178516"><ele>179.0</ele><time>2026-04-04T10:23:56.001Z</time></trkpt><trkpt lat="46.18073692843938" lon="12.959531820398727"><ele>176.6</ele><time>2026-04-04T10:23:57.001Z</time></trkpt><trkpt lat="46.18060766985444" lon="12.959600037427297"><ele>174.2</ele><time>2026-04-04T10:23:58.001Z</time></trkpt><trkpt lat="46.18051185477312" lon="12.959656968853968"><ele>171.79999999999998</ele><time>2026-04-04T10:23:59.001Z</time></trkpt><trkpt lat="46.18043508463493" lon="12.959713715848023"><ele>169.39999999999998</ele><time>2026-04-04T10:24:00.001Z</time></trkpt><trkpt lat="46.180362428578505" lon="12.959799960822265"><ele>167.0</ele><time>2026-04-04T10:24:01.001Z</time></trkpt><trkpt lat="46.18031717881176" lon="12.959916972566306"><ele>166.6</ele><time>2026-04-04T10:24:02.001Z</time></trkpt><trkpt lat="46.180300672891576" lon="12.96004891901679"><ele>166.2</ele><time>2026-04-04T10:24:03.001Z</time></trkpt><trkpt lat="46.18030659491067" lon="12.960159846078508"><ele>165.8</ele><time>2026-04-04T10:24:04.001Z</time></trkpt><trkpt lat="46.180314589294696" lon="12.96032541527445"><ele>165.4</ele><time>2026-04-04T10:24:05.001Z</time></trkpt><trkpt lat="46.180355524788745" lon="12.960408340705012"><ele>165.0</ele><time>2026-04-04T10:24:06.001Z</time></trkpt><trkpt lat="46.18052812224563" lon="12.960476356066449"><ele>165.0</ele><time>2026-04-04T10:24:08.001Z</time></trkpt><trkpt lat="46.180633953320566" lon="12.96048624706519"><ele>165.0</ele><time>2026-04-04T10:24:09.001Z</time></trkpt><trkpt lat="46.18073031909887" lon="12.96043962845229"><ele>165.0</ele><time>2026-04-04T10:24:10.001Z</time></trkpt><trkpt lat="46.180832903492764" lon="12.960356570925862"><ele>165.0</ele><time>2026-04-04T10:24:11.001Z</time></trkpt><trkpt lat="46.180960053343824" lon="12.960254234184395"><ele>169.66666666666666</ele><time>2026-04-04T10:24:12.001Z</time></trkpt><trkpt lat="46.18110577598656" lon="12.960141304622917"><ele>174.33333333333331</ele><time>2026-04-04T10:24:13.001Z</time></trkpt><trkpt lat="46.1812715370101" lon="12.960009338012988"><ele>179.0</ele><time>2026-04-04T10:24:14.001Z</time></trkpt><trkpt lat="46.18143745807838" lon="12.959886418934941"><ele>183.0</ele><time>2026-04-04T10:24:15.001Z</time></trkpt><trkpt lat="46.18161359025678" lon="12.9598020060388"><ele>187.0</ele><time>2026-04-04T10:24:16.001Z</time></trkpt><trkpt lat="46.18178178767562" lon="12.959722198298733"><ele>191.0</ele><time>2026-04-04T10:24:17.001Z</time></trkpt><trkpt lat="46.18193105093289" lon="12.95965414815952"><ele>191.0</ele><time>2026-04-04T10:24:18.001Z</time></trkpt><trkpt lat="46.18206288364936" lon="12.959594044722511"><ele>191.0</ele><time>2026-04-04T10:24:19.001Z</time></trkpt><trkpt lat="46.18217960942504" lon="12.959539615416661"><ele>191.0</ele><time>2026-04-04T10:24:20.001Z</time></trkpt><trkpt lat="46.18229114567898" lon="12.959487649802304"><ele>191.0</ele><time>2026-04-04T10:24:21.001Z</time></trkpt><trkpt lat="46.182392624914286" lon="12.95944645937226"><ele>192.20000000000002</ele><time>2026-04-04T10:24:22.001Z</time></trkpt><trkpt lat="46.18248619273419" lon="12.95941872242713"><ele>193.4</ele><time>2026-04-04T10:24:23.001Z</time></trkpt><trkpt lat="46.18259489288751" lon="12.959405351336427"><ele>194.6</ele><time>2026-04-04T10:24:24.001Z</time></trkpt><trkpt lat="46.18268792632801" lon="12.95942608911375"><ele>195.8</ele><time>2026-04-04T10:24:25.001Z</time></trkpt><trkpt lat="46.182772213552965" lon="12.959456817288517"><ele>197.0</ele><time>2026-04-04T10:24:26.001Z</time></trkpt><trkpt lat="46.182830961336315" lon="12.959541033963903"><ele>197.00000000000003</ele><time>2026-04-04T10:24:27.001Z</time></trkpt><trkpt lat="46.182888751050875" lon="12.95962521953573"><ele>197.0</ele><time>2026-04-04T10:24:28.001Z</time></trkpt><trkpt lat="46.18290136438054" lon="12.959746319097496"><ele>197.0</ele><time>2026-04-04T10:24:29.001Z</time></trkpt><trkpt lat="46.182898432930095" lon="12.95988525300794"><ele>197.0</ele><time>2026-04-04T10:24:30.001Z</time></trkpt><trkpt lat="46.18286930330242" lon="12.960008430679938"><ele>197.00000000000003</ele><time>2026-04-04T10:24:31.001Z</time></trkpt><trkpt lat="46.18281943646285" lon="12.96009774291621"><ele>197.0</ele><time>2026-04-04T10:24:32.001Z</time></trkpt><trkpt lat="46.182732118650655" lon="12.960145644314158"><ele>197.39999999999998</ele><time>2026-04-04T10:24:33.001Z</time></trkpt><trkpt lat="46.18262738751439" lon="12.960154409898571"><ele>197.79999999999998</ele><time>2026-04-04T10:24:34.001Z</time></trkpt><trkpt lat="46.182521384206275" lon="12.96019824493355"><ele>198.2</ele><time>2026-04-04T10:24:35.001Z</time></trkpt><trkpt lat="46.182428871110574" lon="12.960219410311172"><ele>198.6</ele><time>2026-04-04T10:24:36.001Z</time></trkpt><trkpt lat="46.18235152118334" lon="12.960252753189978"><ele>199.0</ele><time>2026-04-04T10:24:37.001Z</time></trkpt><trkpt lat="46.182280909903895" lon="12.960319120952967"><ele>197.16666666666666</ele><time>2026-04-04T10:24:38.001Z</time></trkpt><trkpt lat="46.18222601285514" lon="12.960419643627649"><ele>195.33333333333331</ele><time>2026-04-04T10:24:39.001Z</time></trkpt><trkpt lat="46.1822018915341" lon="12.960539135124511"><ele>193.5</ele><time>2026-04-04T10:24:40.001Z</time></trkpt><trkpt lat="46.18219272422131" lon="12.96066864224126"><ele>191.66666666666666</ele><time>2026-04-04T10:24:41.001Z</time></trkpt><trkpt lat="46.182209963071756" lon="12.960789185540479"><ele>189.83333333333331</ele><time>2026-04-04T10:24:42.001Z</time></trkpt><trkpt lat="46.18225987668511" lon="12.960892264900393"><ele>188.0</ele><time>2026-04-04T10:24:43Z</time></trkpt><trkpt lat="46.1823269778038" lon="12.960979888809451"><ele>189.0</ele><time>2026-04-04T10:24:44Z</time></trkpt><trkpt lat="46.182416266465275" lon="12.961022279371015"><ele>190.0</ele><time>2026-04-04T10:24:45Z</time></trkpt><trkpt lat="46.18253090652592" lon="12.961047444204189"><ele>191.0</ele><time>2026-04-04T10:24:46Z</time></trkpt><trkpt lat="46.182660702301405" lon="12.961035903624595"><ele>192.0</ele><time>2026-04-04T10:24:47Z</time></trkpt><trkpt lat="46.18280285013047" lon="12.961036424179298"><ele>192.0</ele><time>2026-04-04T10:24:48Z</time></trkpt><trkpt lat="46.182944682471394" lon="12.961053730448965"><ele>192.0</ele><time>2026-04-04T10:24:49Z</time></trkpt><trkpt lat="46.18305164240193" lon="12.961138707541515"><ele>192.0</ele><time>2026-04-04T10:24:50Z</time></trkpt><trkpt lat="46.18315714915014" lon="12.961233084233351"><ele>192.0</ele><time>2026-04-04T10:24:51Z</time></trkpt><trkpt lat="46.183260427154636" lon="12.961350699779572"><ele>195.0</ele><time>2026-04-04T10:24:52Z</time></trkpt><trkpt lat="46.183349461504484" lon="12.961497063294923"><ele>198.0</ele><time>2026-04-04T10:24:53Z</time></trkpt><trkpt lat="46.1834445540243" lon="12.961652430592409"><ele>201.0</ele><time>2026-04-04T10:24:54Z</time></trkpt><trkpt lat="46.18354834859201" lon="12.961791716529241"><ele>204.0</ele><time>2026-04-04T10:24:55Z</time></trkpt><trkpt lat="46.183637225899055" lon="12.96194599469437"><ele>204.0</ele><time>2026-04-04T10:24:56Z</time></trkpt><trkpt lat="46.18372921443966" lon="12.962125638758241"><ele>204.0</ele><time>2026-04-04T10:24:57Z</time></trkpt><trkpt lat="46.18382450869631" lon="12.962286930059026"><ele>204.0</ele><time>2026-04-04T10:24:58Z</time></trkpt><trkpt lat="46.183915310529216" lon="12.962440987106124"><ele>204.0</ele><time>2026-04-04T10:24:59Z</time></trkpt><trkpt lat="46.18402407610317" lon="12.962621383496156"><ele>205.25</ele><time>2026-04-04T10:25:00Z</time></trkpt><trkpt lat="46.18412231440416" lon="12.962782510741512"><ele>206.5</ele><time>2026-04-04T10:25:01Z</time></trkpt><trkpt lat="46.18420971437567" lon="12.962924067114841"><ele>207.75</ele><time>2026-04-04T10:25:02Z</time></trkpt><trkpt lat="46.18429434561927" lon="12.963059502886969"><ele>209.0</ele><time>2026-04-04T10:25:03Z</time></trkpt><trkpt lat="46.184370465150046" lon="12.963181317324734"><ele>209.0</ele><time>2026-04-04T10:25:04Z</time></trkpt><trkpt lat="46.18443087460284" lon="12.963287664797617"><ele>209.0</ele><time>2026-04-04T10:25:05Z</time></trkpt><trkpt lat="46.184469486799195" lon="12.963386627719158"><ele>209.0</ele><time>2026-04-04T10:25:06Z</time></trkpt><trkpt lat="46.184516985182675" lon="12.963484479227217"><ele>209.0</ele><time>2026-04-04T10:25:07Z</time></trkpt><trkpt lat="46.1845169234662" lon="12.963638276927968"><ele>209.0</ele><time>2026-04-04T10:25:08Z</time></trkpt><trkpt lat="46.18448475761557" lon="12.963816360818313"><ele>209.0</ele><time>2026-04-04T10:25:09Z</time></trkpt><trkpt lat="46.18445203777133" lon="12.964007177277246"><ele>209.0</ele><time>2026-04-04T10:25:10Z</time></trkpt><trkpt lat="46.18442766695677" lon="12.964199817500775"><ele>209.0</ele><time>2026-04-04T10:25:11Z</time></trkpt><trkpt lat="46.184395875363535" lon="12.964373282143882"><ele>209.0</ele><time>2026-04-04T10:25:12Z</time></trkpt><trkpt lat="46.18435526423881" lon="12.964523679641882"><ele>208.79999999999998</ele><time>2026-04-04T10:25:13Z</time></trkpt><trkpt lat="46.18432483046727" lon="12.964683865112642"><ele>208.6</ele><time>2026-04-04T10:25:14Z</time></trkpt><trkpt lat="46.18429426090766" lon="12.964844742250852"><ele>208.4</ele><time>2026-04-04T10:25:15Z</time></trkpt><trkpt lat="46.18426314166237" lon="12.964997535600585"><ele>208.2</ele><time>2026-04-04T10:25:16Z</time></trkpt><trkpt lat="46.18424470356496" lon="12.96514430357325"><ele>208.0</ele><time>2026-04-04T10:25:17Z</time></trkpt><trkpt lat="46.18420765495563" lon="12.965273002298405"><ele>208.60000000000002</ele><time>2026-04-04T10:25:18Z</time></trkpt><trkpt lat="46.184167956913186" lon="12.965396246183824"><ele>209.20000000000002</ele><time>2026-04-04T10:25:19Z</time></trkpt><trkpt lat="46.18410307288526" lon="12.965520250411982"><ele>209.8</ele><time>2026-04-04T10:25:20Z</time></trkpt><trkpt lat="46.18403861645368" lon="12.96564384284134"><ele>210.4</ele><time>2026-04-04T10:25:21Z</time></trkpt><trkpt lat="46.183966186913516" lon="12.96577850240919"><ele>211.0</ele><time>2026-04-04T10:25:22Z</time></trkpt><trkpt lat="46.18388092093004" lon="12.965917240547252"><ele>211.0</ele><time>2026-04-04T10:25:23Z</time></trkpt><trkpt lat="46.183770296600365" lon="12.966050878036583"><ele>211.0</ele><time>2026-04-04T10:25:24Z</time></trkpt><trkpt lat="46.18367094169172" lon="12.966201453254847"><ele>211.0</ele><time>2026-04-04T10:25:25Z</time></trkpt><trkpt lat="46.18357377820335" lon="12.966315239399288"><ele>211.0</ele><time>2026-04-04T10:25:26Z</time></trkpt><trkpt lat="46.183484045045624" lon="12.966434284529884"><ele>211.0</ele><time>2026-04-04T10:25:27Z</time></trkpt><trkpt lat="46.18340727322449" lon="12.966556402179446"><ele>211.0</ele><time>2026-04-04T10:25:28Z</time></trkpt><trkpt lat="46.18334786617909" lon="12.966687646303136"><ele>211.0</ele><time>2026-04-04T10:25:29Z</time></trkpt><trkpt lat="46.18330795912186" lon="12.966837613710773"><ele>211.0</ele><time>2026-04-04T10:25:30Z</time></trkpt><trkpt lat="46.1832938513402" lon="12.966990691652946"><ele>211.0</ele><time>2026-04-04T10:25:31Z</time></trkpt><trkpt lat="46.18329296713175" lon="12.967151094153946"><ele>211.5</ele><time>2026-04-04T10:25:32Z</time></trkpt><trkpt lat="46.18331007337628" lon="12.967315791602974"><ele>212.0</ele><time>2026-04-04T10:25:33Z</time></trkpt><trkpt lat="46.18333059383831" lon="12.967489312084354"><ele>212.5</ele><time>2026-04-04T10:25:34Z</time></trkpt><trkpt lat="46.18333357290797" lon="12.967682790587514"><ele>213.0</ele><time>2026-04-04T10:25:35Z</time></trkpt><trkpt lat="46.183331905228286" lon="12.967880779922794"><ele>213.66666666666669</ele><time>2026-04-04T10:25:36Z</time></trkpt><trkpt lat="46.18331139883191" lon="12.968094812093797"><ele>214.33333333333334</ele><time>2026-04-04T10:25:37Z</time></trkpt><trkpt lat="46.18329585897549" lon="12.96832845576109"><ele>215.0</ele><time>2026-04-04T10:25:38Z</time></trkpt><trkpt lat="46.18328568388159" lon="12.968579850674521"><ele>215.33333333333334</ele><time>2026-04-04T10:25:39Z</time></trkpt><trkpt lat="46.18325344124461" lon="12.968829118622892"><ele>215.66666666666669</ele><time>2026-04-04T10:25:40Z</time></trkpt><trkpt lat="46.1832297342305" lon="12.969061331505422"><ele>216.0</ele><time>2026-04-04T10:25:41Z</time></trkpt><trkpt lat="46.18320052054828" lon="12.969273147535233"><ele>214.5</ele><time>2026-04-04T10:25:42Z</time></trkpt><trkpt lat="46.183179695089194" lon="12.969469141560515"><ele>213.0</ele><time>2026-04-04T10:25:43Z</time></trkpt><trkpt lat="46.18316834567239" lon="12.969659735120812"><ele>211.5</ele><time>2026-04-04T10:25:44Z</time></trkpt><trkpt lat="46.183177952268586" lon="12.969873295151894"><ele>210.0</ele><time>2026-04-04T10:25:45Z</time></trkpt><trkpt lat="46.1832116912606" lon="12.970106422063283"><ele>210.0</ele><time>2026-04-04T10:25:46Z</time></trkpt><trkpt lat="46.183251677514185" lon="12.970336970503157"><ele>210.0</ele><time>2026-04-04T10:25:47Z</time></trkpt><trkpt lat="46.18328359917552" lon="12.970538762900068"><ele>210.0</ele><time>2026-04-04T10:25:48Z</time></trkpt><trkpt lat="46.18333254214205" lon="12.970726769370588"><ele>210.0</ele><time>2026-04-04T10:25:49Z</time></trkpt><trkpt lat="46.18340077862357" lon="12.970922900859632"><ele>208.75</ele><time>2026-04-04T10:25:50Z</time></trkpt><trkpt lat="46.18348271937585" lon="12.971098122850032"><ele>207.5</ele><time>2026-04-04T10:25:51Z</time></trkpt><trkpt lat="46.18355628600853" lon="12.971261834586446"><ele>206.25</ele><time>2026-04-04T10:25:52Z</time></trkpt><trkpt lat="46.1835747632909" lon="12.971436529214566"><ele>205.0</ele><time>2026-04-04T10:25:53Z</time></trkpt><trkpt lat="46.18360058191675" lon="12.97162051271483"><ele>206.0</ele><time>2026-04-04T10:25:54Z</time></trkpt><trkpt lat="46.18359705329855" lon="12.971818247493411"><ele>207.0</ele><time>2026-04-04T10:25:55Z</time></trkpt><trkpt lat="46.18358628565737" lon="12.97201416525075"><ele>208.0</ele><time>2026-04-04T10:25:56Z</time></trkpt><trkpt lat="46.18358377705565" lon="12.9721908542744"><ele>209.0</ele><time>2026-04-04T10:25:57Z</time></trkpt><trkpt lat="46.183600618633776" lon="12.972372835428041"><ele>210.0</ele><time>2026-04-04T10:25:58Z</time></trkpt><trkpt lat="46.183667453402" lon="12.972550093635808"><ele>211.0</ele><time>2026-04-04T10:25:59Z</time></trkpt><trkpt lat="46.183697323067115" lon="12.972715678647129"><ele>211.99999999999997</ele><time>2026-04-04T10:26:00Z</time></trkpt><trkpt lat="46.18371812410856" lon="12.97284753165954"><ele>213.0</ele><time>2026-04-04T10:26:01Z</time></trkpt><trkpt lat="46.183704025648204" lon="12.972964858455919"><ele>214.0</ele><time>2026-04-04T10:26:02Z</time></trkpt><trkpt lat="46.18367368026127" lon="12.973062441475117"><ele>213.99999999999997</ele><time>2026-04-04T10:26:03Z</time></trkpt><trkpt lat="46.18361256310405" lon="12.973123427556807"><ele>214.0</ele><time>2026-04-04T10:26:04Z</time></trkpt><trkpt lat="46.18353100570955" lon="12.97315819601625"><ele>214.0</ele><time>2026-04-04T10:26:05Z</time></trkpt><trkpt lat="46.18344017976973" lon="12.973221138924632"><ele>214.0</ele><time>2026-04-04T10:26:06Z</time></trkpt><trkpt lat="46.183358867913526" lon="12.973265908474529"><ele>213.99999999999997</ele><time>2026-04-04T10:26:07Z</time></trkpt><trkpt lat="46.183280177604246" lon="12.973304401483544"><ele>214.0</ele><time>2026-04-04T10:26:08Z</time></trkpt><trkpt lat="46.18320442947925" lon="12.97324698944553"><ele>214.6</ele><time>2026-04-04T10:26:09Z</time></trkpt><trkpt lat="46.183140741269824" lon="12.973154679098268"><ele>215.2</ele><time>2026-04-04T10:26:10Z</time></trkpt><trkpt lat="46.18309953857673" lon="12.973037210153574"><ele>215.79999999999998</ele><time>2026-04-04T10:26:11Z</time></trkpt><trkpt lat="46.183071964834426" lon="12.972889757652577"><ele>216.39999999999998</ele><time>2026-04-04T10:26:12Z</time></trkpt><trkpt lat="46.18306603689339" lon="12.972703324765595"><ele>217.0</ele><time>2026-04-04T10:26:13Z</time></trkpt><trkpt lat="46.183055459193945" lon="12.97252169903796"><ele>217.0</ele><time>2026-04-04T10:26:14Z</time></trkpt><trkpt lat="46.183033047430655" lon="12.972383610454026"><ele>217.0</ele><time>2026-04-04T10:26:15Z</time></trkpt><trkpt lat="46.182992067030185" lon="12.972272622854403"><ele>217.0</ele><time>2026-04-04T10:26:16.001Z</time></trkpt><trkpt lat="46.18293062882035" lon="12.972182246383522"><ele>217.0</ele><time>2026-04-04T10:26:17.001Z</time></trkpt><trkpt lat="46.18285081495028" lon="12.972133856607664"><ele>217.0</ele><time>2026-04-04T10:26:18.001Z</time></trkpt><trkpt lat="46.18276103513411" lon="12.972123645555923"><ele>217.0</ele><time>2026-04-04T10:26:19.001Z</time></trkpt><trkpt lat="46.18266496125842" lon="12.972150791705312"><ele>217.0</ele><time>2026-04-04T10:26:20.001Z</time></trkpt><trkpt lat="46.182564454907016" lon="12.972209127140589"><ele>217.0</ele><time>2026-04-04T10:26:21.001Z</time></trkpt><trkpt lat="46.18246523643592" lon="12.97231230515905"><ele>217.0</ele><time>2026-04-04T10:26:22.001Z</time></trkpt><trkpt lat="46.18236034714995" lon="12.972451364860975"><ele>217.0</ele><time>2026-04-04T10:26:23.001Z</time></trkpt><trkpt lat="46.18222052270001" lon="12.972609331760532"><ele>217.0</ele><time>2026-04-04T10:26:24.001Z</time></trkpt><trkpt lat="46.18209100401906" lon="12.972778536724675"><ele>217.0</ele><time>2026-04-04T10:26:25.001Z</time></trkpt><trkpt lat="46.181956223582155" lon="12.972921661553958"><ele>217.0</ele><time>2026-04-04T10:26:26.001Z</time></trkpt><trkpt lat="46.18183666397035" lon="12.973075813795363"><ele>217.0</ele><time>2026-04-04T10:26:27.001Z</time></trkpt><trkpt lat="46.181716501490484" lon="12.973200608936478"><ele>217.0</ele><time>2026-04-04T10:26:28.001Z</time></trkpt><trkpt lat="46.181597918598754" lon="12.973329980817669"><ele>217.0</ele><time>2026-04-04T10:26:29.001Z</time></trkpt><trkpt lat="46.18148043561408" lon="12.973492034423575"><ele>217.0</ele><time>2026-04-04T10:26:30.001Z</time></trkpt><trkpt lat="46.181370351056216" lon="12.973675360114884"><ele>217.0</ele><time>2026-04-04T10:26:31.001Z</time></trkpt><trkpt lat="46.18126006169063" lon="12.973832221713918"><ele>217.0</ele><time>2026-04-04T10:26:32.001Z</time></trkpt><trkpt lat="46.181164036324034" lon="12.973999496983666"><ele>217.0</ele><time>2026-04-04T10:26:33.001Z</time></trkpt><trkpt lat="46.18106308243349" lon="12.974163224127603"><ele>217.0</ele><time>2026-04-04T10:26:34.001Z</time></trkpt><trkpt lat="46.180950557664104" lon="12.974299811314319"><ele>217.0</ele><time>2026-04-04T10:26:35.001Z</time></trkpt><trkpt lat="46.18083940028806" lon="12.974426966159742"><ele>217.25</ele><time>2026-04-04T10:26:36.001Z</time></trkpt><trkpt lat="46.18074908343982" lon="12.974553983772688"><ele>217.5</ele><time>2026-04-04T10:26:37.001Z</time></trkpt><trkpt lat="46.180666855630086" lon="12.97470651228922"><ele>217.75</ele><time>2026-04-04T10:26:38.001Z</time></trkpt><trkpt lat="46.180601223276284" lon="12.974861723594586"><ele>218.0</ele><time>2026-04-04T10:26:39.001Z</time></trkpt><trkpt lat="46.18055253171728" lon="12.974997729618574"><ele>218.4</ele><time>2026-04-04T10:26:40.001Z</time></trkpt><trkpt lat="46.180535731239665" lon="12.975107605515653"><ele>218.8</ele><time>2026-04-04T10:26:41.001Z</time></trkpt><trkpt lat="46.18049195187066" lon="12.975191179037825"><ele>219.2</ele><time>2026-04-04T10:26:42.001Z</time></trkpt><trkpt lat="46.18045374653943" lon="12.975316249910453"><ele>219.6</ele><time>2026-04-04T10:26:43.001Z</time></trkpt><trkpt lat="46.18041934797475" lon="12.97548954276004"><ele>220.0</ele><time>2026-04-04T10:26:44.001Z</time></trkpt><trkpt lat="46.18035966038488" lon="12.975687154481635"><ele>221.5</ele><time>2026-04-04T10:26:45.001Z</time></trkpt><trkpt lat="46.18030494980398" lon="12.975858393670526"><ele>223.0</ele><time>2026-04-04T10:26:46.001Z</time></trkpt><trkpt lat="46.18024320290729" lon="12.975984421065279"><ele>224.5</ele><time>2026-04-04T10:26:47.001Z</time></trkpt><trkpt lat="46.18014847358673" lon="12.976092302628368"><ele>226.0</ele><time>2026-04-04T10:26:48.001Z</time></trkpt><trkpt lat="46.180013600551675" lon="12.976171898481825"><ele>226.0</ele><time>2026-04-04T10:26:49Z</time></trkpt><trkpt lat="46.17986564809317" lon="12.97625786069407"><ele>226.0</ele><time>2026-04-04T10:26:50Z</time></trkpt><trkpt lat="46.179720989330875" lon="12.976343031112888"><ele>226.0</ele><time>2026-04-04T10:26:51Z</time></trkpt><trkpt lat="46.179579773949605" lon="12.976431052018539"><ele>226.0</ele><time>2026-04-04T10:26:52Z</time></trkpt><trkpt lat="46.17945847261019" lon="12.976506660298112"><ele>226.0</ele><time>2026-04-04T10:26:53Z</time></trkpt><trkpt lat="46.17934518822419" lon="12.97657727155857"><ele>226.0</ele><time>2026-04-04T10:26:54Z</time></trkpt><trkpt lat="46.17924852661484" lon="12.976643844202762"><ele>226.0</ele><time>2026-04-04T10:26:55Z</time></trkpt><trkpt lat="46.179163735769826" lon="12.976736570976719"><ele>226.49999999999997</ele><time>2026-04-04T10:26:56Z</time></trkpt><trkpt lat="46.17912733949218" lon="12.976847463558245"><ele>227.0</ele><time>2026-04-04T10:26:57Z</time></trkpt><trkpt lat="46.17907589640548" lon="12.976935086918903"><ele>227.5</ele><time>2026-04-04T10:26:58Z</time></trkpt><trkpt lat="46.17907850195987" lon="12.977068968963263"><ele>228.0</ele><time>2026-04-04T10:26:59Z</time></trkpt><trkpt lat="46.17907638390867" lon="12.977198249879056"><ele>228.49999999999997</ele><time>2026-04-04T10:27:00Z</time></trkpt><trkpt lat="46.17907540530844" lon="12.97732835590802"><ele>229.0</ele><time>2026-04-04T10:27:01Z</time></trkpt><trkpt lat="46.179070479173916" lon="12.977451177789519"><ele>229.16666666666666</ele><time>2026-04-04T10:27:02Z</time></trkpt><trkpt lat="46.179074383740605" lon="12.977563432817028"><ele>229.33333333333331</ele><time>2026-04-04T10:27:03Z</time></trkpt><trkpt lat="46.179066864706144" lon="12.977662983173989"><ele>229.5</ele><time>2026-04-04T10:27:04Z</time></trkpt><trkpt lat="46.1790310446635" lon="12.977838299933715"><ele>229.66666666666669</ele><time>2026-04-04T10:27:06Z</time></trkpt><trkpt lat="46.17900506530147" lon="12.977923575854037"><ele>229.83333333333334</ele><time>2026-04-04T10:27:07Z</time></trkpt><trkpt lat="46.178961862871695" lon="12.97801306405406"><ele>230.0</ele><time>2026-04-04T10:27:08Z</time></trkpt><trkpt lat="46.178907640332156" lon="12.978148451178264"><ele>230.0</ele><time>2026-04-04T10:27:09Z</time></trkpt><trkpt lat="46.17882764958353" lon="12.978246572036719"><ele>230.0</ele><time>2026-04-04T10:27:10Z</time></trkpt><trkpt lat="46.178737322237815" lon="12.97833282364647"><ele>230.0</ele><time>2026-04-04T10:27:11Z</time></trkpt><trkpt lat="46.17864128779083" lon="12.978408976655533"><ele>230.0</ele><time>2026-04-04T10:27:12Z</time></trkpt><trkpt lat="46.17853517076098" lon="12.978488404903452"><ele>230.0</ele><time>2026-04-04T10:27:13Z</time></trkpt><trkpt lat="46.178419632287536" lon="12.97857140550193"><ele>230.0</ele><time>2026-04-04T10:27:14Z</time></trkpt><trkpt lat="46.178307346236465" lon="12.978656025640383"><ele>230.0</ele><time>2026-04-04T10:27:15Z</time></trkpt><trkpt lat="46.17822751992125" lon="12.978779509837318"><ele>230.0</ele><time>2026-04-04T10:27:16Z</time></trkpt><trkpt lat="46.17812066966254" lon="12.97887677997575"><ele>230.0</ele><time>2026-04-04T10:27:17Z</time></trkpt><trkpt lat="46.17800690636723" lon="12.978954599797252"><ele>230.0</ele><time>2026-04-04T10:27:18Z</time></trkpt><trkpt lat="46.177891444375476" lon="12.979030905431314"><ele>230.0</ele><time>2026-04-04T10:27:19Z</time></trkpt><trkpt lat="46.177767020677834" lon="12.979109575624417"><ele>230.0</ele><time>2026-04-04T10:27:20Z</time></trkpt><trkpt lat="46.177649543751066" lon="12.97919426946554"><ele>230.0</ele><time>2026-04-04T10:27:21Z</time></trkpt><trkpt lat="46.17753185012086" lon="12.979266642105571"><ele>229.75</ele><time>2026-04-04T10:27:22Z</time></trkpt><trkpt lat="46.17743049190366" lon="12.979352202755306"><ele>229.5</ele><time>2026-04-04T10:27:23Z</time></trkpt><trkpt lat="46.17731407406732" lon="12.979390540957448"><ele>229.25</ele><time>2026-04-04T10:27:24Z</time></trkpt><trkpt lat="46.1772090158939" lon="12.979451561311263"><ele>229.0</ele><time>2026-04-04T10:27:25Z</time></trkpt><trkpt lat="46.177103185876824" lon="12.97951302996172"><ele>229.0</ele><time>2026-04-04T10:27:26Z</time></trkpt><trkpt lat="46.176988711385" lon="12.979579519555948"><ele>229.0</ele><time>2026-04-04T10:27:27Z</time></trkpt><trkpt lat="46.17686951362458" lon="12.979649467388581"><ele>229.0</ele><time>2026-04-04T10:27:28Z</time></trkpt><trkpt lat="46.17675149350199" lon="12.979719383589849"><ele>229.0</ele><time>2026-04-04T10:27:29Z</time></trkpt><trkpt lat="46.176637357129906" lon="12.97978804046789"><ele>229.0</ele><time>2026-04-04T10:27:30Z</time></trkpt><trkpt lat="46.17652696418918" lon="12.979855678695655"><ele>229.0</ele><time>2026-04-04T10:27:31Z</time></trkpt><trkpt lat="46.17641168956116" lon="12.979935704793537"><ele>229.0</ele><time>2026-04-04T10:27:32Z</time></trkpt><trkpt lat="46.17630493069465" lon="12.980043411073632"><ele>229.0</ele><time>2026-04-04T10:27:33Z</time></trkpt><trkpt lat="46.17619100002545" lon="12.980141074267438"><ele>229.25</ele><time>2026-04-04T10:27:34Z</time></trkpt><trkpt lat="46.17607648078748" lon="12.980244100696462"><ele>229.5</ele><time>2026-04-04T10:27:35Z</time></trkpt><trkpt lat="46.17596899356239" lon="12.98037843067877"><ele>229.75</ele><time>2026-04-04T10:27:36Z</time></trkpt><trkpt lat="46.17586710413765" lon="12.980533434443531"><ele>230.0</ele><time>2026-04-04T10:27:37Z</time></trkpt><trkpt lat="46.17575370247383" lon="12.980687278208473"><ele>229.33333333333334</ele><time>2026-04-04T10:27:38Z</time></trkpt><trkpt lat="46.17562713794407" lon="12.980824175566706"><ele>228.66666666666669</ele><time>2026-04-04T10:27:39Z</time></trkpt><trkpt lat="46.17550654288246" lon="12.980970965616082"><ele>228.0</ele><time>2026-04-04T10:27:40Z</time></trkpt><trkpt lat="46.17539175925927" lon="12.98111068188321"><ele>228.0</ele><time>2026-04-04T10:27:41Z</time></trkpt><trkpt lat="46.17527542179848" lon="12.981249705957634"><ele>228.0</ele><time>2026-04-04T10:27:42Z</time></trkpt><trkpt lat="46.17515405778803" lon="12.981388337046404"><ele>228.0</ele><time>2026-04-04T10:27:43Z</time></trkpt><trkpt lat="46.175022907110794" lon="12.981507245637998"><ele>228.0</ele><time>2026-04-04T10:27:44Z</time></trkpt><trkpt lat="46.17488351190861" lon="12.9816169076046"><ele>228.0</ele><time>2026-04-04T10:27:45Z</time></trkpt><trkpt lat="46.17474069280786" lon="12.98173284657725"><ele>228.0</ele><time>2026-04-04T10:27:46Z</time></trkpt><trkpt lat="46.1746068702651" lon="12.981846056860752"><ele>228.5</ele><time>2026-04-04T10:27:47Z</time></trkpt><trkpt lat="46.174486739865955" lon="12.981963580626436"><ele>229.0</ele><time>2026-04-04T10:27:48Z</time></trkpt><trkpt lat="46.17439009513188" lon="12.982098340608735"><ele>229.5</ele><time>2026-04-04T10:27:49Z</time></trkpt><trkpt lat="46.174291103921135" lon="12.982231531275982"><ele>230.0</ele><time>2026-04-04T10:27:50Z</time></trkpt><trkpt lat="46.17419817412576" lon="12.982397245474397"><ele>230.66666666666669</ele><time>2026-04-04T10:27:51Z</time></trkpt><trkpt lat="46.174103163967104" lon="12.982597104468123"><ele>231.33333333333331</ele><time>2026-04-04T10:27:52Z</time></trkpt><trkpt lat="46.17400436831381" lon="12.982825497354982"><ele>232.0</ele><time>2026-04-04T10:27:53Z</time></trkpt><trkpt lat="46.17391272206654" lon="12.983058320897708"><ele>230.33333333333331</ele><time>2026-04-04T10:27:54Z</time></trkpt><trkpt lat="46.17382815085863" lon="12.983282947381143"><ele>228.66666666666669</ele><time>2026-04-04T10:27:55Z</time></trkpt><trkpt lat="46.17374017395329" lon="12.983510839032897"><ele>227.0</ele><time>2026-04-04T10:27:56Z</time></trkpt><trkpt lat="46.17365055234606" lon="12.98374270968338"><ele>227.0</ele><time>2026-04-04T10:27:57Z</time></trkpt><trkpt lat="46.173555448295694" lon="12.983976517979299"><ele>227.0</ele><time>2026-04-04T10:27:58Z</time></trkpt><trkpt lat="46.17345751939153" lon="12.984203062130275"><ele>227.0</ele><time>2026-04-04T10:27:59Z</time></trkpt><trkpt lat="46.17335134040038" lon="12.984425951570826"><ele>225.66666666666669</ele><time>2026-04-04T10:28:00Z</time></trkpt><trkpt lat="46.17325867846073" lon="12.984648109989335"><ele>224.33333333333331</ele><time>2026-04-04T10:28:01Z</time></trkpt><trkpt lat="46.1731736424334" lon="12.984851985186282"><ele>223.0</ele><time>2026-04-04T10:28:02Z</time></trkpt><trkpt lat="46.17309219948443" lon="12.985050120710216"><ele>223.0</ele><time>2026-04-04T10:28:03Z</time></trkpt><trkpt lat="46.173020976302304" lon="12.98524272154891"><ele>223.0</ele><time>2026-04-04T10:28:04Z</time></trkpt><trkpt lat="46.17297021516183" lon="12.985425687891102"><ele>223.0</ele><time>2026-04-04T10:28:05Z</time></trkpt><trkpt lat="46.1729568258803" lon="12.985616573086881"><ele>223.0</ele><time>2026-04-04T10:28:06Z</time></trkpt><trkpt lat="46.172944590779124" lon="12.98580689225371"><ele>222.33333333333331</ele><time>2026-04-04T10:28:07Z</time></trkpt><trkpt lat="46.17294110389308" lon="12.986023471656317"><ele>221.66666666666669</ele><time>2026-04-04T10:28:08Z</time></trkpt><trkpt lat="46.17295151058126" lon="12.986272524928895"><ele>221.0</ele><time>2026-04-04T10:28:09Z</time></trkpt><trkpt lat="46.17296406647722" lon="12.986535796856728"><ele>220.0</ele><time>2026-04-04T10:28:10Z</time></trkpt><trkpt lat="46.17297562875782" lon="12.986778225419737"><ele>219.0</ele><time>2026-04-04T10:28:11Z</time></trkpt><trkpt lat="46.172987454539886" lon="12.987012147750697"><ele>218.0</ele><time>2026-04-04T10:28:12Z</time></trkpt><trkpt lat="46.17299968000468" lon="12.987256935545867"><ele>218.0</ele><time>2026-04-04T10:28:13Z</time></trkpt><trkpt lat="46.17301229986571" lon="12.9875096202349"><ele>218.0</ele><time>2026-04-04T10:28:14Z</time></trkpt><trkpt lat="46.17302495752973" lon="12.987763062662438"><ele>218.0</ele><time>2026-04-04T10:28:15Z</time></trkpt><trkpt lat="46.173037025795914" lon="12.988008319909813"><ele>217.33333333333334</ele><time>2026-04-04T10:28:16Z</time></trkpt><trkpt lat="46.17304969647749" lon="12.988264864789274"><ele>216.66666666666669</ele><time>2026-04-04T10:28:17Z</time></trkpt><trkpt lat="46.17306251888835" lon="12.988524481691455"><ele>216.0</ele><time>2026-04-04T10:28:18Z</time></trkpt><trkpt lat="46.173074420226065" lon="12.988765449575798"><ele>215.0</ele><time>2026-04-04T10:28:19Z</time></trkpt><trkpt lat="46.17308570599447" lon="12.988993953877886"><ele>214.0</ele><time>2026-04-04T10:28:20Z</time></trkpt><trkpt lat="46.17311349748651" lon="12.989219154694469"><ele>213.0</ele><time>2026-04-04T10:28:21Z</time></trkpt><trkpt lat="46.173107862270015" lon="12.989449308590952"><ele>213.0</ele><time>2026-04-04T10:28:22Z</time></trkpt><trkpt lat="46.173134482344125" lon="12.98968272259228"><ele>213.0</ele><time>2026-04-04T10:28:23Z</time></trkpt><trkpt lat="46.17312999258491" lon="12.989914244136791"><ele>213.0</ele><time>2026-04-04T10:28:24Z</time></trkpt><trkpt lat="46.17315491614725" lon="12.990138671885319"><ele>215.33333333333331</ele><time>2026-04-04T10:28:25Z</time></trkpt><trkpt lat="46.17316262758762" lon="12.99035737174772"><ele>217.66666666666666</ele><time>2026-04-04T10:28:26Z</time></trkpt><trkpt lat="46.1731665857314" lon="12.990577820410776"><ele>220.0</ele><time>2026-04-04T10:28:27Z</time></trkpt><trkpt lat="46.17314660064733" lon="12.99079903766006"><ele>220.0</ele><time>2026-04-04T10:28:28Z</time></trkpt><trkpt lat="46.173127931766906" lon="12.991024292013192"><ele>220.0</ele><time>2026-04-04T10:28:29Z</time></trkpt><trkpt lat="46.17308477066092" lon="12.99123323328926"><ele>220.0</ele><time>2026-04-04T10:28:30Z</time></trkpt><trkpt lat="46.17303098499069" lon="12.991450052780612"><ele>220.0</ele><time>2026-04-04T10:28:31Z</time></trkpt><trkpt lat="46.172957538936615" lon="12.991657222792275"><ele>220.0</ele><time>2026-04-04T10:28:32Z</time></trkpt><trkpt lat="46.17286833337216" lon="12.991858433044502"><ele>220.0</ele><time>2026-04-04T10:28:33Z</time></trkpt><trkpt lat="46.1727690250166" lon="12.992057886160767"><ele>218.66666666666666</ele><time>2026-04-04T10:28:34Z</time></trkpt><trkpt lat="46.172652381045" lon="12.992270152563387"><ele>217.33333333333331</ele><time>2026-04-04T10:28:35Z</time></trkpt><trkpt lat="46.172524319077866" lon="12.992502259204947"><ele>216.0</ele><time>2026-04-04T10:28:36Z</time></trkpt><trkpt lat="46.17238749373299" lon="12.992748499755255"><ele>216.0</ele><time>2026-04-04T10:28:37Z</time></trkpt><trkpt lat="46.1722609863446" lon="12.992975077492009"><ele>216.0</ele><time>2026-04-04T10:28:38Z</time></trkpt><trkpt lat="46.17214142528533" lon="12.993187957330088"><ele>216.0</ele><time>2026-04-04T10:28:39Z</time></trkpt><trkpt lat="46.17202846032945" lon="12.99339217028746"><ele>216.0</ele><time>2026-04-04T10:28:40.001Z</time></trkpt><trkpt lat="46.171903656168624" lon="12.993617785637793"><ele>216.0</ele><time>2026-04-04T10:28:41.001Z</time></trkpt><trkpt lat="46.17175592373735" lon="12.99388280426224"><ele>216.0</ele><time>2026-04-04T10:28:42.001Z</time></trkpt><trkpt lat="46.17159713883141" lon="12.994165726552728"><ele>217.5</ele><time>2026-04-04T10:28:43.001Z</time></trkpt><trkpt lat="46.17144043763087" lon="12.994445290524977"><ele>219.0</ele><time>2026-04-04T10:28:44.001Z</time></trkpt><trkpt lat="46.17127803351742" lon="12.994733801059946"><ele>215.0</ele><time>2026-04-04T10:28:45.001Z</time></trkpt><trkpt lat="46.17111750612638" lon="12.995015004026234"><ele>211.0</ele><time>2026-04-04T10:28:46.001Z</time></trkpt><trkpt lat="46.17096133238698" lon="12.995291502804823"><ele>211.0</ele><time>2026-04-04T10:28:47.001Z</time></trkpt><trkpt lat="46.170806026517305" lon="12.995567088845009"><ele>211.0</ele><time>2026-04-04T10:28:48.001Z</time></trkpt><trkpt lat="46.17065188325706" lon="12.99584061187152"><ele>211.0</ele><time>2026-04-04T10:28:49.001Z</time></trkpt><trkpt lat="46.170502021653114" lon="12.99610653723625"><ele>211.0</ele><time>2026-04-04T10:28:50.001Z</time></trkpt><trkpt lat="46.17035917180733" lon="12.996360020325142"><ele>211.0</ele><time>2026-04-04T10:28:51.001Z</time></trkpt><trkpt lat="46.17022328021125" lon="12.996601156247586"><ele>211.0</ele><time>2026-04-04T10:28:52.001Z</time></trkpt><trkpt lat="46.170092088863555" lon="12.996834678436086"><ele>211.0</ele><time>2026-04-04T10:28:53.001Z</time></trkpt><trkpt lat="46.169964086975774" lon="12.997063479943556"><ele>210.33333333333331</ele><time>2026-04-04T10:28:54.001Z</time></trkpt><trkpt lat="46.16983561893635" lon="12.997293590985526"><ele>209.66666666666669</ele><time>2026-04-04T10:28:55Z</time></trkpt><trkpt lat="46.169710585891586" lon="12.997519620505495"><ele>209.0</ele><time>2026-04-04T10:28:56Z</time></trkpt><trkpt lat="46.16959216593187" lon="12.9977336951583"><ele>208.33333333333334</ele><time>2026-04-04T10:28:57Z</time></trkpt><trkpt lat="46.16950599407799" lon="12.99796663370868"><ele>207.66666666666669</ele><time>2026-04-04T10:28:58Z</time></trkpt><trkpt lat="46.16939245902707" lon="12.998174958548576"><ele>207.0</ele><time>2026-04-04T10:28:59Z</time></trkpt><trkpt lat="46.16927791638359" lon="12.998382319549508"><ele>206.0</ele><time>2026-04-04T10:29:00Z</time></trkpt><trkpt lat="46.16916658434162" lon="12.998592766121954"><ele>205.0</ele><time>2026-04-04T10:29:01Z</time></trkpt><trkpt lat="46.16902232772125" lon="12.998769165888714"><ele>204.0</ele><time>2026-04-04T10:29:02Z</time></trkpt><trkpt lat="46.16890619540817" lon="12.998978770550428"><ele>206.33333333333331</ele><time>2026-04-04T10:29:03Z</time></trkpt><trkpt lat="46.168790709477626" lon="12.99918720856403"><ele>208.66666666666666</ele><time>2026-04-04T10:29:04Z</time></trkpt><trkpt lat="46.16867514998541" lon="12.999395779354462"><ele>211.0</ele><time>2026-04-04T10:29:05Z</time></trkpt><trkpt lat="46.16855581410478" lon="12.999611296553084"><ele>211.0</ele><time>2026-04-04T10:29:06Z</time></trkpt><trkpt lat="46.168432987152826" lon="12.99983335884444"><ele>211.0</ele><time>2026-04-04T10:29:07Z</time></trkpt><trkpt lat="46.1683139377101" lon="13.000048591727717"><ele>211.0</ele><time>2026-04-04T10:29:08Z</time></trkpt><trkpt lat="46.16822284835074" lon="13.00027016428329"><ele>211.25</ele><time>2026-04-04T10:29:09Z</time></trkpt><trkpt lat="46.16812037931108" lon="13.000451557599307"><ele>211.5</ele><time>2026-04-04T10:29:10Z</time></trkpt><trkpt lat="46.16802745920907" lon="13.000616574755153"><ele>211.75</ele><time>2026-04-04T10:29:11Z</time></trkpt><trkpt lat="46.16793174121404" lon="13.000757171476192"><ele>212.0</ele><time>2026-04-04T10:29:12Z</time></trkpt><trkpt lat="46.16781088288181" lon="13.000853170295983"><ele>212.0</ele><time>2026-04-04T10:29:13Z</time></trkpt><trkpt lat="46.167686055812325" lon="13.000972203448692"><ele>212.0</ele><time>2026-04-04T10:29:14Z</time></trkpt><trkpt lat="46.167535136243906" lon="13.001083821151296"><ele>212.0</ele><time>2026-04-04T10:29:15Z</time></trkpt><trkpt lat="46.16736175374401" lon="13.001179436509581"><ele>210.66666666666669</ele><time>2026-04-04T10:29:16Z</time></trkpt><trkpt lat="46.1671813630199" lon="13.001272918205181"><ele>209.33333333333331</ele><time>2026-04-04T10:29:17Z</time></trkpt><trkpt lat="46.166994650013834" lon="13.00136826996397"><ele>208.0</ele><time>2026-04-04T10:29:18Z</time></trkpt><trkpt lat="46.16681176600392" lon="13.001461930717744"><ele>208.0</ele><time>2026-04-04T10:29:19Z</time></trkpt><trkpt lat="46.166626072427604" lon="13.00155703034055"><ele>208.0</ele><time>2026-04-04T10:29:20Z</time></trkpt><trkpt lat="46.16646016465261" lon="13.001641997038375"><ele>208.0</ele><time>2026-04-04T10:29:21Z</time></trkpt><trkpt lat="46.16630063529058" lon="13.001722913381654"><ele>209.25</ele><time>2026-04-04T10:29:22Z</time></trkpt><trkpt lat="46.16615338705441" lon="13.001797304636224"><ele>210.5</ele><time>2026-04-04T10:29:23Z</time></trkpt><trkpt lat="46.16601470502305" lon="13.001867804466311"><ele>211.75</ele><time>2026-04-04T10:29:24Z</time></trkpt><trkpt lat="46.16588021695029" lon="13.00193811554487"><ele>213.0</ele><time>2026-04-04T10:29:25Z</time></trkpt><trkpt lat="46.165737567538486" lon="13.002012693410698"><ele>216.33333333333331</ele><time>2026-04-04T10:29:26Z</time></trkpt><trkpt lat="46.16558674597509" lon="13.00209098141914"><ele>219.66666666666666</ele><time>2026-04-04T10:29:27Z</time></trkpt><trkpt lat="46.165433758312" lon="13.002169049575638"><ele>223.0</ele><time>2026-04-04T10:29:28Z</time></trkpt><trkpt lat="46.165277387373365" lon="13.002248846206577"><ele>223.0</ele><time>2026-04-04T10:29:29Z</time></trkpt><trkpt lat="46.1651078188208" lon="13.002335375193034"><ele>223.0</ele><time>2026-04-04T10:29:30Z</time></trkpt><trkpt lat="46.16494387123213" lon="13.002419036352793"><ele>223.0</ele><time>2026-04-04T10:29:31Z</time></trkpt><trkpt lat="46.164786674306214" lon="13.002499250724567"><ele>219.0</ele><time>2026-04-04T10:29:32Z</time></trkpt><trkpt lat="46.164644838206186" lon="13.002571622693692"><ele>215.0</ele><time>2026-04-04T10:29:33Z</time></trkpt><trkpt lat="46.16449438963783" lon="13.002648389178846"><ele>211.0</ele><time>2026-04-04T10:29:34Z</time></trkpt><trkpt lat="46.164357635719746" lon="13.002759631717456"><ele>211.0</ele><time>2026-04-04T10:29:35Z</time></trkpt><trkpt lat="46.16422581703399" lon="13.002825557653459"><ele>211.0</ele><time>2026-04-04T10:29:36Z</time></trkpt><trkpt lat="46.16408412804175" lon="13.002894183376709"><ele>211.0</ele><time>2026-04-04T10:29:37Z</time></trkpt><trkpt lat="46.16393518139497" lon="13.002969547667757"><ele>211.0</ele><time>2026-04-04T10:29:38Z</time></trkpt><trkpt lat="46.1637874595051" lon="13.003046885562815"><ele>211.0</ele><time>2026-04-04T10:29:39Z</time></trkpt><trkpt lat="46.16364690593803" lon="13.003123499653714"><ele>211.0</ele><time>2026-04-04T10:29:40Z</time></trkpt><trkpt lat="46.16351801240507" lon="13.003191611125459"><ele>211.0</ele><time>2026-04-04T10:29:41Z</time></trkpt><trkpt lat="46.16339406783295" lon="13.003254170711262"><ele>211.0</ele><time>2026-04-04T10:29:42Z</time></trkpt><trkpt lat="46.163281635086804" lon="13.003311672955618"><ele>209.83333333333331</ele><time>2026-04-04T10:29:43Z</time></trkpt><trkpt lat="46.16318115767349" lon="13.003365117112864"><ele>208.66666666666666</ele><time>2026-04-04T10:29:44Z</time></trkpt><trkpt lat="46.16309588365061" lon="13.003411781478778"><ele>207.5</ele><time>2026-04-04T10:29:45Z</time></trkpt><trkpt lat="46.16302401576879" lon="13.003448466674783"><ele>206.33333333333331</ele><time>2026-04-04T10:29:46Z</time></trkpt><trkpt lat="46.16295179688216" lon="13.003483886616975"><ele>205.16666666666666</ele><time>2026-04-04T10:29:47Z</time></trkpt><trkpt lat="46.16288291559161" lon="13.00351295905606"><ele>204.0</ele><time>2026-04-04T10:29:48Z</time></trkpt><trkpt lat="46.16282164921196" lon="13.003543432780436"><ele>204.0</ele><time>2026-04-04T10:29:49Z</time></trkpt><trkpt lat="46.16272309277853" lon="13.003601682685273"><ele>204.0</ele><time>2026-04-04T10:29:51Z</time></trkpt><trkpt lat="46.1626369855551" lon="13.003648615238482"><ele>204.0</ele><time>2026-04-04T10:29:53Z</time></trkpt><trkpt lat="46.16257414241658" lon="13.00367402003882"><ele>204.0</ele><time>2026-04-04T10:29:55Z</time></trkpt><trkpt lat="46.162504767474886" lon="13.003698613140172"><ele>204.0</ele><time>2026-04-04T10:30:06Z</time></trkpt><trkpt lat="46.16243346398582" lon="13.003694376859855"><ele>204.0</ele><time>2026-04-04T10:30:07Z</time></trkpt><trkpt lat="46.162365801545775" lon="13.003662675391812"><ele>203.83333333333334</ele><time>2026-04-04T10:30:08Z</time></trkpt><trkpt lat="46.1622983835226" lon="13.003646144788371"><ele>203.66666666666669</ele><time>2026-04-04T10:30:09Z</time></trkpt><trkpt lat="46.16222754506998" lon="13.00366369964212"><ele>203.5</ele><time>2026-04-04T10:30:10Z</time></trkpt><trkpt lat="46.16215763181176" lon="13.00372526098019"><ele>203.33333333333334</ele><time>2026-04-04T10:30:11Z</time></trkpt><trkpt lat="46.16210706619241" lon="13.003826314985867"><ele>203.16666666666669</ele><time>2026-04-04T10:30:12Z</time></trkpt><trkpt lat="46.1620752002396" lon="13.003953616501992"><ele>203.0</ele><time>2026-04-04T10:30:13Z</time></trkpt><trkpt lat="46.16205201212077" lon="13.004047951209426"><ele>203.00000000000003</ele><time>2026-04-04T10:30:14Z</time></trkpt><trkpt lat="46.1620041649157" lon="13.004108169084148"><ele>203.0</ele><time>2026-04-04T10:30:15Z</time></trkpt><trkpt lat="46.161934849711216" lon="13.004149199339688"><ele>203.0</ele><time>2026-04-04T10:30:16.001Z</time></trkpt><trkpt lat="46.16185808203561" lon="13.004157101201573"><ele>203.0</ele><time>2026-04-04T10:30:17.001Z</time></trkpt><trkpt lat="46.16178248676833" lon="13.004081438991603"><ele>203.00000000000003</ele><time>2026-04-04T10:30:18.001Z</time></trkpt><trkpt lat="46.16168649877009" lon="13.004089351722898"><ele>203.0</ele><time>2026-04-04T10:30:19.001Z</time></trkpt><trkpt lat="46.1615710205113" lon="13.004155795020308"><ele>202.75</ele><time>2026-04-04T10:30:20.001Z</time></trkpt><trkpt lat="46.161444741598736" lon="13.004219477609235"><ele>202.5</ele><time>2026-04-04T10:30:21.001Z</time></trkpt><trkpt lat="46.16131156210578" lon="13.004286640115119"><ele>202.25</ele><time>2026-04-04T10:30:22.001Z</time></trkpt><trkpt lat="46.16117807079909" lon="13.004355367652098"><ele>202.0</ele><time>2026-04-04T10:30:23.001Z</time></trkpt><trkpt lat="46.16105630026335" lon="13.004418112000339"><ele>202.0</ele><time>2026-04-04T10:30:24.001Z</time></trkpt><trkpt lat="46.16092635016018" lon="13.00448507104304"><ele>202.0</ele><time>2026-04-04T10:30:25.001Z</time></trkpt><trkpt lat="46.16079555967694" lon="13.004552790840943"><ele>202.0</ele><time>2026-04-04T10:30:26.001Z</time></trkpt><trkpt lat="46.16066347790648" lon="13.004620499435452"><ele>202.0</ele><time>2026-04-04T10:30:27.001Z</time></trkpt><trkpt lat="46.16052989857332" lon="13.004688660443032"><ele>202.5</ele><time>2026-04-04T10:30:28.001Z</time></trkpt><trkpt lat="46.160404370464036" lon="13.004792092104958"><ele>203.0</ele><time>2026-04-04T10:30:29.001Z</time></trkpt><trkpt lat="46.16027275338552" lon="13.004866079111633"><ele>203.5</ele><time>2026-04-04T10:30:30.001Z</time></trkpt><trkpt lat="46.16013237560709" lon="13.00493164439345"><ele>204.0</ele><time>2026-04-04T10:30:31.001Z</time></trkpt><trkpt lat="46.16000182790343" lon="13.004999370150573"><ele>204.39999999999998</ele><time>2026-04-04T10:30:32.001Z</time></trkpt><trkpt lat="46.159876089341374" lon="13.005020982274718"><ele>204.8</ele><time>2026-04-04T10:30:33.001Z</time></trkpt><trkpt lat="46.159769775755045" lon="13.005075643930864"><ele>205.2</ele><time>2026-04-04T10:30:34.001Z</time></trkpt><trkpt lat="46.15966995533207" lon="13.005126967111945"><ele>205.60000000000002</ele><time>2026-04-04T10:30:35.001Z</time></trkpt><trkpt lat="46.15957410483719" lon="13.005176249135616"><ele>206.0</ele><time>2026-04-04T10:30:36.001Z</time></trkpt><trkpt lat="46.15948558124945" lon="13.005221763999742"><ele>206.00000000000003</ele><time>2026-04-04T10:30:37.001Z</time></trkpt><trkpt lat="46.15940607561606" lon="13.005262642233266"><ele>206.0</ele><time>2026-04-04T10:30:38.001Z</time></trkpt><trkpt lat="46.15933037813144" lon="13.005301562467787"><ele>206.0</ele><time>2026-04-04T10:30:39.001Z</time></trkpt><trkpt lat="46.15925781436061" lon="13.00533887146435"><ele>206.0</ele><time>2026-04-04T10:30:40.001Z</time></trkpt><trkpt lat="46.15917280898885" lon="13.00538391071654"><ele>206.00000000000003</ele><time>2026-04-04T10:30:41.001Z</time></trkpt><trkpt lat="46.15909006590082" lon="13.00542855674013"><ele>206.0</ele><time>2026-04-04T10:30:42.001Z</time></trkpt><trkpt lat="46.15898692466016" lon="13.005467415682377"><ele>205.25</ele><time>2026-04-04T10:30:44.001Z</time></trkpt><trkpt lat="46.15892200854423" lon="13.005256831510822"><ele>204.5</ele><time>2026-04-04T10:30:47.001Z</time></trkpt><trkpt lat="46.15889553875406" lon="13.005133439760794"><ele>203.75</ele><time>2026-04-04T10:30:48.001Z</time></trkpt><trkpt lat="46.158888006598126" lon="13.004976391105693"><ele>203.0</ele><time>2026-04-04T10:30:49.001Z</time></trkpt><trkpt lat="46.15887334241981" lon="13.004801542414487"><ele>201.8</ele><time>2026-04-04T10:30:50.001Z</time></trkpt><trkpt lat="46.15886014951586" lon="13.004636381330101"><ele>200.60000000000002</ele><time>2026-04-04T10:30:51.001Z</time></trkpt><trkpt lat="46.158846447696604" lon="13.004490401152534"><ele>199.39999999999998</ele><time>2026-04-04T10:30:52.001Z</time></trkpt><trkpt lat="46.15883156671971" lon="13.004362108857238"><ele>198.2</ele><time>2026-04-04T10:30:53.001Z</time></trkpt><trkpt lat="46.15882735016677" lon="13.004245908063009"><ele>197.0</ele><time>2026-04-04T10:30:54.001Z</time></trkpt><trkpt lat="46.158813958908674" lon="13.004151745150288"><ele>197.00000000000003</ele><time>2026-04-04T10:30:55.001Z</time></trkpt><trkpt lat="46.15880696947286" lon="13.004023923744771"><ele>197.0</ele><time>2026-04-04T10:30:57.001Z</time></trkpt><trkpt lat="46.15878874262783" lon="13.003931329831495"><ele>197.0</ele><time>2026-04-04T10:31:01Z</time></trkpt><trkpt lat="46.158651979500675" lon="13.003959935533409"><ele>197.0</ele><time>2026-04-04T10:31:04Z</time></trkpt><trkpt lat="46.158595742858346" lon="13.004003876119329"><ele>197.00000000000003</ele><time>2026-04-04T10:31:12Z</time></trkpt><trkpt lat="46.158573428549516" lon="13.004097750226006"><ele>197.0</ele><time>2026-04-04T10:31:20Z</time></trkpt><trkpt lat="46.15859352403732" lon="13.003995119980226"><ele>197.0</ele><time>2026-04-04T10:32:32.001Z</time></trkpt><trkpt lat="46.15864891174878" lon="13.003933505247291"><ele>197.0</ele><time>2026-04-04T10:36:29Z</time></trkpt><trkpt lat="46.15871376914182" lon="13.003919093375167"><ele>197.0</ele><time>2026-04-04T10:36:49Z</time></trkpt><trkpt lat="46.158777819075546" lon="13.003880170361423"><ele>197.0</ele><time>2026-04-04T10:37:02Z</time></trkpt><trkpt lat="46.15875356847904" lon="13.003767319495"><ele>197.0</ele><time>2026-04-04T10:39:56.446Z</time></trkpt><trkpt lat="46.15880277349398" lon="13.003841518555559"><ele>197.0</ele><time>2026-04-04T10:40:42Z</time></trkpt><trkpt lat="46.158822824639536" lon="13.003943371674447"><ele>197.0</ele><time>2026-04-04T10:40:45Z</time></trkpt><trkpt lat="46.158905945643234" lon="13.004061538553628"><ele>197.00000000000003</ele><time>2026-04-04T10:40:50Z</time></trkpt><trkpt lat="46.15887181817335" lon="13.003956102112593"><ele>197.0</ele><time>2026-04-04T10:41:09Z</time></trkpt><trkpt lat="46.15877090244653" lon="13.003892328831109"><ele>197.0</ele><time>2026-04-04T10:41:26Z</time></trkpt><trkpt lat="46.158711556937085" lon="13.00393406417956"><ele>197.0</ele><time>2026-04-04T10:41:33Z</time></trkpt><trkpt lat="46.15865394791769" lon="13.003979517341977"><ele>197.00000000000003</ele><time>2026-04-04T10:41:37Z</time></trkpt><trkpt lat="46.158593907348205" lon="13.00404069937701"><ele>197.0</ele><time>2026-04-04T10:41:42Z</time></trkpt><trkpt lat="46.15866048137445" lon="13.004040185444765"><ele>197.00000000000003</ele><time>2026-04-04T10:43:51Z</time></trkpt><trkpt lat="46.158698410149654" lon="13.00396607891208"><ele>197.0</ele><time>2026-04-04T10:43:53Z</time></trkpt><trkpt lat="46.158755426432066" lon="13.00391464838698"><ele>197.0</ele><time>2026-04-04T10:43:59Z</time></trkpt><trkpt lat="46.1587850695686" lon="13.003781676053958"><ele>197.0</ele><time>2026-04-04T10:44:02.001Z</time></trkpt><trkpt lat="46.158781810357546" lon="13.003630247170594"><ele>197.00000000000003</ele><time>2026-04-04T10:44:04.001Z</time></trkpt><trkpt lat="46.15877398218031" lon="13.003528789077873"><ele>197.0</ele><time>2026-04-04T10:44:05.001Z</time></trkpt><trkpt lat="46.158756623699134" lon="13.003420139352803"><ele>197.33333333333334</ele><time>2026-04-04T10:44:06.001Z</time></trkpt><trkpt lat="46.15874691057072" lon="13.003318782399234"><ele>197.66666666666669</ele><time>2026-04-04T10:44:07.001Z</time></trkpt><trkpt lat="46.158725470670724" lon="13.003182209510037"><ele>198.0</ele><time>2026-04-04T10:44:09.001Z</time></trkpt><trkpt lat="46.15869901073095" lon="13.003043323121812"><ele>198.33333333333331</ele><time>2026-04-04T10:44:11.001Z</time></trkpt><trkpt lat="46.15869098860729" lon="13.002951072558083"><ele>198.66666666666666</ele><time>2026-04-04T10:44:12.001Z</time></trkpt><trkpt lat="46.158684264579264" lon="13.002854317839828"><ele>199.0</ele><time>2026-04-04T10:44:13.001Z</time></trkpt><trkpt lat="46.15870050947583" lon="13.002751227265279"><ele>199.0</ele><time>2026-04-04T10:44:14.001Z</time></trkpt><trkpt lat="46.15870626861909" lon="13.002594686785311"><ele>199.0</ele><time>2026-04-04T10:44:16.001Z</time></trkpt><trkpt lat="46.15880961855245" lon="13.00251051002742"><ele>199.0</ele><time>2026-04-04T10:44:18Z</time></trkpt><trkpt lat="46.158876159366436" lon="13.00249986623451"><ele>199.0</ele><time>2026-04-04T10:44:19Z</time></trkpt><trkpt lat="46.158939091151474" lon="13.002447518534218"><ele>199.0</ele><time>2026-04-04T10:44:20Z</time></trkpt><trkpt lat="46.1590421170032" lon="13.002565560138473"><ele>198.75</ele><time>2026-04-04T10:44:21Z</time></trkpt><trkpt lat="46.15914175349361" lon="13.002610137459628"><ele>198.5</ele><time>2026-04-04T10:44:22Z</time></trkpt><trkpt lat="46.159261588561435" lon="13.002663528500607"><ele>198.25</ele><time>2026-04-04T10:44:23Z</time></trkpt><trkpt lat="46.159396381813806" lon="13.002721889363816"><ele>198.0</ele><time>2026-04-04T10:44:24Z</time></trkpt><trkpt lat="46.159531328949875" lon="13.002761039338685"><ele>198.0</ele><time>2026-04-04T10:44:25Z</time></trkpt><trkpt lat="46.15967236184438" lon="13.002797966270817"><ele>198.0</ele><time>2026-04-04T10:44:26Z</time></trkpt><trkpt lat="46.159814953072825" lon="13.002828884921367"><ele>198.0</ele><time>2026-04-04T10:44:27Z</time></trkpt><trkpt lat="46.159956879555104" lon="13.002874140791821"><ele>198.0</ele><time>2026-04-04T10:44:28Z</time></trkpt><trkpt lat="46.16010012944162" lon="13.002922128429613"><ele>199.5</ele><time>2026-04-04T10:44:29Z</time></trkpt><trkpt lat="46.16024593690413" lon="13.002962141317026"><ele>201.0</ele><time>2026-04-04T10:44:30Z</time></trkpt><trkpt lat="46.16037937461507" lon="13.002997978542815"><ele>202.5</ele><time>2026-04-04T10:44:31Z</time></trkpt><trkpt lat="46.16051366927505" lon="13.003033241993288"><ele>204.0</ele><time>2026-04-04T10:44:32Z</time></trkpt><trkpt lat="46.16064656178359" lon="13.003071873201325"><ele>204.5</ele><time>2026-04-04T10:44:33Z</time></trkpt><trkpt lat="46.16077828528544" lon="13.003116345821573"><ele>205.0</ele><time>2026-04-04T10:44:34Z</time></trkpt><trkpt lat="46.160909603836686" lon="13.003156891757499"><ele>205.5</ele><time>2026-04-04T10:44:35Z</time></trkpt><trkpt lat="46.1610436221639" lon="13.003196126621784"><ele>206.0</ele><time>2026-04-04T10:44:36Z</time></trkpt><trkpt lat="46.16117634559385" lon="13.003233898845343"><ele>206.0</ele><time>2026-04-04T10:44:37Z</time></trkpt><trkpt lat="46.161305494825655" lon="13.003273532353452"><ele>206.0</ele><time>2026-04-04T10:44:38Z</time></trkpt><trkpt lat="46.161429526645435" lon="13.003301913397138"><ele>206.0</ele><time>2026-04-04T10:44:39Z</time></trkpt><trkpt lat="46.16154164652401" lon="13.003335665198025"><ele>206.0</ele><time>2026-04-04T10:44:40Z</time></trkpt><trkpt lat="46.16164102723071" lon="13.003383805728463"><ele>205.4</ele><time>2026-04-04T10:44:41Z</time></trkpt><trkpt lat="46.16172923558902" lon="13.003437091145248"><ele>204.8</ele><time>2026-04-04T10:44:42Z</time></trkpt><trkpt lat="46.16180640402567" lon="13.003503020648164"><ele>204.20000000000002</ele><time>2026-04-04T10:44:43Z</time></trkpt><trkpt lat="46.16188213199896" lon="13.003563628246471"><ele>203.60000000000002</ele><time>2026-04-04T10:44:44Z</time></trkpt><trkpt lat="46.16195526656871" lon="13.003635693624808"><ele>203.0</ele><time>2026-04-04T10:44:45Z</time></trkpt><trkpt lat="46.16201498912612" lon="13.003731627915528"><ele>203.0</ele><time>2026-04-04T10:44:46Z</time></trkpt><trkpt lat="46.16205940769788" lon="13.00384164672675"><ele>203.0</ele><time>2026-04-04T10:44:47Z</time></trkpt><trkpt lat="46.16208382915188" lon="13.003963645827842"><ele>203.0</ele><time>2026-04-04T10:44:48Z</time></trkpt><trkpt lat="46.16211404187691" lon="13.004064258693678"><ele>203.0</ele><time>2026-04-04T10:44:49Z</time></trkpt><trkpt lat="46.162187022797156" lon="13.004160454940871"><ele>203.0</ele><time>2026-04-04T10:44:50Z</time></trkpt><trkpt lat="46.16227767260527" lon="13.004237336422609"><ele>202.75</ele><time>2026-04-04T10:44:51Z</time></trkpt><trkpt lat="46.16237053607818" lon="13.004332608670243"><ele>202.5</ele><time>2026-04-04T10:44:52Z</time></trkpt><trkpt lat="46.16245524615248" lon="13.00447885739529"><ele>202.25</ele><time>2026-04-04T10:44:53Z</time></trkpt><trkpt lat="46.16253466179449" lon="13.004654196223088"><ele>202.0</ele><time>2026-04-04T10:44:54Z</time></trkpt><trkpt lat="46.162612815381955" lon="13.004833151686482"><ele>201.66666666666666</ele><time>2026-04-04T10:44:55Z</time></trkpt><trkpt lat="46.16268693043754" lon="13.005032111474955"><ele>201.33333333333331</ele><time>2026-04-04T10:44:56Z</time></trkpt><trkpt lat="46.16276238678716" lon="13.00524551965423"><ele>201.0</ele><time>2026-04-04T10:44:57Z</time></trkpt><trkpt lat="46.162840637225614" lon="13.005454457769373"><ele>201.0</ele><time>2026-04-04T10:44:58Z</time></trkpt><trkpt lat="46.162910580478346" lon="13.005651140968505"><ele>201.0</ele><time>2026-04-04T10:44:59Z</time></trkpt><trkpt lat="46.162978657659984" lon="13.005836150291897"><ele>201.0</ele><time>2026-04-04T10:45:00Z</time></trkpt><trkpt lat="46.16304317986818" lon="13.006017820145683"><ele>201.0</ele><time>2026-04-04T10:45:01Z</time></trkpt><trkpt lat="46.16311196321409" lon="13.006208799217537"><ele>201.0</ele><time>2026-04-04T10:45:02Z</time></trkpt><trkpt lat="46.163184984646826" lon="13.006399333832245"><ele>201.0</ele><time>2026-04-04T10:45:03Z</time></trkpt><trkpt lat="46.163259708102956" lon="13.006588133404685"><ele>201.0</ele><time>2026-04-04T10:45:04Z</time></trkpt><trkpt lat="46.163318108383386" lon="13.006790818189181"><ele>200.66666666666669</ele><time>2026-04-04T10:45:05Z</time></trkpt><trkpt lat="46.16340958732498" lon="13.006967351326182"><ele>200.33333333333334</ele><time>2026-04-04T10:45:06Z</time></trkpt><trkpt lat="46.16349510868094" lon="13.007150426389183"><ele>200.0</ele><time>2026-04-04T10:45:07Z</time></trkpt><trkpt lat="46.16358916578122" lon="13.007325818970658"><ele>200.0</ele><time>2026-04-04T10:45:08Z</time></trkpt><trkpt lat="46.16368944681197" lon="13.00749392675821"><ele>200.0</ele><time>2026-04-04T10:45:09Z</time></trkpt><trkpt lat="46.16379658139759" lon="13.007653960838885"><ele>200.0</ele><time>2026-04-04T10:45:10Z</time></trkpt><trkpt lat="46.16390724216588" lon="13.007794004991597"><ele>200.0</ele><time>2026-04-04T10:45:11Z</time></trkpt><trkpt lat="46.16402010155348" lon="13.007914749814093"><ele>200.0</ele><time>2026-04-04T10:45:12Z</time></trkpt><trkpt lat="46.16414032650753" lon="13.008029035232642"><ele>200.0</ele><time>2026-04-04T10:45:13Z</time></trkpt><trkpt lat="46.164263658073125" lon="13.008139200513764"><ele>200.0</ele><time>2026-04-04T10:45:14Z</time></trkpt><trkpt lat="46.16439369727199" lon="13.008245702300442"><ele>199.33333333333334</ele><time>2026-04-04T10:45:15Z</time></trkpt><trkpt lat="46.164530324597344" lon="13.008352450682956"><ele>198.66666666666669</ele><time>2026-04-04T10:45:16Z</time></trkpt><trkpt lat="46.164669611196054" lon="13.008464449571706"><ele>198.0</ele><time>2026-04-04T10:45:17Z</time></trkpt><trkpt lat="46.16480803037493" lon="13.008575567417695"><ele>198.0</ele><time>2026-04-04T10:45:18Z</time></trkpt><trkpt lat="46.164946323999565" lon="13.008686169952611"><ele>198.0</ele><time>2026-04-04T10:45:19Z</time></trkpt><trkpt lat="46.16507976689699" lon="13.008794525849964"><ele>198.0</ele><time>2026-04-04T10:45:20Z</time></trkpt><trkpt lat="46.16521605891695" lon="13.008904909942316"><ele>198.0</ele><time>2026-04-04T10:45:21Z</time></trkpt><trkpt lat="46.16535327197116" lon="13.009018146285245"><ele>198.0</ele><time>2026-04-04T10:45:22Z</time></trkpt><trkpt lat="46.16549165346027" lon="13.009130473636498"><ele>198.0</ele><time>2026-04-04T10:45:23Z</time></trkpt><trkpt lat="46.16562815390905" lon="13.009240438321907"><ele>197.66666666666669</ele><time>2026-04-04T10:45:24Z</time></trkpt><trkpt lat="46.165766477548274" lon="13.009344568590619"><ele>197.33333333333334</ele><time>2026-04-04T10:45:25Z</time></trkpt><trkpt lat="46.16590449098857" lon="13.00945566697535"><ele>197.0</ele><time>2026-04-04T10:45:26Z</time></trkpt><trkpt lat="46.16603991129972" lon="13.009565977291157"><ele>197.0</ele><time>2026-04-04T10:45:27Z</time></trkpt><trkpt lat="46.16617764663459" lon="13.009674848326053"><ele>197.0</ele><time>2026-04-04T10:45:28Z</time></trkpt><trkpt lat="46.166315472633435" lon="13.009786449360297"><ele>197.0</ele><time>2026-04-04T10:45:29Z</time></trkpt><trkpt lat="46.16645596176801" lon="13.00990129244564"><ele>196.33333333333334</ele><time>2026-04-04T10:45:30Z</time></trkpt><trkpt lat="46.16660117928833" lon="13.010020849783311"><ele>195.66666666666669</ele><time>2026-04-04T10:45:31Z</time></trkpt><trkpt lat="46.16674744392425" lon="13.01013956503013"><ele>195.0</ele><time>2026-04-04T10:45:32Z</time></trkpt><trkpt lat="46.166891292980914" lon="13.010253014152868"><ele>195.0</ele><time>2026-04-04T10:45:33Z</time></trkpt><trkpt lat="46.167028749650186" lon="13.010359209863093"><ele>195.0</ele><time>2026-04-04T10:45:34Z</time></trkpt><trkpt lat="46.167168520725866" lon="13.01046768020143"><ele>195.0</ele><time>2026-04-04T10:45:35Z</time></trkpt><trkpt lat="46.16730693499427" lon="13.010577047987658"><ele>194.33333333333331</ele><time>2026-04-04T10:45:36Z</time></trkpt><trkpt lat="46.167445520828316" lon="13.01068686034308"><ele>193.66666666666666</ele><time>2026-04-04T10:45:37Z</time></trkpt><trkpt lat="46.16758016656088" lon="13.010794791538565"><ele>193.0</ele><time>2026-04-04T10:45:38Z</time></trkpt><trkpt lat="46.1677090390775" lon="13.010902243257869"><ele>193.0</ele><time>2026-04-04T10:45:39Z</time></trkpt><trkpt lat="46.1678419728321" lon="13.011016476052259"><ele>193.0</ele><time>2026-04-04T10:45:40Z</time></trkpt><trkpt lat="46.16799167920015" lon="13.011140087433352"><ele>193.0</ele><time>2026-04-04T10:45:41Z</time></trkpt><trkpt lat="46.16815208180192" lon="13.011267983854971"><ele>192.66666666666666</ele><time>2026-04-04T10:45:42Z</time></trkpt><trkpt lat="46.16831015135129" lon="13.011396568466136"><ele>192.33333333333331</ele><time>2026-04-04T10:45:43Z</time></trkpt><trkpt lat="46.16845556148576" lon="13.011518996549539"><ele>192.0</ele><time>2026-04-04T10:45:44Z</time></trkpt><trkpt lat="46.16859166382362" lon="13.011646217168524"><ele>192.33333333333331</ele><time>2026-04-04T10:45:45Z</time></trkpt><trkpt lat="46.16871460983897" lon="13.01178441389402"><ele>192.66666666666666</ele><time>2026-04-04T10:45:46Z</time></trkpt><trkpt lat="46.16883374526782" lon="13.011933133508046"><ele>193.0</ele><time>2026-04-04T10:45:47Z</time></trkpt><trkpt lat="46.168940433762124" lon="13.012090427037293"><ele>192.33333333333331</ele><time>2026-04-04T10:45:48Z</time></trkpt><trkpt lat="46.16903989587217" lon="13.012255481704079"><ele>191.66666666666666</ele><time>2026-04-04T10:45:49Z</time></trkpt><trkpt lat="46.16913798148846" lon="13.012418966186027"><ele>191.0</ele><time>2026-04-04T10:45:50.001Z</time></trkpt><trkpt lat="46.16921338938716" lon="13.012606217985336"><ele>191.0</ele><time>2026-04-04T10:45:51.001Z</time></trkpt><trkpt lat="46.16930863157364" lon="13.012799780337485"><ele>191.0</ele><time>2026-04-04T10:45:52.001Z</time></trkpt><trkpt lat="46.16940788510183" lon="13.013008537782497"><ele>191.0</ele><time>2026-04-04T10:45:53.001Z</time></trkpt><trkpt lat="46.16950484014579" lon="13.01321083257191"><ele>191.66666666666666</ele><time>2026-04-04T10:45:54.001Z</time></trkpt><trkpt lat="46.16960026189599" lon="13.013408934657301"><ele>192.33333333333331</ele><time>2026-04-04T10:45:55.001Z</time></trkpt><trkpt lat="46.169744429732305" lon="13.01357575755241"><ele>193.0</ele><time>2026-04-04T10:45:56.001Z</time></trkpt><trkpt lat="46.16983228525585" lon="13.013807383154742"><ele>192.66666666666666</ele><time>2026-04-04T10:45:57.001Z</time></trkpt><trkpt lat="46.169915896239566" lon="13.014037102247652"><ele>192.33333333333331</ele><time>2026-04-04T10:45:58.001Z</time></trkpt><trkpt lat="46.170016603792696" lon="13.01424814355653"><ele>192.0</ele><time>2026-04-04T10:45:59.001Z</time></trkpt><trkpt lat="46.17011913587344" lon="13.01445667500459"><ele>191.66666666666666</ele><time>2026-04-04T10:46:00.001Z</time></trkpt><trkpt lat="46.17021990290571" lon="13.014667846015948"><ele>191.33333333333331</ele><time>2026-04-04T10:46:01.001Z</time></trkpt><trkpt lat="46.17031829998281" lon="13.01487501804272"><ele>191.0</ele><time>2026-04-04T10:46:02.001Z</time></trkpt><trkpt lat="46.17041399440611" lon="13.015082533404367"><ele>190.66666666666666</ele><time>2026-04-04T10:46:03.001Z</time></trkpt><trkpt lat="46.17050854563905" lon="13.015280293620199"><ele>190.33333333333334</ele><time>2026-04-04T10:46:04.001Z</time></trkpt><trkpt lat="46.17060173313134" lon="13.015476427657484"><ele>190.0</ele><time>2026-04-04T10:46:05.001Z</time></trkpt><trkpt lat="46.17068569692304" lon="13.01568120741749"><ele>190.0</ele><time>2026-04-04T10:46:06.001Z</time></trkpt><trkpt lat="46.17076627569825" lon="13.015892096729948"><ele>190.0</ele><time>2026-04-04T10:46:07.001Z</time></trkpt><trkpt lat="46.17083985165717" lon="13.01610961832592"><ele>190.0</ele><time>2026-04-04T10:46:08.001Z</time></trkpt><trkpt lat="46.17091237044262" lon="13.016333641336228"><ele>190.0</ele><time>2026-04-04T10:46:09.001Z</time></trkpt><trkpt lat="46.170983452134735" lon="13.016565228422827"><ele>190.0</ele><time>2026-04-04T10:46:10.001Z</time></trkpt><trkpt lat="46.171050534851894" lon="13.01680381814229"><ele>190.0</ele><time>2026-04-04T10:46:11.001Z</time></trkpt><trkpt lat="46.17111593973707" lon="13.017053813302564"><ele>189.0</ele><time>2026-04-04T10:46:12.001Z</time></trkpt><trkpt lat="46.171181870331125" lon="13.017314098113605"><ele>188.0</ele><time>2026-04-04T10:46:13.001Z</time></trkpt><trkpt lat="46.17124407721227" lon="13.017584113454046"><ele>187.0</ele><time>2026-04-04T10:46:14.001Z</time></trkpt><trkpt lat="46.171311982732156" lon="13.017869474241522"><ele>187.0</ele><time>2026-04-04T10:46:15.001Z</time></trkpt><trkpt lat="46.17138335234127" lon="13.018168695726388"><ele>187.0</ele><time>2026-04-04T10:46:16.001Z</time></trkpt><trkpt lat="46.17145830977531" lon="13.018475919027212"><ele>187.0</ele><time>2026-04-04T10:46:17.001Z</time></trkpt><trkpt lat="46.17153226593233" lon="13.01877680639774"><ele>187.0</ele><time>2026-04-04T10:46:18.001Z</time></trkpt><trkpt lat="46.171583759179484" lon="13.01906129765356"><ele>187.0</ele><time>2026-04-04T10:46:19.001Z</time></trkpt><trkpt lat="46.17166340160508" lon="13.019334080805253"><ele>187.0</ele><time>2026-04-04T10:46:20.001Z</time></trkpt><trkpt lat="46.17172785905896" lon="13.019611470861905"><ele>186.66666666666669</ele><time>2026-04-04T10:46:21.001Z</time></trkpt><trkpt lat="46.17179637107157" lon="13.019891764389891"><ele>186.33333333333334</ele><time>2026-04-04T10:46:22.001Z</time></trkpt><trkpt lat="46.17186350519262" lon="13.020169254786932"><ele>186.0</ele><time>2026-04-04T10:46:23Z</time></trkpt><trkpt lat="46.1719296946367" lon="13.02044650386872"><ele>185.0</ele><time>2026-04-04T10:46:24Z</time></trkpt><trkpt lat="46.17199492315655" lon="13.020726982113295"><ele>184.0</ele><time>2026-04-04T10:46:25Z</time></trkpt><trkpt lat="46.1720596021853" lon="13.02100419965967"><ele>183.0</ele><time>2026-04-04T10:46:26Z</time></trkpt><trkpt lat="46.17212824050428" lon="13.02127847380368"><ele>181.33333333333334</ele><time>2026-04-04T10:46:27Z</time></trkpt><trkpt lat="46.172196295993274" lon="13.021551601916089"><ele>179.66666666666669</ele><time>2026-04-04T10:46:28Z</time></trkpt><trkpt lat="46.17226362497757" lon="13.021830776913827"><ele>178.0</ele><time>2026-04-04T10:46:29Z</time></trkpt><trkpt lat="46.172328794031884" lon="13.02210904296349"><ele>177.33333333333334</ele><time>2026-04-04T10:46:30Z</time></trkpt><trkpt lat="46.17239536561966" lon="13.022384734922364"><ele>176.66666666666666</ele><time>2026-04-04T10:46:31Z</time></trkpt><trkpt lat="46.17246111141218" lon="13.02266479647684"><ele>176.0</ele><time>2026-04-04T10:46:32Z</time></trkpt><trkpt lat="46.17252793698705" lon="13.022942338331157"><ele>175.66666666666666</ele><time>2026-04-04T10:46:33Z</time></trkpt><trkpt lat="46.1725966357259" lon="13.023220808204023"><ele>175.33333333333334</ele><time>2026-04-04T10:46:34Z</time></trkpt><trkpt lat="46.17265183878073" lon="13.023508315455542"><ele>175.0</ele><time>2026-04-04T10:46:35Z</time></trkpt><trkpt lat="46.17271877387566" lon="13.023788872495834"><ele>175.0</ele><time>2026-04-04T10:46:36Z</time></trkpt><trkpt lat="46.172798090030795" lon="13.024056779527161"><ele>175.0</ele><time>2026-04-04T10:46:37Z</time></trkpt><trkpt lat="46.17286418398754" lon="13.024326068047838"><ele>175.0</ele><time>2026-04-04T10:46:38Z</time></trkpt><trkpt lat="46.17291299604537" lon="13.024603591986477"><ele>174.66666666666669</ele><time>2026-04-04T10:46:39Z</time></trkpt><trkpt lat="46.172976070288364" lon="13.024868201244631"><ele>174.33333333333334</ele><time>2026-04-04T10:46:40Z</time></trkpt><trkpt lat="46.17305692990878" lon="13.0251341478865"><ele>174.0</ele><time>2026-04-04T10:46:41Z</time></trkpt><trkpt lat="46.17310572939721" lon="13.025410738307444"><ele>173.66666666666666</ele><time>2026-04-04T10:46:42Z</time></trkpt><trkpt lat="46.173168030947565" lon="13.02567119372454"><ele>173.33333333333331</ele><time>2026-04-04T10:46:43Z</time></trkpt><trkpt lat="46.173244506838465" lon="13.025928344151678"><ele>173.0</ele><time>2026-04-04T10:46:44Z</time></trkpt><trkpt lat="46.17330289951424" lon="13.026172906463136"><ele>174.0</ele><time>2026-04-04T10:46:45Z</time></trkpt><trkpt lat="46.17335661753181" lon="13.02640305429393"><ele>175.0</ele><time>2026-04-04T10:46:46Z</time></trkpt><trkpt lat="46.17340827458295" lon="13.026623687410302"><ele>176.0</ele><time>2026-04-04T10:46:47Z</time></trkpt><trkpt lat="46.17346289170947" lon="13.026845066096655"><ele>176.0</ele><time>2026-04-04T10:46:48Z</time></trkpt><trkpt lat="46.173515928055195" lon="13.027064840281945"><ele>176.0</ele><time>2026-04-04T10:46:49Z</time></trkpt><trkpt lat="46.17356606477187" lon="13.027279706185952"><ele>176.0</ele><time>2026-04-04T10:46:50Z</time></trkpt><trkpt lat="46.173615395011375" lon="13.02753759974963"><ele>175.66666666666666</ele><time>2026-04-04T10:46:51Z</time></trkpt><trkpt lat="46.17367594635116" lon="13.027790548295357"><ele>175.33333333333334</ele><time>2026-04-04T10:46:52Z</time></trkpt><trkpt lat="46.17374900695936" lon="13.028026620633463"><ele>175.0</ele><time>2026-04-04T10:46:53Z</time></trkpt><trkpt lat="46.17379549340957" lon="13.028289947045263"><ele>175.0</ele><time>2026-04-04T10:46:54Z</time></trkpt><trkpt lat="46.17385826993713" lon="13.028552191190686"><ele>175.0</ele><time>2026-04-04T10:46:55Z</time></trkpt><trkpt lat="46.17392185300934" lon="13.028817571664645"><ele>175.0</ele><time>2026-04-04T10:46:56Z</time></trkpt><trkpt lat="46.17400350635737" lon="13.029084199416431"><ele>175.33333333333334</ele><time>2026-04-04T10:46:57Z</time></trkpt><trkpt lat="46.174054472479746" lon="13.02936825200578"><ele>175.66666666666666</ele><time>2026-04-04T10:46:58Z</time></trkpt><trkpt lat="46.17413654237529" lon="13.02963804727834"><ele>176.0</ele><time>2026-04-04T10:46:59Z</time></trkpt><trkpt lat="46.17420398847312" lon="13.029920192877455"><ele>175.66666666666666</ele><time>2026-04-04T10:47:00Z</time></trkpt><trkpt lat="46.17427021716522" lon="13.030203870862051"><ele>175.33333333333334</ele><time>2026-04-04T10:47:01Z</time></trkpt><trkpt lat="46.17433832896804" lon="13.030489498709388"><ele>175.0</ele><time>2026-04-04T10:47:02Z</time></trkpt><trkpt lat="46.17440621660672" lon="13.03077714775396"><ele>175.0</ele><time>2026-04-04T10:47:03Z</time></trkpt><trkpt lat="46.17447504436479" lon="13.031063972104196"><ele>175.0</ele><time>2026-04-04T10:47:04Z</time></trkpt><trkpt lat="46.174543678179305" lon="13.031350525677711"><ele>175.0</ele><time>2026-04-04T10:47:05Z</time></trkpt><trkpt lat="46.17460436173455" lon="13.031667496813625"><ele>176.0</ele><time>2026-04-04T10:47:06Z</time></trkpt><trkpt lat="46.174695435531845" lon="13.03198950444686"><ele>177.0</ele><time>2026-04-04T10:47:07Z</time></trkpt><trkpt lat="46.17477666999095" lon="13.032320482743227"><ele>178.0</ele><time>2026-04-04T10:47:08Z</time></trkpt><trkpt lat="46.174859825241604" lon="13.032663486465138"><ele>179.0</ele><time>2026-04-04T10:47:09Z</time></trkpt><trkpt lat="46.17493954419326" lon="13.032992924717878"><ele>179.0</ele><time>2026-04-04T10:47:10Z</time></trkpt><trkpt lat="46.174998128002954" lon="13.033310319307523"><ele>179.0</ele><time>2026-04-04T10:47:11Z</time></trkpt><trkpt lat="46.175072853928214" lon="13.033621687587145"><ele>179.0</ele><time>2026-04-04T10:47:12Z</time></trkpt><trkpt lat="46.17514800230808" lon="13.03393503138366"><ele>179.0</ele><time>2026-04-04T10:47:13Z</time></trkpt><trkpt lat="46.17522314112805" lon="13.03424848172442"><ele>177.5</ele><time>2026-04-04T10:47:14Z</time></trkpt><trkpt lat="46.17529970944609" lon="13.034567895144123"><ele>176.0</ele><time>2026-04-04T10:47:15Z</time></trkpt><trkpt lat="46.17537515787703" lon="13.03488459795168"><ele>176.66666666666666</ele><time>2026-04-04T10:47:16Z</time></trkpt><trkpt lat="46.17545015268973" lon="13.035197895223794"><ele>177.33333333333334</ele><time>2026-04-04T10:47:17Z</time></trkpt><trkpt lat="46.175519697178146" lon="13.035487603838563"><ele>178.0</ele><time>2026-04-04T10:47:18Z</time></trkpt><trkpt lat="46.1755897655944" lon="13.035779494382405"><ele>177.33333333333334</ele><time>2026-04-04T10:47:19Z</time></trkpt><trkpt lat="46.17566042454134" lon="13.036073846248138"><ele>176.66666666666666</ele><time>2026-04-04T10:47:20Z</time></trkpt><trkpt lat="46.175731929133796" lon="13.036371720247304"><ele>176.0</ele><time>2026-04-04T10:47:21Z</time></trkpt><trkpt lat="46.17580270887985" lon="13.036668183344553"><ele>178.0</ele><time>2026-04-04T10:47:22Z</time></trkpt><trkpt lat="46.17587310385298" lon="13.036962641708026"><ele>180.0</ele><time>2026-04-04T10:47:23Z</time></trkpt><trkpt lat="46.17594195014917" lon="13.03725057447723"><ele>182.0</ele><time>2026-04-04T10:47:24Z</time></trkpt><trkpt lat="46.17600563084548" lon="13.037521670145694"><ele>183.0</ele><time>2026-04-04T10:47:25Z</time></trkpt><trkpt lat="46.17606549177911" lon="13.03777460525132"><ele>184.0</ele><time>2026-04-04T10:47:26Z</time></trkpt><trkpt lat="46.17612694029092" lon="13.038014059632728"><ele>185.0</ele><time>2026-04-04T10:47:27Z</time></trkpt><trkpt lat="46.176201224895294" lon="13.038232083050195"><ele>184.75</ele><time>2026-04-04T10:47:28Z</time></trkpt><trkpt lat="46.17626853286658" lon="13.03843969845929"><ele>184.5</ele><time>2026-04-04T10:47:29Z</time></trkpt><trkpt lat="46.17633742309277" lon="13.038624176949753"><ele>184.25</ele><time>2026-04-04T10:47:30Z</time></trkpt><trkpt lat="46.1764088353363" lon="13.038789574102255"><ele>184.0</ele><time>2026-04-04T10:47:31Z</time></trkpt><trkpt lat="46.17647592235956" lon="13.038918650252063"><ele>184.16666666666669</ele><time>2026-04-04T10:47:32Z</time></trkpt><trkpt lat="46.17653064719644" lon="13.039023438622563"><ele>184.33333333333334</ele><time>2026-04-04T10:47:33Z</time></trkpt><trkpt lat="46.17656424143248" lon="13.039106015577959"><ele>184.5</ele><time>2026-04-04T10:47:34Z</time></trkpt><trkpt lat="46.1766239607603" lon="13.03922549000928"><ele>184.66666666666666</ele><time>2026-04-04T10:47:36Z</time></trkpt><trkpt lat="46.176684879947715" lon="13.039338351142016"><ele>184.83333333333331</ele><time>2026-04-04T10:47:38Z</time></trkpt><trkpt lat="46.176740513294995" lon="13.03943650387493"><ele>185.0</ele><time>2026-04-04T10:47:40Z</time></trkpt><trkpt lat="46.17676698110159" lon="13.039537681901539"><ele>185.0</ele><time>2026-04-04T10:47:43Z</time></trkpt><trkpt lat="46.17668347608244" lon="13.039625813402536"><ele>185.0</ele><time>2026-04-04T10:47:48Z</time></trkpt><trkpt lat="46.176647948459916" lon="13.039718119425963"><ele>185.0</ele><time>2026-04-04T10:47:54Z</time></trkpt><trkpt lat="46.17668401623172" lon="13.039832135772844"><ele>185.0</ele><time>2026-04-04T10:47:58.001Z</time></trkpt><trkpt lat="46.17674339054167" lon="13.039926568622947"><ele>185.0</ele><time>2026-04-04T10:48:01.001Z</time></trkpt><trkpt lat="46.176805835329354" lon="13.040015463970532"><ele>185.0</ele><time>2026-04-04T10:48:04.001Z</time></trkpt><trkpt lat="46.17685635331983" lon="13.040077869269092"><ele>181.0</ele><time>2026-04-04T10:48:06.001Z</time></trkpt><trkpt lat="46.17693023114144" lon="13.04007859231688"><ele>181.0</ele><time>2026-04-04T10:48:10.001Z</time></trkpt><trkpt lat="46.17699738103367" lon="13.040023330597931"><ele>181.0</ele><time>2026-04-04T10:48:14.001Z</time></trkpt><trkpt lat="46.17698093361622" lon="13.039919794141067"><ele>185.0</ele><time>2026-04-04T10:49:36.001Z</time></trkpt><trkpt lat="46.17691917988408" lon="13.039943770465987"><ele>185.0</ele><time>2026-04-04T10:50:42.001Z</time></trkpt><trkpt lat="46.17685431320032" lon="13.039913853832783"><ele>185.0</ele><time>2026-04-04T10:50:54Z</time></trkpt></trkseg></trk></gpx>